<?xml version="1.0" encoding="UTF-8" standalone="no" ?>
<gpx xmlns="http://www.topografix.com/GPX/1/1" xmlns:xsi="http://www.w3.org/2001/XMLSchema-instance" xsi:schemaLocation="http://www.topografix.com/GPX/1/1 http://www.topografix.com/GPX/1/1/gpx.xsd" version="1.1" creator="VisuGPX - https://www.visugpx.com">
  <metadata>
    <name>Charmant Som</name>
  </metadata>
  <trk>
    <name><![CDATA[Charmant Som_1]]></name>
    <trkseg>
      <trkpt lat="45.21762" lon="5.74894">
        <ele>346.8</ele>
        <time>2021-11-21T10:20:43Z</time>
      </trkpt>
      <trkpt lat="45.21772" lon="5.74907">
        <ele>347.8</ele>
        <time>2021-11-21T10:20:45Z</time>
      </trkpt>
      <trkpt lat="45.21777" lon="5.74914">
        <ele>347.8</ele>
        <time>2021-11-21T10:20:46Z</time>
      </trkpt>
      <trkpt lat="45.21782" lon="5.74922">
        <ele>348.4</ele>
        <time>2021-11-21T10:20:47Z</time>
      </trkpt>
      <trkpt lat="45.21785" lon="5.7493">
        <ele>348.8</ele>
        <time>2021-11-21T10:20:48Z</time>
      </trkpt>
      <trkpt lat="45.21788" lon="5.74938">
        <ele>349.4</ele>
        <time>2021-11-21T10:20:49Z</time>
      </trkpt>
      <trkpt lat="45.2179" lon="5.74947">
        <ele>350</ele>
        <time>2021-11-21T10:20:50Z</time>
      </trkpt>
      <trkpt lat="45.21792" lon="5.74957">
        <ele>350</ele>
        <time>2021-11-21T10:20:51Z</time>
      </trkpt>
      <trkpt lat="45.21793" lon="5.74966">
        <ele>349.6</ele>
        <time>2021-11-21T10:20:52Z</time>
      </trkpt>
      <trkpt lat="45.21794" lon="5.74974">
        <ele>350.2</ele>
        <time>2021-11-21T10:20:53Z</time>
      </trkpt>
      <trkpt lat="45.21794" lon="5.7498">
        <ele>350.4</ele>
        <time>2021-11-21T10:20:54Z</time>
      </trkpt>
      <trkpt lat="45.21794" lon="5.74992">
        <ele>352.2</ele>
        <time>2021-11-21T10:20:56Z</time>
      </trkpt>
      <trkpt lat="45.21794" lon="5.74996">
        <ele>353</ele>
        <time>2021-11-21T10:20:57Z</time>
      </trkpt>
      <trkpt lat="45.21794" lon="5.75">
        <ele>353.6</ele>
        <time>2021-11-21T10:20:59Z</time>
      </trkpt>
      <trkpt lat="45.2179" lon="5.75014">
        <ele>358.4</ele>
        <time>2021-11-21T10:21:07Z</time>
      </trkpt>
      <trkpt lat="45.2179" lon="5.75028">
        <ele>361.2</ele>
        <time>2021-11-21T10:21:23Z</time>
      </trkpt>
      <trkpt lat="45.2179" lon="5.75033">
        <ele>360.8</ele>
        <time>2021-11-21T10:21:24Z</time>
      </trkpt>
      <trkpt lat="45.2179" lon="5.75038">
        <ele>360.8</ele>
        <time>2021-11-21T10:21:25Z</time>
      </trkpt>
      <trkpt lat="45.2179" lon="5.75045">
        <ele>360.2</ele>
        <time>2021-11-21T10:21:26Z</time>
      </trkpt>
      <trkpt lat="45.2179" lon="5.75053">
        <ele>360.6</ele>
        <time>2021-11-21T10:21:27Z</time>
      </trkpt>
      <trkpt lat="45.21789" lon="5.75061">
        <ele>360.8</ele>
        <time>2021-11-21T10:21:28Z</time>
      </trkpt>
      <trkpt lat="45.21789" lon="5.75069">
        <ele>361.8</ele>
        <time>2021-11-21T10:21:29Z</time>
      </trkpt>
      <trkpt lat="45.21789" lon="5.75078">
        <ele>362</ele>
        <time>2021-11-21T10:21:30Z</time>
      </trkpt>
      <trkpt lat="45.21789" lon="5.75087">
        <ele>361.8</ele>
        <time>2021-11-21T10:21:31Z</time>
      </trkpt>
      <trkpt lat="45.21789" lon="5.75098">
        <ele>361.6</ele>
        <time>2021-11-21T10:21:32Z</time>
      </trkpt>
      <trkpt lat="45.21788" lon="5.75108">
        <ele>361.6</ele>
        <time>2021-11-21T10:21:33Z</time>
      </trkpt>
      <trkpt lat="45.21788" lon="5.75119">
        <ele>361.6</ele>
        <time>2021-11-21T10:21:34Z</time>
      </trkpt>
      <trkpt lat="45.21787" lon="5.75129">
        <ele>361.8</ele>
        <time>2021-11-21T10:21:35Z</time>
      </trkpt>
      <trkpt lat="45.21787" lon="5.75138">
        <ele>362</ele>
        <time>2021-11-21T10:21:36Z</time>
      </trkpt>
      <trkpt lat="45.21788" lon="5.75148">
        <ele>361.4</ele>
        <time>2021-11-21T10:21:37Z</time>
      </trkpt>
      <trkpt lat="45.21788" lon="5.75157">
        <ele>361.8</ele>
        <time>2021-11-21T10:21:38Z</time>
      </trkpt>
      <trkpt lat="45.21793" lon="5.75174">
        <ele>361.4</ele>
        <time>2021-11-21T10:21:40Z</time>
      </trkpt>
      <trkpt lat="45.21796" lon="5.75182">
        <ele>361.4</ele>
        <time>2021-11-21T10:21:41Z</time>
      </trkpt>
      <trkpt lat="45.218" lon="5.75188">
        <ele>360</ele>
        <time>2021-11-21T10:21:42Z</time>
      </trkpt>
      <trkpt lat="45.21805" lon="5.75194">
        <ele>360.2</ele>
        <time>2021-11-21T10:21:43Z</time>
      </trkpt>
      <trkpt lat="45.21818" lon="5.75198">
        <ele>360.6</ele>
        <time>2021-11-21T10:21:45Z</time>
      </trkpt>
      <trkpt lat="45.21832" lon="5.75199">
        <ele>362.2</ele>
        <time>2021-11-21T10:21:47Z</time>
      </trkpt>
      <trkpt lat="45.21846" lon="5.75198">
        <ele>362.8</ele>
        <time>2021-11-21T10:21:49Z</time>
      </trkpt>
      <trkpt lat="45.2186" lon="5.752">
        <ele>362.4</ele>
        <time>2021-11-21T10:21:51Z</time>
      </trkpt>
      <trkpt lat="45.21874" lon="5.75199">
        <ele>363.2</ele>
        <time>2021-11-21T10:21:53Z</time>
      </trkpt>
      <trkpt lat="45.21889" lon="5.75199">
        <ele>364</ele>
        <time>2021-11-21T10:21:55Z</time>
      </trkpt>
      <trkpt lat="45.21902" lon="5.75205">
        <ele>364.4</ele>
        <time>2021-11-21T10:21:57Z</time>
      </trkpt>
      <trkpt lat="45.21914" lon="5.75217">
        <ele>365</ele>
        <time>2021-11-21T10:21:59Z</time>
      </trkpt>
      <trkpt lat="45.21926" lon="5.75226">
        <ele>366</ele>
        <time>2021-11-21T10:22:01Z</time>
      </trkpt>
      <trkpt lat="45.21939" lon="5.75232">
        <ele>367.6</ele>
        <time>2021-11-21T10:22:03Z</time>
      </trkpt>
      <trkpt lat="45.21949" lon="5.75242">
        <ele>367</ele>
        <time>2021-11-21T10:22:05Z</time>
      </trkpt>
      <trkpt lat="45.21949" lon="5.75262">
        <ele>367.8</ele>
        <time>2021-11-21T10:22:07Z</time>
      </trkpt>
      <trkpt lat="45.21939" lon="5.75277">
        <ele>369.6</ele>
        <time>2021-11-21T10:22:09Z</time>
      </trkpt>
      <trkpt lat="45.21933" lon="5.75282">
        <ele>370</ele>
        <time>2021-11-21T10:22:10Z</time>
      </trkpt>
      <trkpt lat="45.21928" lon="5.75286">
        <ele>369.8</ele>
        <time>2021-11-21T10:22:11Z</time>
      </trkpt>
      <trkpt lat="45.21922" lon="5.7529">
        <ele>370.8</ele>
        <time>2021-11-21T10:22:12Z</time>
      </trkpt>
      <trkpt lat="45.21917" lon="5.75295">
        <ele>371</ele>
        <time>2021-11-21T10:22:13Z</time>
      </trkpt>
      <trkpt lat="45.21912" lon="5.753">
        <ele>371.2</ele>
        <time>2021-11-21T10:22:14Z</time>
      </trkpt>
      <trkpt lat="45.21908" lon="5.75305">
        <ele>371.4</ele>
        <time>2021-11-21T10:22:15Z</time>
      </trkpt>
      <trkpt lat="45.21904" lon="5.7531">
        <ele>372.2</ele>
        <time>2021-11-21T10:22:16Z</time>
      </trkpt>
      <trkpt lat="45.21898" lon="5.75323">
        <ele>372</ele>
        <time>2021-11-21T10:22:19Z</time>
      </trkpt>
      <trkpt lat="45.21898" lon="5.75326">
        <ele>372.4</ele>
        <time>2021-11-21T10:22:23Z</time>
      </trkpt>
      <trkpt lat="45.21899" lon="5.75329">
        <ele>370.4</ele>
        <time>2021-11-21T10:22:34Z</time>
      </trkpt>
      <trkpt lat="45.21899" lon="5.75332">
        <ele>370.2</ele>
        <time>2021-11-21T10:22:35Z</time>
      </trkpt>
      <trkpt lat="45.219" lon="5.75336">
        <ele>369.6</ele>
        <time>2021-11-21T10:22:36Z</time>
      </trkpt>
      <trkpt lat="45.21902" lon="5.75341">
        <ele>369.6</ele>
        <time>2021-11-21T10:22:37Z</time>
      </trkpt>
      <trkpt lat="45.21905" lon="5.75345">
        <ele>369.6</ele>
        <time>2021-11-21T10:22:38Z</time>
      </trkpt>
      <trkpt lat="45.21908" lon="5.75349">
        <ele>369.8</ele>
        <time>2021-11-21T10:22:39Z</time>
      </trkpt>
      <trkpt lat="45.21918" lon="5.75351">
        <ele>369.8</ele>
        <time>2021-11-21T10:22:41Z</time>
      </trkpt>
      <trkpt lat="45.21927" lon="5.75351">
        <ele>369.8</ele>
        <time>2021-11-21T10:22:43Z</time>
      </trkpt>
      <trkpt lat="45.2194" lon="5.75353">
        <ele>369.4</ele>
        <time>2021-11-21T10:22:46Z</time>
      </trkpt>
      <trkpt lat="45.21948" lon="5.75364">
        <ele>369.4</ele>
        <time>2021-11-21T10:22:49Z</time>
      </trkpt>
      <trkpt lat="45.21953" lon="5.75378">
        <ele>370.2</ele>
        <time>2021-11-21T10:22:52Z</time>
      </trkpt>
      <trkpt lat="45.21956" lon="5.75393">
        <ele>371.4</ele>
        <time>2021-11-21T10:22:55Z</time>
      </trkpt>
      <trkpt lat="45.21962" lon="5.75405">
        <ele>373.2</ele>
        <time>2021-11-21T10:22:58Z</time>
      </trkpt>
      <trkpt lat="45.21965" lon="5.75407">
        <ele>373.6</ele>
        <time>2021-11-21T10:22:59Z</time>
      </trkpt>
      <trkpt lat="45.21975" lon="5.75399">
        <ele>375.6</ele>
        <time>2021-11-21T10:23:02Z</time>
      </trkpt>
      <trkpt lat="45.21977" lon="5.75395">
        <ele>376.2</ele>
        <time>2021-11-21T10:23:03Z</time>
      </trkpt>
      <trkpt lat="45.21978" lon="5.7539">
        <ele>377</ele>
        <time>2021-11-21T10:23:04Z</time>
      </trkpt>
      <trkpt lat="45.2198" lon="5.75385">
        <ele>377.6</ele>
        <time>2021-11-21T10:23:05Z</time>
      </trkpt>
      <trkpt lat="45.21981" lon="5.7538">
        <ele>378</ele>
        <time>2021-11-21T10:23:06Z</time>
      </trkpt>
      <trkpt lat="45.21988" lon="5.75368">
        <ele>379.2</ele>
        <time>2021-11-21T10:23:09Z</time>
      </trkpt>
      <trkpt lat="45.21995" lon="5.75365">
        <ele>380.8</ele>
        <time>2021-11-21T10:23:11Z</time>
      </trkpt>
      <trkpt lat="45.21999" lon="5.75365">
        <ele>381.2</ele>
        <time>2021-11-21T10:23:12Z</time>
      </trkpt>
      <trkpt lat="45.22007" lon="5.75365">
        <ele>382.2</ele>
        <time>2021-11-21T10:23:14Z</time>
      </trkpt>
      <trkpt lat="45.22014" lon="5.75366">
        <ele>383.2</ele>
        <time>2021-11-21T10:23:16Z</time>
      </trkpt>
      <trkpt lat="45.22018" lon="5.75366">
        <ele>383.6</ele>
        <time>2021-11-21T10:23:17Z</time>
      </trkpt>
      <trkpt lat="45.22022" lon="5.75367">
        <ele>384.4</ele>
        <time>2021-11-21T10:23:18Z</time>
      </trkpt>
      <trkpt lat="45.22026" lon="5.75368">
        <ele>385</ele>
        <time>2021-11-21T10:23:19Z</time>
      </trkpt>
      <trkpt lat="45.22031" lon="5.75368">
        <ele>385.4</ele>
        <time>2021-11-21T10:23:20Z</time>
      </trkpt>
      <trkpt lat="45.22035" lon="5.75369">
        <ele>386</ele>
        <time>2021-11-21T10:23:21Z</time>
      </trkpt>
      <trkpt lat="45.22039" lon="5.75369">
        <ele>386.6</ele>
        <time>2021-11-21T10:23:22Z</time>
      </trkpt>
      <trkpt lat="45.22044" lon="5.75369">
        <ele>387</ele>
        <time>2021-11-21T10:23:23Z</time>
      </trkpt>
      <trkpt lat="45.22048" lon="5.75369">
        <ele>387.6</ele>
        <time>2021-11-21T10:23:24Z</time>
      </trkpt>
      <trkpt lat="45.22052" lon="5.75368">
        <ele>388.2</ele>
        <time>2021-11-21T10:23:25Z</time>
      </trkpt>
      <trkpt lat="45.22056" lon="5.75367">
        <ele>389</ele>
        <time>2021-11-21T10:23:26Z</time>
      </trkpt>
      <trkpt lat="45.2206" lon="5.75366">
        <ele>389.6</ele>
        <time>2021-11-21T10:23:27Z</time>
      </trkpt>
      <trkpt lat="45.22065" lon="5.75366">
        <ele>390.2</ele>
        <time>2021-11-21T10:23:28Z</time>
      </trkpt>
      <trkpt lat="45.22069" lon="5.75365">
        <ele>391</ele>
        <time>2021-11-21T10:23:29Z</time>
      </trkpt>
      <trkpt lat="45.22073" lon="5.75364">
        <ele>391.4</ele>
        <time>2021-11-21T10:23:30Z</time>
      </trkpt>
      <trkpt lat="45.22077" lon="5.75363">
        <ele>391.8</ele>
        <time>2021-11-21T10:23:31Z</time>
      </trkpt>
      <trkpt lat="45.22086" lon="5.75362">
        <ele>392.8</ele>
        <time>2021-11-21T10:23:33Z</time>
      </trkpt>
      <trkpt lat="45.22098" lon="5.75357">
        <ele>394.4</ele>
        <time>2021-11-21T10:23:36Z</time>
      </trkpt>
      <trkpt lat="45.22111" lon="5.75356">
        <ele>396</ele>
        <time>2021-11-21T10:23:39Z</time>
      </trkpt>
      <trkpt lat="45.2212" lon="5.75358">
        <ele>397.2</ele>
        <time>2021-11-21T10:23:41Z</time>
      </trkpt>
      <trkpt lat="45.22133" lon="5.75361">
        <ele>398.6</ele>
        <time>2021-11-21T10:23:44Z</time>
      </trkpt>
      <trkpt lat="45.22137" lon="5.75361">
        <ele>399</ele>
        <time>2021-11-21T10:23:45Z</time>
      </trkpt>
      <trkpt lat="45.22141" lon="5.7536">
        <ele>399.6</ele>
        <time>2021-11-21T10:23:46Z</time>
      </trkpt>
      <trkpt lat="45.22145" lon="5.75357">
        <ele>400.2</ele>
        <time>2021-11-21T10:23:47Z</time>
      </trkpt>
      <trkpt lat="45.22148" lon="5.75354">
        <ele>400.6</ele>
        <time>2021-11-21T10:23:48Z</time>
      </trkpt>
      <trkpt lat="45.22151" lon="5.7535">
        <ele>401.4</ele>
        <time>2021-11-21T10:23:49Z</time>
      </trkpt>
      <trkpt lat="45.22154" lon="5.75346">
        <ele>402</ele>
        <time>2021-11-21T10:23:50Z</time>
      </trkpt>
      <trkpt lat="45.22156" lon="5.75342">
        <ele>402.4</ele>
        <time>2021-11-21T10:23:51Z</time>
      </trkpt>
      <trkpt lat="45.22161" lon="5.75335">
        <ele>403.6</ele>
        <time>2021-11-21T10:23:53Z</time>
      </trkpt>
      <trkpt lat="45.22164" lon="5.75332">
        <ele>404</ele>
        <time>2021-11-21T10:23:54Z</time>
      </trkpt>
      <trkpt lat="45.22173" lon="5.75331">
        <ele>404.8</ele>
        <time>2021-11-21T10:23:56Z</time>
      </trkpt>
      <trkpt lat="45.22177" lon="5.75331">
        <ele>405.4</ele>
        <time>2021-11-21T10:23:57Z</time>
      </trkpt>
      <trkpt lat="45.22181" lon="5.7533">
        <ele>405.6</ele>
        <time>2021-11-21T10:23:58Z</time>
      </trkpt>
      <trkpt lat="45.22185" lon="5.75329">
        <ele>406.2</ele>
        <time>2021-11-21T10:23:59Z</time>
      </trkpt>
      <trkpt lat="45.22189" lon="5.75328">
        <ele>406</ele>
        <time>2021-11-21T10:24:00Z</time>
      </trkpt>
      <trkpt lat="45.22193" lon="5.75326">
        <ele>406.6</ele>
        <time>2021-11-21T10:24:01Z</time>
      </trkpt>
      <trkpt lat="45.22197" lon="5.75325">
        <ele>407</ele>
        <time>2021-11-21T10:24:02Z</time>
      </trkpt>
      <trkpt lat="45.22201" lon="5.75324">
        <ele>408</ele>
        <time>2021-11-21T10:24:03Z</time>
      </trkpt>
      <trkpt lat="45.22204" lon="5.75323">
        <ele>408.4</ele>
        <time>2021-11-21T10:24:04Z</time>
      </trkpt>
      <trkpt lat="45.22208" lon="5.75321">
        <ele>409.2</ele>
        <time>2021-11-21T10:24:05Z</time>
      </trkpt>
      <trkpt lat="45.22212" lon="5.7532">
        <ele>410.2</ele>
        <time>2021-11-21T10:24:06Z</time>
      </trkpt>
      <trkpt lat="45.22216" lon="5.75319">
        <ele>410.8</ele>
        <time>2021-11-21T10:24:07Z</time>
      </trkpt>
      <trkpt lat="45.22223" lon="5.75317">
        <ele>412.4</ele>
        <time>2021-11-21T10:24:09Z</time>
      </trkpt>
      <trkpt lat="45.22226" lon="5.75316">
        <ele>413</ele>
        <time>2021-11-21T10:24:10Z</time>
      </trkpt>
      <trkpt lat="45.2223" lon="5.75314">
        <ele>413.2</ele>
        <time>2021-11-21T10:24:11Z</time>
      </trkpt>
      <trkpt lat="45.22233" lon="5.75313">
        <ele>414</ele>
        <time>2021-11-21T10:24:12Z</time>
      </trkpt>
      <trkpt lat="45.22236" lon="5.7531">
        <ele>414.6</ele>
        <time>2021-11-21T10:24:13Z</time>
      </trkpt>
      <trkpt lat="45.2224" lon="5.75308">
        <ele>415.4</ele>
        <time>2021-11-21T10:24:14Z</time>
      </trkpt>
      <trkpt lat="45.22243" lon="5.75305">
        <ele>416.2</ele>
        <time>2021-11-21T10:24:15Z</time>
      </trkpt>
      <trkpt lat="45.22246" lon="5.75302">
        <ele>416.8</ele>
        <time>2021-11-21T10:24:16Z</time>
      </trkpt>
      <trkpt lat="45.22249" lon="5.75299">
        <ele>417.2</ele>
        <time>2021-11-21T10:24:17Z</time>
      </trkpt>
      <trkpt lat="45.22252" lon="5.75296">
        <ele>418</ele>
        <time>2021-11-21T10:24:18Z</time>
      </trkpt>
      <trkpt lat="45.22256" lon="5.75294">
        <ele>418.6</ele>
        <time>2021-11-21T10:24:19Z</time>
      </trkpt>
      <trkpt lat="45.22259" lon="5.75292">
        <ele>419.4</ele>
        <time>2021-11-21T10:24:20Z</time>
      </trkpt>
      <trkpt lat="45.22262" lon="5.75289">
        <ele>420</ele>
        <time>2021-11-21T10:24:21Z</time>
      </trkpt>
      <trkpt lat="45.22264" lon="5.75285">
        <ele>420.6</ele>
        <time>2021-11-21T10:24:22Z</time>
      </trkpt>
      <trkpt lat="45.22267" lon="5.75283">
        <ele>421.2</ele>
        <time>2021-11-21T10:24:23Z</time>
      </trkpt>
      <trkpt lat="45.22271" lon="5.75281">
        <ele>421.6</ele>
        <time>2021-11-21T10:24:24Z</time>
      </trkpt>
      <trkpt lat="45.22275" lon="5.7528">
        <ele>422.4</ele>
        <time>2021-11-21T10:24:25Z</time>
      </trkpt>
      <trkpt lat="45.22278" lon="5.75278">
        <ele>422.8</ele>
        <time>2021-11-21T10:24:26Z</time>
      </trkpt>
      <trkpt lat="45.22282" lon="5.75277">
        <ele>423.4</ele>
        <time>2021-11-21T10:24:27Z</time>
      </trkpt>
      <trkpt lat="45.22286" lon="5.75277">
        <ele>424.2</ele>
        <time>2021-11-21T10:24:28Z</time>
      </trkpt>
      <trkpt lat="45.2229" lon="5.75277">
        <ele>424.6</ele>
        <time>2021-11-21T10:24:29Z</time>
      </trkpt>
      <trkpt lat="45.22294" lon="5.75277">
        <ele>425.2</ele>
        <time>2021-11-21T10:24:30Z</time>
      </trkpt>
      <trkpt lat="45.22297" lon="5.75275">
        <ele>425.8</ele>
        <time>2021-11-21T10:24:31Z</time>
      </trkpt>
      <trkpt lat="45.22299" lon="5.75273">
        <ele>426.6</ele>
        <time>2021-11-21T10:24:32Z</time>
      </trkpt>
      <trkpt lat="45.223" lon="5.75268">
        <ele>427.4</ele>
        <time>2021-11-21T10:24:33Z</time>
      </trkpt>
      <trkpt lat="45.22298" lon="5.75264">
        <ele>428</ele>
        <time>2021-11-21T10:24:34Z</time>
      </trkpt>
      <trkpt lat="45.22296" lon="5.75259">
        <ele>428.6</ele>
        <time>2021-11-21T10:24:35Z</time>
      </trkpt>
      <trkpt lat="45.22294" lon="5.75256">
        <ele>428.8</ele>
        <time>2021-11-21T10:24:36Z</time>
      </trkpt>
      <trkpt lat="45.2229" lon="5.75252">
        <ele>429.4</ele>
        <time>2021-11-21T10:24:37Z</time>
      </trkpt>
      <trkpt lat="45.22286" lon="5.75245">
        <ele>430</ele>
        <time>2021-11-21T10:24:38Z</time>
      </trkpt>
      <trkpt lat="45.22283" lon="5.75239">
        <ele>430.4</ele>
        <time>2021-11-21T10:24:39Z</time>
      </trkpt>
      <trkpt lat="45.22277" lon="5.75228">
        <ele>431.4</ele>
        <time>2021-11-21T10:24:41Z</time>
      </trkpt>
      <trkpt lat="45.22272" lon="5.75216">
        <ele>433</ele>
        <time>2021-11-21T10:24:43Z</time>
      </trkpt>
      <trkpt lat="45.22266" lon="5.75205">
        <ele>434.2</ele>
        <time>2021-11-21T10:24:45Z</time>
      </trkpt>
      <trkpt lat="45.22259" lon="5.75189">
        <ele>436.4</ele>
        <time>2021-11-21T10:24:48Z</time>
      </trkpt>
      <trkpt lat="45.22252" lon="5.75174">
        <ele>437.8</ele>
        <time>2021-11-21T10:24:51Z</time>
      </trkpt>
      <trkpt lat="45.22243" lon="5.7516">
        <ele>438.8</ele>
        <time>2021-11-21T10:24:54Z</time>
      </trkpt>
      <trkpt lat="45.22234" lon="5.75145">
        <ele>440</ele>
        <time>2021-11-21T10:24:57Z</time>
      </trkpt>
      <trkpt lat="45.22225" lon="5.75134">
        <ele>441.6</ele>
        <time>2021-11-21T10:25:00Z</time>
      </trkpt>
      <trkpt lat="45.22217" lon="5.7512">
        <ele>443.6</ele>
        <time>2021-11-21T10:25:03Z</time>
      </trkpt>
      <trkpt lat="45.22212" lon="5.75106">
        <ele>444.8</ele>
        <time>2021-11-21T10:25:06Z</time>
      </trkpt>
      <trkpt lat="45.22206" lon="5.75092">
        <ele>446</ele>
        <time>2021-11-21T10:25:09Z</time>
      </trkpt>
      <trkpt lat="45.22199" lon="5.75076">
        <ele>447.6</ele>
        <time>2021-11-21T10:25:12Z</time>
      </trkpt>
      <trkpt lat="45.22191" lon="5.7506">
        <ele>449</ele>
        <time>2021-11-21T10:25:15Z</time>
      </trkpt>
      <trkpt lat="45.22187" lon="5.7505">
        <ele>450.4</ele>
        <time>2021-11-21T10:25:17Z</time>
      </trkpt>
      <trkpt lat="45.22185" lon="5.75045">
        <ele>450.8</ele>
        <time>2021-11-21T10:25:18Z</time>
      </trkpt>
      <trkpt lat="45.22183" lon="5.7504">
        <ele>451.6</ele>
        <time>2021-11-21T10:25:19Z</time>
      </trkpt>
      <trkpt lat="45.22181" lon="5.75034">
        <ele>452.4</ele>
        <time>2021-11-21T10:25:20Z</time>
      </trkpt>
      <trkpt lat="45.22179" lon="5.75029">
        <ele>452.8</ele>
        <time>2021-11-21T10:25:21Z</time>
      </trkpt>
      <trkpt lat="45.22177" lon="5.75024">
        <ele>453.6</ele>
        <time>2021-11-21T10:25:22Z</time>
      </trkpt>
      <trkpt lat="45.2217" lon="5.75009">
        <ele>455.2</ele>
        <time>2021-11-21T10:25:25Z</time>
      </trkpt>
      <trkpt lat="45.22158" lon="5.75001">
        <ele>457.4</ele>
        <time>2021-11-21T10:25:28Z</time>
      </trkpt>
      <trkpt lat="45.22146" lon="5.74996">
        <ele>458.8</ele>
        <time>2021-11-21T10:25:31Z</time>
      </trkpt>
      <trkpt lat="45.22143" lon="5.74993">
        <ele>459.6</ele>
        <time>2021-11-21T10:25:32Z</time>
      </trkpt>
      <trkpt lat="45.22139" lon="5.74992">
        <ele>460.4</ele>
        <time>2021-11-21T10:25:33Z</time>
      </trkpt>
      <trkpt lat="45.22127" lon="5.7499">
        <ele>462.6</ele>
        <time>2021-11-21T10:25:36Z</time>
      </trkpt>
      <trkpt lat="45.22115" lon="5.74988">
        <ele>464.8</ele>
        <time>2021-11-21T10:25:39Z</time>
      </trkpt>
      <trkpt lat="45.22102" lon="5.74983">
        <ele>466.8</ele>
        <time>2021-11-21T10:25:42Z</time>
      </trkpt>
      <trkpt lat="45.22099" lon="5.74982">
        <ele>467.2</ele>
        <time>2021-11-21T10:25:43Z</time>
      </trkpt>
      <trkpt lat="45.22095" lon="5.74981">
        <ele>467.6</ele>
        <time>2021-11-21T10:25:44Z</time>
      </trkpt>
      <trkpt lat="45.22087" lon="5.74976">
        <ele>468.8</ele>
        <time>2021-11-21T10:25:46Z</time>
      </trkpt>
      <trkpt lat="45.22077" lon="5.74963">
        <ele>470.8</ele>
        <time>2021-11-21T10:25:49Z</time>
      </trkpt>
      <trkpt lat="45.22069" lon="5.74949">
        <ele>473.2</ele>
        <time>2021-11-21T10:25:52Z</time>
      </trkpt>
      <trkpt lat="45.22066" lon="5.74945">
        <ele>473.4</ele>
        <time>2021-11-21T10:25:53Z</time>
      </trkpt>
      <trkpt lat="45.22063" lon="5.7494">
        <ele>474</ele>
        <time>2021-11-21T10:25:54Z</time>
      </trkpt>
      <trkpt lat="45.22053" lon="5.74931">
        <ele>476</ele>
        <time>2021-11-21T10:25:57Z</time>
      </trkpt>
      <trkpt lat="45.22046" lon="5.74918">
        <ele>478</ele>
        <time>2021-11-21T10:26:00Z</time>
      </trkpt>
      <trkpt lat="45.22044" lon="5.74914">
        <ele>478.8</ele>
        <time>2021-11-21T10:26:01Z</time>
      </trkpt>
      <trkpt lat="45.22042" lon="5.7491">
        <ele>479.4</ele>
        <time>2021-11-21T10:26:02Z</time>
      </trkpt>
      <trkpt lat="45.2204" lon="5.74905">
        <ele>479.8</ele>
        <time>2021-11-21T10:26:03Z</time>
      </trkpt>
      <trkpt lat="45.22038" lon="5.74891">
        <ele>482</ele>
        <time>2021-11-21T10:26:06Z</time>
      </trkpt>
      <trkpt lat="45.22038" lon="5.74886">
        <ele>482.8</ele>
        <time>2021-11-21T10:26:07Z</time>
      </trkpt>
      <trkpt lat="45.22038" lon="5.74881">
        <ele>483.4</ele>
        <time>2021-11-21T10:26:08Z</time>
      </trkpt>
      <trkpt lat="45.22038" lon="5.74876">
        <ele>484.2</ele>
        <time>2021-11-21T10:26:09Z</time>
      </trkpt>
      <trkpt lat="45.22039" lon="5.74871">
        <ele>485.2</ele>
        <time>2021-11-21T10:26:10Z</time>
      </trkpt>
      <trkpt lat="45.22041" lon="5.74856">
        <ele>487.4</ele>
        <time>2021-11-21T10:26:13Z</time>
      </trkpt>
      <trkpt lat="45.22041" lon="5.74851">
        <ele>488</ele>
        <time>2021-11-21T10:26:14Z</time>
      </trkpt>
      <trkpt lat="45.22041" lon="5.74846">
        <ele>488.6</ele>
        <time>2021-11-21T10:26:15Z</time>
      </trkpt>
      <trkpt lat="45.22041" lon="5.74841">
        <ele>489.4</ele>
        <time>2021-11-21T10:26:16Z</time>
      </trkpt>
      <trkpt lat="45.22041" lon="5.74838">
        <ele>489.8</ele>
        <time>2021-11-21T10:26:17Z</time>
      </trkpt>
      <trkpt lat="45.22041" lon="5.74835">
        <ele>490.4</ele>
        <time>2021-11-21T10:26:18Z</time>
      </trkpt>
      <trkpt lat="45.2204" lon="5.74828">
        <ele>498.6</ele>
        <time>2021-11-21T10:26:35Z</time>
      </trkpt>
      <trkpt lat="45.22041" lon="5.74829">
        <ele>499.2</ele>
        <time>2021-11-21T10:26:55Z</time>
      </trkpt>
      <trkpt lat="45.22043" lon="5.74829">
        <ele>499</ele>
        <time>2021-11-21T10:27:14Z</time>
      </trkpt>
      <trkpt lat="45.22045" lon="5.74828">
        <ele>499.2</ele>
        <time>2021-11-21T10:27:25Z</time>
      </trkpt>
      <trkpt lat="45.22048" lon="5.74826">
        <ele>499.2</ele>
        <time>2021-11-21T10:27:40Z</time>
      </trkpt>
      <trkpt lat="45.22048" lon="5.74824">
        <ele>499.4</ele>
        <time>2021-11-21T10:27:41Z</time>
      </trkpt>
      <trkpt lat="45.22048" lon="5.7482">
        <ele>499.6</ele>
        <time>2021-11-21T10:27:42Z</time>
      </trkpt>
      <trkpt lat="45.22049" lon="5.74815">
        <ele>499.8</ele>
        <time>2021-11-21T10:27:43Z</time>
      </trkpt>
      <trkpt lat="45.2205" lon="5.74811">
        <ele>499.8</ele>
        <time>2021-11-21T10:27:44Z</time>
      </trkpt>
      <trkpt lat="45.22052" lon="5.74806">
        <ele>499.6</ele>
        <time>2021-11-21T10:27:45Z</time>
      </trkpt>
      <trkpt lat="45.22055" lon="5.74802">
        <ele>499.4</ele>
        <time>2021-11-21T10:27:46Z</time>
      </trkpt>
      <trkpt lat="45.22059" lon="5.74801">
        <ele>499.4</ele>
        <time>2021-11-21T10:27:47Z</time>
      </trkpt>
      <trkpt lat="45.22062" lon="5.74801">
        <ele>499.4</ele>
        <time>2021-11-21T10:27:48Z</time>
      </trkpt>
      <trkpt lat="45.22066" lon="5.74804">
        <ele>499.2</ele>
        <time>2021-11-21T10:27:49Z</time>
      </trkpt>
      <trkpt lat="45.22069" lon="5.74808">
        <ele>499.2</ele>
        <time>2021-11-21T10:27:50Z</time>
      </trkpt>
      <trkpt lat="45.22071" lon="5.74812">
        <ele>499.6</ele>
        <time>2021-11-21T10:27:51Z</time>
      </trkpt>
      <trkpt lat="45.22073" lon="5.74815">
        <ele>499.6</ele>
        <time>2021-11-21T10:27:52Z</time>
      </trkpt>
      <trkpt lat="45.22074" lon="5.7482">
        <ele>500.2</ele>
        <time>2021-11-21T10:27:53Z</time>
      </trkpt>
      <trkpt lat="45.22075" lon="5.74826">
        <ele>500.6</ele>
        <time>2021-11-21T10:27:54Z</time>
      </trkpt>
      <trkpt lat="45.22076" lon="5.74831">
        <ele>501</ele>
        <time>2021-11-21T10:27:55Z</time>
      </trkpt>
      <trkpt lat="45.22077" lon="5.74836">
        <ele>501.4</ele>
        <time>2021-11-21T10:27:56Z</time>
      </trkpt>
      <trkpt lat="45.22078" lon="5.74841">
        <ele>502</ele>
        <time>2021-11-21T10:27:57Z</time>
      </trkpt>
      <trkpt lat="45.22079" lon="5.74846">
        <ele>502.8</ele>
        <time>2021-11-21T10:27:58Z</time>
      </trkpt>
      <trkpt lat="45.22081" lon="5.74851">
        <ele>503.2</ele>
        <time>2021-11-21T10:27:59Z</time>
      </trkpt>
      <trkpt lat="45.22083" lon="5.74856">
        <ele>504</ele>
        <time>2021-11-21T10:28:00Z</time>
      </trkpt>
      <trkpt lat="45.22085" lon="5.74858">
        <ele>504.6</ele>
        <time>2021-11-21T10:28:01Z</time>
      </trkpt>
      <trkpt lat="45.22088" lon="5.74857">
        <ele>505.2</ele>
        <time>2021-11-21T10:28:02Z</time>
      </trkpt>
      <trkpt lat="45.22089" lon="5.74854">
        <ele>506</ele>
        <time>2021-11-21T10:28:03Z</time>
      </trkpt>
      <trkpt lat="45.2209" lon="5.74849">
        <ele>506.6</ele>
        <time>2021-11-21T10:28:04Z</time>
      </trkpt>
      <trkpt lat="45.22089" lon="5.74843">
        <ele>507.4</ele>
        <time>2021-11-21T10:28:05Z</time>
      </trkpt>
      <trkpt lat="45.22088" lon="5.74838">
        <ele>508</ele>
        <time>2021-11-21T10:28:06Z</time>
      </trkpt>
      <trkpt lat="45.22087" lon="5.74833">
        <ele>508.6</ele>
        <time>2021-11-21T10:28:07Z</time>
      </trkpt>
      <trkpt lat="45.22086" lon="5.74827">
        <ele>509.4</ele>
        <time>2021-11-21T10:28:08Z</time>
      </trkpt>
      <trkpt lat="45.22085" lon="5.74822">
        <ele>510</ele>
        <time>2021-11-21T10:28:09Z</time>
      </trkpt>
      <trkpt lat="45.22084" lon="5.74817">
        <ele>510.6</ele>
        <time>2021-11-21T10:28:10Z</time>
      </trkpt>
      <trkpt lat="45.22084" lon="5.74811">
        <ele>511</ele>
        <time>2021-11-21T10:28:11Z</time>
      </trkpt>
      <trkpt lat="45.22083" lon="5.74806">
        <ele>511.8</ele>
        <time>2021-11-21T10:28:12Z</time>
      </trkpt>
      <trkpt lat="45.22083" lon="5.74801">
        <ele>512.6</ele>
        <time>2021-11-21T10:28:13Z</time>
      </trkpt>
      <trkpt lat="45.22083" lon="5.74795">
        <ele>513.2</ele>
        <time>2021-11-21T10:28:14Z</time>
      </trkpt>
      <trkpt lat="45.22084" lon="5.7479">
        <ele>513.8</ele>
        <time>2021-11-21T10:28:15Z</time>
      </trkpt>
      <trkpt lat="45.22087" lon="5.74785">
        <ele>514.4</ele>
        <time>2021-11-21T10:28:16Z</time>
      </trkpt>
      <trkpt lat="45.22089" lon="5.74781">
        <ele>515</ele>
        <time>2021-11-21T10:28:17Z</time>
      </trkpt>
      <trkpt lat="45.22092" lon="5.74777">
        <ele>515.4</ele>
        <time>2021-11-21T10:28:18Z</time>
      </trkpt>
      <trkpt lat="45.22095" lon="5.74773">
        <ele>516.2</ele>
        <time>2021-11-21T10:28:19Z</time>
      </trkpt>
      <trkpt lat="45.22099" lon="5.7477">
        <ele>517</ele>
        <time>2021-11-21T10:28:20Z</time>
      </trkpt>
      <trkpt lat="45.22107" lon="5.74765">
        <ele>518.4</ele>
        <time>2021-11-21T10:28:22Z</time>
      </trkpt>
      <trkpt lat="45.22111" lon="5.74762">
        <ele>519.2</ele>
        <time>2021-11-21T10:28:23Z</time>
      </trkpt>
      <trkpt lat="45.22121" lon="5.74752">
        <ele>521</ele>
        <time>2021-11-21T10:28:26Z</time>
      </trkpt>
      <trkpt lat="45.22125" lon="5.74749">
        <ele>521.8</ele>
        <time>2021-11-21T10:28:27Z</time>
      </trkpt>
      <trkpt lat="45.22129" lon="5.74746">
        <ele>522.4</ele>
        <time>2021-11-21T10:28:28Z</time>
      </trkpt>
      <trkpt lat="45.22133" lon="5.74744">
        <ele>523</ele>
        <time>2021-11-21T10:28:29Z</time>
      </trkpt>
      <trkpt lat="45.22136" lon="5.74742">
        <ele>523.6</ele>
        <time>2021-11-21T10:28:30Z</time>
      </trkpt>
      <trkpt lat="45.2214" lon="5.74739">
        <ele>524.2</ele>
        <time>2021-11-21T10:28:31Z</time>
      </trkpt>
      <trkpt lat="45.22144" lon="5.74737">
        <ele>524.6</ele>
        <time>2021-11-21T10:28:32Z</time>
      </trkpt>
      <trkpt lat="45.22152" lon="5.74733">
        <ele>526.2</ele>
        <time>2021-11-21T10:28:34Z</time>
      </trkpt>
      <trkpt lat="45.22159" lon="5.7473">
        <ele>527.6</ele>
        <time>2021-11-21T10:28:36Z</time>
      </trkpt>
      <trkpt lat="45.22169" lon="5.74722">
        <ele>529.6</ele>
        <time>2021-11-21T10:28:39Z</time>
      </trkpt>
      <trkpt lat="45.22172" lon="5.74718">
        <ele>530.4</ele>
        <time>2021-11-21T10:28:40Z</time>
      </trkpt>
      <trkpt lat="45.22174" lon="5.74713">
        <ele>531</ele>
        <time>2021-11-21T10:28:41Z</time>
      </trkpt>
      <trkpt lat="45.22177" lon="5.74709">
        <ele>531.6</ele>
        <time>2021-11-21T10:28:42Z</time>
      </trkpt>
      <trkpt lat="45.22181" lon="5.74708">
        <ele>532</ele>
        <time>2021-11-21T10:28:43Z</time>
      </trkpt>
      <trkpt lat="45.22185" lon="5.7471">
        <ele>532.6</ele>
        <time>2021-11-21T10:28:44Z</time>
      </trkpt>
      <trkpt lat="45.22187" lon="5.74713">
        <ele>533.2</ele>
        <time>2021-11-21T10:28:45Z</time>
      </trkpt>
      <trkpt lat="45.22187" lon="5.74718">
        <ele>533.6</ele>
        <time>2021-11-21T10:28:46Z</time>
      </trkpt>
      <trkpt lat="45.22186" lon="5.74724">
        <ele>534</ele>
        <time>2021-11-21T10:28:47Z</time>
      </trkpt>
      <trkpt lat="45.22184" lon="5.7473">
        <ele>534.8</ele>
        <time>2021-11-21T10:28:48Z</time>
      </trkpt>
      <trkpt lat="45.22182" lon="5.74735">
        <ele>535.6</ele>
        <time>2021-11-21T10:28:49Z</time>
      </trkpt>
      <trkpt lat="45.22179" lon="5.74741">
        <ele>536.2</ele>
        <time>2021-11-21T10:28:50Z</time>
      </trkpt>
      <trkpt lat="45.22176" lon="5.74746">
        <ele>536.8</ele>
        <time>2021-11-21T10:28:51Z</time>
      </trkpt>
      <trkpt lat="45.22173" lon="5.7475">
        <ele>537.6</ele>
        <time>2021-11-21T10:28:52Z</time>
      </trkpt>
      <trkpt lat="45.22171" lon="5.74755">
        <ele>538.2</ele>
        <time>2021-11-21T10:28:53Z</time>
      </trkpt>
      <trkpt lat="45.22169" lon="5.74761">
        <ele>538.8</ele>
        <time>2021-11-21T10:28:54Z</time>
      </trkpt>
      <trkpt lat="45.22166" lon="5.74767">
        <ele>539.6</ele>
        <time>2021-11-21T10:28:55Z</time>
      </trkpt>
      <trkpt lat="45.22165" lon="5.74773">
        <ele>540.2</ele>
        <time>2021-11-21T10:28:56Z</time>
      </trkpt>
      <trkpt lat="45.22163" lon="5.74778">
        <ele>540.8</ele>
        <time>2021-11-21T10:28:57Z</time>
      </trkpt>
      <trkpt lat="45.22161" lon="5.74784">
        <ele>541.6</ele>
        <time>2021-11-21T10:28:58Z</time>
      </trkpt>
      <trkpt lat="45.22159" lon="5.7479">
        <ele>542.2</ele>
        <time>2021-11-21T10:28:59Z</time>
      </trkpt>
      <trkpt lat="45.22158" lon="5.74796">
        <ele>542.8</ele>
        <time>2021-11-21T10:29:00Z</time>
      </trkpt>
      <trkpt lat="45.22158" lon="5.74802">
        <ele>543.4</ele>
        <time>2021-11-21T10:29:01Z</time>
      </trkpt>
      <trkpt lat="45.22159" lon="5.74808">
        <ele>544</ele>
        <time>2021-11-21T10:29:02Z</time>
      </trkpt>
      <trkpt lat="45.2216" lon="5.74814">
        <ele>544.4</ele>
        <time>2021-11-21T10:29:03Z</time>
      </trkpt>
      <trkpt lat="45.22161" lon="5.7482">
        <ele>545</ele>
        <time>2021-11-21T10:29:04Z</time>
      </trkpt>
      <trkpt lat="45.22162" lon="5.74826">
        <ele>545.6</ele>
        <time>2021-11-21T10:29:05Z</time>
      </trkpt>
      <trkpt lat="45.22164" lon="5.74831">
        <ele>546.4</ele>
        <time>2021-11-21T10:29:06Z</time>
      </trkpt>
      <trkpt lat="45.22166" lon="5.74835">
        <ele>546.8</ele>
        <time>2021-11-21T10:29:07Z</time>
      </trkpt>
      <trkpt lat="45.22169" lon="5.74839">
        <ele>547.2</ele>
        <time>2021-11-21T10:29:08Z</time>
      </trkpt>
      <trkpt lat="45.22173" lon="5.74843">
        <ele>547.6</ele>
        <time>2021-11-21T10:29:09Z</time>
      </trkpt>
      <trkpt lat="45.22175" lon="5.74849">
        <ele>548</ele>
        <time>2021-11-21T10:29:10Z</time>
      </trkpt>
      <trkpt lat="45.22178" lon="5.74854">
        <ele>548.6</ele>
        <time>2021-11-21T10:29:11Z</time>
      </trkpt>
      <trkpt lat="45.2218" lon="5.7486">
        <ele>549</ele>
        <time>2021-11-21T10:29:12Z</time>
      </trkpt>
      <trkpt lat="45.22182" lon="5.74866">
        <ele>549.6</ele>
        <time>2021-11-21T10:29:13Z</time>
      </trkpt>
      <trkpt lat="45.22184" lon="5.74872">
        <ele>550</ele>
        <time>2021-11-21T10:29:14Z</time>
      </trkpt>
      <trkpt lat="45.22186" lon="5.74879">
        <ele>550.8</ele>
        <time>2021-11-21T10:29:15Z</time>
      </trkpt>
      <trkpt lat="45.22189" lon="5.74885">
        <ele>551.4</ele>
        <time>2021-11-21T10:29:16Z</time>
      </trkpt>
      <trkpt lat="45.22192" lon="5.7489">
        <ele>551.8</ele>
        <time>2021-11-21T10:29:17Z</time>
      </trkpt>
      <trkpt lat="45.22196" lon="5.74895">
        <ele>552.4</ele>
        <time>2021-11-21T10:29:18Z</time>
      </trkpt>
      <trkpt lat="45.222" lon="5.749">
        <ele>552.8</ele>
        <time>2021-11-21T10:29:19Z</time>
      </trkpt>
      <trkpt lat="45.22204" lon="5.74904">
        <ele>553.4</ele>
        <time>2021-11-21T10:29:20Z</time>
      </trkpt>
      <trkpt lat="45.22209" lon="5.74908">
        <ele>554</ele>
        <time>2021-11-21T10:29:21Z</time>
      </trkpt>
      <trkpt lat="45.22214" lon="5.74911">
        <ele>554.6</ele>
        <time>2021-11-21T10:29:22Z</time>
      </trkpt>
      <trkpt lat="45.22219" lon="5.74914">
        <ele>555.2</ele>
        <time>2021-11-21T10:29:23Z</time>
      </trkpt>
      <trkpt lat="45.22225" lon="5.74917">
        <ele>555.6</ele>
        <time>2021-11-21T10:29:24Z</time>
      </trkpt>
      <trkpt lat="45.2223" lon="5.74921">
        <ele>556.4</ele>
        <time>2021-11-21T10:29:25Z</time>
      </trkpt>
      <trkpt lat="45.22236" lon="5.74924">
        <ele>557</ele>
        <time>2021-11-21T10:29:26Z</time>
      </trkpt>
      <trkpt lat="45.22241" lon="5.74928">
        <ele>557.2</ele>
        <time>2021-11-21T10:29:27Z</time>
      </trkpt>
      <trkpt lat="45.22245" lon="5.74931">
        <ele>558</ele>
        <time>2021-11-21T10:29:28Z</time>
      </trkpt>
      <trkpt lat="45.22254" lon="5.74939">
        <ele>558.8</ele>
        <time>2021-11-21T10:29:30Z</time>
      </trkpt>
      <trkpt lat="45.22263" lon="5.74951">
        <ele>560.2</ele>
        <time>2021-11-21T10:29:32Z</time>
      </trkpt>
      <trkpt lat="45.22267" lon="5.74957">
        <ele>561</ele>
        <time>2021-11-21T10:29:33Z</time>
      </trkpt>
      <trkpt lat="45.22272" lon="5.74961">
        <ele>562</ele>
        <time>2021-11-21T10:29:34Z</time>
      </trkpt>
      <trkpt lat="45.22284" lon="5.74966">
        <ele>563.2</ele>
        <time>2021-11-21T10:29:36Z</time>
      </trkpt>
      <trkpt lat="45.22297" lon="5.74968">
        <ele>564.6</ele>
        <time>2021-11-21T10:29:38Z</time>
      </trkpt>
      <trkpt lat="45.2231" lon="5.7497">
        <ele>566</ele>
        <time>2021-11-21T10:29:40Z</time>
      </trkpt>
      <trkpt lat="45.22317" lon="5.7497">
        <ele>566.2</ele>
        <time>2021-11-21T10:29:41Z</time>
      </trkpt>
      <trkpt lat="45.22324" lon="5.74971">
        <ele>567</ele>
        <time>2021-11-21T10:29:42Z</time>
      </trkpt>
      <trkpt lat="45.2233" lon="5.74972">
        <ele>567.4</ele>
        <time>2021-11-21T10:29:43Z</time>
      </trkpt>
      <trkpt lat="45.22337" lon="5.74974">
        <ele>567.6</ele>
        <time>2021-11-21T10:29:44Z</time>
      </trkpt>
      <trkpt lat="45.22344" lon="5.74976">
        <ele>568.2</ele>
        <time>2021-11-21T10:29:45Z</time>
      </trkpt>
      <trkpt lat="45.2235" lon="5.74977">
        <ele>568.4</ele>
        <time>2021-11-21T10:29:46Z</time>
      </trkpt>
      <trkpt lat="45.22357" lon="5.74978">
        <ele>568.8</ele>
        <time>2021-11-21T10:29:47Z</time>
      </trkpt>
      <trkpt lat="45.22368" lon="5.74977">
        <ele>569.2</ele>
        <time>2021-11-21T10:29:49Z</time>
      </trkpt>
      <trkpt lat="45.22374" lon="5.74974">
        <ele>569.4</ele>
        <time>2021-11-21T10:29:50Z</time>
      </trkpt>
      <trkpt lat="45.22379" lon="5.74969">
        <ele>569.8</ele>
        <time>2021-11-21T10:29:51Z</time>
      </trkpt>
      <trkpt lat="45.22386" lon="5.74954">
        <ele>570.4</ele>
        <time>2021-11-21T10:29:53Z</time>
      </trkpt>
      <trkpt lat="45.22388" lon="5.74946">
        <ele>570.4</ele>
        <time>2021-11-21T10:29:54Z</time>
      </trkpt>
      <trkpt lat="45.22391" lon="5.74939">
        <ele>571</ele>
        <time>2021-11-21T10:29:55Z</time>
      </trkpt>
      <trkpt lat="45.22394" lon="5.74931">
        <ele>571.2</ele>
        <time>2021-11-21T10:29:56Z</time>
      </trkpt>
      <trkpt lat="45.22398" lon="5.74924">
        <ele>571.6</ele>
        <time>2021-11-21T10:29:57Z</time>
      </trkpt>
      <trkpt lat="45.22402" lon="5.74918">
        <ele>571.8</ele>
        <time>2021-11-21T10:29:58Z</time>
      </trkpt>
      <trkpt lat="45.22406" lon="5.74911">
        <ele>572.4</ele>
        <time>2021-11-21T10:29:59Z</time>
      </trkpt>
      <trkpt lat="45.22411" lon="5.74905">
        <ele>573</ele>
        <time>2021-11-21T10:30:00Z</time>
      </trkpt>
      <trkpt lat="45.22416" lon="5.749">
        <ele>573</ele>
        <time>2021-11-21T10:30:01Z</time>
      </trkpt>
      <trkpt lat="45.22422" lon="5.74896">
        <ele>573.4</ele>
        <time>2021-11-21T10:30:02Z</time>
      </trkpt>
      <trkpt lat="45.22428" lon="5.74894">
        <ele>573.8</ele>
        <time>2021-11-21T10:30:03Z</time>
      </trkpt>
      <trkpt lat="45.22434" lon="5.74892">
        <ele>574</ele>
        <time>2021-11-21T10:30:04Z</time>
      </trkpt>
      <trkpt lat="45.22441" lon="5.74891">
        <ele>574.4</ele>
        <time>2021-11-21T10:30:05Z</time>
      </trkpt>
      <trkpt lat="45.22448" lon="5.74891">
        <ele>575</ele>
        <time>2021-11-21T10:30:06Z</time>
      </trkpt>
      <trkpt lat="45.22455" lon="5.7489">
        <ele>575.2</ele>
        <time>2021-11-21T10:30:07Z</time>
      </trkpt>
      <trkpt lat="45.22462" lon="5.7489">
        <ele>575.6</ele>
        <time>2021-11-21T10:30:08Z</time>
      </trkpt>
      <trkpt lat="45.22469" lon="5.74891">
        <ele>576.2</ele>
        <time>2021-11-21T10:30:09Z</time>
      </trkpt>
      <trkpt lat="45.22476" lon="5.74892">
        <ele>576.4</ele>
        <time>2021-11-21T10:30:10Z</time>
      </trkpt>
      <trkpt lat="45.22483" lon="5.74893">
        <ele>576.8</ele>
        <time>2021-11-21T10:30:11Z</time>
      </trkpt>
      <trkpt lat="45.2249" lon="5.74894">
        <ele>577.4</ele>
        <time>2021-11-21T10:30:12Z</time>
      </trkpt>
      <trkpt lat="45.22498" lon="5.74896">
        <ele>578</ele>
        <time>2021-11-21T10:30:13Z</time>
      </trkpt>
      <trkpt lat="45.22505" lon="5.74899">
        <ele>578.8</ele>
        <time>2021-11-21T10:30:14Z</time>
      </trkpt>
      <trkpt lat="45.22512" lon="5.74903">
        <ele>579</ele>
        <time>2021-11-21T10:30:15Z</time>
      </trkpt>
      <trkpt lat="45.2252" lon="5.74906">
        <ele>579.4</ele>
        <time>2021-11-21T10:30:16Z</time>
      </trkpt>
      <trkpt lat="45.22527" lon="5.74909">
        <ele>579.8</ele>
        <time>2021-11-21T10:30:17Z</time>
      </trkpt>
      <trkpt lat="45.2254" lon="5.74914">
        <ele>580.4</ele>
        <time>2021-11-21T10:30:19Z</time>
      </trkpt>
      <trkpt lat="45.22553" lon="5.74923">
        <ele>580.6</ele>
        <time>2021-11-21T10:30:21Z</time>
      </trkpt>
      <trkpt lat="45.22565" lon="5.74934">
        <ele>580.6</ele>
        <time>2021-11-21T10:30:23Z</time>
      </trkpt>
      <trkpt lat="45.22572" lon="5.74939">
        <ele>580.6</ele>
        <time>2021-11-21T10:30:24Z</time>
      </trkpt>
      <trkpt lat="45.22585" lon="5.74947">
        <ele>580.8</ele>
        <time>2021-11-21T10:30:26Z</time>
      </trkpt>
      <trkpt lat="45.22598" lon="5.74953">
        <ele>581.2</ele>
        <time>2021-11-21T10:30:28Z</time>
      </trkpt>
      <trkpt lat="45.22613" lon="5.74958">
        <ele>582</ele>
        <time>2021-11-21T10:30:30Z</time>
      </trkpt>
      <trkpt lat="45.22621" lon="5.7496">
        <ele>582.2</ele>
        <time>2021-11-21T10:30:31Z</time>
      </trkpt>
      <trkpt lat="45.22634" lon="5.74967">
        <ele>582.8</ele>
        <time>2021-11-21T10:30:33Z</time>
      </trkpt>
      <trkpt lat="45.22641" lon="5.74971">
        <ele>582.6</ele>
        <time>2021-11-21T10:30:34Z</time>
      </trkpt>
      <trkpt lat="45.22647" lon="5.74975">
        <ele>582.8</ele>
        <time>2021-11-21T10:30:35Z</time>
      </trkpt>
      <trkpt lat="45.22653" lon="5.74981">
        <ele>582.8</ele>
        <time>2021-11-21T10:30:36Z</time>
      </trkpt>
      <trkpt lat="45.22659" lon="5.74987">
        <ele>583.6</ele>
        <time>2021-11-21T10:30:37Z</time>
      </trkpt>
      <trkpt lat="45.22664" lon="5.74993">
        <ele>584.2</ele>
        <time>2021-11-21T10:30:38Z</time>
      </trkpt>
      <trkpt lat="45.2267" lon="5.74998">
        <ele>585</ele>
        <time>2021-11-21T10:30:39Z</time>
      </trkpt>
      <trkpt lat="45.22676" lon="5.75003">
        <ele>585.6</ele>
        <time>2021-11-21T10:30:40Z</time>
      </trkpt>
      <trkpt lat="45.22683" lon="5.75008">
        <ele>586</ele>
        <time>2021-11-21T10:30:41Z</time>
      </trkpt>
      <trkpt lat="45.2269" lon="5.75013">
        <ele>586.6</ele>
        <time>2021-11-21T10:30:42Z</time>
      </trkpt>
      <trkpt lat="45.22696" lon="5.75019">
        <ele>587.2</ele>
        <time>2021-11-21T10:30:43Z</time>
      </trkpt>
      <trkpt lat="45.22702" lon="5.75025">
        <ele>587.6</ele>
        <time>2021-11-21T10:30:44Z</time>
      </trkpt>
      <trkpt lat="45.22708" lon="5.7503">
        <ele>588.2</ele>
        <time>2021-11-21T10:30:45Z</time>
      </trkpt>
      <trkpt lat="45.22714" lon="5.75035">
        <ele>588.4</ele>
        <time>2021-11-21T10:30:46Z</time>
      </trkpt>
      <trkpt lat="45.22721" lon="5.75041">
        <ele>588.8</ele>
        <time>2021-11-21T10:30:47Z</time>
      </trkpt>
      <trkpt lat="45.22727" lon="5.75046">
        <ele>589.4</ele>
        <time>2021-11-21T10:30:48Z</time>
      </trkpt>
      <trkpt lat="45.22734" lon="5.75052">
        <ele>589.8</ele>
        <time>2021-11-21T10:30:49Z</time>
      </trkpt>
      <trkpt lat="45.22741" lon="5.75057">
        <ele>590.6</ele>
        <time>2021-11-21T10:30:50Z</time>
      </trkpt>
      <trkpt lat="45.22748" lon="5.7506">
        <ele>591</ele>
        <time>2021-11-21T10:30:51Z</time>
      </trkpt>
      <trkpt lat="45.22754" lon="5.7506">
        <ele>591.4</ele>
        <time>2021-11-21T10:30:52Z</time>
      </trkpt>
      <trkpt lat="45.2276" lon="5.75057">
        <ele>591.8</ele>
        <time>2021-11-21T10:30:53Z</time>
      </trkpt>
      <trkpt lat="45.22765" lon="5.75053">
        <ele>591.8</ele>
        <time>2021-11-21T10:30:54Z</time>
      </trkpt>
      <trkpt lat="45.2277" lon="5.75047">
        <ele>592.2</ele>
        <time>2021-11-21T10:30:55Z</time>
      </trkpt>
      <trkpt lat="45.22774" lon="5.75042">
        <ele>592.8</ele>
        <time>2021-11-21T10:30:56Z</time>
      </trkpt>
      <trkpt lat="45.22778" lon="5.75037">
        <ele>593.2</ele>
        <time>2021-11-21T10:30:57Z</time>
      </trkpt>
      <trkpt lat="45.22782" lon="5.75032">
        <ele>593.8</ele>
        <time>2021-11-21T10:30:58Z</time>
      </trkpt>
      <trkpt lat="45.22786" lon="5.75027">
        <ele>594.2</ele>
        <time>2021-11-21T10:30:59Z</time>
      </trkpt>
      <trkpt lat="45.2279" lon="5.75022">
        <ele>594.6</ele>
        <time>2021-11-21T10:31:00Z</time>
      </trkpt>
      <trkpt lat="45.22794" lon="5.75017">
        <ele>595.2</ele>
        <time>2021-11-21T10:31:01Z</time>
      </trkpt>
      <trkpt lat="45.22799" lon="5.75012">
        <ele>595.6</ele>
        <time>2021-11-21T10:31:02Z</time>
      </trkpt>
      <trkpt lat="45.22802" lon="5.75006">
        <ele>596.8</ele>
        <time>2021-11-21T10:31:03Z</time>
      </trkpt>
      <trkpt lat="45.22805" lon="5.75">
        <ele>597.6</ele>
        <time>2021-11-21T10:31:04Z</time>
      </trkpt>
      <trkpt lat="45.22807" lon="5.74993">
        <ele>598.2</ele>
        <time>2021-11-21T10:31:05Z</time>
      </trkpt>
      <trkpt lat="45.22809" lon="5.74986">
        <ele>599</ele>
        <time>2021-11-21T10:31:06Z</time>
      </trkpt>
      <trkpt lat="45.2281" lon="5.74979">
        <ele>599.6</ele>
        <time>2021-11-21T10:31:07Z</time>
      </trkpt>
      <trkpt lat="45.22812" lon="5.74973">
        <ele>600.2</ele>
        <time>2021-11-21T10:31:08Z</time>
      </trkpt>
      <trkpt lat="45.22816" lon="5.7497">
        <ele>601.2</ele>
        <time>2021-11-21T10:31:09Z</time>
      </trkpt>
      <trkpt lat="45.22821" lon="5.74969">
        <ele>602</ele>
        <time>2021-11-21T10:31:10Z</time>
      </trkpt>
      <trkpt lat="45.22825" lon="5.7497">
        <ele>602.8</ele>
        <time>2021-11-21T10:31:11Z</time>
      </trkpt>
      <trkpt lat="45.22825" lon="5.74981">
        <ele>605.4</ele>
        <time>2021-11-21T10:31:14Z</time>
      </trkpt>
      <trkpt lat="45.22824" lon="5.74985">
        <ele>606.2</ele>
        <time>2021-11-21T10:31:15Z</time>
      </trkpt>
      <trkpt lat="45.22825" lon="5.75003">
        <ele>609.2</ele>
        <time>2021-11-21T10:31:18Z</time>
      </trkpt>
      <trkpt lat="45.22829" lon="5.7502">
        <ele>610.8</ele>
        <time>2021-11-21T10:31:20Z</time>
      </trkpt>
      <trkpt lat="45.22833" lon="5.75038">
        <ele>611.8</ele>
        <time>2021-11-21T10:31:22Z</time>
      </trkpt>
      <trkpt lat="45.22838" lon="5.75055">
        <ele>612.2</ele>
        <time>2021-11-21T10:31:24Z</time>
      </trkpt>
      <trkpt lat="45.22843" lon="5.75073">
        <ele>612.6</ele>
        <time>2021-11-21T10:31:26Z</time>
      </trkpt>
      <trkpt lat="45.22845" lon="5.75091">
        <ele>612.4</ele>
        <time>2021-11-21T10:31:28Z</time>
      </trkpt>
      <trkpt lat="45.22847" lon="5.75108">
        <ele>612.6</ele>
        <time>2021-11-21T10:31:30Z</time>
      </trkpt>
      <trkpt lat="45.2285" lon="5.7512">
        <ele>612.6</ele>
        <time>2021-11-21T10:31:32Z</time>
      </trkpt>
      <trkpt lat="45.22852" lon="5.75125">
        <ele>612.6</ele>
        <time>2021-11-21T10:31:33Z</time>
      </trkpt>
      <trkpt lat="45.22854" lon="5.75129">
        <ele>612.2</ele>
        <time>2021-11-21T10:31:34Z</time>
      </trkpt>
      <trkpt lat="45.22856" lon="5.75134">
        <ele>612</ele>
        <time>2021-11-21T10:31:35Z</time>
      </trkpt>
      <trkpt lat="45.22858" lon="5.7514">
        <ele>612</ele>
        <time>2021-11-21T10:31:36Z</time>
      </trkpt>
      <trkpt lat="45.22861" lon="5.75146">
        <ele>612</ele>
        <time>2021-11-21T10:31:37Z</time>
      </trkpt>
      <trkpt lat="45.22864" lon="5.75153">
        <ele>612.2</ele>
        <time>2021-11-21T10:31:38Z</time>
      </trkpt>
      <trkpt lat="45.22867" lon="5.7516">
        <ele>612.2</ele>
        <time>2021-11-21T10:31:39Z</time>
      </trkpt>
      <trkpt lat="45.2287" lon="5.75168">
        <ele>612</ele>
        <time>2021-11-21T10:31:40Z</time>
      </trkpt>
      <trkpt lat="45.22872" lon="5.75176">
        <ele>611.4</ele>
        <time>2021-11-21T10:31:41Z</time>
      </trkpt>
      <trkpt lat="45.22873" lon="5.75185">
        <ele>611.4</ele>
        <time>2021-11-21T10:31:42Z</time>
      </trkpt>
      <trkpt lat="45.22874" lon="5.75194">
        <ele>611</ele>
        <time>2021-11-21T10:31:43Z</time>
      </trkpt>
      <trkpt lat="45.22874" lon="5.75203">
        <ele>610.8</ele>
        <time>2021-11-21T10:31:44Z</time>
      </trkpt>
      <trkpt lat="45.22873" lon="5.75212">
        <ele>610.8</ele>
        <time>2021-11-21T10:31:45Z</time>
      </trkpt>
      <trkpt lat="45.22873" lon="5.75221">
        <ele>610.4</ele>
        <time>2021-11-21T10:31:46Z</time>
      </trkpt>
      <trkpt lat="45.22872" lon="5.7523">
        <ele>610.2</ele>
        <time>2021-11-21T10:31:47Z</time>
      </trkpt>
      <trkpt lat="45.22871" lon="5.75239">
        <ele>610</ele>
        <time>2021-11-21T10:31:48Z</time>
      </trkpt>
      <trkpt lat="45.22869" lon="5.75248">
        <ele>609.8</ele>
        <time>2021-11-21T10:31:49Z</time>
      </trkpt>
      <trkpt lat="45.22867" lon="5.75256">
        <ele>610</ele>
        <time>2021-11-21T10:31:50Z</time>
      </trkpt>
      <trkpt lat="45.22866" lon="5.75265">
        <ele>609.6</ele>
        <time>2021-11-21T10:31:51Z</time>
      </trkpt>
      <trkpt lat="45.22864" lon="5.75273">
        <ele>609.2</ele>
        <time>2021-11-21T10:31:52Z</time>
      </trkpt>
      <trkpt lat="45.22862" lon="5.7528">
        <ele>609.2</ele>
        <time>2021-11-21T10:31:53Z</time>
      </trkpt>
      <trkpt lat="45.22861" lon="5.75288">
        <ele>608.8</ele>
        <time>2021-11-21T10:31:54Z</time>
      </trkpt>
      <trkpt lat="45.22859" lon="5.75296">
        <ele>608.6</ele>
        <time>2021-11-21T10:31:55Z</time>
      </trkpt>
      <trkpt lat="45.22858" lon="5.75303">
        <ele>608.8</ele>
        <time>2021-11-21T10:31:56Z</time>
      </trkpt>
      <trkpt lat="45.22857" lon="5.7531">
        <ele>608.8</ele>
        <time>2021-11-21T10:31:57Z</time>
      </trkpt>
      <trkpt lat="45.22855" lon="5.75317">
        <ele>609</ele>
        <time>2021-11-21T10:31:58Z</time>
      </trkpt>
      <trkpt lat="45.22854" lon="5.75324">
        <ele>608.6</ele>
        <time>2021-11-21T10:31:59Z</time>
      </trkpt>
      <trkpt lat="45.22852" lon="5.7533">
        <ele>608.2</ele>
        <time>2021-11-21T10:32:00Z</time>
      </trkpt>
      <trkpt lat="45.2285" lon="5.75336">
        <ele>607.6</ele>
        <time>2021-11-21T10:32:01Z</time>
      </trkpt>
      <trkpt lat="45.22848" lon="5.75342">
        <ele>607.8</ele>
        <time>2021-11-21T10:32:02Z</time>
      </trkpt>
      <trkpt lat="45.22846" lon="5.75349">
        <ele>607.2</ele>
        <time>2021-11-21T10:32:03Z</time>
      </trkpt>
      <trkpt lat="45.22845" lon="5.75356">
        <ele>607.4</ele>
        <time>2021-11-21T10:32:04Z</time>
      </trkpt>
      <trkpt lat="45.22844" lon="5.75364">
        <ele>607.2</ele>
        <time>2021-11-21T10:32:05Z</time>
      </trkpt>
      <trkpt lat="45.22842" lon="5.75372">
        <ele>607.6</ele>
        <time>2021-11-21T10:32:06Z</time>
      </trkpt>
      <trkpt lat="45.22841" lon="5.7538">
        <ele>607.8</ele>
        <time>2021-11-21T10:32:07Z</time>
      </trkpt>
      <trkpt lat="45.22839" lon="5.75388">
        <ele>608.2</ele>
        <time>2021-11-21T10:32:08Z</time>
      </trkpt>
      <trkpt lat="45.22838" lon="5.75396">
        <ele>608.6</ele>
        <time>2021-11-21T10:32:09Z</time>
      </trkpt>
      <trkpt lat="45.22836" lon="5.75404">
        <ele>609.2</ele>
        <time>2021-11-21T10:32:10Z</time>
      </trkpt>
      <trkpt lat="45.22834" lon="5.75411">
        <ele>609.6</ele>
        <time>2021-11-21T10:32:11Z</time>
      </trkpt>
      <trkpt lat="45.22832" lon="5.75418">
        <ele>610.2</ele>
        <time>2021-11-21T10:32:12Z</time>
      </trkpt>
      <trkpt lat="45.2283" lon="5.75425">
        <ele>610.6</ele>
        <time>2021-11-21T10:32:13Z</time>
      </trkpt>
      <trkpt lat="45.22827" lon="5.75432">
        <ele>610.8</ele>
        <time>2021-11-21T10:32:14Z</time>
      </trkpt>
      <trkpt lat="45.22823" lon="5.75438">
        <ele>611.4</ele>
        <time>2021-11-21T10:32:15Z</time>
      </trkpt>
      <trkpt lat="45.22819" lon="5.75443">
        <ele>611.8</ele>
        <time>2021-11-21T10:32:16Z</time>
      </trkpt>
      <trkpt lat="45.22815" lon="5.75449">
        <ele>612.4</ele>
        <time>2021-11-21T10:32:17Z</time>
      </trkpt>
      <trkpt lat="45.22811" lon="5.75454">
        <ele>613</ele>
        <time>2021-11-21T10:32:18Z</time>
      </trkpt>
      <trkpt lat="45.22807" lon="5.7546">
        <ele>613.6</ele>
        <time>2021-11-21T10:32:19Z</time>
      </trkpt>
      <trkpt lat="45.22803" lon="5.75465">
        <ele>613.8</ele>
        <time>2021-11-21T10:32:20Z</time>
      </trkpt>
      <trkpt lat="45.22799" lon="5.7547">
        <ele>614.2</ele>
        <time>2021-11-21T10:32:21Z</time>
      </trkpt>
      <trkpt lat="45.22796" lon="5.75476">
        <ele>615.2</ele>
        <time>2021-11-21T10:32:22Z</time>
      </trkpt>
      <trkpt lat="45.22794" lon="5.75483">
        <ele>615.8</ele>
        <time>2021-11-21T10:32:23Z</time>
      </trkpt>
      <trkpt lat="45.22794" lon="5.7549">
        <ele>616.6</ele>
        <time>2021-11-21T10:32:24Z</time>
      </trkpt>
      <trkpt lat="45.22796" lon="5.75497">
        <ele>617.2</ele>
        <time>2021-11-21T10:32:25Z</time>
      </trkpt>
      <trkpt lat="45.22799" lon="5.75503">
        <ele>618</ele>
        <time>2021-11-21T10:32:26Z</time>
      </trkpt>
      <trkpt lat="45.22803" lon="5.75508">
        <ele>618.8</ele>
        <time>2021-11-21T10:32:27Z</time>
      </trkpt>
      <trkpt lat="45.22808" lon="5.75512">
        <ele>619.4</ele>
        <time>2021-11-21T10:32:28Z</time>
      </trkpt>
      <trkpt lat="45.22813" lon="5.75516">
        <ele>619.8</ele>
        <time>2021-11-21T10:32:29Z</time>
      </trkpt>
      <trkpt lat="45.22819" lon="5.75519">
        <ele>620.4</ele>
        <time>2021-11-21T10:32:30Z</time>
      </trkpt>
      <trkpt lat="45.22825" lon="5.75523">
        <ele>621</ele>
        <time>2021-11-21T10:32:31Z</time>
      </trkpt>
      <trkpt lat="45.2283" lon="5.75528">
        <ele>621.8</ele>
        <time>2021-11-21T10:32:32Z</time>
      </trkpt>
      <trkpt lat="45.22836" lon="5.75532">
        <ele>622.4</ele>
        <time>2021-11-21T10:32:33Z</time>
      </trkpt>
      <trkpt lat="45.22841" lon="5.75537">
        <ele>623</ele>
        <time>2021-11-21T10:32:34Z</time>
      </trkpt>
      <trkpt lat="45.22846" lon="5.75541">
        <ele>623.6</ele>
        <time>2021-11-21T10:32:35Z</time>
      </trkpt>
      <trkpt lat="45.22851" lon="5.75545">
        <ele>624.4</ele>
        <time>2021-11-21T10:32:36Z</time>
      </trkpt>
      <trkpt lat="45.22856" lon="5.75548">
        <ele>625</ele>
        <time>2021-11-21T10:32:37Z</time>
      </trkpt>
      <trkpt lat="45.22864" lon="5.75554">
        <ele>625.6</ele>
        <time>2021-11-21T10:32:39Z</time>
      </trkpt>
      <trkpt lat="45.22873" lon="5.75561">
        <ele>626.6</ele>
        <time>2021-11-21T10:32:42Z</time>
      </trkpt>
      <trkpt lat="45.22876" lon="5.7555">
        <ele>627.6</ele>
        <time>2021-11-21T10:32:46Z</time>
      </trkpt>
      <trkpt lat="45.22875" lon="5.75546">
        <ele>627.8</ele>
        <time>2021-11-21T10:32:47Z</time>
      </trkpt>
      <trkpt lat="45.22875" lon="5.75542">
        <ele>628.2</ele>
        <time>2021-11-21T10:32:48Z</time>
      </trkpt>
      <trkpt lat="45.22875" lon="5.75526">
        <ele>628.6</ele>
        <time>2021-11-21T10:32:52Z</time>
      </trkpt>
      <trkpt lat="45.22875" lon="5.75513">
        <ele>629.4</ele>
        <time>2021-11-21T10:32:55Z</time>
      </trkpt>
      <trkpt lat="45.22878" lon="5.75497">
        <ele>630.8</ele>
        <time>2021-11-21T10:32:58Z</time>
      </trkpt>
      <trkpt lat="45.2288" lon="5.75492">
        <ele>631.4</ele>
        <time>2021-11-21T10:32:59Z</time>
      </trkpt>
      <trkpt lat="45.22885" lon="5.75482">
        <ele>632</ele>
        <time>2021-11-21T10:33:01Z</time>
      </trkpt>
      <trkpt lat="45.22888" lon="5.75476">
        <ele>632.4</ele>
        <time>2021-11-21T10:33:02Z</time>
      </trkpt>
      <trkpt lat="45.22892" lon="5.75471">
        <ele>633</ele>
        <time>2021-11-21T10:33:03Z</time>
      </trkpt>
      <trkpt lat="45.22895" lon="5.75465">
        <ele>633.4</ele>
        <time>2021-11-21T10:33:04Z</time>
      </trkpt>
      <trkpt lat="45.22899" lon="5.75459">
        <ele>633.8</ele>
        <time>2021-11-21T10:33:05Z</time>
      </trkpt>
      <trkpt lat="45.22902" lon="5.75453">
        <ele>634.2</ele>
        <time>2021-11-21T10:33:06Z</time>
      </trkpt>
      <trkpt lat="45.22905" lon="5.75447">
        <ele>635.2</ele>
        <time>2021-11-21T10:33:07Z</time>
      </trkpt>
      <trkpt lat="45.22908" lon="5.75441">
        <ele>635.6</ele>
        <time>2021-11-21T10:33:08Z</time>
      </trkpt>
      <trkpt lat="45.22911" lon="5.75435">
        <ele>636.2</ele>
        <time>2021-11-21T10:33:09Z</time>
      </trkpt>
      <trkpt lat="45.22914" lon="5.75429">
        <ele>636.8</ele>
        <time>2021-11-21T10:33:10Z</time>
      </trkpt>
      <trkpt lat="45.22921" lon="5.75416">
        <ele>637.2</ele>
        <time>2021-11-21T10:33:12Z</time>
      </trkpt>
      <trkpt lat="45.22929" lon="5.75406">
        <ele>637.8</ele>
        <time>2021-11-21T10:33:14Z</time>
      </trkpt>
      <trkpt lat="45.22937" lon="5.75397">
        <ele>638.2</ele>
        <time>2021-11-21T10:33:16Z</time>
      </trkpt>
      <trkpt lat="45.22946" lon="5.75388">
        <ele>638</ele>
        <time>2021-11-21T10:33:18Z</time>
      </trkpt>
      <trkpt lat="45.22954" lon="5.75379">
        <ele>638.8</ele>
        <time>2021-11-21T10:33:20Z</time>
      </trkpt>
      <trkpt lat="45.22961" lon="5.75368">
        <ele>639.2</ele>
        <time>2021-11-21T10:33:22Z</time>
      </trkpt>
      <trkpt lat="45.22969" lon="5.75355">
        <ele>639.6</ele>
        <time>2021-11-21T10:33:24Z</time>
      </trkpt>
      <trkpt lat="45.22975" lon="5.75342">
        <ele>640.6</ele>
        <time>2021-11-21T10:33:26Z</time>
      </trkpt>
      <trkpt lat="45.22977" lon="5.75334">
        <ele>640.8</ele>
        <time>2021-11-21T10:33:27Z</time>
      </trkpt>
      <trkpt lat="45.22979" lon="5.75327">
        <ele>641.6</ele>
        <time>2021-11-21T10:33:28Z</time>
      </trkpt>
      <trkpt lat="45.22982" lon="5.7531">
        <ele>642.4</ele>
        <time>2021-11-21T10:33:30Z</time>
      </trkpt>
      <trkpt lat="45.22985" lon="5.75294">
        <ele>644</ele>
        <time>2021-11-21T10:33:32Z</time>
      </trkpt>
      <trkpt lat="45.22987" lon="5.75287">
        <ele>644.6</ele>
        <time>2021-11-21T10:33:33Z</time>
      </trkpt>
      <trkpt lat="45.22988" lon="5.75279">
        <ele>645</ele>
        <time>2021-11-21T10:33:34Z</time>
      </trkpt>
      <trkpt lat="45.22994" lon="5.75266">
        <ele>645.6</ele>
        <time>2021-11-21T10:33:36Z</time>
      </trkpt>
      <trkpt lat="45.23004" lon="5.75259">
        <ele>646</ele>
        <time>2021-11-21T10:33:38Z</time>
      </trkpt>
      <trkpt lat="45.23013" lon="5.75252">
        <ele>646.4</ele>
        <time>2021-11-21T10:33:40Z</time>
      </trkpt>
      <trkpt lat="45.2302" lon="5.75243">
        <ele>647.2</ele>
        <time>2021-11-21T10:33:42Z</time>
      </trkpt>
      <trkpt lat="45.23024" lon="5.75238">
        <ele>647.8</ele>
        <time>2021-11-21T10:33:43Z</time>
      </trkpt>
      <trkpt lat="45.23027" lon="5.75233">
        <ele>648</ele>
        <time>2021-11-21T10:33:44Z</time>
      </trkpt>
      <trkpt lat="45.23029" lon="5.75228">
        <ele>648.2</ele>
        <time>2021-11-21T10:33:45Z</time>
      </trkpt>
      <trkpt lat="45.23031" lon="5.75221">
        <ele>648.8</ele>
        <time>2021-11-21T10:33:46Z</time>
      </trkpt>
      <trkpt lat="45.23032" lon="5.75215">
        <ele>649.2</ele>
        <time>2021-11-21T10:33:47Z</time>
      </trkpt>
      <trkpt lat="45.23033" lon="5.75208">
        <ele>649.8</ele>
        <time>2021-11-21T10:33:48Z</time>
      </trkpt>
      <trkpt lat="45.23034" lon="5.75201">
        <ele>650.4</ele>
        <time>2021-11-21T10:33:49Z</time>
      </trkpt>
      <trkpt lat="45.23036" lon="5.75187">
        <ele>652</ele>
        <time>2021-11-21T10:33:51Z</time>
      </trkpt>
      <trkpt lat="45.23036" lon="5.75181">
        <ele>652.8</ele>
        <time>2021-11-21T10:33:52Z</time>
      </trkpt>
      <trkpt lat="45.2304" lon="5.75163">
        <ele>655.2</ele>
        <time>2021-11-21T10:33:55Z</time>
      </trkpt>
      <trkpt lat="45.23042" lon="5.75149">
        <ele>656.4</ele>
        <time>2021-11-21T10:33:57Z</time>
      </trkpt>
      <trkpt lat="45.23042" lon="5.75135">
        <ele>658</ele>
        <time>2021-11-21T10:33:59Z</time>
      </trkpt>
      <trkpt lat="45.2304" lon="5.75121">
        <ele>659.6</ele>
        <time>2021-11-21T10:34:01Z</time>
      </trkpt>
      <trkpt lat="45.23039" lon="5.75108">
        <ele>660.8</ele>
        <time>2021-11-21T10:34:03Z</time>
      </trkpt>
      <trkpt lat="45.23042" lon="5.75094">
        <ele>663.4</ele>
        <time>2021-11-21T10:34:06Z</time>
      </trkpt>
      <trkpt lat="45.23053" lon="5.75087">
        <ele>665.4</ele>
        <time>2021-11-21T10:34:09Z</time>
      </trkpt>
      <trkpt lat="45.23062" lon="5.75084">
        <ele>666.8</ele>
        <time>2021-11-21T10:34:11Z</time>
      </trkpt>
      <trkpt lat="45.23071" lon="5.75084">
        <ele>668</ele>
        <time>2021-11-21T10:34:13Z</time>
      </trkpt>
      <trkpt lat="45.23076" lon="5.75084">
        <ele>668.8</ele>
        <time>2021-11-21T10:34:14Z</time>
      </trkpt>
      <trkpt lat="45.23085" lon="5.75083">
        <ele>670.4</ele>
        <time>2021-11-21T10:34:16Z</time>
      </trkpt>
      <trkpt lat="45.23094" lon="5.75082">
        <ele>671.8</ele>
        <time>2021-11-21T10:34:18Z</time>
      </trkpt>
      <trkpt lat="45.23107" lon="5.75079">
        <ele>673.8</ele>
        <time>2021-11-21T10:34:21Z</time>
      </trkpt>
      <trkpt lat="45.23115" lon="5.75077">
        <ele>675.2</ele>
        <time>2021-11-21T10:34:23Z</time>
      </trkpt>
      <trkpt lat="45.23128" lon="5.75076">
        <ele>677</ele>
        <time>2021-11-21T10:34:26Z</time>
      </trkpt>
      <trkpt lat="45.23137" lon="5.75076">
        <ele>678.4</ele>
        <time>2021-11-21T10:34:28Z</time>
      </trkpt>
      <trkpt lat="45.23141" lon="5.75076">
        <ele>678.8</ele>
        <time>2021-11-21T10:34:29Z</time>
      </trkpt>
      <trkpt lat="45.23146" lon="5.75076">
        <ele>679.8</ele>
        <time>2021-11-21T10:34:30Z</time>
      </trkpt>
      <trkpt lat="45.23149" lon="5.75076">
        <ele>680.6</ele>
        <time>2021-11-21T10:34:31Z</time>
      </trkpt>
      <trkpt lat="45.23161" lon="5.75075">
        <ele>682.6</ele>
        <time>2021-11-21T10:34:34Z</time>
      </trkpt>
      <trkpt lat="45.23171" lon="5.75074">
        <ele>684.6</ele>
        <time>2021-11-21T10:34:37Z</time>
      </trkpt>
      <trkpt lat="45.23181" lon="5.75079">
        <ele>686.8</ele>
        <time>2021-11-21T10:34:40Z</time>
      </trkpt>
      <trkpt lat="45.2319" lon="5.75088">
        <ele>689.6</ele>
        <time>2021-11-21T10:34:44Z</time>
      </trkpt>
      <trkpt lat="45.23198" lon="5.751">
        <ele>692.8</ele>
        <time>2021-11-21T10:34:48Z</time>
      </trkpt>
      <trkpt lat="45.23207" lon="5.7511">
        <ele>695.8</ele>
        <time>2021-11-21T10:34:52Z</time>
      </trkpt>
      <trkpt lat="45.23218" lon="5.75114">
        <ele>699.4</ele>
        <time>2021-11-21T10:34:56Z</time>
      </trkpt>
      <trkpt lat="45.23228" lon="5.75116">
        <ele>702</ele>
        <time>2021-11-21T10:34:59Z</time>
      </trkpt>
      <trkpt lat="45.23234" lon="5.75118">
        <ele>703</ele>
        <time>2021-11-21T10:35:01Z</time>
      </trkpt>
      <trkpt lat="45.23237" lon="5.75119">
        <ele>703.8</ele>
        <time>2021-11-21T10:35:02Z</time>
      </trkpt>
      <trkpt lat="45.23243" lon="5.75119">
        <ele>705.8</ele>
        <time>2021-11-21T10:35:04Z</time>
      </trkpt>
      <trkpt lat="45.23249" lon="5.7512">
        <ele>707.2</ele>
        <time>2021-11-21T10:35:06Z</time>
      </trkpt>
      <trkpt lat="45.23252" lon="5.75121">
        <ele>707.8</ele>
        <time>2021-11-21T10:35:07Z</time>
      </trkpt>
      <trkpt lat="45.23256" lon="5.75121">
        <ele>708.4</ele>
        <time>2021-11-21T10:35:08Z</time>
      </trkpt>
      <trkpt lat="45.23259" lon="5.75121">
        <ele>708.8</ele>
        <time>2021-11-21T10:35:09Z</time>
      </trkpt>
      <trkpt lat="45.23269" lon="5.75123">
        <ele>711.2</ele>
        <time>2021-11-21T10:35:12Z</time>
      </trkpt>
      <trkpt lat="45.23279" lon="5.75123">
        <ele>713.4</ele>
        <time>2021-11-21T10:35:15Z</time>
      </trkpt>
      <trkpt lat="45.23288" lon="5.75124">
        <ele>715.6</ele>
        <time>2021-11-21T10:35:18Z</time>
      </trkpt>
      <trkpt lat="45.23298" lon="5.75126">
        <ele>717.8</ele>
        <time>2021-11-21T10:35:21Z</time>
      </trkpt>
      <trkpt lat="45.23307" lon="5.75128">
        <ele>719.4</ele>
        <time>2021-11-21T10:35:24Z</time>
      </trkpt>
      <trkpt lat="45.2332" lon="5.75128">
        <ele>720.8</ele>
        <time>2021-11-21T10:35:27Z</time>
      </trkpt>
      <trkpt lat="45.23329" lon="5.75127">
        <ele>722.2</ele>
        <time>2021-11-21T10:35:29Z</time>
      </trkpt>
      <trkpt lat="45.23338" lon="5.75125">
        <ele>723.4</ele>
        <time>2021-11-21T10:35:31Z</time>
      </trkpt>
      <trkpt lat="45.23352" lon="5.75122">
        <ele>725</ele>
        <time>2021-11-21T10:35:34Z</time>
      </trkpt>
      <trkpt lat="45.23362" lon="5.75121">
        <ele>725.8</ele>
        <time>2021-11-21T10:35:36Z</time>
      </trkpt>
      <trkpt lat="45.23371" lon="5.75122">
        <ele>726.6</ele>
        <time>2021-11-21T10:35:38Z</time>
      </trkpt>
      <trkpt lat="45.23381" lon="5.75129">
        <ele>728</ele>
        <time>2021-11-21T10:35:41Z</time>
      </trkpt>
      <trkpt lat="45.23392" lon="5.75128">
        <ele>729.6</ele>
        <time>2021-11-21T10:35:44Z</time>
      </trkpt>
      <trkpt lat="45.23403" lon="5.75132">
        <ele>730.6</ele>
        <time>2021-11-21T10:35:46Z</time>
      </trkpt>
      <trkpt lat="45.23408" lon="5.75133">
        <ele>731</ele>
        <time>2021-11-21T10:35:47Z</time>
      </trkpt>
      <trkpt lat="45.23413" lon="5.75135">
        <ele>731.4</ele>
        <time>2021-11-21T10:35:48Z</time>
      </trkpt>
      <trkpt lat="45.23425" lon="5.75135">
        <ele>732.2</ele>
        <time>2021-11-21T10:35:50Z</time>
      </trkpt>
      <trkpt lat="45.23438" lon="5.75131">
        <ele>732.8</ele>
        <time>2021-11-21T10:35:52Z</time>
      </trkpt>
      <trkpt lat="45.23452" lon="5.75126">
        <ele>733.4</ele>
        <time>2021-11-21T10:35:54Z</time>
      </trkpt>
      <trkpt lat="45.23466" lon="5.75119">
        <ele>734.4</ele>
        <time>2021-11-21T10:35:56Z</time>
      </trkpt>
      <trkpt lat="45.23479" lon="5.75113">
        <ele>735.4</ele>
        <time>2021-11-21T10:35:58Z</time>
      </trkpt>
      <trkpt lat="45.23494" lon="5.75108">
        <ele>736.8</ele>
        <time>2021-11-21T10:36:00Z</time>
      </trkpt>
      <trkpt lat="45.23509" lon="5.75103">
        <ele>737.4</ele>
        <time>2021-11-21T10:36:02Z</time>
      </trkpt>
      <trkpt lat="45.23523" lon="5.751">
        <ele>738.4</ele>
        <time>2021-11-21T10:36:04Z</time>
      </trkpt>
      <trkpt lat="45.23531" lon="5.75099">
        <ele>738.8</ele>
        <time>2021-11-21T10:36:05Z</time>
      </trkpt>
      <trkpt lat="45.23546" lon="5.75101">
        <ele>739.6</ele>
        <time>2021-11-21T10:36:07Z</time>
      </trkpt>
      <trkpt lat="45.23562" lon="5.75106">
        <ele>741</ele>
        <time>2021-11-21T10:36:09Z</time>
      </trkpt>
      <trkpt lat="45.23578" lon="5.75108">
        <ele>741.8</ele>
        <time>2021-11-21T10:36:11Z</time>
      </trkpt>
      <trkpt lat="45.23594" lon="5.75112">
        <ele>743.6</ele>
        <time>2021-11-21T10:36:13Z</time>
      </trkpt>
      <trkpt lat="45.23611" lon="5.75118">
        <ele>745</ele>
        <time>2021-11-21T10:36:15Z</time>
      </trkpt>
      <trkpt lat="45.2362" lon="5.7512">
        <ele>745</ele>
        <time>2021-11-21T10:36:16Z</time>
      </trkpt>
      <trkpt lat="45.23638" lon="5.75121">
        <ele>745.8</ele>
        <time>2021-11-21T10:36:18Z</time>
      </trkpt>
      <trkpt lat="45.23656" lon="5.75118">
        <ele>745.8</ele>
        <time>2021-11-21T10:36:20Z</time>
      </trkpt>
      <trkpt lat="45.23665" lon="5.75115">
        <ele>745.8</ele>
        <time>2021-11-21T10:36:21Z</time>
      </trkpt>
      <trkpt lat="45.23673" lon="5.75113">
        <ele>745.8</ele>
        <time>2021-11-21T10:36:22Z</time>
      </trkpt>
      <trkpt lat="45.23682" lon="5.75111">
        <ele>746</ele>
        <time>2021-11-21T10:36:23Z</time>
      </trkpt>
      <trkpt lat="45.23691" lon="5.75109">
        <ele>746</ele>
        <time>2021-11-21T10:36:24Z</time>
      </trkpt>
      <trkpt lat="45.23701" lon="5.75108">
        <ele>745.6</ele>
        <time>2021-11-21T10:36:25Z</time>
      </trkpt>
      <trkpt lat="45.2371" lon="5.75107">
        <ele>745.2</ele>
        <time>2021-11-21T10:36:26Z</time>
      </trkpt>
      <trkpt lat="45.2372" lon="5.75107">
        <ele>745.6</ele>
        <time>2021-11-21T10:36:27Z</time>
      </trkpt>
      <trkpt lat="45.23729" lon="5.75107">
        <ele>745.6</ele>
        <time>2021-11-21T10:36:28Z</time>
      </trkpt>
      <trkpt lat="45.23739" lon="5.75109">
        <ele>744.8</ele>
        <time>2021-11-21T10:36:29Z</time>
      </trkpt>
      <trkpt lat="45.23748" lon="5.75111">
        <ele>744.4</ele>
        <time>2021-11-21T10:36:30Z</time>
      </trkpt>
      <trkpt lat="45.23757" lon="5.75115">
        <ele>743.4</ele>
        <time>2021-11-21T10:36:31Z</time>
      </trkpt>
      <trkpt lat="45.23766" lon="5.75118">
        <ele>742.8</ele>
        <time>2021-11-21T10:36:32Z</time>
      </trkpt>
      <trkpt lat="45.23775" lon="5.75123">
        <ele>742.2</ele>
        <time>2021-11-21T10:36:33Z</time>
      </trkpt>
      <trkpt lat="45.23784" lon="5.75127">
        <ele>741.8</ele>
        <time>2021-11-21T10:36:34Z</time>
      </trkpt>
      <trkpt lat="45.23793" lon="5.7513">
        <ele>741.2</ele>
        <time>2021-11-21T10:36:35Z</time>
      </trkpt>
      <trkpt lat="45.23802" lon="5.75133">
        <ele>740.4</ele>
        <time>2021-11-21T10:36:36Z</time>
      </trkpt>
      <trkpt lat="45.23811" lon="5.75136">
        <ele>739.4</ele>
        <time>2021-11-21T10:36:37Z</time>
      </trkpt>
      <trkpt lat="45.2382" lon="5.75138">
        <ele>738.8</ele>
        <time>2021-11-21T10:36:38Z</time>
      </trkpt>
      <trkpt lat="45.23829" lon="5.75141">
        <ele>738.2</ele>
        <time>2021-11-21T10:36:39Z</time>
      </trkpt>
      <trkpt lat="45.23839" lon="5.75142">
        <ele>737.8</ele>
        <time>2021-11-21T10:36:40Z</time>
      </trkpt>
      <trkpt lat="45.23849" lon="5.75143">
        <ele>737.2</ele>
        <time>2021-11-21T10:36:41Z</time>
      </trkpt>
      <trkpt lat="45.23867" lon="5.75141">
        <ele>736.6</ele>
        <time>2021-11-21T10:36:43Z</time>
      </trkpt>
      <trkpt lat="45.23876" lon="5.75139">
        <ele>736</ele>
        <time>2021-11-21T10:36:44Z</time>
      </trkpt>
      <trkpt lat="45.23886" lon="5.75136">
        <ele>735.6</ele>
        <time>2021-11-21T10:36:45Z</time>
      </trkpt>
      <trkpt lat="45.23895" lon="5.75133">
        <ele>735</ele>
        <time>2021-11-21T10:36:46Z</time>
      </trkpt>
      <trkpt lat="45.23906" lon="5.75131">
        <ele>734.6</ele>
        <time>2021-11-21T10:36:47Z</time>
      </trkpt>
      <trkpt lat="45.23916" lon="5.7513">
        <ele>734.6</ele>
        <time>2021-11-21T10:36:48Z</time>
      </trkpt>
      <trkpt lat="45.23926" lon="5.7513">
        <ele>733.6</ele>
        <time>2021-11-21T10:36:49Z</time>
      </trkpt>
      <trkpt lat="45.23936" lon="5.75129">
        <ele>733.4</ele>
        <time>2021-11-21T10:36:50Z</time>
      </trkpt>
      <trkpt lat="45.23946" lon="5.75126">
        <ele>733</ele>
        <time>2021-11-21T10:36:51Z</time>
      </trkpt>
      <trkpt lat="45.23957" lon="5.75122">
        <ele>732.4</ele>
        <time>2021-11-21T10:36:52Z</time>
      </trkpt>
      <trkpt lat="45.23966" lon="5.75118">
        <ele>732</ele>
        <time>2021-11-21T10:36:53Z</time>
      </trkpt>
      <trkpt lat="45.23976" lon="5.75114">
        <ele>731.8</ele>
        <time>2021-11-21T10:36:54Z</time>
      </trkpt>
      <trkpt lat="45.23985" lon="5.7511">
        <ele>731.2</ele>
        <time>2021-11-21T10:36:55Z</time>
      </trkpt>
      <trkpt lat="45.23994" lon="5.75106">
        <ele>730.4</ele>
        <time>2021-11-21T10:36:56Z</time>
      </trkpt>
      <trkpt lat="45.24003" lon="5.75102">
        <ele>729.8</ele>
        <time>2021-11-21T10:36:57Z</time>
      </trkpt>
      <trkpt lat="45.24012" lon="5.75098">
        <ele>729</ele>
        <time>2021-11-21T10:36:58Z</time>
      </trkpt>
      <trkpt lat="45.24021" lon="5.75093">
        <ele>727.8</ele>
        <time>2021-11-21T10:36:59Z</time>
      </trkpt>
      <trkpt lat="45.24029" lon="5.75087">
        <ele>727</ele>
        <time>2021-11-21T10:37:00Z</time>
      </trkpt>
      <trkpt lat="45.24038" lon="5.75081">
        <ele>726.2</ele>
        <time>2021-11-21T10:37:01Z</time>
      </trkpt>
      <trkpt lat="45.24046" lon="5.75075">
        <ele>725.8</ele>
        <time>2021-11-21T10:37:02Z</time>
      </trkpt>
      <trkpt lat="45.24054" lon="5.75068">
        <ele>725.4</ele>
        <time>2021-11-21T10:37:03Z</time>
      </trkpt>
      <trkpt lat="45.24062" lon="5.75061">
        <ele>724.8</ele>
        <time>2021-11-21T10:37:04Z</time>
      </trkpt>
      <trkpt lat="45.2407" lon="5.75054">
        <ele>724.2</ele>
        <time>2021-11-21T10:37:05Z</time>
      </trkpt>
      <trkpt lat="45.24085" lon="5.7504">
        <ele>723.2</ele>
        <time>2021-11-21T10:37:07Z</time>
      </trkpt>
      <trkpt lat="45.241" lon="5.75029">
        <ele>722.4</ele>
        <time>2021-11-21T10:37:09Z</time>
      </trkpt>
      <trkpt lat="45.24115" lon="5.75019">
        <ele>722</ele>
        <time>2021-11-21T10:37:11Z</time>
      </trkpt>
      <trkpt lat="45.24122" lon="5.75013">
        <ele>721.6</ele>
        <time>2021-11-21T10:37:12Z</time>
      </trkpt>
      <trkpt lat="45.24136" lon="5.75">
        <ele>721.2</ele>
        <time>2021-11-21T10:37:14Z</time>
      </trkpt>
      <trkpt lat="45.24149" lon="5.74982">
        <ele>720.6</ele>
        <time>2021-11-21T10:37:16Z</time>
      </trkpt>
      <trkpt lat="45.24156" lon="5.74973">
        <ele>720.4</ele>
        <time>2021-11-21T10:37:17Z</time>
      </trkpt>
      <trkpt lat="45.24163" lon="5.74965">
        <ele>720.2</ele>
        <time>2021-11-21T10:37:18Z</time>
      </trkpt>
      <trkpt lat="45.24169" lon="5.74957">
        <ele>720.2</ele>
        <time>2021-11-21T10:37:19Z</time>
      </trkpt>
      <trkpt lat="45.24176" lon="5.74949">
        <ele>720</ele>
        <time>2021-11-21T10:37:20Z</time>
      </trkpt>
      <trkpt lat="45.24183" lon="5.74942">
        <ele>719.8</ele>
        <time>2021-11-21T10:37:21Z</time>
      </trkpt>
      <trkpt lat="45.24189" lon="5.74935">
        <ele>719.8</ele>
        <time>2021-11-21T10:37:22Z</time>
      </trkpt>
      <trkpt lat="45.24195" lon="5.74927">
        <ele>719.6</ele>
        <time>2021-11-21T10:37:23Z</time>
      </trkpt>
      <trkpt lat="45.24201" lon="5.74921">
        <ele>719.4</ele>
        <time>2021-11-21T10:37:24Z</time>
      </trkpt>
      <trkpt lat="45.24211" lon="5.74907">
        <ele>719.4</ele>
        <time>2021-11-21T10:37:26Z</time>
      </trkpt>
      <trkpt lat="45.24216" lon="5.74901">
        <ele>719.6</ele>
        <time>2021-11-21T10:37:27Z</time>
      </trkpt>
      <trkpt lat="45.24221" lon="5.74894">
        <ele>719.8</ele>
        <time>2021-11-21T10:37:28Z</time>
      </trkpt>
      <trkpt lat="45.24227" lon="5.74887">
        <ele>720</ele>
        <time>2021-11-21T10:37:29Z</time>
      </trkpt>
      <trkpt lat="45.24232" lon="5.74879">
        <ele>720.2</ele>
        <time>2021-11-21T10:37:30Z</time>
      </trkpt>
      <trkpt lat="45.24238" lon="5.74872">
        <ele>720.2</ele>
        <time>2021-11-21T10:37:31Z</time>
      </trkpt>
      <trkpt lat="45.24244" lon="5.74865">
        <ele>720</ele>
        <time>2021-11-21T10:37:32Z</time>
      </trkpt>
      <trkpt lat="45.2425" lon="5.74858">
        <ele>719.8</ele>
        <time>2021-11-21T10:37:33Z</time>
      </trkpt>
      <trkpt lat="45.24257" lon="5.74852">
        <ele>720</ele>
        <time>2021-11-21T10:37:34Z</time>
      </trkpt>
      <trkpt lat="45.24263" lon="5.74846">
        <ele>719.6</ele>
        <time>2021-11-21T10:37:35Z</time>
      </trkpt>
      <trkpt lat="45.24277" lon="5.74837">
        <ele>719.2</ele>
        <time>2021-11-21T10:37:37Z</time>
      </trkpt>
      <trkpt lat="45.24291" lon="5.74828">
        <ele>719</ele>
        <time>2021-11-21T10:37:39Z</time>
      </trkpt>
      <trkpt lat="45.24304" lon="5.74814">
        <ele>718.8</ele>
        <time>2021-11-21T10:37:41Z</time>
      </trkpt>
      <trkpt lat="45.24311" lon="5.74796">
        <ele>719.6</ele>
        <time>2021-11-21T10:37:43Z</time>
      </trkpt>
      <trkpt lat="45.24313" lon="5.74785">
        <ele>719.4</ele>
        <time>2021-11-21T10:37:44Z</time>
      </trkpt>
      <trkpt lat="45.24314" lon="5.74774">
        <ele>719.2</ele>
        <time>2021-11-21T10:37:45Z</time>
      </trkpt>
      <trkpt lat="45.24316" lon="5.74763">
        <ele>719.6</ele>
        <time>2021-11-21T10:37:46Z</time>
      </trkpt>
      <trkpt lat="45.2432" lon="5.74753">
        <ele>719.6</ele>
        <time>2021-11-21T10:37:47Z</time>
      </trkpt>
      <trkpt lat="45.24326" lon="5.74746">
        <ele>719.4</ele>
        <time>2021-11-21T10:37:48Z</time>
      </trkpt>
      <trkpt lat="45.24335" lon="5.7474">
        <ele>719</ele>
        <time>2021-11-21T10:37:49Z</time>
      </trkpt>
      <trkpt lat="45.24344" lon="5.74734">
        <ele>719.4</ele>
        <time>2021-11-21T10:37:50Z</time>
      </trkpt>
      <trkpt lat="45.24353" lon="5.74729">
        <ele>719.4</ele>
        <time>2021-11-21T10:37:51Z</time>
      </trkpt>
      <trkpt lat="45.24368" lon="5.74719">
        <ele>719.2</ele>
        <time>2021-11-21T10:37:53Z</time>
      </trkpt>
      <trkpt lat="45.24376" lon="5.74712">
        <ele>719.2</ele>
        <time>2021-11-21T10:37:54Z</time>
      </trkpt>
      <trkpt lat="45.24391" lon="5.747">
        <ele>719</ele>
        <time>2021-11-21T10:37:56Z</time>
      </trkpt>
      <trkpt lat="45.24406" lon="5.74689">
        <ele>718.8</ele>
        <time>2021-11-21T10:37:58Z</time>
      </trkpt>
      <trkpt lat="45.24413" lon="5.74682">
        <ele>718.6</ele>
        <time>2021-11-21T10:37:59Z</time>
      </trkpt>
      <trkpt lat="45.24425" lon="5.74671">
        <ele>718.4</ele>
        <time>2021-11-21T10:38:01Z</time>
      </trkpt>
      <trkpt lat="45.24437" lon="5.74657">
        <ele>718.6</ele>
        <time>2021-11-21T10:38:03Z</time>
      </trkpt>
      <trkpt lat="45.2445" lon="5.7464">
        <ele>718.8</ele>
        <time>2021-11-21T10:38:05Z</time>
      </trkpt>
      <trkpt lat="45.24455" lon="5.74631">
        <ele>718.6</ele>
        <time>2021-11-21T10:38:06Z</time>
      </trkpt>
      <trkpt lat="45.24461" lon="5.74622">
        <ele>718.4</ele>
        <time>2021-11-21T10:38:07Z</time>
      </trkpt>
      <trkpt lat="45.24466" lon="5.74613">
        <ele>718.2</ele>
        <time>2021-11-21T10:38:08Z</time>
      </trkpt>
      <trkpt lat="45.2447" lon="5.74602">
        <ele>717.8</ele>
        <time>2021-11-21T10:38:09Z</time>
      </trkpt>
      <trkpt lat="45.24474" lon="5.74592">
        <ele>718</ele>
        <time>2021-11-21T10:38:10Z</time>
      </trkpt>
      <trkpt lat="45.24478" lon="5.74581">
        <ele>718</ele>
        <time>2021-11-21T10:38:11Z</time>
      </trkpt>
      <trkpt lat="45.24482" lon="5.74571">
        <ele>718</ele>
        <time>2021-11-21T10:38:12Z</time>
      </trkpt>
      <trkpt lat="45.24486" lon="5.7456">
        <ele>717.8</ele>
        <time>2021-11-21T10:38:13Z</time>
      </trkpt>
      <trkpt lat="45.24489" lon="5.7455">
        <ele>718</ele>
        <time>2021-11-21T10:38:14Z</time>
      </trkpt>
      <trkpt lat="45.24493" lon="5.74539">
        <ele>717.6</ele>
        <time>2021-11-21T10:38:15Z</time>
      </trkpt>
      <trkpt lat="45.24497" lon="5.74529">
        <ele>717.6</ele>
        <time>2021-11-21T10:38:16Z</time>
      </trkpt>
      <trkpt lat="45.24501" lon="5.74519">
        <ele>717.6</ele>
        <time>2021-11-21T10:38:17Z</time>
      </trkpt>
      <trkpt lat="45.24505" lon="5.74509">
        <ele>717.6</ele>
        <time>2021-11-21T10:38:18Z</time>
      </trkpt>
      <trkpt lat="45.24508" lon="5.74498">
        <ele>717.6</ele>
        <time>2021-11-21T10:38:19Z</time>
      </trkpt>
      <trkpt lat="45.24512" lon="5.74488">
        <ele>717.4</ele>
        <time>2021-11-21T10:38:20Z</time>
      </trkpt>
      <trkpt lat="45.24516" lon="5.74478">
        <ele>717.2</ele>
        <time>2021-11-21T10:38:21Z</time>
      </trkpt>
      <trkpt lat="45.2452" lon="5.74469">
        <ele>717.2</ele>
        <time>2021-11-21T10:38:22Z</time>
      </trkpt>
      <trkpt lat="45.24528" lon="5.7445">
        <ele>716.8</ele>
        <time>2021-11-21T10:38:24Z</time>
      </trkpt>
      <trkpt lat="45.24539" lon="5.74431">
        <ele>716.8</ele>
        <time>2021-11-21T10:38:26Z</time>
      </trkpt>
      <trkpt lat="45.24544" lon="5.74423">
        <ele>716.8</ele>
        <time>2021-11-21T10:38:27Z</time>
      </trkpt>
      <trkpt lat="45.2455" lon="5.74414">
        <ele>716.6</ele>
        <time>2021-11-21T10:38:28Z</time>
      </trkpt>
      <trkpt lat="45.24555" lon="5.74405">
        <ele>716.6</ele>
        <time>2021-11-21T10:38:29Z</time>
      </trkpt>
      <trkpt lat="45.24561" lon="5.74396">
        <ele>716.6</ele>
        <time>2021-11-21T10:38:30Z</time>
      </trkpt>
      <trkpt lat="45.24565" lon="5.74386">
        <ele>716.8</ele>
        <time>2021-11-21T10:38:31Z</time>
      </trkpt>
      <trkpt lat="45.24569" lon="5.74376">
        <ele>716.8</ele>
        <time>2021-11-21T10:38:32Z</time>
      </trkpt>
      <trkpt lat="45.24572" lon="5.74366">
        <ele>716.6</ele>
        <time>2021-11-21T10:38:33Z</time>
      </trkpt>
      <trkpt lat="45.24574" lon="5.74344">
        <ele>716.4</ele>
        <time>2021-11-21T10:38:35Z</time>
      </trkpt>
      <trkpt lat="45.24574" lon="5.74333">
        <ele>716.4</ele>
        <time>2021-11-21T10:38:36Z</time>
      </trkpt>
      <trkpt lat="45.24574" lon="5.74322">
        <ele>716.6</ele>
        <time>2021-11-21T10:38:37Z</time>
      </trkpt>
      <trkpt lat="45.24574" lon="5.74312">
        <ele>716.8</ele>
        <time>2021-11-21T10:38:38Z</time>
      </trkpt>
      <trkpt lat="45.24572" lon="5.74303">
        <ele>716.8</ele>
        <time>2021-11-21T10:38:39Z</time>
      </trkpt>
      <trkpt lat="45.24561" lon="5.74288">
        <ele>716.6</ele>
        <time>2021-11-21T10:38:41Z</time>
      </trkpt>
      <trkpt lat="45.24556" lon="5.74283">
        <ele>716</ele>
        <time>2021-11-21T10:38:42Z</time>
      </trkpt>
      <trkpt lat="45.2455" lon="5.74279">
        <ele>716</ele>
        <time>2021-11-21T10:38:43Z</time>
      </trkpt>
      <trkpt lat="45.24545" lon="5.74274">
        <ele>715.8</ele>
        <time>2021-11-21T10:38:44Z</time>
      </trkpt>
      <trkpt lat="45.2454" lon="5.74268">
        <ele>716</ele>
        <time>2021-11-21T10:38:45Z</time>
      </trkpt>
      <trkpt lat="45.24536" lon="5.7426">
        <ele>716.4</ele>
        <time>2021-11-21T10:38:46Z</time>
      </trkpt>
      <trkpt lat="45.24533" lon="5.74252">
        <ele>715.8</ele>
        <time>2021-11-21T10:38:47Z</time>
      </trkpt>
      <trkpt lat="45.24531" lon="5.74243">
        <ele>715.8</ele>
        <time>2021-11-21T10:38:48Z</time>
      </trkpt>
      <trkpt lat="45.2453" lon="5.74234">
        <ele>715.8</ele>
        <time>2021-11-21T10:38:49Z</time>
      </trkpt>
      <trkpt lat="45.24528" lon="5.74225">
        <ele>716.4</ele>
        <time>2021-11-21T10:38:50Z</time>
      </trkpt>
      <trkpt lat="45.24527" lon="5.74216">
        <ele>716.6</ele>
        <time>2021-11-21T10:38:51Z</time>
      </trkpt>
      <trkpt lat="45.24525" lon="5.74207">
        <ele>717</ele>
        <time>2021-11-21T10:38:52Z</time>
      </trkpt>
      <trkpt lat="45.24522" lon="5.74199">
        <ele>717.2</ele>
        <time>2021-11-21T10:38:53Z</time>
      </trkpt>
      <trkpt lat="45.24519" lon="5.7419">
        <ele>717.6</ele>
        <time>2021-11-21T10:38:54Z</time>
      </trkpt>
      <trkpt lat="45.24516" lon="5.74182">
        <ele>717.8</ele>
        <time>2021-11-21T10:38:55Z</time>
      </trkpt>
      <trkpt lat="45.24512" lon="5.74174">
        <ele>718</ele>
        <time>2021-11-21T10:38:56Z</time>
      </trkpt>
      <trkpt lat="45.24509" lon="5.74166">
        <ele>717.6</ele>
        <time>2021-11-21T10:38:57Z</time>
      </trkpt>
      <trkpt lat="45.24507" lon="5.74157">
        <ele>717.8</ele>
        <time>2021-11-21T10:38:58Z</time>
      </trkpt>
      <trkpt lat="45.24506" lon="5.74148">
        <ele>718.2</ele>
        <time>2021-11-21T10:38:59Z</time>
      </trkpt>
      <trkpt lat="45.24505" lon="5.74139">
        <ele>718.6</ele>
        <time>2021-11-21T10:39:00Z</time>
      </trkpt>
      <trkpt lat="45.24504" lon="5.7413">
        <ele>718.8</ele>
        <time>2021-11-21T10:39:01Z</time>
      </trkpt>
      <trkpt lat="45.24501" lon="5.74123">
        <ele>719</ele>
        <time>2021-11-21T10:39:02Z</time>
      </trkpt>
      <trkpt lat="45.24497" lon="5.74116">
        <ele>719</ele>
        <time>2021-11-21T10:39:03Z</time>
      </trkpt>
      <trkpt lat="45.24493" lon="5.74109">
        <ele>719.4</ele>
        <time>2021-11-21T10:39:04Z</time>
      </trkpt>
      <trkpt lat="45.24488" lon="5.74104">
        <ele>719.4</ele>
        <time>2021-11-21T10:39:05Z</time>
      </trkpt>
      <trkpt lat="45.24482" lon="5.74099">
        <ele>719.4</ele>
        <time>2021-11-21T10:39:06Z</time>
      </trkpt>
      <trkpt lat="45.24476" lon="5.74096">
        <ele>719.2</ele>
        <time>2021-11-21T10:39:07Z</time>
      </trkpt>
      <trkpt lat="45.2447" lon="5.74091">
        <ele>719.4</ele>
        <time>2021-11-21T10:39:08Z</time>
      </trkpt>
      <trkpt lat="45.24465" lon="5.74086">
        <ele>719.6</ele>
        <time>2021-11-21T10:39:09Z</time>
      </trkpt>
      <trkpt lat="45.2446" lon="5.74079">
        <ele>719.6</ele>
        <time>2021-11-21T10:39:10Z</time>
      </trkpt>
      <trkpt lat="45.24457" lon="5.74071">
        <ele>720</ele>
        <time>2021-11-21T10:39:11Z</time>
      </trkpt>
      <trkpt lat="45.24455" lon="5.74063">
        <ele>720.4</ele>
        <time>2021-11-21T10:39:12Z</time>
      </trkpt>
      <trkpt lat="45.24454" lon="5.74054">
        <ele>720.8</ele>
        <time>2021-11-21T10:39:13Z</time>
      </trkpt>
      <trkpt lat="45.24452" lon="5.74045">
        <ele>721</ele>
        <time>2021-11-21T10:39:14Z</time>
      </trkpt>
      <trkpt lat="45.24449" lon="5.74037">
        <ele>721.4</ele>
        <time>2021-11-21T10:39:15Z</time>
      </trkpt>
      <trkpt lat="45.24446" lon="5.74031">
        <ele>721.4</ele>
        <time>2021-11-21T10:39:16Z</time>
      </trkpt>
      <trkpt lat="45.24442" lon="5.74024">
        <ele>721.6</ele>
        <time>2021-11-21T10:39:17Z</time>
      </trkpt>
      <trkpt lat="45.24438" lon="5.74017">
        <ele>721.6</ele>
        <time>2021-11-21T10:39:18Z</time>
      </trkpt>
      <trkpt lat="45.24435" lon="5.74008">
        <ele>722</ele>
        <time>2021-11-21T10:39:19Z</time>
      </trkpt>
      <trkpt lat="45.24433" lon="5.73999">
        <ele>722.2</ele>
        <time>2021-11-21T10:39:20Z</time>
      </trkpt>
      <trkpt lat="45.2443" lon="5.73989">
        <ele>722.2</ele>
        <time>2021-11-21T10:39:21Z</time>
      </trkpt>
      <trkpt lat="45.24428" lon="5.7398">
        <ele>722.6</ele>
        <time>2021-11-21T10:39:22Z</time>
      </trkpt>
      <trkpt lat="45.24426" lon="5.7397">
        <ele>722.8</ele>
        <time>2021-11-21T10:39:23Z</time>
      </trkpt>
      <trkpt lat="45.24423" lon="5.73961">
        <ele>723</ele>
        <time>2021-11-21T10:39:24Z</time>
      </trkpt>
      <trkpt lat="45.24421" lon="5.73952">
        <ele>723.2</ele>
        <time>2021-11-21T10:39:25Z</time>
      </trkpt>
      <trkpt lat="45.24419" lon="5.73944">
        <ele>723.4</ele>
        <time>2021-11-21T10:39:26Z</time>
      </trkpt>
      <trkpt lat="45.24418" lon="5.73936">
        <ele>723.2</ele>
        <time>2021-11-21T10:39:27Z</time>
      </trkpt>
      <trkpt lat="45.24417" lon="5.73929">
        <ele>723.6</ele>
        <time>2021-11-21T10:39:28Z</time>
      </trkpt>
      <trkpt lat="45.24416" lon="5.73922">
        <ele>723.8</ele>
        <time>2021-11-21T10:39:29Z</time>
      </trkpt>
      <trkpt lat="45.24415" lon="5.73914">
        <ele>724</ele>
        <time>2021-11-21T10:39:30Z</time>
      </trkpt>
      <trkpt lat="45.24413" lon="5.73907">
        <ele>724</ele>
        <time>2021-11-21T10:39:31Z</time>
      </trkpt>
      <trkpt lat="45.2441" lon="5.73899">
        <ele>724</ele>
        <time>2021-11-21T10:39:32Z</time>
      </trkpt>
      <trkpt lat="45.24407" lon="5.7389">
        <ele>724</ele>
        <time>2021-11-21T10:39:33Z</time>
      </trkpt>
      <trkpt lat="45.24403" lon="5.73882">
        <ele>724</ele>
        <time>2021-11-21T10:39:34Z</time>
      </trkpt>
      <trkpt lat="45.24399" lon="5.73873">
        <ele>724.4</ele>
        <time>2021-11-21T10:39:35Z</time>
      </trkpt>
      <trkpt lat="45.24394" lon="5.73864">
        <ele>724.6</ele>
        <time>2021-11-21T10:39:36Z</time>
      </trkpt>
      <trkpt lat="45.2439" lon="5.73854">
        <ele>724.4</ele>
        <time>2021-11-21T10:39:37Z</time>
      </trkpt>
      <trkpt lat="45.24386" lon="5.73844">
        <ele>724.6</ele>
        <time>2021-11-21T10:39:38Z</time>
      </trkpt>
      <trkpt lat="45.24382" lon="5.73834">
        <ele>724.6</ele>
        <time>2021-11-21T10:39:39Z</time>
      </trkpt>
      <trkpt lat="45.24376" lon="5.73825">
        <ele>724.8</ele>
        <time>2021-11-21T10:39:40Z</time>
      </trkpt>
      <trkpt lat="45.2437" lon="5.73815">
        <ele>724.8</ele>
        <time>2021-11-21T10:39:41Z</time>
      </trkpt>
      <trkpt lat="45.24364" lon="5.73805">
        <ele>724.8</ele>
        <time>2021-11-21T10:39:42Z</time>
      </trkpt>
      <trkpt lat="45.24358" lon="5.73795">
        <ele>724.6</ele>
        <time>2021-11-21T10:39:43Z</time>
      </trkpt>
      <trkpt lat="45.24352" lon="5.73784">
        <ele>724</ele>
        <time>2021-11-21T10:39:44Z</time>
      </trkpt>
      <trkpt lat="45.24345" lon="5.73775">
        <ele>723.8</ele>
        <time>2021-11-21T10:39:45Z</time>
      </trkpt>
      <trkpt lat="45.24337" lon="5.73768">
        <ele>723.4</ele>
        <time>2021-11-21T10:39:46Z</time>
      </trkpt>
      <trkpt lat="45.24327" lon="5.73763">
        <ele>723.2</ele>
        <time>2021-11-21T10:39:47Z</time>
      </trkpt>
      <trkpt lat="45.24317" lon="5.73759">
        <ele>722.8</ele>
        <time>2021-11-21T10:39:48Z</time>
      </trkpt>
      <trkpt lat="45.24307" lon="5.73755">
        <ele>722.6</ele>
        <time>2021-11-21T10:39:49Z</time>
      </trkpt>
      <trkpt lat="45.24298" lon="5.73751">
        <ele>722.4</ele>
        <time>2021-11-21T10:39:50Z</time>
      </trkpt>
      <trkpt lat="45.24287" lon="5.73746">
        <ele>722</ele>
        <time>2021-11-21T10:39:51Z</time>
      </trkpt>
      <trkpt lat="45.24278" lon="5.73743">
        <ele>721.2</ele>
        <time>2021-11-21T10:39:52Z</time>
      </trkpt>
      <trkpt lat="45.24268" lon="5.73739">
        <ele>720.4</ele>
        <time>2021-11-21T10:39:53Z</time>
      </trkpt>
      <trkpt lat="45.24259" lon="5.73737">
        <ele>719.8</ele>
        <time>2021-11-21T10:39:54Z</time>
      </trkpt>
      <trkpt lat="45.24249" lon="5.73737">
        <ele>719</ele>
        <time>2021-11-21T10:39:55Z</time>
      </trkpt>
      <trkpt lat="45.24239" lon="5.73739">
        <ele>718.2</ele>
        <time>2021-11-21T10:39:56Z</time>
      </trkpt>
      <trkpt lat="45.2423" lon="5.73741">
        <ele>717.8</ele>
        <time>2021-11-21T10:39:57Z</time>
      </trkpt>
      <trkpt lat="45.2422" lon="5.73745">
        <ele>717.4</ele>
        <time>2021-11-21T10:39:58Z</time>
      </trkpt>
      <trkpt lat="45.24212" lon="5.73747">
        <ele>716.6</ele>
        <time>2021-11-21T10:39:59Z</time>
      </trkpt>
      <trkpt lat="45.24204" lon="5.73747">
        <ele>715.6</ele>
        <time>2021-11-21T10:40:00Z</time>
      </trkpt>
      <trkpt lat="45.24197" lon="5.73743">
        <ele>715.2</ele>
        <time>2021-11-21T10:40:01Z</time>
      </trkpt>
      <trkpt lat="45.24186" lon="5.73727">
        <ele>713.2</ele>
        <time>2021-11-21T10:40:03Z</time>
      </trkpt>
      <trkpt lat="45.24173" lon="5.73712">
        <ele>711.6</ele>
        <time>2021-11-21T10:40:05Z</time>
      </trkpt>
      <trkpt lat="45.24165" lon="5.73705">
        <ele>711</ele>
        <time>2021-11-21T10:40:06Z</time>
      </trkpt>
      <trkpt lat="45.24157" lon="5.73697">
        <ele>710.4</ele>
        <time>2021-11-21T10:40:07Z</time>
      </trkpt>
      <trkpt lat="45.24149" lon="5.7369">
        <ele>709.6</ele>
        <time>2021-11-21T10:40:08Z</time>
      </trkpt>
      <trkpt lat="45.2414" lon="5.73684">
        <ele>709</ele>
        <time>2021-11-21T10:40:09Z</time>
      </trkpt>
      <trkpt lat="45.24131" lon="5.73678">
        <ele>708.2</ele>
        <time>2021-11-21T10:40:10Z</time>
      </trkpt>
      <trkpt lat="45.24122" lon="5.7367">
        <ele>707.8</ele>
        <time>2021-11-21T10:40:11Z</time>
      </trkpt>
      <trkpt lat="45.24115" lon="5.7366">
        <ele>706.8</ele>
        <time>2021-11-21T10:40:12Z</time>
      </trkpt>
      <trkpt lat="45.2411" lon="5.73649">
        <ele>706.2</ele>
        <time>2021-11-21T10:40:13Z</time>
      </trkpt>
      <trkpt lat="45.24108" lon="5.73636">
        <ele>705.8</ele>
        <time>2021-11-21T10:40:14Z</time>
      </trkpt>
      <trkpt lat="45.24109" lon="5.73623">
        <ele>705.2</ele>
        <time>2021-11-21T10:40:15Z</time>
      </trkpt>
      <trkpt lat="45.24113" lon="5.73611">
        <ele>704.8</ele>
        <time>2021-11-21T10:40:16Z</time>
      </trkpt>
      <trkpt lat="45.24119" lon="5.736">
        <ele>704</ele>
        <time>2021-11-21T10:40:17Z</time>
      </trkpt>
      <trkpt lat="45.24129" lon="5.73582">
        <ele>702.6</ele>
        <time>2021-11-21T10:40:19Z</time>
      </trkpt>
      <trkpt lat="45.24124" lon="5.73565">
        <ele>701.4</ele>
        <time>2021-11-21T10:40:21Z</time>
      </trkpt>
      <trkpt lat="45.24119" lon="5.73557">
        <ele>701</ele>
        <time>2021-11-21T10:40:22Z</time>
      </trkpt>
      <trkpt lat="45.24114" lon="5.73549">
        <ele>700.2</ele>
        <time>2021-11-21T10:40:23Z</time>
      </trkpt>
      <trkpt lat="45.2411" lon="5.7354">
        <ele>699.8</ele>
        <time>2021-11-21T10:40:24Z</time>
      </trkpt>
      <trkpt lat="45.24109" lon="5.7353">
        <ele>699.6</ele>
        <time>2021-11-21T10:40:25Z</time>
      </trkpt>
      <trkpt lat="45.24107" lon="5.7352">
        <ele>699.2</ele>
        <time>2021-11-21T10:40:26Z</time>
      </trkpt>
      <trkpt lat="45.24103" lon="5.73512">
        <ele>698.8</ele>
        <time>2021-11-21T10:40:27Z</time>
      </trkpt>
      <trkpt lat="45.24097" lon="5.73506">
        <ele>698.4</ele>
        <time>2021-11-21T10:40:28Z</time>
      </trkpt>
      <trkpt lat="45.2409" lon="5.73503">
        <ele>697.8</ele>
        <time>2021-11-21T10:40:29Z</time>
      </trkpt>
      <trkpt lat="45.24082" lon="5.735">
        <ele>698</ele>
        <time>2021-11-21T10:40:30Z</time>
      </trkpt>
      <trkpt lat="45.24074" lon="5.73498">
        <ele>697.8</ele>
        <time>2021-11-21T10:40:31Z</time>
      </trkpt>
      <trkpt lat="45.24056" lon="5.73498">
        <ele>697.6</ele>
        <time>2021-11-21T10:40:33Z</time>
      </trkpt>
      <trkpt lat="45.24046" lon="5.73499">
        <ele>697.4</ele>
        <time>2021-11-21T10:40:34Z</time>
      </trkpt>
      <trkpt lat="45.24037" lon="5.735">
        <ele>697.2</ele>
        <time>2021-11-21T10:40:35Z</time>
      </trkpt>
      <trkpt lat="45.24028" lon="5.73502">
        <ele>697</ele>
        <time>2021-11-21T10:40:36Z</time>
      </trkpt>
      <trkpt lat="45.24018" lon="5.73504">
        <ele>696.8</ele>
        <time>2021-11-21T10:40:37Z</time>
      </trkpt>
      <trkpt lat="45.24009" lon="5.73506">
        <ele>696.4</ele>
        <time>2021-11-21T10:40:38Z</time>
      </trkpt>
      <trkpt lat="45.24" lon="5.73508">
        <ele>696.2</ele>
        <time>2021-11-21T10:40:39Z</time>
      </trkpt>
      <trkpt lat="45.23989" lon="5.73509">
        <ele>696.4</ele>
        <time>2021-11-21T10:40:40Z</time>
      </trkpt>
      <trkpt lat="45.23978" lon="5.73505">
        <ele>696</ele>
        <time>2021-11-21T10:40:41Z</time>
      </trkpt>
      <trkpt lat="45.23968" lon="5.735">
        <ele>695.6</ele>
        <time>2021-11-21T10:40:42Z</time>
      </trkpt>
      <trkpt lat="45.2396" lon="5.73492">
        <ele>695.2</ele>
        <time>2021-11-21T10:40:43Z</time>
      </trkpt>
      <trkpt lat="45.23952" lon="5.73481">
        <ele>694.8</ele>
        <time>2021-11-21T10:40:44Z</time>
      </trkpt>
      <trkpt lat="45.23946" lon="5.73471">
        <ele>694.2</ele>
        <time>2021-11-21T10:40:45Z</time>
      </trkpt>
      <trkpt lat="45.23941" lon="5.73458">
        <ele>693.6</ele>
        <time>2021-11-21T10:40:46Z</time>
      </trkpt>
      <trkpt lat="45.23937" lon="5.73446">
        <ele>693</ele>
        <time>2021-11-21T10:40:47Z</time>
      </trkpt>
      <trkpt lat="45.23934" lon="5.73435">
        <ele>692.4</ele>
        <time>2021-11-21T10:40:48Z</time>
      </trkpt>
      <trkpt lat="45.23932" lon="5.73423">
        <ele>692</ele>
        <time>2021-11-21T10:40:49Z</time>
      </trkpt>
      <trkpt lat="45.23931" lon="5.73411">
        <ele>691.2</ele>
        <time>2021-11-21T10:40:50Z</time>
      </trkpt>
      <trkpt lat="45.23931" lon="5.73386">
        <ele>689.8</ele>
        <time>2021-11-21T10:40:52Z</time>
      </trkpt>
      <trkpt lat="45.23928" lon="5.73363">
        <ele>687.8</ele>
        <time>2021-11-21T10:40:54Z</time>
      </trkpt>
      <trkpt lat="45.23924" lon="5.73353">
        <ele>686.8</ele>
        <time>2021-11-21T10:40:55Z</time>
      </trkpt>
      <trkpt lat="45.23919" lon="5.73345">
        <ele>686.4</ele>
        <time>2021-11-21T10:40:56Z</time>
      </trkpt>
      <trkpt lat="45.23908" lon="5.73334">
        <ele>686</ele>
        <time>2021-11-21T10:40:58Z</time>
      </trkpt>
      <trkpt lat="45.23901" lon="5.73326">
        <ele>685.4</ele>
        <time>2021-11-21T10:40:59Z</time>
      </trkpt>
      <trkpt lat="45.23895" lon="5.73318">
        <ele>685.4</ele>
        <time>2021-11-21T10:41:00Z</time>
      </trkpt>
      <trkpt lat="45.23889" lon="5.73309">
        <ele>685</ele>
        <time>2021-11-21T10:41:01Z</time>
      </trkpt>
      <trkpt lat="45.23883" lon="5.73299">
        <ele>684.6</ele>
        <time>2021-11-21T10:41:02Z</time>
      </trkpt>
      <trkpt lat="45.23879" lon="5.73288">
        <ele>684.4</ele>
        <time>2021-11-21T10:41:03Z</time>
      </trkpt>
      <trkpt lat="45.23875" lon="5.73276">
        <ele>684.6</ele>
        <time>2021-11-21T10:41:04Z</time>
      </trkpt>
      <trkpt lat="45.23872" lon="5.73265">
        <ele>684</ele>
        <time>2021-11-21T10:41:05Z</time>
      </trkpt>
      <trkpt lat="45.23869" lon="5.73253">
        <ele>683.6</ele>
        <time>2021-11-21T10:41:06Z</time>
      </trkpt>
      <trkpt lat="45.23866" lon="5.73241">
        <ele>683.6</ele>
        <time>2021-11-21T10:41:07Z</time>
      </trkpt>
      <trkpt lat="45.23864" lon="5.73228">
        <ele>683.6</ele>
        <time>2021-11-21T10:41:08Z</time>
      </trkpt>
      <trkpt lat="45.23862" lon="5.73216">
        <ele>683.2</ele>
        <time>2021-11-21T10:41:09Z</time>
      </trkpt>
      <trkpt lat="45.23862" lon="5.73203">
        <ele>682.8</ele>
        <time>2021-11-21T10:41:10Z</time>
      </trkpt>
      <trkpt lat="45.23863" lon="5.73189">
        <ele>682.6</ele>
        <time>2021-11-21T10:41:11Z</time>
      </trkpt>
      <trkpt lat="45.23865" lon="5.73176">
        <ele>682.2</ele>
        <time>2021-11-21T10:41:12Z</time>
      </trkpt>
      <trkpt lat="45.23868" lon="5.73163">
        <ele>682.2</ele>
        <time>2021-11-21T10:41:13Z</time>
      </trkpt>
      <trkpt lat="45.23871" lon="5.73151">
        <ele>681.4</ele>
        <time>2021-11-21T10:41:14Z</time>
      </trkpt>
      <trkpt lat="45.23874" lon="5.73138">
        <ele>681.2</ele>
        <time>2021-11-21T10:41:15Z</time>
      </trkpt>
      <trkpt lat="45.23874" lon="5.73127">
        <ele>680.6</ele>
        <time>2021-11-21T10:41:16Z</time>
      </trkpt>
      <trkpt lat="45.23872" lon="5.73117">
        <ele>680.4</ele>
        <time>2021-11-21T10:41:17Z</time>
      </trkpt>
      <trkpt lat="45.23867" lon="5.7311">
        <ele>680</ele>
        <time>2021-11-21T10:41:18Z</time>
      </trkpt>
      <trkpt lat="45.23859" lon="5.73107">
        <ele>679.6</ele>
        <time>2021-11-21T10:41:19Z</time>
      </trkpt>
      <trkpt lat="45.23851" lon="5.73106">
        <ele>679.2</ele>
        <time>2021-11-21T10:41:20Z</time>
      </trkpt>
      <trkpt lat="45.23842" lon="5.73106">
        <ele>678.4</ele>
        <time>2021-11-21T10:41:21Z</time>
      </trkpt>
      <trkpt lat="45.23834" lon="5.73107">
        <ele>677.8</ele>
        <time>2021-11-21T10:41:22Z</time>
      </trkpt>
      <trkpt lat="45.23826" lon="5.7311">
        <ele>677.2</ele>
        <time>2021-11-21T10:41:23Z</time>
      </trkpt>
      <trkpt lat="45.23818" lon="5.73114">
        <ele>676.8</ele>
        <time>2021-11-21T10:41:24Z</time>
      </trkpt>
      <trkpt lat="45.23811" lon="5.7312">
        <ele>676</ele>
        <time>2021-11-21T10:41:25Z</time>
      </trkpt>
      <trkpt lat="45.23803" lon="5.73127">
        <ele>675.8</ele>
        <time>2021-11-21T10:41:26Z</time>
      </trkpt>
      <trkpt lat="45.23796" lon="5.73135">
        <ele>675.2</ele>
        <time>2021-11-21T10:41:27Z</time>
      </trkpt>
      <trkpt lat="45.23788" lon="5.73142">
        <ele>674.8</ele>
        <time>2021-11-21T10:41:28Z</time>
      </trkpt>
      <trkpt lat="45.23781" lon="5.7315">
        <ele>674.4</ele>
        <time>2021-11-21T10:41:29Z</time>
      </trkpt>
      <trkpt lat="45.23774" lon="5.73158">
        <ele>674.2</ele>
        <time>2021-11-21T10:41:30Z</time>
      </trkpt>
      <trkpt lat="45.23767" lon="5.73166">
        <ele>674</ele>
        <time>2021-11-21T10:41:31Z</time>
      </trkpt>
      <trkpt lat="45.23759" lon="5.73173">
        <ele>674</ele>
        <time>2021-11-21T10:41:32Z</time>
      </trkpt>
      <trkpt lat="45.23752" lon="5.73181">
        <ele>673.6</ele>
        <time>2021-11-21T10:41:33Z</time>
      </trkpt>
      <trkpt lat="45.23744" lon="5.73188">
        <ele>673.2</ele>
        <time>2021-11-21T10:41:34Z</time>
      </trkpt>
      <trkpt lat="45.23736" lon="5.73193">
        <ele>673</ele>
        <time>2021-11-21T10:41:35Z</time>
      </trkpt>
      <trkpt lat="45.23727" lon="5.73195">
        <ele>672.6</ele>
        <time>2021-11-21T10:41:36Z</time>
      </trkpt>
      <trkpt lat="45.23717" lon="5.73193">
        <ele>672.4</ele>
        <time>2021-11-21T10:41:37Z</time>
      </trkpt>
      <trkpt lat="45.23707" lon="5.73192">
        <ele>671.8</ele>
        <time>2021-11-21T10:41:38Z</time>
      </trkpt>
      <trkpt lat="45.23697" lon="5.73191">
        <ele>671</ele>
        <time>2021-11-21T10:41:39Z</time>
      </trkpt>
      <trkpt lat="45.23687" lon="5.7319">
        <ele>670.6</ele>
        <time>2021-11-21T10:41:40Z</time>
      </trkpt>
      <trkpt lat="45.23678" lon="5.73188">
        <ele>670.2</ele>
        <time>2021-11-21T10:41:41Z</time>
      </trkpt>
      <trkpt lat="45.23667" lon="5.73187">
        <ele>669.6</ele>
        <time>2021-11-21T10:41:42Z</time>
      </trkpt>
      <trkpt lat="45.23657" lon="5.73184">
        <ele>669.2</ele>
        <time>2021-11-21T10:41:43Z</time>
      </trkpt>
      <trkpt lat="45.23647" lon="5.73179">
        <ele>668.8</ele>
        <time>2021-11-21T10:41:44Z</time>
      </trkpt>
      <trkpt lat="45.23639" lon="5.73171">
        <ele>668.4</ele>
        <time>2021-11-21T10:41:45Z</time>
      </trkpt>
      <trkpt lat="45.23632" lon="5.7316">
        <ele>667.8</ele>
        <time>2021-11-21T10:41:46Z</time>
      </trkpt>
      <trkpt lat="45.23625" lon="5.73147">
        <ele>667</ele>
        <time>2021-11-21T10:41:47Z</time>
      </trkpt>
      <trkpt lat="45.23619" lon="5.73133">
        <ele>666.4</ele>
        <time>2021-11-21T10:41:48Z</time>
      </trkpt>
      <trkpt lat="45.23612" lon="5.73121">
        <ele>665.8</ele>
        <time>2021-11-21T10:41:49Z</time>
      </trkpt>
      <trkpt lat="45.23606" lon="5.73109">
        <ele>665.2</ele>
        <time>2021-11-21T10:41:50Z</time>
      </trkpt>
      <trkpt lat="45.236" lon="5.73096">
        <ele>664.4</ele>
        <time>2021-11-21T10:41:51Z</time>
      </trkpt>
      <trkpt lat="45.23593" lon="5.73083">
        <ele>664</ele>
        <time>2021-11-21T10:41:52Z</time>
      </trkpt>
      <trkpt lat="45.23586" lon="5.7307">
        <ele>663.2</ele>
        <time>2021-11-21T10:41:53Z</time>
      </trkpt>
      <trkpt lat="45.23578" lon="5.73059">
        <ele>662.4</ele>
        <time>2021-11-21T10:41:54Z</time>
      </trkpt>
      <trkpt lat="45.23569" lon="5.7305">
        <ele>661.6</ele>
        <time>2021-11-21T10:41:55Z</time>
      </trkpt>
      <trkpt lat="45.23559" lon="5.73042">
        <ele>660.4</ele>
        <time>2021-11-21T10:41:56Z</time>
      </trkpt>
      <trkpt lat="45.23549" lon="5.73036">
        <ele>659.4</ele>
        <time>2021-11-21T10:41:57Z</time>
      </trkpt>
      <trkpt lat="45.23538" lon="5.73032">
        <ele>658.4</ele>
        <time>2021-11-21T10:41:58Z</time>
      </trkpt>
      <trkpt lat="45.23528" lon="5.73028">
        <ele>657.2</ele>
        <time>2021-11-21T10:41:59Z</time>
      </trkpt>
      <trkpt lat="45.23519" lon="5.73023">
        <ele>656.2</ele>
        <time>2021-11-21T10:42:00Z</time>
      </trkpt>
      <trkpt lat="45.23511" lon="5.73016">
        <ele>655</ele>
        <time>2021-11-21T10:42:01Z</time>
      </trkpt>
      <trkpt lat="45.23504" lon="5.73006">
        <ele>653.8</ele>
        <time>2021-11-21T10:42:02Z</time>
      </trkpt>
      <trkpt lat="45.23496" lon="5.72997">
        <ele>652.4</ele>
        <time>2021-11-21T10:42:03Z</time>
      </trkpt>
      <trkpt lat="45.23488" lon="5.72989">
        <ele>651.8</ele>
        <time>2021-11-21T10:42:04Z</time>
      </trkpt>
      <trkpt lat="45.23479" lon="5.72982">
        <ele>650.6</ele>
        <time>2021-11-21T10:42:05Z</time>
      </trkpt>
      <trkpt lat="45.2347" lon="5.72977">
        <ele>649.4</ele>
        <time>2021-11-21T10:42:06Z</time>
      </trkpt>
      <trkpt lat="45.23459" lon="5.72973">
        <ele>648.8</ele>
        <time>2021-11-21T10:42:07Z</time>
      </trkpt>
      <trkpt lat="45.23449" lon="5.72971">
        <ele>647.4</ele>
        <time>2021-11-21T10:42:08Z</time>
      </trkpt>
      <trkpt lat="45.23438" lon="5.72968">
        <ele>646.8</ele>
        <time>2021-11-21T10:42:09Z</time>
      </trkpt>
      <trkpt lat="45.23427" lon="5.72967">
        <ele>645.8</ele>
        <time>2021-11-21T10:42:10Z</time>
      </trkpt>
      <trkpt lat="45.23416" lon="5.72966">
        <ele>645.2</ele>
        <time>2021-11-21T10:42:11Z</time>
      </trkpt>
      <trkpt lat="45.23405" lon="5.72966">
        <ele>644.8</ele>
        <time>2021-11-21T10:42:12Z</time>
      </trkpt>
      <trkpt lat="45.23394" lon="5.72965">
        <ele>643.2</ele>
        <time>2021-11-21T10:42:13Z</time>
      </trkpt>
      <trkpt lat="45.23383" lon="5.72964">
        <ele>642.4</ele>
        <time>2021-11-21T10:42:14Z</time>
      </trkpt>
      <trkpt lat="45.23372" lon="5.72963">
        <ele>641.6</ele>
        <time>2021-11-21T10:42:15Z</time>
      </trkpt>
      <trkpt lat="45.23361" lon="5.72962">
        <ele>641</ele>
        <time>2021-11-21T10:42:16Z</time>
      </trkpt>
      <trkpt lat="45.23349" lon="5.72961">
        <ele>640.2</ele>
        <time>2021-11-21T10:42:17Z</time>
      </trkpt>
      <trkpt lat="45.23338" lon="5.72959">
        <ele>639.2</ele>
        <time>2021-11-21T10:42:18Z</time>
      </trkpt>
      <trkpt lat="45.23326" lon="5.72955">
        <ele>638.4</ele>
        <time>2021-11-21T10:42:19Z</time>
      </trkpt>
      <trkpt lat="45.23315" lon="5.7295">
        <ele>637</ele>
        <time>2021-11-21T10:42:20Z</time>
      </trkpt>
      <trkpt lat="45.23304" lon="5.72943">
        <ele>636</ele>
        <time>2021-11-21T10:42:21Z</time>
      </trkpt>
      <trkpt lat="45.23294" lon="5.72937">
        <ele>635.2</ele>
        <time>2021-11-21T10:42:22Z</time>
      </trkpt>
      <trkpt lat="45.23284" lon="5.72933">
        <ele>634.4</ele>
        <time>2021-11-21T10:42:23Z</time>
      </trkpt>
      <trkpt lat="45.23273" lon="5.72931">
        <ele>633.8</ele>
        <time>2021-11-21T10:42:24Z</time>
      </trkpt>
      <trkpt lat="45.23263" lon="5.72932">
        <ele>632.6</ele>
        <time>2021-11-21T10:42:25Z</time>
      </trkpt>
      <trkpt lat="45.23253" lon="5.72933">
        <ele>631.8</ele>
        <time>2021-11-21T10:42:26Z</time>
      </trkpt>
      <trkpt lat="45.23245" lon="5.72934">
        <ele>630.8</ele>
        <time>2021-11-21T10:42:27Z</time>
      </trkpt>
      <trkpt lat="45.23239" lon="5.72932">
        <ele>630</ele>
        <time>2021-11-21T10:42:28Z</time>
      </trkpt>
      <trkpt lat="45.23233" lon="5.7292">
        <ele>627.4</ele>
        <time>2021-11-21T10:42:30Z</time>
      </trkpt>
      <trkpt lat="45.23234" lon="5.72911">
        <ele>626.4</ele>
        <time>2021-11-21T10:42:31Z</time>
      </trkpt>
      <trkpt lat="45.23245" lon="5.72896">
        <ele>623.6</ele>
        <time>2021-11-21T10:42:33Z</time>
      </trkpt>
      <trkpt lat="45.23262" lon="5.72894">
        <ele>622.2</ele>
        <time>2021-11-21T10:42:35Z</time>
      </trkpt>
      <trkpt lat="45.23269" lon="5.72893">
        <ele>621</ele>
        <time>2021-11-21T10:42:36Z</time>
      </trkpt>
      <trkpt lat="45.23277" lon="5.72892">
        <ele>620</ele>
        <time>2021-11-21T10:42:37Z</time>
      </trkpt>
      <trkpt lat="45.23284" lon="5.72891">
        <ele>619</ele>
        <time>2021-11-21T10:42:38Z</time>
      </trkpt>
      <trkpt lat="45.2329" lon="5.72889">
        <ele>618.2</ele>
        <time>2021-11-21T10:42:39Z</time>
      </trkpt>
      <trkpt lat="45.23297" lon="5.72885">
        <ele>617</ele>
        <time>2021-11-21T10:42:40Z</time>
      </trkpt>
      <trkpt lat="45.23305" lon="5.72879">
        <ele>616.2</ele>
        <time>2021-11-21T10:42:41Z</time>
      </trkpt>
      <trkpt lat="45.23313" lon="5.72872">
        <ele>615.4</ele>
        <time>2021-11-21T10:42:42Z</time>
      </trkpt>
      <trkpt lat="45.23321" lon="5.72865">
        <ele>614.6</ele>
        <time>2021-11-21T10:42:43Z</time>
      </trkpt>
      <trkpt lat="45.23329" lon="5.72858">
        <ele>614</ele>
        <time>2021-11-21T10:42:44Z</time>
      </trkpt>
      <trkpt lat="45.23335" lon="5.72849">
        <ele>613.6</ele>
        <time>2021-11-21T10:42:45Z</time>
      </trkpt>
      <trkpt lat="45.2334" lon="5.72838">
        <ele>613.8</ele>
        <time>2021-11-21T10:42:46Z</time>
      </trkpt>
      <trkpt lat="45.23346" lon="5.72828">
        <ele>613.8</ele>
        <time>2021-11-21T10:42:47Z</time>
      </trkpt>
      <trkpt lat="45.23351" lon="5.72817">
        <ele>613.4</ele>
        <time>2021-11-21T10:42:48Z</time>
      </trkpt>
      <trkpt lat="45.23355" lon="5.72805">
        <ele>612.8</ele>
        <time>2021-11-21T10:42:49Z</time>
      </trkpt>
      <trkpt lat="45.23361" lon="5.72794">
        <ele>612.4</ele>
        <time>2021-11-21T10:42:50Z</time>
      </trkpt>
      <trkpt lat="45.23366" lon="5.72782">
        <ele>611.8</ele>
        <time>2021-11-21T10:42:51Z</time>
      </trkpt>
      <trkpt lat="45.23371" lon="5.7277">
        <ele>611.2</ele>
        <time>2021-11-21T10:42:52Z</time>
      </trkpt>
      <trkpt lat="45.23376" lon="5.72757">
        <ele>610.4</ele>
        <time>2021-11-21T10:42:53Z</time>
      </trkpt>
      <trkpt lat="45.23382" lon="5.72743">
        <ele>609.4</ele>
        <time>2021-11-21T10:42:54Z</time>
      </trkpt>
      <trkpt lat="45.23387" lon="5.7273">
        <ele>608.8</ele>
        <time>2021-11-21T10:42:55Z</time>
      </trkpt>
      <trkpt lat="45.23393" lon="5.72717">
        <ele>608</ele>
        <time>2021-11-21T10:42:56Z</time>
      </trkpt>
      <trkpt lat="45.23399" lon="5.72704">
        <ele>607.6</ele>
        <time>2021-11-21T10:42:57Z</time>
      </trkpt>
      <trkpt lat="45.23404" lon="5.72693">
        <ele>606.8</ele>
        <time>2021-11-21T10:42:58Z</time>
      </trkpt>
      <trkpt lat="45.23409" lon="5.72681">
        <ele>606.2</ele>
        <time>2021-11-21T10:42:59Z</time>
      </trkpt>
      <trkpt lat="45.23413" lon="5.7267">
        <ele>605.8</ele>
        <time>2021-11-21T10:43:00Z</time>
      </trkpt>
      <trkpt lat="45.23418" lon="5.7266">
        <ele>605</ele>
        <time>2021-11-21T10:43:01Z</time>
      </trkpt>
      <trkpt lat="45.23421" lon="5.72649">
        <ele>604.2</ele>
        <time>2021-11-21T10:43:02Z</time>
      </trkpt>
      <trkpt lat="45.23423" lon="5.72637">
        <ele>603.4</ele>
        <time>2021-11-21T10:43:03Z</time>
      </trkpt>
      <trkpt lat="45.23425" lon="5.72624">
        <ele>602.2</ele>
        <time>2021-11-21T10:43:04Z</time>
      </trkpt>
      <trkpt lat="45.23425" lon="5.72611">
        <ele>600.8</ele>
        <time>2021-11-21T10:43:05Z</time>
      </trkpt>
      <trkpt lat="45.23424" lon="5.72588">
        <ele>599.2</ele>
        <time>2021-11-21T10:43:07Z</time>
      </trkpt>
      <trkpt lat="45.23423" lon="5.72572">
        <ele>597.4</ele>
        <time>2021-11-21T10:43:09Z</time>
      </trkpt>
      <trkpt lat="45.23428" lon="5.72565">
        <ele>594</ele>
        <time>2021-11-21T10:43:12Z</time>
      </trkpt>
      <trkpt lat="45.23432" lon="5.72567">
        <ele>593</ele>
        <time>2021-11-21T10:43:13Z</time>
      </trkpt>
      <trkpt lat="45.23439" lon="5.72575">
        <ele>591.4</ele>
        <time>2021-11-21T10:43:15Z</time>
      </trkpt>
      <trkpt lat="45.23443" lon="5.72578">
        <ele>590.6</ele>
        <time>2021-11-21T10:43:16Z</time>
      </trkpt>
      <trkpt lat="45.23447" lon="5.72582">
        <ele>589.6</ele>
        <time>2021-11-21T10:43:17Z</time>
      </trkpt>
      <trkpt lat="45.23452" lon="5.72584">
        <ele>589</ele>
        <time>2021-11-21T10:43:18Z</time>
      </trkpt>
      <trkpt lat="45.23456" lon="5.72586">
        <ele>588</ele>
        <time>2021-11-21T10:43:19Z</time>
      </trkpt>
      <trkpt lat="45.23461" lon="5.72588">
        <ele>587.4</ele>
        <time>2021-11-21T10:43:20Z</time>
      </trkpt>
      <trkpt lat="45.23467" lon="5.72591">
        <ele>586.8</ele>
        <time>2021-11-21T10:43:21Z</time>
      </trkpt>
      <trkpt lat="45.23472" lon="5.72594">
        <ele>586.2</ele>
        <time>2021-11-21T10:43:22Z</time>
      </trkpt>
      <trkpt lat="45.23478" lon="5.72597">
        <ele>585.6</ele>
        <time>2021-11-21T10:43:23Z</time>
      </trkpt>
      <trkpt lat="45.23484" lon="5.726">
        <ele>585.4</ele>
        <time>2021-11-21T10:43:24Z</time>
      </trkpt>
      <trkpt lat="45.2349" lon="5.72603">
        <ele>585.2</ele>
        <time>2021-11-21T10:43:25Z</time>
      </trkpt>
      <trkpt lat="45.23497" lon="5.72605">
        <ele>585.2</ele>
        <time>2021-11-21T10:43:26Z</time>
      </trkpt>
      <trkpt lat="45.23504" lon="5.72608">
        <ele>585.2</ele>
        <time>2021-11-21T10:43:27Z</time>
      </trkpt>
      <trkpt lat="45.23511" lon="5.72611">
        <ele>585.2</ele>
        <time>2021-11-21T10:43:28Z</time>
      </trkpt>
      <trkpt lat="45.23518" lon="5.72614">
        <ele>585.2</ele>
        <time>2021-11-21T10:43:29Z</time>
      </trkpt>
      <trkpt lat="45.23525" lon="5.72617">
        <ele>585.4</ele>
        <time>2021-11-21T10:43:30Z</time>
      </trkpt>
      <trkpt lat="45.23532" lon="5.7262">
        <ele>585.4</ele>
        <time>2021-11-21T10:43:31Z</time>
      </trkpt>
      <trkpt lat="45.23539" lon="5.72622">
        <ele>585.6</ele>
        <time>2021-11-21T10:43:32Z</time>
      </trkpt>
      <trkpt lat="45.23547" lon="5.72625">
        <ele>585.4</ele>
        <time>2021-11-21T10:43:33Z</time>
      </trkpt>
      <trkpt lat="45.23554" lon="5.72628">
        <ele>585.2</ele>
        <time>2021-11-21T10:43:34Z</time>
      </trkpt>
      <trkpt lat="45.23562" lon="5.72631">
        <ele>585</ele>
        <time>2021-11-21T10:43:35Z</time>
      </trkpt>
      <trkpt lat="45.2357" lon="5.72634">
        <ele>584.8</ele>
        <time>2021-11-21T10:43:36Z</time>
      </trkpt>
      <trkpt lat="45.23577" lon="5.72637">
        <ele>584.8</ele>
        <time>2021-11-21T10:43:37Z</time>
      </trkpt>
      <trkpt lat="45.23585" lon="5.72641">
        <ele>585.4</ele>
        <time>2021-11-21T10:43:38Z</time>
      </trkpt>
      <trkpt lat="45.23592" lon="5.72645">
        <ele>585.6</ele>
        <time>2021-11-21T10:43:39Z</time>
      </trkpt>
      <trkpt lat="45.236" lon="5.7265">
        <ele>585.8</ele>
        <time>2021-11-21T10:43:40Z</time>
      </trkpt>
      <trkpt lat="45.23607" lon="5.72654">
        <ele>585.8</ele>
        <time>2021-11-21T10:43:41Z</time>
      </trkpt>
      <trkpt lat="45.23615" lon="5.72659">
        <ele>585.6</ele>
        <time>2021-11-21T10:43:42Z</time>
      </trkpt>
      <trkpt lat="45.23622" lon="5.72663">
        <ele>585.4</ele>
        <time>2021-11-21T10:43:43Z</time>
      </trkpt>
      <trkpt lat="45.2363" lon="5.72668">
        <ele>585.2</ele>
        <time>2021-11-21T10:43:44Z</time>
      </trkpt>
      <trkpt lat="45.23638" lon="5.72673">
        <ele>585</ele>
        <time>2021-11-21T10:43:45Z</time>
      </trkpt>
      <trkpt lat="45.23645" lon="5.72678">
        <ele>585</ele>
        <time>2021-11-21T10:43:46Z</time>
      </trkpt>
      <trkpt lat="45.23653" lon="5.72682">
        <ele>584.8</ele>
        <time>2021-11-21T10:43:47Z</time>
      </trkpt>
      <trkpt lat="45.23661" lon="5.72687">
        <ele>584.8</ele>
        <time>2021-11-21T10:43:48Z</time>
      </trkpt>
      <trkpt lat="45.23669" lon="5.72691">
        <ele>584.6</ele>
        <time>2021-11-21T10:43:49Z</time>
      </trkpt>
      <trkpt lat="45.23676" lon="5.72697">
        <ele>584.4</ele>
        <time>2021-11-21T10:43:50Z</time>
      </trkpt>
      <trkpt lat="45.23683" lon="5.72704">
        <ele>584.4</ele>
        <time>2021-11-21T10:43:51Z</time>
      </trkpt>
      <trkpt lat="45.23687" lon="5.72714">
        <ele>584.4</ele>
        <time>2021-11-21T10:43:52Z</time>
      </trkpt>
      <trkpt lat="45.23689" lon="5.72726">
        <ele>584</ele>
        <time>2021-11-21T10:43:53Z</time>
      </trkpt>
      <trkpt lat="45.23688" lon="5.72738">
        <ele>583.8</ele>
        <time>2021-11-21T10:43:54Z</time>
      </trkpt>
      <trkpt lat="45.23687" lon="5.72749">
        <ele>583.6</ele>
        <time>2021-11-21T10:43:55Z</time>
      </trkpt>
      <trkpt lat="45.23684" lon="5.72761">
        <ele>583.4</ele>
        <time>2021-11-21T10:43:56Z</time>
      </trkpt>
      <trkpt lat="45.23682" lon="5.72772">
        <ele>583.4</ele>
        <time>2021-11-21T10:43:57Z</time>
      </trkpt>
      <trkpt lat="45.23681" lon="5.72785">
        <ele>582.8</ele>
        <time>2021-11-21T10:43:58Z</time>
      </trkpt>
      <trkpt lat="45.23679" lon="5.72797">
        <ele>582</ele>
        <time>2021-11-21T10:43:59Z</time>
      </trkpt>
      <trkpt lat="45.2368" lon="5.7281">
        <ele>582</ele>
        <time>2021-11-21T10:44:00Z</time>
      </trkpt>
      <trkpt lat="45.23683" lon="5.72823">
        <ele>581.6</ele>
        <time>2021-11-21T10:44:01Z</time>
      </trkpt>
      <trkpt lat="45.23686" lon="5.72833">
        <ele>581</ele>
        <time>2021-11-21T10:44:02Z</time>
      </trkpt>
      <trkpt lat="45.23691" lon="5.72841">
        <ele>581.2</ele>
        <time>2021-11-21T10:44:03Z</time>
      </trkpt>
      <trkpt lat="45.23695" lon="5.72845">
        <ele>580.6</ele>
        <time>2021-11-21T10:44:04Z</time>
      </trkpt>
      <trkpt lat="45.23702" lon="5.72845">
        <ele>580.4</ele>
        <time>2021-11-21T10:44:05Z</time>
      </trkpt>
      <trkpt lat="45.23715" lon="5.72833">
        <ele>579.6</ele>
        <time>2021-11-21T10:44:07Z</time>
      </trkpt>
      <trkpt lat="45.23721" lon="5.72823">
        <ele>579.4</ele>
        <time>2021-11-21T10:44:08Z</time>
      </trkpt>
      <trkpt lat="45.23727" lon="5.72813">
        <ele>578.8</ele>
        <time>2021-11-21T10:44:09Z</time>
      </trkpt>
      <trkpt lat="45.23733" lon="5.72802">
        <ele>578.2</ele>
        <time>2021-11-21T10:44:10Z</time>
      </trkpt>
      <trkpt lat="45.2374" lon="5.72792">
        <ele>578</ele>
        <time>2021-11-21T10:44:11Z</time>
      </trkpt>
      <trkpt lat="45.23746" lon="5.72783">
        <ele>577.2</ele>
        <time>2021-11-21T10:44:12Z</time>
      </trkpt>
      <trkpt lat="45.23754" lon="5.72776">
        <ele>576.8</ele>
        <time>2021-11-21T10:44:13Z</time>
      </trkpt>
      <trkpt lat="45.23763" lon="5.72772">
        <ele>576.2</ele>
        <time>2021-11-21T10:44:14Z</time>
      </trkpt>
      <trkpt lat="45.23772" lon="5.72773">
        <ele>575.4</ele>
        <time>2021-11-21T10:44:15Z</time>
      </trkpt>
      <trkpt lat="45.23781" lon="5.72777">
        <ele>575.2</ele>
        <time>2021-11-21T10:44:16Z</time>
      </trkpt>
      <trkpt lat="45.2379" lon="5.7278">
        <ele>575</ele>
        <time>2021-11-21T10:44:17Z</time>
      </trkpt>
      <trkpt lat="45.23799" lon="5.7278">
        <ele>574.6</ele>
        <time>2021-11-21T10:44:18Z</time>
      </trkpt>
      <trkpt lat="45.23809" lon="5.72777">
        <ele>574.2</ele>
        <time>2021-11-21T10:44:19Z</time>
      </trkpt>
      <trkpt lat="45.23825" lon="5.72763">
        <ele>573.2</ele>
        <time>2021-11-21T10:44:21Z</time>
      </trkpt>
      <trkpt lat="45.23834" lon="5.72757">
        <ele>573</ele>
        <time>2021-11-21T10:44:22Z</time>
      </trkpt>
      <trkpt lat="45.23843" lon="5.72753">
        <ele>572.4</ele>
        <time>2021-11-21T10:44:23Z</time>
      </trkpt>
      <trkpt lat="45.23853" lon="5.72751">
        <ele>571.6</ele>
        <time>2021-11-21T10:44:24Z</time>
      </trkpt>
      <trkpt lat="45.23864" lon="5.72752">
        <ele>571.2</ele>
        <time>2021-11-21T10:44:25Z</time>
      </trkpt>
      <trkpt lat="45.23873" lon="5.72758">
        <ele>570.6</ele>
        <time>2021-11-21T10:44:26Z</time>
      </trkpt>
      <trkpt lat="45.2388" lon="5.72767">
        <ele>570.2</ele>
        <time>2021-11-21T10:44:27Z</time>
      </trkpt>
      <trkpt lat="45.23886" lon="5.72778">
        <ele>569.6</ele>
        <time>2021-11-21T10:44:28Z</time>
      </trkpt>
      <trkpt lat="45.23897" lon="5.72794">
        <ele>568.4</ele>
        <time>2021-11-21T10:44:30Z</time>
      </trkpt>
      <trkpt lat="45.23913" lon="5.7279">
        <ele>567.2</ele>
        <time>2021-11-21T10:44:32Z</time>
      </trkpt>
      <trkpt lat="45.23923" lon="5.72786">
        <ele>566.4</ele>
        <time>2021-11-21T10:44:33Z</time>
      </trkpt>
      <trkpt lat="45.23933" lon="5.72785">
        <ele>566.2</ele>
        <time>2021-11-21T10:44:34Z</time>
      </trkpt>
      <trkpt lat="45.23942" lon="5.72786">
        <ele>566</ele>
        <time>2021-11-21T10:44:35Z</time>
      </trkpt>
      <trkpt lat="45.23951" lon="5.72788">
        <ele>565.4</ele>
        <time>2021-11-21T10:44:36Z</time>
      </trkpt>
      <trkpt lat="45.23961" lon="5.7279">
        <ele>565</ele>
        <time>2021-11-21T10:44:37Z</time>
      </trkpt>
      <trkpt lat="45.23971" lon="5.72794">
        <ele>564.2</ele>
        <time>2021-11-21T10:44:38Z</time>
      </trkpt>
      <trkpt lat="45.23981" lon="5.72799">
        <ele>563.4</ele>
        <time>2021-11-21T10:44:39Z</time>
      </trkpt>
      <trkpt lat="45.23989" lon="5.72804">
        <ele>563</ele>
        <time>2021-11-21T10:44:40Z</time>
      </trkpt>
      <trkpt lat="45.23998" lon="5.7281">
        <ele>562.4</ele>
        <time>2021-11-21T10:44:41Z</time>
      </trkpt>
      <trkpt lat="45.24007" lon="5.72815">
        <ele>562</ele>
        <time>2021-11-21T10:44:42Z</time>
      </trkpt>
      <trkpt lat="45.24016" lon="5.72818">
        <ele>561.8</ele>
        <time>2021-11-21T10:44:43Z</time>
      </trkpt>
      <trkpt lat="45.24025" lon="5.72821">
        <ele>561.2</ele>
        <time>2021-11-21T10:44:44Z</time>
      </trkpt>
      <trkpt lat="45.24034" lon="5.72824">
        <ele>560.4</ele>
        <time>2021-11-21T10:44:45Z</time>
      </trkpt>
      <trkpt lat="45.24043" lon="5.72826">
        <ele>559.8</ele>
        <time>2021-11-21T10:44:46Z</time>
      </trkpt>
      <trkpt lat="45.24053" lon="5.72827">
        <ele>559.4</ele>
        <time>2021-11-21T10:44:47Z</time>
      </trkpt>
      <trkpt lat="45.24062" lon="5.72829">
        <ele>559</ele>
        <time>2021-11-21T10:44:48Z</time>
      </trkpt>
      <trkpt lat="45.24071" lon="5.72831">
        <ele>559</ele>
        <time>2021-11-21T10:44:49Z</time>
      </trkpt>
      <trkpt lat="45.2408" lon="5.72834">
        <ele>558.4</ele>
        <time>2021-11-21T10:44:50Z</time>
      </trkpt>
      <trkpt lat="45.24089" lon="5.72839">
        <ele>557.6</ele>
        <time>2021-11-21T10:44:51Z</time>
      </trkpt>
      <trkpt lat="45.24098" lon="5.72845">
        <ele>557</ele>
        <time>2021-11-21T10:44:52Z</time>
      </trkpt>
      <trkpt lat="45.24106" lon="5.72852">
        <ele>557.4</ele>
        <time>2021-11-21T10:44:53Z</time>
      </trkpt>
      <trkpt lat="45.24113" lon="5.7286">
        <ele>557.4</ele>
        <time>2021-11-21T10:44:54Z</time>
      </trkpt>
      <trkpt lat="45.2412" lon="5.72868">
        <ele>557.4</ele>
        <time>2021-11-21T10:44:55Z</time>
      </trkpt>
      <trkpt lat="45.24127" lon="5.72874">
        <ele>557</ele>
        <time>2021-11-21T10:44:56Z</time>
      </trkpt>
      <trkpt lat="45.24137" lon="5.72874">
        <ele>557</ele>
        <time>2021-11-21T10:44:57Z</time>
      </trkpt>
      <trkpt lat="45.24145" lon="5.72871">
        <ele>556.8</ele>
        <time>2021-11-21T10:44:58Z</time>
      </trkpt>
      <trkpt lat="45.24153" lon="5.72865">
        <ele>556</ele>
        <time>2021-11-21T10:44:59Z</time>
      </trkpt>
      <trkpt lat="45.24161" lon="5.72857">
        <ele>555.2</ele>
        <time>2021-11-21T10:45:00Z</time>
      </trkpt>
      <trkpt lat="45.24169" lon="5.7285">
        <ele>554.8</ele>
        <time>2021-11-21T10:45:01Z</time>
      </trkpt>
      <trkpt lat="45.24177" lon="5.72845">
        <ele>554.4</ele>
        <time>2021-11-21T10:45:02Z</time>
      </trkpt>
      <trkpt lat="45.24186" lon="5.72843">
        <ele>553.8</ele>
        <time>2021-11-21T10:45:03Z</time>
      </trkpt>
      <trkpt lat="45.24195" lon="5.72845">
        <ele>553.2</ele>
        <time>2021-11-21T10:45:04Z</time>
      </trkpt>
      <trkpt lat="45.24203" lon="5.72852">
        <ele>552.4</ele>
        <time>2021-11-21T10:45:05Z</time>
      </trkpt>
      <trkpt lat="45.24211" lon="5.72859">
        <ele>551.2</ele>
        <time>2021-11-21T10:45:06Z</time>
      </trkpt>
      <trkpt lat="45.24218" lon="5.72867">
        <ele>550.2</ele>
        <time>2021-11-21T10:45:07Z</time>
      </trkpt>
      <trkpt lat="45.24226" lon="5.72874">
        <ele>549.6</ele>
        <time>2021-11-21T10:45:08Z</time>
      </trkpt>
      <trkpt lat="45.24235" lon="5.72878">
        <ele>549</ele>
        <time>2021-11-21T10:45:09Z</time>
      </trkpt>
      <trkpt lat="45.24244" lon="5.72879">
        <ele>548.6</ele>
        <time>2021-11-21T10:45:10Z</time>
      </trkpt>
      <trkpt lat="45.24253" lon="5.72877">
        <ele>548.4</ele>
        <time>2021-11-21T10:45:11Z</time>
      </trkpt>
      <trkpt lat="45.24262" lon="5.72873">
        <ele>548</ele>
        <time>2021-11-21T10:45:12Z</time>
      </trkpt>
      <trkpt lat="45.24271" lon="5.72867">
        <ele>547.6</ele>
        <time>2021-11-21T10:45:13Z</time>
      </trkpt>
      <trkpt lat="45.24279" lon="5.72859">
        <ele>546.8</ele>
        <time>2021-11-21T10:45:14Z</time>
      </trkpt>
      <trkpt lat="45.24286" lon="5.72849">
        <ele>546.4</ele>
        <time>2021-11-21T10:45:15Z</time>
      </trkpt>
      <trkpt lat="45.24293" lon="5.72838">
        <ele>546.2</ele>
        <time>2021-11-21T10:45:16Z</time>
      </trkpt>
      <trkpt lat="45.24299" lon="5.72827">
        <ele>545</ele>
        <time>2021-11-21T10:45:17Z</time>
      </trkpt>
      <trkpt lat="45.24306" lon="5.72817">
        <ele>544.2</ele>
        <time>2021-11-21T10:45:18Z</time>
      </trkpt>
      <trkpt lat="45.24313" lon="5.72808">
        <ele>543.4</ele>
        <time>2021-11-21T10:45:19Z</time>
      </trkpt>
      <trkpt lat="45.24322" lon="5.72802">
        <ele>543.2</ele>
        <time>2021-11-21T10:45:20Z</time>
      </trkpt>
      <trkpt lat="45.24332" lon="5.728">
        <ele>542.8</ele>
        <time>2021-11-21T10:45:21Z</time>
      </trkpt>
      <trkpt lat="45.24342" lon="5.72801">
        <ele>542.4</ele>
        <time>2021-11-21T10:45:22Z</time>
      </trkpt>
      <trkpt lat="45.24351" lon="5.72806">
        <ele>542</ele>
        <time>2021-11-21T10:45:23Z</time>
      </trkpt>
      <trkpt lat="45.2436" lon="5.72811">
        <ele>541.4</ele>
        <time>2021-11-21T10:45:24Z</time>
      </trkpt>
      <trkpt lat="45.24368" lon="5.72817">
        <ele>541</ele>
        <time>2021-11-21T10:45:25Z</time>
      </trkpt>
      <trkpt lat="45.24378" lon="5.72822">
        <ele>540.6</ele>
        <time>2021-11-21T10:45:26Z</time>
      </trkpt>
      <trkpt lat="45.24387" lon="5.72824">
        <ele>539.8</ele>
        <time>2021-11-21T10:45:27Z</time>
      </trkpt>
      <trkpt lat="45.24397" lon="5.72825">
        <ele>539.4</ele>
        <time>2021-11-21T10:45:28Z</time>
      </trkpt>
      <trkpt lat="45.24407" lon="5.72828">
        <ele>539</ele>
        <time>2021-11-21T10:45:29Z</time>
      </trkpt>
      <trkpt lat="45.24416" lon="5.72833">
        <ele>538.4</ele>
        <time>2021-11-21T10:45:30Z</time>
      </trkpt>
      <trkpt lat="45.24424" lon="5.72841">
        <ele>537.8</ele>
        <time>2021-11-21T10:45:31Z</time>
      </trkpt>
      <trkpt lat="45.24431" lon="5.72851">
        <ele>537.4</ele>
        <time>2021-11-21T10:45:32Z</time>
      </trkpt>
      <trkpt lat="45.24438" lon="5.7286">
        <ele>537</ele>
        <time>2021-11-21T10:45:33Z</time>
      </trkpt>
      <trkpt lat="45.24446" lon="5.72867">
        <ele>536.4</ele>
        <time>2021-11-21T10:45:34Z</time>
      </trkpt>
      <trkpt lat="45.24455" lon="5.72871">
        <ele>535.4</ele>
        <time>2021-11-21T10:45:35Z</time>
      </trkpt>
      <trkpt lat="45.24464" lon="5.72873">
        <ele>535</ele>
        <time>2021-11-21T10:45:36Z</time>
      </trkpt>
      <trkpt lat="45.24473" lon="5.72873">
        <ele>534.6</ele>
        <time>2021-11-21T10:45:37Z</time>
      </trkpt>
      <trkpt lat="45.24482" lon="5.72871">
        <ele>534</ele>
        <time>2021-11-21T10:45:38Z</time>
      </trkpt>
      <trkpt lat="45.24492" lon="5.72869">
        <ele>533.6</ele>
        <time>2021-11-21T10:45:39Z</time>
      </trkpt>
      <trkpt lat="45.24501" lon="5.72868">
        <ele>533</ele>
        <time>2021-11-21T10:45:40Z</time>
      </trkpt>
      <trkpt lat="45.24511" lon="5.72869">
        <ele>532.4</ele>
        <time>2021-11-21T10:45:41Z</time>
      </trkpt>
      <trkpt lat="45.24521" lon="5.7287">
        <ele>531.4</ele>
        <time>2021-11-21T10:45:42Z</time>
      </trkpt>
      <trkpt lat="45.24531" lon="5.72873">
        <ele>531.2</ele>
        <time>2021-11-21T10:45:43Z</time>
      </trkpt>
      <trkpt lat="45.2454" lon="5.72877">
        <ele>531.2</ele>
        <time>2021-11-21T10:45:44Z</time>
      </trkpt>
      <trkpt lat="45.24549" lon="5.72881">
        <ele>531</ele>
        <time>2021-11-21T10:45:45Z</time>
      </trkpt>
      <trkpt lat="45.24558" lon="5.72886">
        <ele>530.4</ele>
        <time>2021-11-21T10:45:46Z</time>
      </trkpt>
      <trkpt lat="45.24567" lon="5.72892">
        <ele>530.4</ele>
        <time>2021-11-21T10:45:47Z</time>
      </trkpt>
      <trkpt lat="45.24574" lon="5.729">
        <ele>530.2</ele>
        <time>2021-11-21T10:45:48Z</time>
      </trkpt>
      <trkpt lat="45.24581" lon="5.7291">
        <ele>530</ele>
        <time>2021-11-21T10:45:49Z</time>
      </trkpt>
      <trkpt lat="45.24586" lon="5.72923">
        <ele>529.8</ele>
        <time>2021-11-21T10:45:50Z</time>
      </trkpt>
      <trkpt lat="45.24589" lon="5.72936">
        <ele>529.2</ele>
        <time>2021-11-21T10:45:51Z</time>
      </trkpt>
      <trkpt lat="45.24591" lon="5.7295">
        <ele>528.8</ele>
        <time>2021-11-21T10:45:52Z</time>
      </trkpt>
      <trkpt lat="45.24592" lon="5.72963">
        <ele>528.6</ele>
        <time>2021-11-21T10:45:53Z</time>
      </trkpt>
      <trkpt lat="45.24593" lon="5.72977">
        <ele>528.2</ele>
        <time>2021-11-21T10:45:54Z</time>
      </trkpt>
      <trkpt lat="45.24594" lon="5.72992">
        <ele>528.2</ele>
        <time>2021-11-21T10:45:55Z</time>
      </trkpt>
      <trkpt lat="45.24595" lon="5.73006">
        <ele>527.6</ele>
        <time>2021-11-21T10:45:56Z</time>
      </trkpt>
      <trkpt lat="45.24598" lon="5.73019">
        <ele>527.4</ele>
        <time>2021-11-21T10:45:57Z</time>
      </trkpt>
      <trkpt lat="45.24603" lon="5.73031">
        <ele>526.8</ele>
        <time>2021-11-21T10:45:58Z</time>
      </trkpt>
      <trkpt lat="45.2461" lon="5.7304">
        <ele>526.4</ele>
        <time>2021-11-21T10:45:59Z</time>
      </trkpt>
      <trkpt lat="45.24617" lon="5.73046">
        <ele>526</ele>
        <time>2021-11-21T10:46:00Z</time>
      </trkpt>
      <trkpt lat="45.24625" lon="5.73051">
        <ele>525.4</ele>
        <time>2021-11-21T10:46:01Z</time>
      </trkpt>
      <trkpt lat="45.24633" lon="5.73054">
        <ele>525</ele>
        <time>2021-11-21T10:46:02Z</time>
      </trkpt>
      <trkpt lat="45.24641" lon="5.73057">
        <ele>524.8</ele>
        <time>2021-11-21T10:46:03Z</time>
      </trkpt>
      <trkpt lat="45.24648" lon="5.73061">
        <ele>524.4</ele>
        <time>2021-11-21T10:46:04Z</time>
      </trkpt>
      <trkpt lat="45.24655" lon="5.73066">
        <ele>523.8</ele>
        <time>2021-11-21T10:46:05Z</time>
      </trkpt>
      <trkpt lat="45.24662" lon="5.73071">
        <ele>523.4</ele>
        <time>2021-11-21T10:46:06Z</time>
      </trkpt>
      <trkpt lat="45.2467" lon="5.73075">
        <ele>523</ele>
        <time>2021-11-21T10:46:07Z</time>
      </trkpt>
      <trkpt lat="45.24678" lon="5.73077">
        <ele>522.6</ele>
        <time>2021-11-21T10:46:08Z</time>
      </trkpt>
      <trkpt lat="45.24686" lon="5.73078">
        <ele>522</ele>
        <time>2021-11-21T10:46:09Z</time>
      </trkpt>
      <trkpt lat="45.24703" lon="5.73077">
        <ele>521.4</ele>
        <time>2021-11-21T10:46:11Z</time>
      </trkpt>
      <trkpt lat="45.24711" lon="5.73077">
        <ele>521.2</ele>
        <time>2021-11-21T10:46:12Z</time>
      </trkpt>
      <trkpt lat="45.24719" lon="5.73079">
        <ele>521.4</ele>
        <time>2021-11-21T10:46:13Z</time>
      </trkpt>
      <trkpt lat="45.24727" lon="5.73081">
        <ele>521.4</ele>
        <time>2021-11-21T10:46:14Z</time>
      </trkpt>
      <trkpt lat="45.24734" lon="5.73084">
        <ele>521.4</ele>
        <time>2021-11-21T10:46:15Z</time>
      </trkpt>
      <trkpt lat="45.24741" lon="5.73089">
        <ele>521.2</ele>
        <time>2021-11-21T10:46:16Z</time>
      </trkpt>
      <trkpt lat="45.24748" lon="5.73095">
        <ele>521.6</ele>
        <time>2021-11-21T10:46:17Z</time>
      </trkpt>
      <trkpt lat="45.24754" lon="5.73102">
        <ele>522</ele>
        <time>2021-11-21T10:46:18Z</time>
      </trkpt>
      <trkpt lat="45.2476" lon="5.73109">
        <ele>522.4</ele>
        <time>2021-11-21T10:46:19Z</time>
      </trkpt>
      <trkpt lat="45.24766" lon="5.73116">
        <ele>522.4</ele>
        <time>2021-11-21T10:46:20Z</time>
      </trkpt>
      <trkpt lat="45.24772" lon="5.73124">
        <ele>523</ele>
        <time>2021-11-21T10:46:21Z</time>
      </trkpt>
      <trkpt lat="45.24778" lon="5.73131">
        <ele>523.6</ele>
        <time>2021-11-21T10:46:22Z</time>
      </trkpt>
      <trkpt lat="45.24784" lon="5.73138">
        <ele>523.8</ele>
        <time>2021-11-21T10:46:23Z</time>
      </trkpt>
      <trkpt lat="45.2479" lon="5.73146">
        <ele>524.2</ele>
        <time>2021-11-21T10:46:24Z</time>
      </trkpt>
      <trkpt lat="45.24797" lon="5.73153">
        <ele>525</ele>
        <time>2021-11-21T10:46:25Z</time>
      </trkpt>
      <trkpt lat="45.24803" lon="5.7316">
        <ele>525.4</ele>
        <time>2021-11-21T10:46:26Z</time>
      </trkpt>
      <trkpt lat="45.24809" lon="5.73167">
        <ele>525.8</ele>
        <time>2021-11-21T10:46:27Z</time>
      </trkpt>
      <trkpt lat="45.24815" lon="5.73174">
        <ele>526.2</ele>
        <time>2021-11-21T10:46:28Z</time>
      </trkpt>
      <trkpt lat="45.24822" lon="5.73181">
        <ele>526.6</ele>
        <time>2021-11-21T10:46:29Z</time>
      </trkpt>
      <trkpt lat="45.24828" lon="5.73188">
        <ele>526.6</ele>
        <time>2021-11-21T10:46:30Z</time>
      </trkpt>
      <trkpt lat="45.24834" lon="5.73195">
        <ele>527</ele>
        <time>2021-11-21T10:46:31Z</time>
      </trkpt>
      <trkpt lat="45.24841" lon="5.73203">
        <ele>527.6</ele>
        <time>2021-11-21T10:46:32Z</time>
      </trkpt>
      <trkpt lat="45.24847" lon="5.73211">
        <ele>528.2</ele>
        <time>2021-11-21T10:46:33Z</time>
      </trkpt>
      <trkpt lat="45.24852" lon="5.7322">
        <ele>528.4</ele>
        <time>2021-11-21T10:46:34Z</time>
      </trkpt>
      <trkpt lat="45.24857" lon="5.73231">
        <ele>528.8</ele>
        <time>2021-11-21T10:46:35Z</time>
      </trkpt>
      <trkpt lat="45.24861" lon="5.73242">
        <ele>530</ele>
        <time>2021-11-21T10:46:36Z</time>
      </trkpt>
      <trkpt lat="45.24863" lon="5.73254">
        <ele>530.4</ele>
        <time>2021-11-21T10:46:37Z</time>
      </trkpt>
      <trkpt lat="45.24866" lon="5.73266">
        <ele>530.8</ele>
        <time>2021-11-21T10:46:38Z</time>
      </trkpt>
      <trkpt lat="45.24868" lon="5.73279">
        <ele>531.6</ele>
        <time>2021-11-21T10:46:39Z</time>
      </trkpt>
      <trkpt lat="45.2487" lon="5.73291">
        <ele>531.8</ele>
        <time>2021-11-21T10:46:40Z</time>
      </trkpt>
      <trkpt lat="45.24873" lon="5.73303">
        <ele>532.4</ele>
        <time>2021-11-21T10:46:41Z</time>
      </trkpt>
      <trkpt lat="45.24878" lon="5.73314">
        <ele>532.6</ele>
        <time>2021-11-21T10:46:42Z</time>
      </trkpt>
      <trkpt lat="45.24884" lon="5.73323">
        <ele>532.8</ele>
        <time>2021-11-21T10:46:43Z</time>
      </trkpt>
      <trkpt lat="45.24891" lon="5.73331">
        <ele>533</ele>
        <time>2021-11-21T10:46:44Z</time>
      </trkpt>
      <trkpt lat="45.24898" lon="5.73338">
        <ele>533.8</ele>
        <time>2021-11-21T10:46:45Z</time>
      </trkpt>
      <trkpt lat="45.24906" lon="5.73344">
        <ele>534.2</ele>
        <time>2021-11-21T10:46:46Z</time>
      </trkpt>
      <trkpt lat="45.24913" lon="5.73351">
        <ele>534.4</ele>
        <time>2021-11-21T10:46:47Z</time>
      </trkpt>
      <trkpt lat="45.2492" lon="5.73359">
        <ele>534.2</ele>
        <time>2021-11-21T10:46:48Z</time>
      </trkpt>
      <trkpt lat="45.24925" lon="5.73368">
        <ele>534</ele>
        <time>2021-11-21T10:46:49Z</time>
      </trkpt>
      <trkpt lat="45.2493" lon="5.73378">
        <ele>533.8</ele>
        <time>2021-11-21T10:46:50Z</time>
      </trkpt>
      <trkpt lat="45.24935" lon="5.73388">
        <ele>533.8</ele>
        <time>2021-11-21T10:46:51Z</time>
      </trkpt>
      <trkpt lat="45.24939" lon="5.73398">
        <ele>533.6</ele>
        <time>2021-11-21T10:46:52Z</time>
      </trkpt>
      <trkpt lat="45.24945" lon="5.73408">
        <ele>533</ele>
        <time>2021-11-21T10:46:53Z</time>
      </trkpt>
      <trkpt lat="45.24951" lon="5.73416">
        <ele>533.2</ele>
        <time>2021-11-21T10:46:54Z</time>
      </trkpt>
      <trkpt lat="45.24958" lon="5.73422">
        <ele>533.2</ele>
        <time>2021-11-21T10:46:55Z</time>
      </trkpt>
      <trkpt lat="45.24966" lon="5.73426">
        <ele>533.6</ele>
        <time>2021-11-21T10:46:56Z</time>
      </trkpt>
      <trkpt lat="45.24974" lon="5.73429">
        <ele>533.4</ele>
        <time>2021-11-21T10:46:57Z</time>
      </trkpt>
      <trkpt lat="45.2499" lon="5.7343">
        <ele>533.8</ele>
        <time>2021-11-21T10:46:59Z</time>
      </trkpt>
      <trkpt lat="45.24998" lon="5.73431">
        <ele>534.2</ele>
        <time>2021-11-21T10:47:00Z</time>
      </trkpt>
      <trkpt lat="45.25005" lon="5.73433">
        <ele>534.4</ele>
        <time>2021-11-21T10:47:01Z</time>
      </trkpt>
      <trkpt lat="45.25012" lon="5.73437">
        <ele>535</ele>
        <time>2021-11-21T10:47:02Z</time>
      </trkpt>
      <trkpt lat="45.25022" lon="5.7345">
        <ele>535.6</ele>
        <time>2021-11-21T10:47:04Z</time>
      </trkpt>
      <trkpt lat="45.25025" lon="5.73459">
        <ele>535.4</ele>
        <time>2021-11-21T10:47:05Z</time>
      </trkpt>
      <trkpt lat="45.25026" lon="5.73468">
        <ele>535.8</ele>
        <time>2021-11-21T10:47:06Z</time>
      </trkpt>
      <trkpt lat="45.25027" lon="5.73477">
        <ele>536.2</ele>
        <time>2021-11-21T10:47:07Z</time>
      </trkpt>
      <trkpt lat="45.25028" lon="5.73486">
        <ele>536.8</ele>
        <time>2021-11-21T10:47:08Z</time>
      </trkpt>
      <trkpt lat="45.25029" lon="5.73496">
        <ele>537.4</ele>
        <time>2021-11-21T10:47:09Z</time>
      </trkpt>
      <trkpt lat="45.25029" lon="5.73505">
        <ele>537.6</ele>
        <time>2021-11-21T10:47:10Z</time>
      </trkpt>
      <trkpt lat="45.2503" lon="5.73514">
        <ele>538.4</ele>
        <time>2021-11-21T10:47:11Z</time>
      </trkpt>
      <trkpt lat="45.2503" lon="5.73523">
        <ele>539.2</ele>
        <time>2021-11-21T10:47:12Z</time>
      </trkpt>
      <trkpt lat="45.25031" lon="5.73532">
        <ele>539.6</ele>
        <time>2021-11-21T10:47:13Z</time>
      </trkpt>
      <trkpt lat="45.25032" lon="5.73541">
        <ele>540.2</ele>
        <time>2021-11-21T10:47:14Z</time>
      </trkpt>
      <trkpt lat="45.25032" lon="5.7355">
        <ele>540.6</ele>
        <time>2021-11-21T10:47:15Z</time>
      </trkpt>
      <trkpt lat="45.25033" lon="5.7356">
        <ele>540.8</ele>
        <time>2021-11-21T10:47:16Z</time>
      </trkpt>
      <trkpt lat="45.25033" lon="5.73569">
        <ele>541</ele>
        <time>2021-11-21T10:47:17Z</time>
      </trkpt>
      <trkpt lat="45.25033" lon="5.73578">
        <ele>541.8</ele>
        <time>2021-11-21T10:47:18Z</time>
      </trkpt>
      <trkpt lat="45.25034" lon="5.73587">
        <ele>542.4</ele>
        <time>2021-11-21T10:47:19Z</time>
      </trkpt>
      <trkpt lat="45.25034" lon="5.73596">
        <ele>543.4</ele>
        <time>2021-11-21T10:47:20Z</time>
      </trkpt>
      <trkpt lat="45.25035" lon="5.73605">
        <ele>544.4</ele>
        <time>2021-11-21T10:47:21Z</time>
      </trkpt>
      <trkpt lat="45.25036" lon="5.73614">
        <ele>544.8</ele>
        <time>2021-11-21T10:47:22Z</time>
      </trkpt>
      <trkpt lat="45.25036" lon="5.73624">
        <ele>545.4</ele>
        <time>2021-11-21T10:47:23Z</time>
      </trkpt>
      <trkpt lat="45.25036" lon="5.73634">
        <ele>546</ele>
        <time>2021-11-21T10:47:24Z</time>
      </trkpt>
      <trkpt lat="45.25036" lon="5.73644">
        <ele>546.6</ele>
        <time>2021-11-21T10:47:25Z</time>
      </trkpt>
      <trkpt lat="45.25034" lon="5.73654">
        <ele>547.2</ele>
        <time>2021-11-21T10:47:26Z</time>
      </trkpt>
      <trkpt lat="45.25033" lon="5.73664">
        <ele>547.8</ele>
        <time>2021-11-21T10:47:27Z</time>
      </trkpt>
      <trkpt lat="45.25031" lon="5.73675">
        <ele>548.6</ele>
        <time>2021-11-21T10:47:28Z</time>
      </trkpt>
      <trkpt lat="45.25029" lon="5.73686">
        <ele>549.2</ele>
        <time>2021-11-21T10:47:29Z</time>
      </trkpt>
      <trkpt lat="45.25026" lon="5.73697">
        <ele>550</ele>
        <time>2021-11-21T10:47:30Z</time>
      </trkpt>
      <trkpt lat="45.25024" lon="5.73709">
        <ele>550.4</ele>
        <time>2021-11-21T10:47:31Z</time>
      </trkpt>
      <trkpt lat="45.25023" lon="5.7372">
        <ele>551</ele>
        <time>2021-11-21T10:47:32Z</time>
      </trkpt>
      <trkpt lat="45.25021" lon="5.73732">
        <ele>551.6</ele>
        <time>2021-11-21T10:47:33Z</time>
      </trkpt>
      <trkpt lat="45.25019" lon="5.73744">
        <ele>552.2</ele>
        <time>2021-11-21T10:47:34Z</time>
      </trkpt>
      <trkpt lat="45.25017" lon="5.73756">
        <ele>552.4</ele>
        <time>2021-11-21T10:47:35Z</time>
      </trkpt>
      <trkpt lat="45.25014" lon="5.73767">
        <ele>552.6</ele>
        <time>2021-11-21T10:47:36Z</time>
      </trkpt>
      <trkpt lat="45.25012" lon="5.73779">
        <ele>553.4</ele>
        <time>2021-11-21T10:47:37Z</time>
      </trkpt>
      <trkpt lat="45.25009" lon="5.7379">
        <ele>553.6</ele>
        <time>2021-11-21T10:47:38Z</time>
      </trkpt>
      <trkpt lat="45.25002" lon="5.73812">
        <ele>554.4</ele>
        <time>2021-11-21T10:47:40Z</time>
      </trkpt>
      <trkpt lat="45.24994" lon="5.73832">
        <ele>555.4</ele>
        <time>2021-11-21T10:47:42Z</time>
      </trkpt>
      <trkpt lat="45.2499" lon="5.73842">
        <ele>555.8</ele>
        <time>2021-11-21T10:47:43Z</time>
      </trkpt>
      <trkpt lat="45.24985" lon="5.7385">
        <ele>556</ele>
        <time>2021-11-21T10:47:44Z</time>
      </trkpt>
      <trkpt lat="45.2498" lon="5.73859">
        <ele>556.4</ele>
        <time>2021-11-21T10:47:45Z</time>
      </trkpt>
      <trkpt lat="45.24975" lon="5.73868">
        <ele>556.8</ele>
        <time>2021-11-21T10:47:46Z</time>
      </trkpt>
      <trkpt lat="45.2497" lon="5.73877">
        <ele>557.2</ele>
        <time>2021-11-21T10:47:47Z</time>
      </trkpt>
      <trkpt lat="45.24966" lon="5.73887">
        <ele>557.2</ele>
        <time>2021-11-21T10:47:48Z</time>
      </trkpt>
      <trkpt lat="45.24957" lon="5.73905">
        <ele>558</ele>
        <time>2021-11-21T10:47:50Z</time>
      </trkpt>
      <trkpt lat="45.24953" lon="5.73915">
        <ele>558.2</ele>
        <time>2021-11-21T10:47:51Z</time>
      </trkpt>
      <trkpt lat="45.24947" lon="5.73935">
        <ele>559.2</ele>
        <time>2021-11-21T10:47:53Z</time>
      </trkpt>
      <trkpt lat="45.24941" lon="5.73955">
        <ele>560.2</ele>
        <time>2021-11-21T10:47:55Z</time>
      </trkpt>
      <trkpt lat="45.24938" lon="5.73976">
        <ele>561.4</ele>
        <time>2021-11-21T10:47:57Z</time>
      </trkpt>
      <trkpt lat="45.24934" lon="5.73998">
        <ele>562.4</ele>
        <time>2021-11-21T10:47:59Z</time>
      </trkpt>
      <trkpt lat="45.24926" lon="5.74015">
        <ele>563.4</ele>
        <time>2021-11-21T10:48:01Z</time>
      </trkpt>
      <trkpt lat="45.2492" lon="5.74023">
        <ele>564.2</ele>
        <time>2021-11-21T10:48:02Z</time>
      </trkpt>
      <trkpt lat="45.24915" lon="5.7403">
        <ele>565</ele>
        <time>2021-11-21T10:48:03Z</time>
      </trkpt>
      <trkpt lat="45.24903" lon="5.74046">
        <ele>566.2</ele>
        <time>2021-11-21T10:48:05Z</time>
      </trkpt>
      <trkpt lat="45.24891" lon="5.74061">
        <ele>567.6</ele>
        <time>2021-11-21T10:48:07Z</time>
      </trkpt>
      <trkpt lat="45.24878" lon="5.74076">
        <ele>569</ele>
        <time>2021-11-21T10:48:09Z</time>
      </trkpt>
      <trkpt lat="45.24867" lon="5.74094">
        <ele>570.4</ele>
        <time>2021-11-21T10:48:11Z</time>
      </trkpt>
      <trkpt lat="45.24862" lon="5.74104">
        <ele>571.2</ele>
        <time>2021-11-21T10:48:12Z</time>
      </trkpt>
      <trkpt lat="45.24855" lon="5.74114">
        <ele>571.8</ele>
        <time>2021-11-21T10:48:13Z</time>
      </trkpt>
      <trkpt lat="45.24847" lon="5.74124">
        <ele>572.6</ele>
        <time>2021-11-21T10:48:14Z</time>
      </trkpt>
      <trkpt lat="45.2484" lon="5.74135">
        <ele>573.2</ele>
        <time>2021-11-21T10:48:15Z</time>
      </trkpt>
      <trkpt lat="45.24834" lon="5.74146">
        <ele>573.6</ele>
        <time>2021-11-21T10:48:16Z</time>
      </trkpt>
      <trkpt lat="45.24829" lon="5.74158">
        <ele>574.2</ele>
        <time>2021-11-21T10:48:17Z</time>
      </trkpt>
      <trkpt lat="45.24825" lon="5.7417">
        <ele>575</ele>
        <time>2021-11-21T10:48:18Z</time>
      </trkpt>
      <trkpt lat="45.24822" lon="5.74183">
        <ele>575</ele>
        <time>2021-11-21T10:48:19Z</time>
      </trkpt>
      <trkpt lat="45.2482" lon="5.74206">
        <ele>575.2</ele>
        <time>2021-11-21T10:48:21Z</time>
      </trkpt>
      <trkpt lat="45.2482" lon="5.74217">
        <ele>575</ele>
        <time>2021-11-21T10:48:22Z</time>
      </trkpt>
      <trkpt lat="45.24823" lon="5.74226">
        <ele>575</ele>
        <time>2021-11-21T10:48:23Z</time>
      </trkpt>
      <trkpt lat="45.24827" lon="5.74235">
        <ele>574.8</ele>
        <time>2021-11-21T10:48:24Z</time>
      </trkpt>
      <trkpt lat="45.24832" lon="5.74242">
        <ele>574.6</ele>
        <time>2021-11-21T10:48:25Z</time>
      </trkpt>
      <trkpt lat="45.24837" lon="5.74249">
        <ele>574.2</ele>
        <time>2021-11-21T10:48:26Z</time>
      </trkpt>
      <trkpt lat="45.24843" lon="5.74256">
        <ele>574</ele>
        <time>2021-11-21T10:48:27Z</time>
      </trkpt>
      <trkpt lat="45.24853" lon="5.74268">
        <ele>573.4</ele>
        <time>2021-11-21T10:48:29Z</time>
      </trkpt>
      <trkpt lat="45.24864" lon="5.74275">
        <ele>572.6</ele>
        <time>2021-11-21T10:48:31Z</time>
      </trkpt>
      <trkpt lat="45.24875" lon="5.74276">
        <ele>572.4</ele>
        <time>2021-11-21T10:48:33Z</time>
      </trkpt>
      <trkpt lat="45.24886" lon="5.74272">
        <ele>573.2</ele>
        <time>2021-11-21T10:48:35Z</time>
      </trkpt>
      <trkpt lat="45.24897" lon="5.74265">
        <ele>574</ele>
        <time>2021-11-21T10:48:37Z</time>
      </trkpt>
      <trkpt lat="45.24908" lon="5.74259">
        <ele>575</ele>
        <time>2021-11-21T10:48:39Z</time>
      </trkpt>
      <trkpt lat="45.24918" lon="5.74254">
        <ele>576</ele>
        <time>2021-11-21T10:48:41Z</time>
      </trkpt>
      <trkpt lat="45.24923" lon="5.7425">
        <ele>576.6</ele>
        <time>2021-11-21T10:48:42Z</time>
      </trkpt>
      <trkpt lat="45.24928" lon="5.74248">
        <ele>577.2</ele>
        <time>2021-11-21T10:48:43Z</time>
      </trkpt>
      <trkpt lat="45.24933" lon="5.74245">
        <ele>577.6</ele>
        <time>2021-11-21T10:48:44Z</time>
      </trkpt>
      <trkpt lat="45.24938" lon="5.74243">
        <ele>578</ele>
        <time>2021-11-21T10:48:45Z</time>
      </trkpt>
      <trkpt lat="45.24948" lon="5.74238">
        <ele>579</ele>
        <time>2021-11-21T10:48:47Z</time>
      </trkpt>
      <trkpt lat="45.24952" lon="5.74235">
        <ele>579.6</ele>
        <time>2021-11-21T10:48:48Z</time>
      </trkpt>
      <trkpt lat="45.24957" lon="5.74231">
        <ele>580</ele>
        <time>2021-11-21T10:48:49Z</time>
      </trkpt>
      <trkpt lat="45.24961" lon="5.74227">
        <ele>580.8</ele>
        <time>2021-11-21T10:48:50Z</time>
      </trkpt>
      <trkpt lat="45.24965" lon="5.74222">
        <ele>581.2</ele>
        <time>2021-11-21T10:48:51Z</time>
      </trkpt>
      <trkpt lat="45.24969" lon="5.74216">
        <ele>581.6</ele>
        <time>2021-11-21T10:48:52Z</time>
      </trkpt>
      <trkpt lat="45.24973" lon="5.74211">
        <ele>581.8</ele>
        <time>2021-11-21T10:48:53Z</time>
      </trkpt>
      <trkpt lat="45.24977" lon="5.74205">
        <ele>582.2</ele>
        <time>2021-11-21T10:48:54Z</time>
      </trkpt>
      <trkpt lat="45.24981" lon="5.74201">
        <ele>582.8</ele>
        <time>2021-11-21T10:48:55Z</time>
      </trkpt>
      <trkpt lat="45.24992" lon="5.74197">
        <ele>583.8</ele>
        <time>2021-11-21T10:48:57Z</time>
      </trkpt>
      <trkpt lat="45.25003" lon="5.742">
        <ele>585</ele>
        <time>2021-11-21T10:48:59Z</time>
      </trkpt>
      <trkpt lat="45.25013" lon="5.74204">
        <ele>586.8</ele>
        <time>2021-11-21T10:49:01Z</time>
      </trkpt>
      <trkpt lat="45.25024" lon="5.74208">
        <ele>588.4</ele>
        <time>2021-11-21T10:49:03Z</time>
      </trkpt>
      <trkpt lat="45.25029" lon="5.7421">
        <ele>589</ele>
        <time>2021-11-21T10:49:04Z</time>
      </trkpt>
      <trkpt lat="45.25034" lon="5.74212">
        <ele>590</ele>
        <time>2021-11-21T10:49:05Z</time>
      </trkpt>
      <trkpt lat="45.2504" lon="5.74215">
        <ele>590.6</ele>
        <time>2021-11-21T10:49:06Z</time>
      </trkpt>
      <trkpt lat="45.25045" lon="5.74217">
        <ele>591</ele>
        <time>2021-11-21T10:49:07Z</time>
      </trkpt>
      <trkpt lat="45.2505" lon="5.74218">
        <ele>591.8</ele>
        <time>2021-11-21T10:49:08Z</time>
      </trkpt>
      <trkpt lat="45.25055" lon="5.74219">
        <ele>592.4</ele>
        <time>2021-11-21T10:49:09Z</time>
      </trkpt>
      <trkpt lat="45.25061" lon="5.7422">
        <ele>593</ele>
        <time>2021-11-21T10:49:10Z</time>
      </trkpt>
      <trkpt lat="45.25071" lon="5.74223">
        <ele>594</ele>
        <time>2021-11-21T10:49:12Z</time>
      </trkpt>
      <trkpt lat="45.25077" lon="5.74224">
        <ele>594.6</ele>
        <time>2021-11-21T10:49:13Z</time>
      </trkpt>
      <trkpt lat="45.25082" lon="5.74225">
        <ele>595.2</ele>
        <time>2021-11-21T10:49:14Z</time>
      </trkpt>
      <trkpt lat="45.25087" lon="5.74226">
        <ele>595.8</ele>
        <time>2021-11-21T10:49:15Z</time>
      </trkpt>
      <trkpt lat="45.25092" lon="5.74227">
        <ele>596.4</ele>
        <time>2021-11-21T10:49:16Z</time>
      </trkpt>
      <trkpt lat="45.25098" lon="5.74226">
        <ele>597</ele>
        <time>2021-11-21T10:49:17Z</time>
      </trkpt>
      <trkpt lat="45.25103" lon="5.74225">
        <ele>597.6</ele>
        <time>2021-11-21T10:49:18Z</time>
      </trkpt>
      <trkpt lat="45.25108" lon="5.74224">
        <ele>598.2</ele>
        <time>2021-11-21T10:49:19Z</time>
      </trkpt>
      <trkpt lat="45.25113" lon="5.74221">
        <ele>598.8</ele>
        <time>2021-11-21T10:49:20Z</time>
      </trkpt>
      <trkpt lat="45.25119" lon="5.74218">
        <ele>599.6</ele>
        <time>2021-11-21T10:49:21Z</time>
      </trkpt>
      <trkpt lat="45.25124" lon="5.74216">
        <ele>600.4</ele>
        <time>2021-11-21T10:49:22Z</time>
      </trkpt>
      <trkpt lat="45.25134" lon="5.7421">
        <ele>601.4</ele>
        <time>2021-11-21T10:49:24Z</time>
      </trkpt>
      <trkpt lat="45.25138" lon="5.74207">
        <ele>602.2</ele>
        <time>2021-11-21T10:49:25Z</time>
      </trkpt>
      <trkpt lat="45.25143" lon="5.74205">
        <ele>602.8</ele>
        <time>2021-11-21T10:49:26Z</time>
      </trkpt>
      <trkpt lat="45.25148" lon="5.74203">
        <ele>603.2</ele>
        <time>2021-11-21T10:49:27Z</time>
      </trkpt>
      <trkpt lat="45.25153" lon="5.74201">
        <ele>603.8</ele>
        <time>2021-11-21T10:49:28Z</time>
      </trkpt>
      <trkpt lat="45.25158" lon="5.74199">
        <ele>604.2</ele>
        <time>2021-11-21T10:49:29Z</time>
      </trkpt>
      <trkpt lat="45.25163" lon="5.74197">
        <ele>604.8</ele>
        <time>2021-11-21T10:49:30Z</time>
      </trkpt>
      <trkpt lat="45.25169" lon="5.74194">
        <ele>605.4</ele>
        <time>2021-11-21T10:49:31Z</time>
      </trkpt>
      <trkpt lat="45.25174" lon="5.74191">
        <ele>606.2</ele>
        <time>2021-11-21T10:49:32Z</time>
      </trkpt>
      <trkpt lat="45.2518" lon="5.74188">
        <ele>607</ele>
        <time>2021-11-21T10:49:33Z</time>
      </trkpt>
      <trkpt lat="45.25185" lon="5.74185">
        <ele>607.8</ele>
        <time>2021-11-21T10:49:34Z</time>
      </trkpt>
      <trkpt lat="45.25191" lon="5.74183">
        <ele>608.4</ele>
        <time>2021-11-21T10:49:35Z</time>
      </trkpt>
      <trkpt lat="45.25196" lon="5.74182">
        <ele>609.2</ele>
        <time>2021-11-21T10:49:36Z</time>
      </trkpt>
      <trkpt lat="45.25202" lon="5.74182">
        <ele>609.6</ele>
        <time>2021-11-21T10:49:37Z</time>
      </trkpt>
      <trkpt lat="45.25207" lon="5.74182">
        <ele>610.4</ele>
        <time>2021-11-21T10:49:38Z</time>
      </trkpt>
      <trkpt lat="45.25212" lon="5.74183">
        <ele>610.8</ele>
        <time>2021-11-21T10:49:39Z</time>
      </trkpt>
      <trkpt lat="45.25218" lon="5.74185">
        <ele>611</ele>
        <time>2021-11-21T10:49:40Z</time>
      </trkpt>
      <trkpt lat="45.25223" lon="5.74185">
        <ele>611.6</ele>
        <time>2021-11-21T10:49:41Z</time>
      </trkpt>
      <trkpt lat="45.25229" lon="5.74186">
        <ele>612.4</ele>
        <time>2021-11-21T10:49:42Z</time>
      </trkpt>
      <trkpt lat="45.25234" lon="5.74185">
        <ele>613.2</ele>
        <time>2021-11-21T10:49:43Z</time>
      </trkpt>
      <trkpt lat="45.2524" lon="5.74185">
        <ele>613.8</ele>
        <time>2021-11-21T10:49:44Z</time>
      </trkpt>
      <trkpt lat="45.25245" lon="5.74185">
        <ele>614.4</ele>
        <time>2021-11-21T10:49:45Z</time>
      </trkpt>
      <trkpt lat="45.25251" lon="5.74186">
        <ele>615.2</ele>
        <time>2021-11-21T10:49:46Z</time>
      </trkpt>
      <trkpt lat="45.25256" lon="5.74187">
        <ele>615.4</ele>
        <time>2021-11-21T10:49:47Z</time>
      </trkpt>
      <trkpt lat="45.25262" lon="5.74189">
        <ele>616.2</ele>
        <time>2021-11-21T10:49:48Z</time>
      </trkpt>
      <trkpt lat="45.25267" lon="5.7419">
        <ele>616.6</ele>
        <time>2021-11-21T10:49:49Z</time>
      </trkpt>
      <trkpt lat="45.25272" lon="5.74191">
        <ele>617.4</ele>
        <time>2021-11-21T10:49:50Z</time>
      </trkpt>
      <trkpt lat="45.25277" lon="5.74193">
        <ele>618.2</ele>
        <time>2021-11-21T10:49:51Z</time>
      </trkpt>
      <trkpt lat="45.25289" lon="5.74194">
        <ele>619.6</ele>
        <time>2021-11-21T10:49:53Z</time>
      </trkpt>
      <trkpt lat="45.25294" lon="5.74194">
        <ele>620.2</ele>
        <time>2021-11-21T10:49:54Z</time>
      </trkpt>
      <trkpt lat="45.253" lon="5.74195">
        <ele>620.8</ele>
        <time>2021-11-21T10:49:55Z</time>
      </trkpt>
      <trkpt lat="45.25305" lon="5.74196">
        <ele>621.6</ele>
        <time>2021-11-21T10:49:56Z</time>
      </trkpt>
      <trkpt lat="45.25311" lon="5.74198">
        <ele>622.2</ele>
        <time>2021-11-21T10:49:57Z</time>
      </trkpt>
      <trkpt lat="45.25316" lon="5.742">
        <ele>622.8</ele>
        <time>2021-11-21T10:49:58Z</time>
      </trkpt>
      <trkpt lat="45.25327" lon="5.74203">
        <ele>624</ele>
        <time>2021-11-21T10:50:00Z</time>
      </trkpt>
      <trkpt lat="45.25332" lon="5.74206">
        <ele>624.6</ele>
        <time>2021-11-21T10:50:01Z</time>
      </trkpt>
      <trkpt lat="45.25337" lon="5.74208">
        <ele>625.2</ele>
        <time>2021-11-21T10:50:02Z</time>
      </trkpt>
      <trkpt lat="45.25342" lon="5.74211">
        <ele>625.8</ele>
        <time>2021-11-21T10:50:03Z</time>
      </trkpt>
      <trkpt lat="45.25347" lon="5.74215">
        <ele>626.4</ele>
        <time>2021-11-21T10:50:04Z</time>
      </trkpt>
      <trkpt lat="45.25352" lon="5.74218">
        <ele>626.8</ele>
        <time>2021-11-21T10:50:05Z</time>
      </trkpt>
      <trkpt lat="45.25357" lon="5.74222">
        <ele>627.6</ele>
        <time>2021-11-21T10:50:06Z</time>
      </trkpt>
      <trkpt lat="45.25362" lon="5.74226">
        <ele>628.2</ele>
        <time>2021-11-21T10:50:07Z</time>
      </trkpt>
      <trkpt lat="45.25366" lon="5.7423">
        <ele>628.8</ele>
        <time>2021-11-21T10:50:08Z</time>
      </trkpt>
      <trkpt lat="45.2537" lon="5.74235">
        <ele>629.6</ele>
        <time>2021-11-21T10:50:09Z</time>
      </trkpt>
      <trkpt lat="45.25375" lon="5.7424">
        <ele>630.2</ele>
        <time>2021-11-21T10:50:10Z</time>
      </trkpt>
      <trkpt lat="45.25379" lon="5.74244">
        <ele>630.6</ele>
        <time>2021-11-21T10:50:11Z</time>
      </trkpt>
      <trkpt lat="45.25384" lon="5.74248">
        <ele>631.4</ele>
        <time>2021-11-21T10:50:12Z</time>
      </trkpt>
      <trkpt lat="45.25394" lon="5.74252">
        <ele>632.6</ele>
        <time>2021-11-21T10:50:14Z</time>
      </trkpt>
      <trkpt lat="45.25399" lon="5.74253">
        <ele>633.4</ele>
        <time>2021-11-21T10:50:15Z</time>
      </trkpt>
      <trkpt lat="45.25405" lon="5.74254">
        <ele>634</ele>
        <time>2021-11-21T10:50:16Z</time>
      </trkpt>
      <trkpt lat="45.2541" lon="5.74255">
        <ele>634.4</ele>
        <time>2021-11-21T10:50:17Z</time>
      </trkpt>
      <trkpt lat="45.25415" lon="5.74255">
        <ele>634.8</ele>
        <time>2021-11-21T10:50:18Z</time>
      </trkpt>
      <trkpt lat="45.25421" lon="5.74257">
        <ele>635.4</ele>
        <time>2021-11-21T10:50:19Z</time>
      </trkpt>
      <trkpt lat="45.25426" lon="5.74259">
        <ele>636.2</ele>
        <time>2021-11-21T10:50:20Z</time>
      </trkpt>
      <trkpt lat="45.25431" lon="5.74261">
        <ele>636.8</ele>
        <time>2021-11-21T10:50:21Z</time>
      </trkpt>
      <trkpt lat="45.25436" lon="5.74265">
        <ele>637.2</ele>
        <time>2021-11-21T10:50:22Z</time>
      </trkpt>
      <trkpt lat="45.2544" lon="5.74268">
        <ele>637.8</ele>
        <time>2021-11-21T10:50:23Z</time>
      </trkpt>
      <trkpt lat="45.25445" lon="5.74272">
        <ele>638</ele>
        <time>2021-11-21T10:50:24Z</time>
      </trkpt>
      <trkpt lat="45.25449" lon="5.74277">
        <ele>638.6</ele>
        <time>2021-11-21T10:50:25Z</time>
      </trkpt>
      <trkpt lat="45.25454" lon="5.74282">
        <ele>639.4</ele>
        <time>2021-11-21T10:50:26Z</time>
      </trkpt>
      <trkpt lat="45.25458" lon="5.74287">
        <ele>640</ele>
        <time>2021-11-21T10:50:27Z</time>
      </trkpt>
      <trkpt lat="45.25462" lon="5.74291">
        <ele>640.8</ele>
        <time>2021-11-21T10:50:28Z</time>
      </trkpt>
      <trkpt lat="45.25467" lon="5.74296">
        <ele>641.2</ele>
        <time>2021-11-21T10:50:29Z</time>
      </trkpt>
      <trkpt lat="45.25472" lon="5.743">
        <ele>642</ele>
        <time>2021-11-21T10:50:30Z</time>
      </trkpt>
      <trkpt lat="45.25476" lon="5.74303">
        <ele>642.6</ele>
        <time>2021-11-21T10:50:31Z</time>
      </trkpt>
      <trkpt lat="45.25481" lon="5.74306">
        <ele>643.4</ele>
        <time>2021-11-21T10:50:32Z</time>
      </trkpt>
      <trkpt lat="45.25487" lon="5.74309">
        <ele>644</ele>
        <time>2021-11-21T10:50:33Z</time>
      </trkpt>
      <trkpt lat="45.25492" lon="5.7431">
        <ele>644.8</ele>
        <time>2021-11-21T10:50:34Z</time>
      </trkpt>
      <trkpt lat="45.25497" lon="5.74311">
        <ele>645.4</ele>
        <time>2021-11-21T10:50:35Z</time>
      </trkpt>
      <trkpt lat="45.25502" lon="5.74312">
        <ele>646</ele>
        <time>2021-11-21T10:50:36Z</time>
      </trkpt>
      <trkpt lat="45.25508" lon="5.74313">
        <ele>646.6</ele>
        <time>2021-11-21T10:50:37Z</time>
      </trkpt>
      <trkpt lat="45.25513" lon="5.74313">
        <ele>647.4</ele>
        <time>2021-11-21T10:50:38Z</time>
      </trkpt>
      <trkpt lat="45.25518" lon="5.74314">
        <ele>647.8</ele>
        <time>2021-11-21T10:50:39Z</time>
      </trkpt>
      <trkpt lat="45.25524" lon="5.74315">
        <ele>648.6</ele>
        <time>2021-11-21T10:50:40Z</time>
      </trkpt>
      <trkpt lat="45.25529" lon="5.74315">
        <ele>649.2</ele>
        <time>2021-11-21T10:50:41Z</time>
      </trkpt>
      <trkpt lat="45.25534" lon="5.74315">
        <ele>650</ele>
        <time>2021-11-21T10:50:42Z</time>
      </trkpt>
      <trkpt lat="45.2554" lon="5.74315">
        <ele>650.4</ele>
        <time>2021-11-21T10:50:43Z</time>
      </trkpt>
      <trkpt lat="45.25545" lon="5.74315">
        <ele>651.2</ele>
        <time>2021-11-21T10:50:44Z</time>
      </trkpt>
      <trkpt lat="45.25551" lon="5.74314">
        <ele>651.6</ele>
        <time>2021-11-21T10:50:45Z</time>
      </trkpt>
      <trkpt lat="45.25556" lon="5.74312">
        <ele>652.6</ele>
        <time>2021-11-21T10:50:46Z</time>
      </trkpt>
      <trkpt lat="45.25561" lon="5.7431">
        <ele>653</ele>
        <time>2021-11-21T10:50:47Z</time>
      </trkpt>
      <trkpt lat="45.25566" lon="5.74307">
        <ele>653.4</ele>
        <time>2021-11-21T10:50:48Z</time>
      </trkpt>
      <trkpt lat="45.25572" lon="5.74305">
        <ele>653.8</ele>
        <time>2021-11-21T10:50:49Z</time>
      </trkpt>
      <trkpt lat="45.25577" lon="5.74304">
        <ele>654.6</ele>
        <time>2021-11-21T10:50:50Z</time>
      </trkpt>
      <trkpt lat="45.25582" lon="5.74303">
        <ele>655.2</ele>
        <time>2021-11-21T10:50:51Z</time>
      </trkpt>
      <trkpt lat="45.25588" lon="5.74304">
        <ele>655.8</ele>
        <time>2021-11-21T10:50:52Z</time>
      </trkpt>
      <trkpt lat="45.25593" lon="5.74304">
        <ele>656.4</ele>
        <time>2021-11-21T10:50:53Z</time>
      </trkpt>
      <trkpt lat="45.25598" lon="5.74306">
        <ele>657</ele>
        <time>2021-11-21T10:50:54Z</time>
      </trkpt>
      <trkpt lat="45.25604" lon="5.74307">
        <ele>657.6</ele>
        <time>2021-11-21T10:50:55Z</time>
      </trkpt>
      <trkpt lat="45.25609" lon="5.74309">
        <ele>658.2</ele>
        <time>2021-11-21T10:50:56Z</time>
      </trkpt>
      <trkpt lat="45.25614" lon="5.74311">
        <ele>658.8</ele>
        <time>2021-11-21T10:50:57Z</time>
      </trkpt>
      <trkpt lat="45.25619" lon="5.74314">
        <ele>659.6</ele>
        <time>2021-11-21T10:50:58Z</time>
      </trkpt>
      <trkpt lat="45.25625" lon="5.74316">
        <ele>660</ele>
        <time>2021-11-21T10:50:59Z</time>
      </trkpt>
      <trkpt lat="45.2563" lon="5.74319">
        <ele>660.4</ele>
        <time>2021-11-21T10:51:00Z</time>
      </trkpt>
      <trkpt lat="45.25635" lon="5.74323">
        <ele>661</ele>
        <time>2021-11-21T10:51:01Z</time>
      </trkpt>
      <trkpt lat="45.2564" lon="5.74326">
        <ele>661.6</ele>
        <time>2021-11-21T10:51:02Z</time>
      </trkpt>
      <trkpt lat="45.25645" lon="5.7433">
        <ele>662.2</ele>
        <time>2021-11-21T10:51:03Z</time>
      </trkpt>
      <trkpt lat="45.25649" lon="5.74334">
        <ele>662.8</ele>
        <time>2021-11-21T10:51:04Z</time>
      </trkpt>
      <trkpt lat="45.25654" lon="5.74339">
        <ele>663.2</ele>
        <time>2021-11-21T10:51:05Z</time>
      </trkpt>
      <trkpt lat="45.25657" lon="5.74345">
        <ele>663.8</ele>
        <time>2021-11-21T10:51:06Z</time>
      </trkpt>
      <trkpt lat="45.2566" lon="5.74351">
        <ele>664.4</ele>
        <time>2021-11-21T10:51:07Z</time>
      </trkpt>
      <trkpt lat="45.25662" lon="5.74359">
        <ele>665.2</ele>
        <time>2021-11-21T10:51:08Z</time>
      </trkpt>
      <trkpt lat="45.25663" lon="5.74367">
        <ele>665.8</ele>
        <time>2021-11-21T10:51:09Z</time>
      </trkpt>
      <trkpt lat="45.25663" lon="5.74375">
        <ele>666.4</ele>
        <time>2021-11-21T10:51:10Z</time>
      </trkpt>
      <trkpt lat="45.25663" lon="5.74383">
        <ele>666.8</ele>
        <time>2021-11-21T10:51:11Z</time>
      </trkpt>
      <trkpt lat="45.25663" lon="5.74391">
        <ele>667.2</ele>
        <time>2021-11-21T10:51:12Z</time>
      </trkpt>
      <trkpt lat="45.25664" lon="5.74398">
        <ele>667.8</ele>
        <time>2021-11-21T10:51:13Z</time>
      </trkpt>
      <trkpt lat="45.25665" lon="5.74406">
        <ele>668.4</ele>
        <time>2021-11-21T10:51:14Z</time>
      </trkpt>
      <trkpt lat="45.25668" lon="5.74412">
        <ele>669</ele>
        <time>2021-11-21T10:51:15Z</time>
      </trkpt>
      <trkpt lat="45.25671" lon="5.74418">
        <ele>669.6</ele>
        <time>2021-11-21T10:51:16Z</time>
      </trkpt>
      <trkpt lat="45.25676" lon="5.74422">
        <ele>670.4</ele>
        <time>2021-11-21T10:51:17Z</time>
      </trkpt>
      <trkpt lat="45.25681" lon="5.74426">
        <ele>671</ele>
        <time>2021-11-21T10:51:18Z</time>
      </trkpt>
      <trkpt lat="45.25686" lon="5.74428">
        <ele>671.6</ele>
        <time>2021-11-21T10:51:19Z</time>
      </trkpt>
      <trkpt lat="45.25692" lon="5.7443">
        <ele>671.8</ele>
        <time>2021-11-21T10:51:20Z</time>
      </trkpt>
      <trkpt lat="45.25698" lon="5.74431">
        <ele>672.4</ele>
        <time>2021-11-21T10:51:21Z</time>
      </trkpt>
      <trkpt lat="45.25704" lon="5.74431">
        <ele>672.8</ele>
        <time>2021-11-21T10:51:22Z</time>
      </trkpt>
      <trkpt lat="45.2571" lon="5.74432">
        <ele>673.4</ele>
        <time>2021-11-21T10:51:23Z</time>
      </trkpt>
      <trkpt lat="45.25716" lon="5.74432">
        <ele>674</ele>
        <time>2021-11-21T10:51:24Z</time>
      </trkpt>
      <trkpt lat="45.25721" lon="5.74434">
        <ele>674.8</ele>
        <time>2021-11-21T10:51:25Z</time>
      </trkpt>
      <trkpt lat="45.25726" lon="5.74436">
        <ele>675.2</ele>
        <time>2021-11-21T10:51:26Z</time>
      </trkpt>
      <trkpt lat="45.25732" lon="5.7444">
        <ele>676</ele>
        <time>2021-11-21T10:51:27Z</time>
      </trkpt>
      <trkpt lat="45.25737" lon="5.74442">
        <ele>676.6</ele>
        <time>2021-11-21T10:51:28Z</time>
      </trkpt>
      <trkpt lat="45.25743" lon="5.74444">
        <ele>677</ele>
        <time>2021-11-21T10:51:29Z</time>
      </trkpt>
      <trkpt lat="45.25748" lon="5.74445">
        <ele>677.4</ele>
        <time>2021-11-21T10:51:30Z</time>
      </trkpt>
      <trkpt lat="45.25754" lon="5.74445">
        <ele>677.6</ele>
        <time>2021-11-21T10:51:31Z</time>
      </trkpt>
      <trkpt lat="45.2576" lon="5.74443">
        <ele>678</ele>
        <time>2021-11-21T10:51:32Z</time>
      </trkpt>
      <trkpt lat="45.25765" lon="5.7444">
        <ele>678.4</ele>
        <time>2021-11-21T10:51:33Z</time>
      </trkpt>
      <trkpt lat="45.2577" lon="5.74436">
        <ele>679.4</ele>
        <time>2021-11-21T10:51:34Z</time>
      </trkpt>
      <trkpt lat="45.25775" lon="5.74432">
        <ele>680</ele>
        <time>2021-11-21T10:51:35Z</time>
      </trkpt>
      <trkpt lat="45.25779" lon="5.74426">
        <ele>680.4</ele>
        <time>2021-11-21T10:51:36Z</time>
      </trkpt>
      <trkpt lat="45.25783" lon="5.7442">
        <ele>681</ele>
        <time>2021-11-21T10:51:37Z</time>
      </trkpt>
      <trkpt lat="45.25787" lon="5.74414">
        <ele>681.6</ele>
        <time>2021-11-21T10:51:38Z</time>
      </trkpt>
      <trkpt lat="45.25791" lon="5.74409">
        <ele>682.2</ele>
        <time>2021-11-21T10:51:39Z</time>
      </trkpt>
      <trkpt lat="45.25796" lon="5.74405">
        <ele>683</ele>
        <time>2021-11-21T10:51:40Z</time>
      </trkpt>
      <trkpt lat="45.25801" lon="5.74403">
        <ele>683.4</ele>
        <time>2021-11-21T10:51:41Z</time>
      </trkpt>
      <trkpt lat="45.25807" lon="5.74401">
        <ele>684</ele>
        <time>2021-11-21T10:51:42Z</time>
      </trkpt>
      <trkpt lat="45.25813" lon="5.74401">
        <ele>684.6</ele>
        <time>2021-11-21T10:51:43Z</time>
      </trkpt>
      <trkpt lat="45.25818" lon="5.74403">
        <ele>685.2</ele>
        <time>2021-11-21T10:51:44Z</time>
      </trkpt>
      <trkpt lat="45.25824" lon="5.74406">
        <ele>685.6</ele>
        <time>2021-11-21T10:51:45Z</time>
      </trkpt>
      <trkpt lat="45.25828" lon="5.7441">
        <ele>686</ele>
        <time>2021-11-21T10:51:46Z</time>
      </trkpt>
      <trkpt lat="45.25833" lon="5.74415">
        <ele>686.8</ele>
        <time>2021-11-21T10:51:47Z</time>
      </trkpt>
      <trkpt lat="45.25837" lon="5.7442">
        <ele>687.2</ele>
        <time>2021-11-21T10:51:48Z</time>
      </trkpt>
      <trkpt lat="45.2584" lon="5.74426">
        <ele>688</ele>
        <time>2021-11-21T10:51:49Z</time>
      </trkpt>
      <trkpt lat="45.25844" lon="5.74431">
        <ele>688.6</ele>
        <time>2021-11-21T10:51:50Z</time>
      </trkpt>
      <trkpt lat="45.25849" lon="5.74436">
        <ele>689.4</ele>
        <time>2021-11-21T10:51:51Z</time>
      </trkpt>
      <trkpt lat="45.25853" lon="5.74441">
        <ele>689.8</ele>
        <time>2021-11-21T10:51:52Z</time>
      </trkpt>
      <trkpt lat="45.25858" lon="5.74445">
        <ele>690.4</ele>
        <time>2021-11-21T10:51:53Z</time>
      </trkpt>
      <trkpt lat="45.25863" lon="5.74448">
        <ele>690.8</ele>
        <time>2021-11-21T10:51:54Z</time>
      </trkpt>
      <trkpt lat="45.25868" lon="5.74452">
        <ele>691.4</ele>
        <time>2021-11-21T10:51:55Z</time>
      </trkpt>
      <trkpt lat="45.25873" lon="5.74456">
        <ele>692</ele>
        <time>2021-11-21T10:51:56Z</time>
      </trkpt>
      <trkpt lat="45.25878" lon="5.74459">
        <ele>692.6</ele>
        <time>2021-11-21T10:51:57Z</time>
      </trkpt>
      <trkpt lat="45.25884" lon="5.74462">
        <ele>693.2</ele>
        <time>2021-11-21T10:51:58Z</time>
      </trkpt>
      <trkpt lat="45.25889" lon="5.74465">
        <ele>693.8</ele>
        <time>2021-11-21T10:51:59Z</time>
      </trkpt>
      <trkpt lat="45.25895" lon="5.74468">
        <ele>694.4</ele>
        <time>2021-11-21T10:52:00Z</time>
      </trkpt>
      <trkpt lat="45.259" lon="5.74472">
        <ele>695.2</ele>
        <time>2021-11-21T10:52:01Z</time>
      </trkpt>
      <trkpt lat="45.25905" lon="5.74476">
        <ele>695.8</ele>
        <time>2021-11-21T10:52:02Z</time>
      </trkpt>
      <trkpt lat="45.25909" lon="5.74482">
        <ele>696.4</ele>
        <time>2021-11-21T10:52:03Z</time>
      </trkpt>
      <trkpt lat="45.25912" lon="5.74488">
        <ele>696.8</ele>
        <time>2021-11-21T10:52:04Z</time>
      </trkpt>
      <trkpt lat="45.25915" lon="5.74495">
        <ele>697.4</ele>
        <time>2021-11-21T10:52:05Z</time>
      </trkpt>
      <trkpt lat="45.25918" lon="5.74502">
        <ele>698</ele>
        <time>2021-11-21T10:52:06Z</time>
      </trkpt>
      <trkpt lat="45.25921" lon="5.74508">
        <ele>698.4</ele>
        <time>2021-11-21T10:52:07Z</time>
      </trkpt>
      <trkpt lat="45.25924" lon="5.74515">
        <ele>698.8</ele>
        <time>2021-11-21T10:52:08Z</time>
      </trkpt>
      <trkpt lat="45.25929" lon="5.7452">
        <ele>699.4</ele>
        <time>2021-11-21T10:52:09Z</time>
      </trkpt>
      <trkpt lat="45.25934" lon="5.74523">
        <ele>700</ele>
        <time>2021-11-21T10:52:10Z</time>
      </trkpt>
      <trkpt lat="45.25939" lon="5.74523">
        <ele>700.6</ele>
        <time>2021-11-21T10:52:11Z</time>
      </trkpt>
      <trkpt lat="45.25945" lon="5.74522">
        <ele>701</ele>
        <time>2021-11-21T10:52:12Z</time>
      </trkpt>
      <trkpt lat="45.2595" lon="5.74519">
        <ele>701.6</ele>
        <time>2021-11-21T10:52:13Z</time>
      </trkpt>
      <trkpt lat="45.25955" lon="5.74517">
        <ele>702</ele>
        <time>2021-11-21T10:52:14Z</time>
      </trkpt>
      <trkpt lat="45.25961" lon="5.74515">
        <ele>702.6</ele>
        <time>2021-11-21T10:52:15Z</time>
      </trkpt>
      <trkpt lat="45.25967" lon="5.74515">
        <ele>703.6</ele>
        <time>2021-11-21T10:52:16Z</time>
      </trkpt>
      <trkpt lat="45.25972" lon="5.74517">
        <ele>703.8</ele>
        <time>2021-11-21T10:52:17Z</time>
      </trkpt>
      <trkpt lat="45.25982" lon="5.74526">
        <ele>705</ele>
        <time>2021-11-21T10:52:19Z</time>
      </trkpt>
      <trkpt lat="45.25986" lon="5.74532">
        <ele>705.4</ele>
        <time>2021-11-21T10:52:20Z</time>
      </trkpt>
      <trkpt lat="45.25989" lon="5.74538">
        <ele>706.4</ele>
        <time>2021-11-21T10:52:21Z</time>
      </trkpt>
      <trkpt lat="45.25993" lon="5.74544">
        <ele>706.6</ele>
        <time>2021-11-21T10:52:22Z</time>
      </trkpt>
      <trkpt lat="45.25997" lon="5.7455">
        <ele>707.4</ele>
        <time>2021-11-21T10:52:23Z</time>
      </trkpt>
      <trkpt lat="45.26001" lon="5.74556">
        <ele>707.8</ele>
        <time>2021-11-21T10:52:24Z</time>
      </trkpt>
      <trkpt lat="45.2601" lon="5.74566">
        <ele>709</ele>
        <time>2021-11-21T10:52:26Z</time>
      </trkpt>
      <trkpt lat="45.2602" lon="5.74574">
        <ele>710.2</ele>
        <time>2021-11-21T10:52:28Z</time>
      </trkpt>
      <trkpt lat="45.26025" lon="5.74579">
        <ele>710.4</ele>
        <time>2021-11-21T10:52:29Z</time>
      </trkpt>
      <trkpt lat="45.26031" lon="5.74591">
        <ele>711.4</ele>
        <time>2021-11-21T10:52:31Z</time>
      </trkpt>
      <trkpt lat="45.26023" lon="5.74602">
        <ele>712.8</ele>
        <time>2021-11-21T10:52:33Z</time>
      </trkpt>
      <trkpt lat="45.26011" lon="5.746">
        <ele>714</ele>
        <time>2021-11-21T10:52:35Z</time>
      </trkpt>
      <trkpt lat="45.26004" lon="5.74589">
        <ele>715.2</ele>
        <time>2021-11-21T10:52:37Z</time>
      </trkpt>
      <trkpt lat="45.25995" lon="5.74579">
        <ele>716.2</ele>
        <time>2021-11-21T10:52:39Z</time>
      </trkpt>
      <trkpt lat="45.25984" lon="5.74576">
        <ele>717</ele>
        <time>2021-11-21T10:52:41Z</time>
      </trkpt>
      <trkpt lat="45.25973" lon="5.7458">
        <ele>717.6</ele>
        <time>2021-11-21T10:52:43Z</time>
      </trkpt>
      <trkpt lat="45.25968" lon="5.74581">
        <ele>718</ele>
        <time>2021-11-21T10:52:44Z</time>
      </trkpt>
      <trkpt lat="45.25963" lon="5.74584">
        <ele>718.4</ele>
        <time>2021-11-21T10:52:45Z</time>
      </trkpt>
      <trkpt lat="45.25958" lon="5.74586">
        <ele>719.2</ele>
        <time>2021-11-21T10:52:46Z</time>
      </trkpt>
      <trkpt lat="45.25953" lon="5.74589">
        <ele>719.6</ele>
        <time>2021-11-21T10:52:47Z</time>
      </trkpt>
      <trkpt lat="45.25943" lon="5.74599">
        <ele>720.6</ele>
        <time>2021-11-21T10:52:49Z</time>
      </trkpt>
      <trkpt lat="45.25938" lon="5.74603">
        <ele>721</ele>
        <time>2021-11-21T10:52:50Z</time>
      </trkpt>
      <trkpt lat="45.25928" lon="5.74605">
        <ele>722.2</ele>
        <time>2021-11-21T10:52:52Z</time>
      </trkpt>
      <trkpt lat="45.25919" lon="5.74599">
        <ele>723.2</ele>
        <time>2021-11-21T10:52:54Z</time>
      </trkpt>
      <trkpt lat="45.25911" lon="5.7459">
        <ele>724.2</ele>
        <time>2021-11-21T10:52:56Z</time>
      </trkpt>
      <trkpt lat="45.25901" lon="5.74582">
        <ele>725.2</ele>
        <time>2021-11-21T10:52:58Z</time>
      </trkpt>
      <trkpt lat="45.25891" lon="5.74577">
        <ele>726.8</ele>
        <time>2021-11-21T10:53:00Z</time>
      </trkpt>
      <trkpt lat="45.2588" lon="5.74574">
        <ele>727.8</ele>
        <time>2021-11-21T10:53:02Z</time>
      </trkpt>
      <trkpt lat="45.25869" lon="5.74571">
        <ele>729.2</ele>
        <time>2021-11-21T10:53:04Z</time>
      </trkpt>
      <trkpt lat="45.25856" lon="5.74569">
        <ele>730.6</ele>
        <time>2021-11-21T10:53:06Z</time>
      </trkpt>
      <trkpt lat="45.25851" lon="5.74568">
        <ele>731</ele>
        <time>2021-11-21T10:53:07Z</time>
      </trkpt>
      <trkpt lat="45.25845" lon="5.74567">
        <ele>731.6</ele>
        <time>2021-11-21T10:53:08Z</time>
      </trkpt>
      <trkpt lat="45.25839" lon="5.74567">
        <ele>732.2</ele>
        <time>2021-11-21T10:53:09Z</time>
      </trkpt>
      <trkpt lat="45.25834" lon="5.74569">
        <ele>733</ele>
        <time>2021-11-21T10:53:10Z</time>
      </trkpt>
      <trkpt lat="45.25829" lon="5.74572">
        <ele>733.4</ele>
        <time>2021-11-21T10:53:11Z</time>
      </trkpt>
      <trkpt lat="45.25825" lon="5.74577">
        <ele>734.2</ele>
        <time>2021-11-21T10:53:12Z</time>
      </trkpt>
      <trkpt lat="45.25817" lon="5.74589">
        <ele>735.6</ele>
        <time>2021-11-21T10:53:14Z</time>
      </trkpt>
      <trkpt lat="45.2581" lon="5.74603">
        <ele>736.8</ele>
        <time>2021-11-21T10:53:16Z</time>
      </trkpt>
      <trkpt lat="45.25806" lon="5.74608">
        <ele>737.2</ele>
        <time>2021-11-21T10:53:17Z</time>
      </trkpt>
      <trkpt lat="45.25802" lon="5.74613">
        <ele>737.4</ele>
        <time>2021-11-21T10:53:18Z</time>
      </trkpt>
      <trkpt lat="45.25797" lon="5.74616">
        <ele>738.2</ele>
        <time>2021-11-21T10:53:19Z</time>
      </trkpt>
      <trkpt lat="45.25791" lon="5.74618">
        <ele>739</ele>
        <time>2021-11-21T10:53:20Z</time>
      </trkpt>
      <trkpt lat="45.25786" lon="5.74618">
        <ele>739.6</ele>
        <time>2021-11-21T10:53:21Z</time>
      </trkpt>
      <trkpt lat="45.2578" lon="5.74618">
        <ele>740.2</ele>
        <time>2021-11-21T10:53:22Z</time>
      </trkpt>
      <trkpt lat="45.25775" lon="5.74617">
        <ele>740.8</ele>
        <time>2021-11-21T10:53:23Z</time>
      </trkpt>
      <trkpt lat="45.2577" lon="5.74616">
        <ele>741.4</ele>
        <time>2021-11-21T10:53:24Z</time>
      </trkpt>
      <trkpt lat="45.25765" lon="5.74614">
        <ele>742</ele>
        <time>2021-11-21T10:53:25Z</time>
      </trkpt>
      <trkpt lat="45.2576" lon="5.74613">
        <ele>742.6</ele>
        <time>2021-11-21T10:53:26Z</time>
      </trkpt>
      <trkpt lat="45.25749" lon="5.7461">
        <ele>743.6</ele>
        <time>2021-11-21T10:53:28Z</time>
      </trkpt>
      <trkpt lat="45.25743" lon="5.7461">
        <ele>744.4</ele>
        <time>2021-11-21T10:53:29Z</time>
      </trkpt>
      <trkpt lat="45.25737" lon="5.74612">
        <ele>744.8</ele>
        <time>2021-11-21T10:53:30Z</time>
      </trkpt>
      <trkpt lat="45.25733" lon="5.74616">
        <ele>745.4</ele>
        <time>2021-11-21T10:53:31Z</time>
      </trkpt>
      <trkpt lat="45.2573" lon="5.74622">
        <ele>746</ele>
        <time>2021-11-21T10:53:32Z</time>
      </trkpt>
      <trkpt lat="45.25729" lon="5.7463">
        <ele>747</ele>
        <time>2021-11-21T10:53:33Z</time>
      </trkpt>
      <trkpt lat="45.25733" lon="5.74641">
        <ele>748.2</ele>
        <time>2021-11-21T10:53:35Z</time>
      </trkpt>
      <trkpt lat="45.25738" lon="5.74644">
        <ele>749</ele>
        <time>2021-11-21T10:53:36Z</time>
      </trkpt>
      <trkpt lat="45.25751" lon="5.74648">
        <ele>750</ele>
        <time>2021-11-21T10:53:38Z</time>
      </trkpt>
      <trkpt lat="45.25763" lon="5.74652">
        <ele>751</ele>
        <time>2021-11-21T10:53:40Z</time>
      </trkpt>
      <trkpt lat="45.25775" lon="5.74658">
        <ele>752.2</ele>
        <time>2021-11-21T10:53:42Z</time>
      </trkpt>
      <trkpt lat="45.25785" lon="5.74663">
        <ele>752.8</ele>
        <time>2021-11-21T10:53:44Z</time>
      </trkpt>
      <trkpt lat="45.25795" lon="5.74671">
        <ele>754</ele>
        <time>2021-11-21T10:53:46Z</time>
      </trkpt>
      <trkpt lat="45.25804" lon="5.74682">
        <ele>754.6</ele>
        <time>2021-11-21T10:53:48Z</time>
      </trkpt>
      <trkpt lat="45.2581" lon="5.74695">
        <ele>755.4</ele>
        <time>2021-11-21T10:53:50Z</time>
      </trkpt>
      <trkpt lat="45.25817" lon="5.74708">
        <ele>756.8</ele>
        <time>2021-11-21T10:53:52Z</time>
      </trkpt>
      <trkpt lat="45.25825" lon="5.74719">
        <ele>757.6</ele>
        <time>2021-11-21T10:53:54Z</time>
      </trkpt>
      <trkpt lat="45.25837" lon="5.74725">
        <ele>758.8</ele>
        <time>2021-11-21T10:53:56Z</time>
      </trkpt>
      <trkpt lat="45.25848" lon="5.74725">
        <ele>760</ele>
        <time>2021-11-21T10:53:58Z</time>
      </trkpt>
      <trkpt lat="45.2586" lon="5.74721">
        <ele>760.8</ele>
        <time>2021-11-21T10:54:00Z</time>
      </trkpt>
      <trkpt lat="45.2587" lon="5.74714">
        <ele>761.8</ele>
        <time>2021-11-21T10:54:02Z</time>
      </trkpt>
      <trkpt lat="45.25875" lon="5.7471">
        <ele>762.6</ele>
        <time>2021-11-21T10:54:03Z</time>
      </trkpt>
      <trkpt lat="45.2588" lon="5.74706">
        <ele>763</ele>
        <time>2021-11-21T10:54:04Z</time>
      </trkpt>
      <trkpt lat="45.25885" lon="5.74702">
        <ele>763.6</ele>
        <time>2021-11-21T10:54:05Z</time>
      </trkpt>
      <trkpt lat="45.2589" lon="5.74699">
        <ele>764</ele>
        <time>2021-11-21T10:54:06Z</time>
      </trkpt>
      <trkpt lat="45.25895" lon="5.74698">
        <ele>764.6</ele>
        <time>2021-11-21T10:54:07Z</time>
      </trkpt>
      <trkpt lat="45.25902" lon="5.74699">
        <ele>765.2</ele>
        <time>2021-11-21T10:54:08Z</time>
      </trkpt>
      <trkpt lat="45.25908" lon="5.74701">
        <ele>765.8</ele>
        <time>2021-11-21T10:54:09Z</time>
      </trkpt>
      <trkpt lat="45.25913" lon="5.74704">
        <ele>766.2</ele>
        <time>2021-11-21T10:54:10Z</time>
      </trkpt>
      <trkpt lat="45.25918" lon="5.74709">
        <ele>767.2</ele>
        <time>2021-11-21T10:54:11Z</time>
      </trkpt>
      <trkpt lat="45.25922" lon="5.74714">
        <ele>767.6</ele>
        <time>2021-11-21T10:54:12Z</time>
      </trkpt>
      <trkpt lat="45.25927" lon="5.74719">
        <ele>767.8</ele>
        <time>2021-11-21T10:54:13Z</time>
      </trkpt>
      <trkpt lat="45.25931" lon="5.74724">
        <ele>768.4</ele>
        <time>2021-11-21T10:54:14Z</time>
      </trkpt>
      <trkpt lat="45.25935" lon="5.74728">
        <ele>769</ele>
        <time>2021-11-21T10:54:15Z</time>
      </trkpt>
      <trkpt lat="45.2594" lon="5.74732">
        <ele>769.4</ele>
        <time>2021-11-21T10:54:16Z</time>
      </trkpt>
      <trkpt lat="45.25945" lon="5.74734">
        <ele>769.8</ele>
        <time>2021-11-21T10:54:17Z</time>
      </trkpt>
      <trkpt lat="45.25951" lon="5.74735">
        <ele>770.4</ele>
        <time>2021-11-21T10:54:18Z</time>
      </trkpt>
      <trkpt lat="45.25961" lon="5.74739">
        <ele>771.4</ele>
        <time>2021-11-21T10:54:20Z</time>
      </trkpt>
      <trkpt lat="45.25967" lon="5.7474">
        <ele>771.6</ele>
        <time>2021-11-21T10:54:21Z</time>
      </trkpt>
      <trkpt lat="45.25978" lon="5.74744">
        <ele>772.6</ele>
        <time>2021-11-21T10:54:23Z</time>
      </trkpt>
      <trkpt lat="45.25983" lon="5.74746">
        <ele>773</ele>
        <time>2021-11-21T10:54:24Z</time>
      </trkpt>
      <trkpt lat="45.25989" lon="5.74749">
        <ele>773.4</ele>
        <time>2021-11-21T10:54:25Z</time>
      </trkpt>
      <trkpt lat="45.25994" lon="5.74754">
        <ele>773.8</ele>
        <time>2021-11-21T10:54:26Z</time>
      </trkpt>
      <trkpt lat="45.25999" lon="5.74758">
        <ele>774.4</ele>
        <time>2021-11-21T10:54:27Z</time>
      </trkpt>
      <trkpt lat="45.26004" lon="5.74763">
        <ele>775</ele>
        <time>2021-11-21T10:54:28Z</time>
      </trkpt>
      <trkpt lat="45.26008" lon="5.74768">
        <ele>775.6</ele>
        <time>2021-11-21T10:54:29Z</time>
      </trkpt>
      <trkpt lat="45.26012" lon="5.74773">
        <ele>776.2</ele>
        <time>2021-11-21T10:54:30Z</time>
      </trkpt>
      <trkpt lat="45.26015" lon="5.74779">
        <ele>776.6</ele>
        <time>2021-11-21T10:54:31Z</time>
      </trkpt>
      <trkpt lat="45.26019" lon="5.74785">
        <ele>777.4</ele>
        <time>2021-11-21T10:54:32Z</time>
      </trkpt>
      <trkpt lat="45.26022" lon="5.74791">
        <ele>778</ele>
        <time>2021-11-21T10:54:33Z</time>
      </trkpt>
      <trkpt lat="45.26024" lon="5.74798">
        <ele>778.6</ele>
        <time>2021-11-21T10:54:34Z</time>
      </trkpt>
      <trkpt lat="45.26027" lon="5.74804">
        <ele>779.4</ele>
        <time>2021-11-21T10:54:35Z</time>
      </trkpt>
      <trkpt lat="45.2603" lon="5.74811">
        <ele>780</ele>
        <time>2021-11-21T10:54:36Z</time>
      </trkpt>
      <trkpt lat="45.26034" lon="5.74817">
        <ele>780.4</ele>
        <time>2021-11-21T10:54:37Z</time>
      </trkpt>
      <trkpt lat="45.26037" lon="5.74822">
        <ele>781</ele>
        <time>2021-11-21T10:54:38Z</time>
      </trkpt>
      <trkpt lat="45.26041" lon="5.74828">
        <ele>781.6</ele>
        <time>2021-11-21T10:54:39Z</time>
      </trkpt>
      <trkpt lat="45.26046" lon="5.74832">
        <ele>782</ele>
        <time>2021-11-21T10:54:40Z</time>
      </trkpt>
      <trkpt lat="45.2605" lon="5.74836">
        <ele>782.6</ele>
        <time>2021-11-21T10:54:41Z</time>
      </trkpt>
      <trkpt lat="45.26055" lon="5.7484">
        <ele>783</ele>
        <time>2021-11-21T10:54:42Z</time>
      </trkpt>
      <trkpt lat="45.26059" lon="5.74845">
        <ele>783.8</ele>
        <time>2021-11-21T10:54:43Z</time>
      </trkpt>
      <trkpt lat="45.26064" lon="5.74849">
        <ele>784.2</ele>
        <time>2021-11-21T10:54:44Z</time>
      </trkpt>
      <trkpt lat="45.26068" lon="5.74855">
        <ele>785</ele>
        <time>2021-11-21T10:54:45Z</time>
      </trkpt>
      <trkpt lat="45.26072" lon="5.7486">
        <ele>785.6</ele>
        <time>2021-11-21T10:54:46Z</time>
      </trkpt>
      <trkpt lat="45.26075" lon="5.74866">
        <ele>786.2</ele>
        <time>2021-11-21T10:54:47Z</time>
      </trkpt>
      <trkpt lat="45.26078" lon="5.74872">
        <ele>787</ele>
        <time>2021-11-21T10:54:48Z</time>
      </trkpt>
      <trkpt lat="45.26081" lon="5.74879">
        <ele>787.4</ele>
        <time>2021-11-21T10:54:49Z</time>
      </trkpt>
      <trkpt lat="45.26083" lon="5.74886">
        <ele>788.2</ele>
        <time>2021-11-21T10:54:50Z</time>
      </trkpt>
      <trkpt lat="45.26086" lon="5.74893">
        <ele>788.8</ele>
        <time>2021-11-21T10:54:51Z</time>
      </trkpt>
      <trkpt lat="45.26088" lon="5.74899">
        <ele>789.6</ele>
        <time>2021-11-21T10:54:52Z</time>
      </trkpt>
      <trkpt lat="45.26091" lon="5.74905">
        <ele>790.2</ele>
        <time>2021-11-21T10:54:53Z</time>
      </trkpt>
      <trkpt lat="45.26095" lon="5.74909">
        <ele>790.8</ele>
        <time>2021-11-21T10:54:54Z</time>
      </trkpt>
      <trkpt lat="45.261" lon="5.74912">
        <ele>791.4</ele>
        <time>2021-11-21T10:54:55Z</time>
      </trkpt>
      <trkpt lat="45.26106" lon="5.74914">
        <ele>791.8</ele>
        <time>2021-11-21T10:54:56Z</time>
      </trkpt>
      <trkpt lat="45.26111" lon="5.74914">
        <ele>792.2</ele>
        <time>2021-11-21T10:54:57Z</time>
      </trkpt>
      <trkpt lat="45.26117" lon="5.74912">
        <ele>793</ele>
        <time>2021-11-21T10:54:58Z</time>
      </trkpt>
      <trkpt lat="45.26122" lon="5.74908">
        <ele>793.6</ele>
        <time>2021-11-21T10:54:59Z</time>
      </trkpt>
      <trkpt lat="45.26127" lon="5.74904">
        <ele>794.2</ele>
        <time>2021-11-21T10:55:00Z</time>
      </trkpt>
      <trkpt lat="45.26136" lon="5.74894">
        <ele>795.6</ele>
        <time>2021-11-21T10:55:02Z</time>
      </trkpt>
      <trkpt lat="45.2614" lon="5.74889">
        <ele>796.4</ele>
        <time>2021-11-21T10:55:03Z</time>
      </trkpt>
      <trkpt lat="45.26145" lon="5.74886">
        <ele>797</ele>
        <time>2021-11-21T10:55:04Z</time>
      </trkpt>
      <trkpt lat="45.26151" lon="5.74885">
        <ele>798</ele>
        <time>2021-11-21T10:55:05Z</time>
      </trkpt>
      <trkpt lat="45.26156" lon="5.74886">
        <ele>798.4</ele>
        <time>2021-11-21T10:55:06Z</time>
      </trkpt>
      <trkpt lat="45.26161" lon="5.74889">
        <ele>798.8</ele>
        <time>2021-11-21T10:55:07Z</time>
      </trkpt>
      <trkpt lat="45.26166" lon="5.74893">
        <ele>799.4</ele>
        <time>2021-11-21T10:55:08Z</time>
      </trkpt>
      <trkpt lat="45.26169" lon="5.74899">
        <ele>800</ele>
        <time>2021-11-21T10:55:09Z</time>
      </trkpt>
      <trkpt lat="45.26172" lon="5.74906">
        <ele>800.8</ele>
        <time>2021-11-21T10:55:10Z</time>
      </trkpt>
      <trkpt lat="45.26174" lon="5.74913">
        <ele>801.6</ele>
        <time>2021-11-21T10:55:11Z</time>
      </trkpt>
      <trkpt lat="45.26175" lon="5.7492">
        <ele>802.4</ele>
        <time>2021-11-21T10:55:12Z</time>
      </trkpt>
      <trkpt lat="45.26177" lon="5.74928">
        <ele>803</ele>
        <time>2021-11-21T10:55:13Z</time>
      </trkpt>
      <trkpt lat="45.26179" lon="5.74935">
        <ele>803.6</ele>
        <time>2021-11-21T10:55:14Z</time>
      </trkpt>
      <trkpt lat="45.26181" lon="5.74942">
        <ele>804.2</ele>
        <time>2021-11-21T10:55:15Z</time>
      </trkpt>
      <trkpt lat="45.26183" lon="5.74948">
        <ele>804.8</ele>
        <time>2021-11-21T10:55:16Z</time>
      </trkpt>
      <trkpt lat="45.26187" lon="5.74954">
        <ele>805.8</ele>
        <time>2021-11-21T10:55:17Z</time>
      </trkpt>
      <trkpt lat="45.26191" lon="5.74958">
        <ele>806.4</ele>
        <time>2021-11-21T10:55:18Z</time>
      </trkpt>
      <trkpt lat="45.26195" lon="5.74962">
        <ele>807</ele>
        <time>2021-11-21T10:55:19Z</time>
      </trkpt>
      <trkpt lat="45.26201" lon="5.74966">
        <ele>807.8</ele>
        <time>2021-11-21T10:55:20Z</time>
      </trkpt>
      <trkpt lat="45.26206" lon="5.74969">
        <ele>808.4</ele>
        <time>2021-11-21T10:55:21Z</time>
      </trkpt>
      <trkpt lat="45.26212" lon="5.7497">
        <ele>808.8</ele>
        <time>2021-11-21T10:55:22Z</time>
      </trkpt>
      <trkpt lat="45.26217" lon="5.74971">
        <ele>809.6</ele>
        <time>2021-11-21T10:55:23Z</time>
      </trkpt>
      <trkpt lat="45.26222" lon="5.74969">
        <ele>810.2</ele>
        <time>2021-11-21T10:55:24Z</time>
      </trkpt>
      <trkpt lat="45.26228" lon="5.74967">
        <ele>810.8</ele>
        <time>2021-11-21T10:55:25Z</time>
      </trkpt>
      <trkpt lat="45.26233" lon="5.74964">
        <ele>811.4</ele>
        <time>2021-11-21T10:55:26Z</time>
      </trkpt>
      <trkpt lat="45.26238" lon="5.7496">
        <ele>811.8</ele>
        <time>2021-11-21T10:55:27Z</time>
      </trkpt>
      <trkpt lat="45.26246" lon="5.74948">
        <ele>813.2</ele>
        <time>2021-11-21T10:55:29Z</time>
      </trkpt>
      <trkpt lat="45.26251" lon="5.74933">
        <ele>814.4</ele>
        <time>2021-11-21T10:55:31Z</time>
      </trkpt>
      <trkpt lat="45.26253" lon="5.74926">
        <ele>815</ele>
        <time>2021-11-21T10:55:32Z</time>
      </trkpt>
      <trkpt lat="45.26254" lon="5.74918">
        <ele>815.6</ele>
        <time>2021-11-21T10:55:33Z</time>
      </trkpt>
      <trkpt lat="45.26256" lon="5.74911">
        <ele>816.4</ele>
        <time>2021-11-21T10:55:34Z</time>
      </trkpt>
      <trkpt lat="45.26258" lon="5.74903">
        <ele>817</ele>
        <time>2021-11-21T10:55:35Z</time>
      </trkpt>
      <trkpt lat="45.26259" lon="5.74895">
        <ele>817.4</ele>
        <time>2021-11-21T10:55:36Z</time>
      </trkpt>
      <trkpt lat="45.26261" lon="5.74888">
        <ele>818.2</ele>
        <time>2021-11-21T10:55:37Z</time>
      </trkpt>
      <trkpt lat="45.26263" lon="5.74881">
        <ele>818.4</ele>
        <time>2021-11-21T10:55:38Z</time>
      </trkpt>
      <trkpt lat="45.26265" lon="5.74874">
        <ele>819</ele>
        <time>2021-11-21T10:55:39Z</time>
      </trkpt>
      <trkpt lat="45.26269" lon="5.74868">
        <ele>819.4</ele>
        <time>2021-11-21T10:55:40Z</time>
      </trkpt>
      <trkpt lat="45.26273" lon="5.74864">
        <ele>820.2</ele>
        <time>2021-11-21T10:55:41Z</time>
      </trkpt>
      <trkpt lat="45.26279" lon="5.74862">
        <ele>821.2</ele>
        <time>2021-11-21T10:55:42Z</time>
      </trkpt>
      <trkpt lat="45.26284" lon="5.74863">
        <ele>821.6</ele>
        <time>2021-11-21T10:55:43Z</time>
      </trkpt>
      <trkpt lat="45.26289" lon="5.74864">
        <ele>822.2</ele>
        <time>2021-11-21T10:55:44Z</time>
      </trkpt>
      <trkpt lat="45.26295" lon="5.74866">
        <ele>822.4</ele>
        <time>2021-11-21T10:55:45Z</time>
      </trkpt>
      <trkpt lat="45.263" lon="5.74868">
        <ele>823.4</ele>
        <time>2021-11-21T10:55:46Z</time>
      </trkpt>
      <trkpt lat="45.26305" lon="5.74871">
        <ele>823.8</ele>
        <time>2021-11-21T10:55:47Z</time>
      </trkpt>
      <trkpt lat="45.2631" lon="5.74875">
        <ele>824.4</ele>
        <time>2021-11-21T10:55:48Z</time>
      </trkpt>
      <trkpt lat="45.26315" lon="5.7488">
        <ele>825.2</ele>
        <time>2021-11-21T10:55:49Z</time>
      </trkpt>
      <trkpt lat="45.2632" lon="5.74885">
        <ele>825.8</ele>
        <time>2021-11-21T10:55:50Z</time>
      </trkpt>
      <trkpt lat="45.26324" lon="5.7489">
        <ele>826.2</ele>
        <time>2021-11-21T10:55:51Z</time>
      </trkpt>
      <trkpt lat="45.26327" lon="5.74897">
        <ele>826.8</ele>
        <time>2021-11-21T10:55:52Z</time>
      </trkpt>
      <trkpt lat="45.2633" lon="5.74904">
        <ele>827.4</ele>
        <time>2021-11-21T10:55:53Z</time>
      </trkpt>
      <trkpt lat="45.26332" lon="5.74911">
        <ele>827.8</ele>
        <time>2021-11-21T10:55:54Z</time>
      </trkpt>
      <trkpt lat="45.26334" lon="5.74918">
        <ele>828.6</ele>
        <time>2021-11-21T10:55:55Z</time>
      </trkpt>
      <trkpt lat="45.26336" lon="5.74925">
        <ele>829</ele>
        <time>2021-11-21T10:55:56Z</time>
      </trkpt>
      <trkpt lat="45.26339" lon="5.74931">
        <ele>829.8</ele>
        <time>2021-11-21T10:55:57Z</time>
      </trkpt>
      <trkpt lat="45.26341" lon="5.74938">
        <ele>830.6</ele>
        <time>2021-11-21T10:55:58Z</time>
      </trkpt>
      <trkpt lat="45.26343" lon="5.74944">
        <ele>831.4</ele>
        <time>2021-11-21T10:55:59Z</time>
      </trkpt>
      <trkpt lat="45.26345" lon="5.74951">
        <ele>832</ele>
        <time>2021-11-21T10:56:00Z</time>
      </trkpt>
      <trkpt lat="45.26347" lon="5.74958">
        <ele>832.6</ele>
        <time>2021-11-21T10:56:01Z</time>
      </trkpt>
      <trkpt lat="45.26349" lon="5.74965">
        <ele>833</ele>
        <time>2021-11-21T10:56:02Z</time>
      </trkpt>
      <trkpt lat="45.2635" lon="5.74973">
        <ele>833.8</ele>
        <time>2021-11-21T10:56:03Z</time>
      </trkpt>
      <trkpt lat="45.2635" lon="5.74981">
        <ele>834.2</ele>
        <time>2021-11-21T10:56:04Z</time>
      </trkpt>
      <trkpt lat="45.26349" lon="5.74988">
        <ele>834.6</ele>
        <time>2021-11-21T10:56:05Z</time>
      </trkpt>
      <trkpt lat="45.26347" lon="5.74995">
        <ele>835.4</ele>
        <time>2021-11-21T10:56:06Z</time>
      </trkpt>
      <trkpt lat="45.26346" lon="5.75002">
        <ele>835.8</ele>
        <time>2021-11-21T10:56:07Z</time>
      </trkpt>
      <trkpt lat="45.26345" lon="5.75009">
        <ele>837</ele>
        <time>2021-11-21T10:56:08Z</time>
      </trkpt>
      <trkpt lat="45.26345" lon="5.75016">
        <ele>837.4</ele>
        <time>2021-11-21T10:56:09Z</time>
      </trkpt>
      <trkpt lat="45.26345" lon="5.75022">
        <ele>837.6</ele>
        <time>2021-11-21T10:56:10Z</time>
      </trkpt>
      <trkpt lat="45.26346" lon="5.75028">
        <ele>838.4</ele>
        <time>2021-11-21T10:56:11Z</time>
      </trkpt>
      <trkpt lat="45.26348" lon="5.75033">
        <ele>838.8</ele>
        <time>2021-11-21T10:56:12Z</time>
      </trkpt>
      <trkpt lat="45.2635" lon="5.75037">
        <ele>839.4</ele>
        <time>2021-11-21T10:56:13Z</time>
      </trkpt>
      <trkpt lat="45.26353" lon="5.75041">
        <ele>840</ele>
        <time>2021-11-21T10:56:14Z</time>
      </trkpt>
      <trkpt lat="45.26357" lon="5.75045">
        <ele>840.8</ele>
        <time>2021-11-21T10:56:15Z</time>
      </trkpt>
      <trkpt lat="45.26361" lon="5.7505">
        <ele>841.2</ele>
        <time>2021-11-21T10:56:16Z</time>
      </trkpt>
      <trkpt lat="45.26367" lon="5.75054">
        <ele>841.6</ele>
        <time>2021-11-21T10:56:17Z</time>
      </trkpt>
      <trkpt lat="45.26372" lon="5.75059">
        <ele>842.2</ele>
        <time>2021-11-21T10:56:18Z</time>
      </trkpt>
      <trkpt lat="45.26376" lon="5.75064">
        <ele>842.4</ele>
        <time>2021-11-21T10:56:19Z</time>
      </trkpt>
      <trkpt lat="45.2638" lon="5.75069">
        <ele>843</ele>
        <time>2021-11-21T10:56:20Z</time>
      </trkpt>
      <trkpt lat="45.26383" lon="5.75076">
        <ele>843.6</ele>
        <time>2021-11-21T10:56:21Z</time>
      </trkpt>
      <trkpt lat="45.26386" lon="5.75082">
        <ele>844.2</ele>
        <time>2021-11-21T10:56:22Z</time>
      </trkpt>
      <trkpt lat="45.26388" lon="5.75089">
        <ele>844.6</ele>
        <time>2021-11-21T10:56:23Z</time>
      </trkpt>
      <trkpt lat="45.26389" lon="5.75096">
        <ele>845.4</ele>
        <time>2021-11-21T10:56:24Z</time>
      </trkpt>
      <trkpt lat="45.26391" lon="5.75103">
        <ele>845.6</ele>
        <time>2021-11-21T10:56:25Z</time>
      </trkpt>
      <trkpt lat="45.26393" lon="5.75109">
        <ele>846.2</ele>
        <time>2021-11-21T10:56:26Z</time>
      </trkpt>
      <trkpt lat="45.26396" lon="5.75115">
        <ele>846.8</ele>
        <time>2021-11-21T10:56:27Z</time>
      </trkpt>
      <trkpt lat="45.26399" lon="5.7512">
        <ele>847.4</ele>
        <time>2021-11-21T10:56:28Z</time>
      </trkpt>
      <trkpt lat="45.26407" lon="5.75129">
        <ele>848.4</ele>
        <time>2021-11-21T10:56:30Z</time>
      </trkpt>
      <trkpt lat="45.26415" lon="5.75136">
        <ele>849.8</ele>
        <time>2021-11-21T10:56:32Z</time>
      </trkpt>
      <trkpt lat="45.26426" lon="5.75146">
        <ele>851</ele>
        <time>2021-11-21T10:56:34Z</time>
      </trkpt>
      <trkpt lat="45.26436" lon="5.75154">
        <ele>852</ele>
        <time>2021-11-21T10:56:36Z</time>
      </trkpt>
      <trkpt lat="45.26448" lon="5.75159">
        <ele>853.4</ele>
        <time>2021-11-21T10:56:38Z</time>
      </trkpt>
      <trkpt lat="45.26459" lon="5.7516">
        <ele>854.6</ele>
        <time>2021-11-21T10:56:40Z</time>
      </trkpt>
      <trkpt lat="45.2647" lon="5.75159">
        <ele>856</ele>
        <time>2021-11-21T10:56:42Z</time>
      </trkpt>
      <trkpt lat="45.2648" lon="5.7516">
        <ele>857.2</ele>
        <time>2021-11-21T10:56:44Z</time>
      </trkpt>
      <trkpt lat="45.26485" lon="5.75162">
        <ele>857.6</ele>
        <time>2021-11-21T10:56:45Z</time>
      </trkpt>
      <trkpt lat="45.26491" lon="5.75164">
        <ele>858.2</ele>
        <time>2021-11-21T10:56:46Z</time>
      </trkpt>
      <trkpt lat="45.26501" lon="5.75169">
        <ele>859.6</ele>
        <time>2021-11-21T10:56:48Z</time>
      </trkpt>
      <trkpt lat="45.26511" lon="5.75174">
        <ele>860.8</ele>
        <time>2021-11-21T10:56:50Z</time>
      </trkpt>
      <trkpt lat="45.26522" lon="5.75179">
        <ele>862.2</ele>
        <time>2021-11-21T10:56:52Z</time>
      </trkpt>
      <trkpt lat="45.26531" lon="5.75185">
        <ele>863.4</ele>
        <time>2021-11-21T10:56:54Z</time>
      </trkpt>
      <trkpt lat="45.26541" lon="5.75195">
        <ele>865.2</ele>
        <time>2021-11-21T10:56:57Z</time>
      </trkpt>
      <trkpt lat="45.26554" lon="5.75202">
        <ele>866.8</ele>
        <time>2021-11-21T10:57:00Z</time>
      </trkpt>
      <trkpt lat="45.26566" lon="5.75208">
        <ele>868.2</ele>
        <time>2021-11-21T10:57:02Z</time>
      </trkpt>
      <trkpt lat="45.26576" lon="5.75215">
        <ele>869.2</ele>
        <time>2021-11-21T10:57:04Z</time>
      </trkpt>
      <trkpt lat="45.26584" lon="5.75223">
        <ele>870.4</ele>
        <time>2021-11-21T10:57:06Z</time>
      </trkpt>
      <trkpt lat="45.26595" lon="5.75231">
        <ele>872.2</ele>
        <time>2021-11-21T10:57:09Z</time>
      </trkpt>
      <trkpt lat="45.26599" lon="5.75234">
        <ele>872.8</ele>
        <time>2021-11-21T10:57:10Z</time>
      </trkpt>
      <trkpt lat="45.26604" lon="5.7524">
        <ele>873.8</ele>
        <time>2021-11-21T10:57:12Z</time>
      </trkpt>
      <trkpt lat="45.26606" lon="5.75241">
        <ele>874.6</ele>
        <time>2021-11-21T10:57:13Z</time>
      </trkpt>
      <trkpt lat="45.2661" lon="5.75246">
        <ele>878.4</ele>
        <time>2021-11-21T10:57:20Z</time>
      </trkpt>
      <trkpt lat="45.26609" lon="5.75248">
        <ele>879.6</ele>
        <time>2021-11-21T10:57:24Z</time>
      </trkpt>
      <trkpt lat="45.2661" lon="5.75251">
        <ele>881</ele>
        <time>2021-11-21T10:57:30Z</time>
      </trkpt>
      <trkpt lat="45.26612" lon="5.75255">
        <ele>881.2</ele>
        <time>2021-11-21T10:57:32Z</time>
      </trkpt>
      <trkpt lat="45.26616" lon="5.75259">
        <ele>881.2</ele>
        <time>2021-11-21T10:57:34Z</time>
      </trkpt>
      <trkpt lat="45.26619" lon="5.75261">
        <ele>881.4</ele>
        <time>2021-11-21T10:57:35Z</time>
      </trkpt>
      <trkpt lat="45.26622" lon="5.75265">
        <ele>881.4</ele>
        <time>2021-11-21T10:57:36Z</time>
      </trkpt>
      <trkpt lat="45.26624" lon="5.75269">
        <ele>881.2</ele>
        <time>2021-11-21T10:57:37Z</time>
      </trkpt>
      <trkpt lat="45.26631" lon="5.75281">
        <ele>881.4</ele>
        <time>2021-11-21T10:57:40Z</time>
      </trkpt>
      <trkpt lat="45.2664" lon="5.75293">
        <ele>881.2</ele>
        <time>2021-11-21T10:57:43Z</time>
      </trkpt>
      <trkpt lat="45.26647" lon="5.75307">
        <ele>882.2</ele>
        <time>2021-11-21T10:57:46Z</time>
      </trkpt>
      <trkpt lat="45.26654" lon="5.75322">
        <ele>883.2</ele>
        <time>2021-11-21T10:57:49Z</time>
      </trkpt>
      <trkpt lat="45.26662" lon="5.75332">
        <ele>884.2</ele>
        <time>2021-11-21T10:57:51Z</time>
      </trkpt>
      <trkpt lat="45.26664" lon="5.75337">
        <ele>884.4</ele>
        <time>2021-11-21T10:57:52Z</time>
      </trkpt>
      <trkpt lat="45.26667" lon="5.75341">
        <ele>885.2</ele>
        <time>2021-11-21T10:57:53Z</time>
      </trkpt>
      <trkpt lat="45.26671" lon="5.75345">
        <ele>885.6</ele>
        <time>2021-11-21T10:57:54Z</time>
      </trkpt>
      <trkpt lat="45.26675" lon="5.75348">
        <ele>886</ele>
        <time>2021-11-21T10:57:55Z</time>
      </trkpt>
      <trkpt lat="45.26679" lon="5.75351">
        <ele>886.6</ele>
        <time>2021-11-21T10:57:56Z</time>
      </trkpt>
      <trkpt lat="45.26684" lon="5.75355">
        <ele>887.2</ele>
        <time>2021-11-21T10:57:57Z</time>
      </trkpt>
      <trkpt lat="45.26689" lon="5.75358">
        <ele>887.4</ele>
        <time>2021-11-21T10:57:58Z</time>
      </trkpt>
      <trkpt lat="45.26693" lon="5.75362">
        <ele>887.8</ele>
        <time>2021-11-21T10:57:59Z</time>
      </trkpt>
      <trkpt lat="45.26697" lon="5.75366">
        <ele>888.4</ele>
        <time>2021-11-21T10:58:00Z</time>
      </trkpt>
      <trkpt lat="45.26701" lon="5.75369">
        <ele>889</ele>
        <time>2021-11-21T10:58:01Z</time>
      </trkpt>
      <trkpt lat="45.26705" lon="5.75373">
        <ele>889.4</ele>
        <time>2021-11-21T10:58:02Z</time>
      </trkpt>
      <trkpt lat="45.26709" lon="5.75377">
        <ele>890</ele>
        <time>2021-11-21T10:58:03Z</time>
      </trkpt>
      <trkpt lat="45.26713" lon="5.75381">
        <ele>890.2</ele>
        <time>2021-11-21T10:58:04Z</time>
      </trkpt>
      <trkpt lat="45.26717" lon="5.75385">
        <ele>890.6</ele>
        <time>2021-11-21T10:58:05Z</time>
      </trkpt>
      <trkpt lat="45.26721" lon="5.75389">
        <ele>891</ele>
        <time>2021-11-21T10:58:06Z</time>
      </trkpt>
      <trkpt lat="45.26724" lon="5.75393">
        <ele>891.4</ele>
        <time>2021-11-21T10:58:07Z</time>
      </trkpt>
      <trkpt lat="45.26728" lon="5.75397">
        <ele>892</ele>
        <time>2021-11-21T10:58:08Z</time>
      </trkpt>
      <trkpt lat="45.26732" lon="5.75401">
        <ele>892.8</ele>
        <time>2021-11-21T10:58:09Z</time>
      </trkpt>
      <trkpt lat="45.26736" lon="5.75405">
        <ele>893</ele>
        <time>2021-11-21T10:58:10Z</time>
      </trkpt>
      <trkpt lat="45.26739" lon="5.75408">
        <ele>893.6</ele>
        <time>2021-11-21T10:58:11Z</time>
      </trkpt>
      <trkpt lat="45.26743" lon="5.75411">
        <ele>894.2</ele>
        <time>2021-11-21T10:58:12Z</time>
      </trkpt>
      <trkpt lat="45.26748" lon="5.75414">
        <ele>894.6</ele>
        <time>2021-11-21T10:58:13Z</time>
      </trkpt>
      <trkpt lat="45.26752" lon="5.75417">
        <ele>895.2</ele>
        <time>2021-11-21T10:58:14Z</time>
      </trkpt>
      <trkpt lat="45.26756" lon="5.7542">
        <ele>895.6</ele>
        <time>2021-11-21T10:58:15Z</time>
      </trkpt>
      <trkpt lat="45.2676" lon="5.75422">
        <ele>896</ele>
        <time>2021-11-21T10:58:16Z</time>
      </trkpt>
      <trkpt lat="45.26764" lon="5.75423">
        <ele>896.8</ele>
        <time>2021-11-21T10:58:17Z</time>
      </trkpt>
      <trkpt lat="45.26768" lon="5.75423">
        <ele>897.4</ele>
        <time>2021-11-21T10:58:18Z</time>
      </trkpt>
      <trkpt lat="45.26773" lon="5.75422">
        <ele>897.8</ele>
        <time>2021-11-21T10:58:19Z</time>
      </trkpt>
      <trkpt lat="45.26777" lon="5.75422">
        <ele>898.2</ele>
        <time>2021-11-21T10:58:20Z</time>
      </trkpt>
      <trkpt lat="45.26782" lon="5.75422">
        <ele>898.6</ele>
        <time>2021-11-21T10:58:21Z</time>
      </trkpt>
      <trkpt lat="45.26787" lon="5.75421">
        <ele>899.4</ele>
        <time>2021-11-21T10:58:22Z</time>
      </trkpt>
      <trkpt lat="45.26791" lon="5.7542">
        <ele>900</ele>
        <time>2021-11-21T10:58:23Z</time>
      </trkpt>
      <trkpt lat="45.26795" lon="5.7542">
        <ele>900.2</ele>
        <time>2021-11-21T10:58:24Z</time>
      </trkpt>
      <trkpt lat="45.26799" lon="5.75422">
        <ele>901</ele>
        <time>2021-11-21T10:58:25Z</time>
      </trkpt>
      <trkpt lat="45.26803" lon="5.75425">
        <ele>901.4</ele>
        <time>2021-11-21T10:58:26Z</time>
      </trkpt>
      <trkpt lat="45.26811" lon="5.75429">
        <ele>902.4</ele>
        <time>2021-11-21T10:58:28Z</time>
      </trkpt>
      <trkpt lat="45.26819" lon="5.75433">
        <ele>903.4</ele>
        <time>2021-11-21T10:58:30Z</time>
      </trkpt>
      <trkpt lat="45.26823" lon="5.75436">
        <ele>904.2</ele>
        <time>2021-11-21T10:58:31Z</time>
      </trkpt>
      <trkpt lat="45.26828" lon="5.75438">
        <ele>904.8</ele>
        <time>2021-11-21T10:58:32Z</time>
      </trkpt>
      <trkpt lat="45.26833" lon="5.7544">
        <ele>905.2</ele>
        <time>2021-11-21T10:58:33Z</time>
      </trkpt>
      <trkpt lat="45.26838" lon="5.75441">
        <ele>905.4</ele>
        <time>2021-11-21T10:58:34Z</time>
      </trkpt>
      <trkpt lat="45.26843" lon="5.75442">
        <ele>906</ele>
        <time>2021-11-21T10:58:35Z</time>
      </trkpt>
      <trkpt lat="45.26847" lon="5.75443">
        <ele>906.6</ele>
        <time>2021-11-21T10:58:36Z</time>
      </trkpt>
      <trkpt lat="45.26852" lon="5.75444">
        <ele>907.2</ele>
        <time>2021-11-21T10:58:37Z</time>
      </trkpt>
      <trkpt lat="45.26857" lon="5.75445">
        <ele>907.6</ele>
        <time>2021-11-21T10:58:38Z</time>
      </trkpt>
      <trkpt lat="45.26862" lon="5.75446">
        <ele>908.4</ele>
        <time>2021-11-21T10:58:39Z</time>
      </trkpt>
      <trkpt lat="45.26867" lon="5.75446">
        <ele>909</ele>
        <time>2021-11-21T10:58:40Z</time>
      </trkpt>
      <trkpt lat="45.26872" lon="5.75446">
        <ele>909.4</ele>
        <time>2021-11-21T10:58:41Z</time>
      </trkpt>
      <trkpt lat="45.26877" lon="5.75446">
        <ele>910</ele>
        <time>2021-11-21T10:58:42Z</time>
      </trkpt>
      <trkpt lat="45.26882" lon="5.75446">
        <ele>910.8</ele>
        <time>2021-11-21T10:58:43Z</time>
      </trkpt>
      <trkpt lat="45.26887" lon="5.75447">
        <ele>911.4</ele>
        <time>2021-11-21T10:58:44Z</time>
      </trkpt>
      <trkpt lat="45.26891" lon="5.75447">
        <ele>911.8</ele>
        <time>2021-11-21T10:58:45Z</time>
      </trkpt>
      <trkpt lat="45.26896" lon="5.75447">
        <ele>912.2</ele>
        <time>2021-11-21T10:58:46Z</time>
      </trkpt>
      <trkpt lat="45.26902" lon="5.75445">
        <ele>912.8</ele>
        <time>2021-11-21T10:58:47Z</time>
      </trkpt>
      <trkpt lat="45.26906" lon="5.75442">
        <ele>913.2</ele>
        <time>2021-11-21T10:58:48Z</time>
      </trkpt>
      <trkpt lat="45.26911" lon="5.75437">
        <ele>913.8</ele>
        <time>2021-11-21T10:58:49Z</time>
      </trkpt>
      <trkpt lat="45.26914" lon="5.7543">
        <ele>914.2</ele>
        <time>2021-11-21T10:58:50Z</time>
      </trkpt>
      <trkpt lat="45.26916" lon="5.75423">
        <ele>914.8</ele>
        <time>2021-11-21T10:58:51Z</time>
      </trkpt>
      <trkpt lat="45.26916" lon="5.75416">
        <ele>915.2</ele>
        <time>2021-11-21T10:58:52Z</time>
      </trkpt>
      <trkpt lat="45.26916" lon="5.75408">
        <ele>916</ele>
        <time>2021-11-21T10:58:53Z</time>
      </trkpt>
      <trkpt lat="45.26913" lon="5.75389">
        <ele>916.8</ele>
        <time>2021-11-21T10:58:55Z</time>
      </trkpt>
      <trkpt lat="45.26908" lon="5.75372">
        <ele>917.8</ele>
        <time>2021-11-21T10:58:57Z</time>
      </trkpt>
      <trkpt lat="45.26904" lon="5.75357">
        <ele>918.4</ele>
        <time>2021-11-21T10:58:59Z</time>
      </trkpt>
      <trkpt lat="45.269" lon="5.75344">
        <ele>919.2</ele>
        <time>2021-11-21T10:59:01Z</time>
      </trkpt>
      <trkpt lat="45.26899" lon="5.75329">
        <ele>921.2</ele>
        <time>2021-11-21T10:59:04Z</time>
      </trkpt>
      <trkpt lat="45.26899" lon="5.75325">
        <ele>921.6</ele>
        <time>2021-11-21T10:59:05Z</time>
      </trkpt>
      <trkpt lat="45.26899" lon="5.75322">
        <ele>922.2</ele>
        <time>2021-11-21T10:59:06Z</time>
      </trkpt>
      <trkpt lat="45.269" lon="5.7532">
        <ele>923.6</ele>
        <time>2021-11-21T10:59:09Z</time>
      </trkpt>
      <trkpt lat="45.26901" lon="5.75317">
        <ele>925.6</ele>
        <time>2021-11-21T10:59:12Z</time>
      </trkpt>
      <trkpt lat="45.269" lon="5.75315">
        <ele>927</ele>
        <time>2021-11-21T10:59:16Z</time>
      </trkpt>
      <trkpt lat="45.269" lon="5.75312">
        <ele>928</ele>
        <time>2021-11-21T10:59:21Z</time>
      </trkpt>
      <trkpt lat="45.26898" lon="5.75308">
        <ele>928.2</ele>
        <time>2021-11-21T10:59:23Z</time>
      </trkpt>
      <trkpt lat="45.26898" lon="5.75305">
        <ele>928.4</ele>
        <time>2021-11-21T10:59:24Z</time>
      </trkpt>
      <trkpt lat="45.26898" lon="5.75301">
        <ele>928.6</ele>
        <time>2021-11-21T10:59:25Z</time>
      </trkpt>
      <trkpt lat="45.269" lon="5.75297">
        <ele>928.6</ele>
        <time>2021-11-21T10:59:26Z</time>
      </trkpt>
      <trkpt lat="45.26902" lon="5.75293">
        <ele>928.6</ele>
        <time>2021-11-21T10:59:27Z</time>
      </trkpt>
      <trkpt lat="45.26905" lon="5.75289">
        <ele>928.6</ele>
        <time>2021-11-21T10:59:28Z</time>
      </trkpt>
      <trkpt lat="45.26908" lon="5.75285">
        <ele>928.6</ele>
        <time>2021-11-21T10:59:29Z</time>
      </trkpt>
      <trkpt lat="45.26912" lon="5.7528">
        <ele>928.4</ele>
        <time>2021-11-21T10:59:30Z</time>
      </trkpt>
      <trkpt lat="45.26917" lon="5.75276">
        <ele>928.6</ele>
        <time>2021-11-21T10:59:31Z</time>
      </trkpt>
      <trkpt lat="45.26921" lon="5.75273">
        <ele>928.8</ele>
        <time>2021-11-21T10:59:32Z</time>
      </trkpt>
      <trkpt lat="45.26927" lon="5.7527">
        <ele>928.8</ele>
        <time>2021-11-21T10:59:33Z</time>
      </trkpt>
      <trkpt lat="45.26932" lon="5.75268">
        <ele>929</ele>
        <time>2021-11-21T10:59:34Z</time>
      </trkpt>
      <trkpt lat="45.26938" lon="5.75268">
        <ele>929.2</ele>
        <time>2021-11-21T10:59:35Z</time>
      </trkpt>
      <trkpt lat="45.26944" lon="5.75268">
        <ele>929.2</ele>
        <time>2021-11-21T10:59:36Z</time>
      </trkpt>
      <trkpt lat="45.2695" lon="5.7527">
        <ele>929.6</ele>
        <time>2021-11-21T10:59:37Z</time>
      </trkpt>
      <trkpt lat="45.26955" lon="5.75273">
        <ele>930</ele>
        <time>2021-11-21T10:59:38Z</time>
      </trkpt>
      <trkpt lat="45.2696" lon="5.75277">
        <ele>930.4</ele>
        <time>2021-11-21T10:59:39Z</time>
      </trkpt>
      <trkpt lat="45.26965" lon="5.75281">
        <ele>930.6</ele>
        <time>2021-11-21T10:59:40Z</time>
      </trkpt>
      <trkpt lat="45.2697" lon="5.75285">
        <ele>930.6</ele>
        <time>2021-11-21T10:59:41Z</time>
      </trkpt>
      <trkpt lat="45.26974" lon="5.75289">
        <ele>931.2</ele>
        <time>2021-11-21T10:59:42Z</time>
      </trkpt>
      <trkpt lat="45.26977" lon="5.75295">
        <ele>931.4</ele>
        <time>2021-11-21T10:59:43Z</time>
      </trkpt>
      <trkpt lat="45.26981" lon="5.753">
        <ele>931.8</ele>
        <time>2021-11-21T10:59:44Z</time>
      </trkpt>
      <trkpt lat="45.26984" lon="5.75306">
        <ele>932</ele>
        <time>2021-11-21T10:59:45Z</time>
      </trkpt>
      <trkpt lat="45.26987" lon="5.75312">
        <ele>932.6</ele>
        <time>2021-11-21T10:59:46Z</time>
      </trkpt>
      <trkpt lat="45.26993" lon="5.75324">
        <ele>933.8</ele>
        <time>2021-11-21T10:59:48Z</time>
      </trkpt>
      <trkpt lat="45.27" lon="5.75337">
        <ele>934.4</ele>
        <time>2021-11-21T10:59:50Z</time>
      </trkpt>
      <trkpt lat="45.27004" lon="5.75342">
        <ele>935.2</ele>
        <time>2021-11-21T10:59:51Z</time>
      </trkpt>
      <trkpt lat="45.27008" lon="5.75348">
        <ele>936</ele>
        <time>2021-11-21T10:59:52Z</time>
      </trkpt>
      <trkpt lat="45.27011" lon="5.75354">
        <ele>936.6</ele>
        <time>2021-11-21T10:59:53Z</time>
      </trkpt>
      <trkpt lat="45.27015" lon="5.7536">
        <ele>937</ele>
        <time>2021-11-21T10:59:54Z</time>
      </trkpt>
      <trkpt lat="45.27021" lon="5.75372">
        <ele>938.4</ele>
        <time>2021-11-21T10:59:56Z</time>
      </trkpt>
      <trkpt lat="45.27025" lon="5.75378">
        <ele>939.2</ele>
        <time>2021-11-21T10:59:57Z</time>
      </trkpt>
      <trkpt lat="45.27032" lon="5.75389">
        <ele>940</ele>
        <time>2021-11-21T10:59:59Z</time>
      </trkpt>
      <trkpt lat="45.27037" lon="5.75401">
        <ele>941.4</ele>
        <time>2021-11-21T11:00:01Z</time>
      </trkpt>
      <trkpt lat="45.27043" lon="5.75414">
        <ele>942.6</ele>
        <time>2021-11-21T11:00:03Z</time>
      </trkpt>
      <trkpt lat="45.27048" lon="5.75425">
        <ele>943.6</ele>
        <time>2021-11-21T11:00:05Z</time>
      </trkpt>
      <trkpt lat="45.27054" lon="5.75435">
        <ele>945</ele>
        <time>2021-11-21T11:00:07Z</time>
      </trkpt>
      <trkpt lat="45.2706" lon="5.75447">
        <ele>946.2</ele>
        <time>2021-11-21T11:00:09Z</time>
      </trkpt>
      <trkpt lat="45.27066" lon="5.75458">
        <ele>947.4</ele>
        <time>2021-11-21T11:00:11Z</time>
      </trkpt>
      <trkpt lat="45.27074" lon="5.75471">
        <ele>949.4</ele>
        <time>2021-11-21T11:00:14Z</time>
      </trkpt>
      <trkpt lat="45.27083" lon="5.75477">
        <ele>950.6</ele>
        <time>2021-11-21T11:00:16Z</time>
      </trkpt>
      <trkpt lat="45.271" lon="5.75486">
        <ele>952</ele>
        <time>2021-11-21T11:00:18Z</time>
      </trkpt>
      <trkpt lat="45.27114" lon="5.75491">
        <ele>953.2</ele>
        <time>2021-11-21T11:00:20Z</time>
      </trkpt>
      <trkpt lat="45.27128" lon="5.75498">
        <ele>954.2</ele>
        <time>2021-11-21T11:00:22Z</time>
      </trkpt>
      <trkpt lat="45.2714" lon="5.75501">
        <ele>955.4</ele>
        <time>2021-11-21T11:00:24Z</time>
      </trkpt>
      <trkpt lat="45.27152" lon="5.75504">
        <ele>956.8</ele>
        <time>2021-11-21T11:00:26Z</time>
      </trkpt>
      <trkpt lat="45.27162" lon="5.75508">
        <ele>957.8</ele>
        <time>2021-11-21T11:00:28Z</time>
      </trkpt>
      <trkpt lat="45.27172" lon="5.75511">
        <ele>959.2</ele>
        <time>2021-11-21T11:00:30Z</time>
      </trkpt>
      <trkpt lat="45.27183" lon="5.75514">
        <ele>960.4</ele>
        <time>2021-11-21T11:00:32Z</time>
      </trkpt>
      <trkpt lat="45.27194" lon="5.75516">
        <ele>961.6</ele>
        <time>2021-11-21T11:00:34Z</time>
      </trkpt>
      <trkpt lat="45.27205" lon="5.75516">
        <ele>962.8</ele>
        <time>2021-11-21T11:00:36Z</time>
      </trkpt>
      <trkpt lat="45.27216" lon="5.75517">
        <ele>964</ele>
        <time>2021-11-21T11:00:38Z</time>
      </trkpt>
      <trkpt lat="45.27226" lon="5.75517">
        <ele>965.2</ele>
        <time>2021-11-21T11:00:40Z</time>
      </trkpt>
      <trkpt lat="45.27236" lon="5.75519">
        <ele>966.4</ele>
        <time>2021-11-21T11:00:42Z</time>
      </trkpt>
      <trkpt lat="45.27248" lon="5.75521">
        <ele>967.4</ele>
        <time>2021-11-21T11:00:44Z</time>
      </trkpt>
      <trkpt lat="45.27258" lon="5.75525">
        <ele>969</ele>
        <time>2021-11-21T11:00:46Z</time>
      </trkpt>
      <trkpt lat="45.2727" lon="5.7553">
        <ele>970.2</ele>
        <time>2021-11-21T11:00:48Z</time>
      </trkpt>
      <trkpt lat="45.2728" lon="5.75538">
        <ele>971.4</ele>
        <time>2021-11-21T11:00:50Z</time>
      </trkpt>
      <trkpt lat="45.27289" lon="5.75547">
        <ele>972.6</ele>
        <time>2021-11-21T11:00:52Z</time>
      </trkpt>
      <trkpt lat="45.27297" lon="5.75556">
        <ele>974</ele>
        <time>2021-11-21T11:00:54Z</time>
      </trkpt>
      <trkpt lat="45.27305" lon="5.75563">
        <ele>975.2</ele>
        <time>2021-11-21T11:00:56Z</time>
      </trkpt>
      <trkpt lat="45.27315" lon="5.75569">
        <ele>976</ele>
        <time>2021-11-21T11:00:58Z</time>
      </trkpt>
      <trkpt lat="45.27328" lon="5.75577">
        <ele>977.2</ele>
        <time>2021-11-21T11:01:00Z</time>
      </trkpt>
      <trkpt lat="45.27339" lon="5.75583">
        <ele>978.8</ele>
        <time>2021-11-21T11:01:02Z</time>
      </trkpt>
      <trkpt lat="45.2735" lon="5.7559">
        <ele>980.2</ele>
        <time>2021-11-21T11:01:04Z</time>
      </trkpt>
      <trkpt lat="45.27358" lon="5.75598">
        <ele>981.4</ele>
        <time>2021-11-21T11:01:06Z</time>
      </trkpt>
      <trkpt lat="45.27365" lon="5.75608">
        <ele>982.4</ele>
        <time>2021-11-21T11:01:08Z</time>
      </trkpt>
      <trkpt lat="45.27373" lon="5.75618">
        <ele>983.8</ele>
        <time>2021-11-21T11:01:10Z</time>
      </trkpt>
      <trkpt lat="45.2738" lon="5.75629">
        <ele>985</ele>
        <time>2021-11-21T11:01:12Z</time>
      </trkpt>
      <trkpt lat="45.27385" lon="5.75641">
        <ele>986.2</ele>
        <time>2021-11-21T11:01:14Z</time>
      </trkpt>
      <trkpt lat="45.27389" lon="5.75656">
        <ele>987.6</ele>
        <time>2021-11-21T11:01:16Z</time>
      </trkpt>
      <trkpt lat="45.27394" lon="5.75672">
        <ele>989</ele>
        <time>2021-11-21T11:01:18Z</time>
      </trkpt>
      <trkpt lat="45.27401" lon="5.75685">
        <ele>990.2</ele>
        <time>2021-11-21T11:01:20Z</time>
      </trkpt>
      <trkpt lat="45.2741" lon="5.75696">
        <ele>991.4</ele>
        <time>2021-11-21T11:01:22Z</time>
      </trkpt>
      <trkpt lat="45.27419" lon="5.75704">
        <ele>992</ele>
        <time>2021-11-21T11:01:24Z</time>
      </trkpt>
      <trkpt lat="45.27429" lon="5.75712">
        <ele>992.8</ele>
        <time>2021-11-21T11:01:26Z</time>
      </trkpt>
      <trkpt lat="45.27437" lon="5.75719">
        <ele>993.6</ele>
        <time>2021-11-21T11:01:28Z</time>
      </trkpt>
      <trkpt lat="45.27448" lon="5.75726">
        <ele>994.4</ele>
        <time>2021-11-21T11:01:30Z</time>
      </trkpt>
      <trkpt lat="45.27458" lon="5.75733">
        <ele>994.8</ele>
        <time>2021-11-21T11:01:32Z</time>
      </trkpt>
      <trkpt lat="45.27467" lon="5.75741">
        <ele>995.8</ele>
        <time>2021-11-21T11:01:34Z</time>
      </trkpt>
      <trkpt lat="45.27476" lon="5.75749">
        <ele>996.8</ele>
        <time>2021-11-21T11:01:36Z</time>
      </trkpt>
      <trkpt lat="45.27489" lon="5.75753">
        <ele>998</ele>
        <time>2021-11-21T11:01:38Z</time>
      </trkpt>
      <trkpt lat="45.27504" lon="5.75752">
        <ele>999</ele>
        <time>2021-11-21T11:01:40Z</time>
      </trkpt>
      <trkpt lat="45.27515" lon="5.75747">
        <ele>1000</ele>
        <time>2021-11-21T11:01:42Z</time>
      </trkpt>
      <trkpt lat="45.27523" lon="5.75739">
        <ele>1000.8</ele>
        <time>2021-11-21T11:01:44Z</time>
      </trkpt>
      <trkpt lat="45.27533" lon="5.75733">
        <ele>1002</ele>
        <time>2021-11-21T11:01:46Z</time>
      </trkpt>
      <trkpt lat="45.27541" lon="5.75729">
        <ele>1003.4</ele>
        <time>2021-11-21T11:01:48Z</time>
      </trkpt>
      <trkpt lat="45.27551" lon="5.75728">
        <ele>1004.2</ele>
        <time>2021-11-21T11:01:50Z</time>
      </trkpt>
      <trkpt lat="45.27562" lon="5.75729">
        <ele>1005</ele>
        <time>2021-11-21T11:01:52Z</time>
      </trkpt>
      <trkpt lat="45.27573" lon="5.75734">
        <ele>1005.8</ele>
        <time>2021-11-21T11:01:54Z</time>
      </trkpt>
      <trkpt lat="45.27584" lon="5.75739">
        <ele>1007</ele>
        <time>2021-11-21T11:01:56Z</time>
      </trkpt>
      <trkpt lat="45.27595" lon="5.75744">
        <ele>1008.4</ele>
        <time>2021-11-21T11:01:58Z</time>
      </trkpt>
      <trkpt lat="45.27604" lon="5.75752">
        <ele>1009.8</ele>
        <time>2021-11-21T11:02:00Z</time>
      </trkpt>
      <trkpt lat="45.27609" lon="5.75757">
        <ele>1010.4</ele>
        <time>2021-11-21T11:02:01Z</time>
      </trkpt>
      <trkpt lat="45.27614" lon="5.75762">
        <ele>1011</ele>
        <time>2021-11-21T11:02:02Z</time>
      </trkpt>
      <trkpt lat="45.27625" lon="5.7577">
        <ele>1011.8</ele>
        <time>2021-11-21T11:02:04Z</time>
      </trkpt>
      <trkpt lat="45.27636" lon="5.75775">
        <ele>1012.8</ele>
        <time>2021-11-21T11:02:06Z</time>
      </trkpt>
      <trkpt lat="45.27648" lon="5.75778">
        <ele>1014</ele>
        <time>2021-11-21T11:02:08Z</time>
      </trkpt>
      <trkpt lat="45.2766" lon="5.7578">
        <ele>1015</ele>
        <time>2021-11-21T11:02:10Z</time>
      </trkpt>
      <trkpt lat="45.27671" lon="5.75784">
        <ele>1015.8</ele>
        <time>2021-11-21T11:02:12Z</time>
      </trkpt>
      <trkpt lat="45.2768" lon="5.75793">
        <ele>1016.8</ele>
        <time>2021-11-21T11:02:14Z</time>
      </trkpt>
      <trkpt lat="45.27687" lon="5.75805">
        <ele>1017.4</ele>
        <time>2021-11-21T11:02:16Z</time>
      </trkpt>
      <trkpt lat="45.27691" lon="5.75821">
        <ele>1018.4</ele>
        <time>2021-11-21T11:02:18Z</time>
      </trkpt>
      <trkpt lat="45.27691" lon="5.75838">
        <ele>1019.4</ele>
        <time>2021-11-21T11:02:20Z</time>
      </trkpt>
      <trkpt lat="45.27685" lon="5.75853">
        <ele>1020.4</ele>
        <time>2021-11-21T11:02:22Z</time>
      </trkpt>
      <trkpt lat="45.27676" lon="5.75866">
        <ele>1021.4</ele>
        <time>2021-11-21T11:02:24Z</time>
      </trkpt>
      <trkpt lat="45.27663" lon="5.75871">
        <ele>1022</ele>
        <time>2021-11-21T11:02:26Z</time>
      </trkpt>
      <trkpt lat="45.27651" lon="5.75871">
        <ele>1022.8</ele>
        <time>2021-11-21T11:02:28Z</time>
      </trkpt>
      <trkpt lat="45.2764" lon="5.75866">
        <ele>1024.2</ele>
        <time>2021-11-21T11:02:30Z</time>
      </trkpt>
      <trkpt lat="45.27628" lon="5.75861">
        <ele>1025</ele>
        <time>2021-11-21T11:02:32Z</time>
      </trkpt>
      <trkpt lat="45.27615" lon="5.75856">
        <ele>1025.6</ele>
        <time>2021-11-21T11:02:34Z</time>
      </trkpt>
      <trkpt lat="45.27602" lon="5.75853">
        <ele>1026.4</ele>
        <time>2021-11-21T11:02:36Z</time>
      </trkpt>
      <trkpt lat="45.27589" lon="5.75852">
        <ele>1027.2</ele>
        <time>2021-11-21T11:02:38Z</time>
      </trkpt>
      <trkpt lat="45.27578" lon="5.7585">
        <ele>1028.2</ele>
        <time>2021-11-21T11:02:40Z</time>
      </trkpt>
      <trkpt lat="45.27566" lon="5.75851">
        <ele>1029</ele>
        <time>2021-11-21T11:02:42Z</time>
      </trkpt>
      <trkpt lat="45.27554" lon="5.75853">
        <ele>1029.8</ele>
        <time>2021-11-21T11:02:44Z</time>
      </trkpt>
      <trkpt lat="45.27543" lon="5.7586">
        <ele>1030.8</ele>
        <time>2021-11-21T11:02:46Z</time>
      </trkpt>
      <trkpt lat="45.27531" lon="5.75867">
        <ele>1031.6</ele>
        <time>2021-11-21T11:02:48Z</time>
      </trkpt>
      <trkpt lat="45.27518" lon="5.75873">
        <ele>1032.6</ele>
        <time>2021-11-21T11:02:50Z</time>
      </trkpt>
      <trkpt lat="45.27504" lon="5.75873">
        <ele>1033.6</ele>
        <time>2021-11-21T11:02:52Z</time>
      </trkpt>
      <trkpt lat="45.27491" lon="5.75869">
        <ele>1034.6</ele>
        <time>2021-11-21T11:02:54Z</time>
      </trkpt>
      <trkpt lat="45.27479" lon="5.75862">
        <ele>1035.8</ele>
        <time>2021-11-21T11:02:56Z</time>
      </trkpt>
      <trkpt lat="45.27466" lon="5.75856">
        <ele>1036.8</ele>
        <time>2021-11-21T11:02:58Z</time>
      </trkpt>
      <trkpt lat="45.27454" lon="5.75847">
        <ele>1037.6</ele>
        <time>2021-11-21T11:03:00Z</time>
      </trkpt>
      <trkpt lat="45.27442" lon="5.75842">
        <ele>1038.4</ele>
        <time>2021-11-21T11:03:02Z</time>
      </trkpt>
      <trkpt lat="45.27427" lon="5.75836">
        <ele>1039.8</ele>
        <time>2021-11-21T11:03:04Z</time>
      </trkpt>
      <trkpt lat="45.27413" lon="5.75832">
        <ele>1040.4</ele>
        <time>2021-11-21T11:03:06Z</time>
      </trkpt>
      <trkpt lat="45.27405" lon="5.7583">
        <ele>1041</ele>
        <time>2021-11-21T11:03:07Z</time>
      </trkpt>
      <trkpt lat="45.27398" lon="5.75829">
        <ele>1041.6</ele>
        <time>2021-11-21T11:03:08Z</time>
      </trkpt>
      <trkpt lat="45.27385" lon="5.75828">
        <ele>1042.4</ele>
        <time>2021-11-21T11:03:10Z</time>
      </trkpt>
      <trkpt lat="45.27379" lon="5.75828">
        <ele>1042.6</ele>
        <time>2021-11-21T11:03:11Z</time>
      </trkpt>
      <trkpt lat="45.27372" lon="5.75828">
        <ele>1043</ele>
        <time>2021-11-21T11:03:12Z</time>
      </trkpt>
      <trkpt lat="45.27365" lon="5.75829">
        <ele>1043.2</ele>
        <time>2021-11-21T11:03:13Z</time>
      </trkpt>
      <trkpt lat="45.27359" lon="5.75831">
        <ele>1043.6</ele>
        <time>2021-11-21T11:03:14Z</time>
      </trkpt>
      <trkpt lat="45.27354" lon="5.75836">
        <ele>1044</ele>
        <time>2021-11-21T11:03:15Z</time>
      </trkpt>
      <trkpt lat="45.27349" lon="5.75842">
        <ele>1044.2</ele>
        <time>2021-11-21T11:03:16Z</time>
      </trkpt>
      <trkpt lat="45.27345" lon="5.75851">
        <ele>1044.8</ele>
        <time>2021-11-21T11:03:17Z</time>
      </trkpt>
      <trkpt lat="45.27342" lon="5.7586">
        <ele>1045.4</ele>
        <time>2021-11-21T11:03:18Z</time>
      </trkpt>
      <trkpt lat="45.27342" lon="5.75878">
        <ele>1046.4</ele>
        <time>2021-11-21T11:03:20Z</time>
      </trkpt>
      <trkpt lat="45.27344" lon="5.75886">
        <ele>1046.2</ele>
        <time>2021-11-21T11:03:21Z</time>
      </trkpt>
      <trkpt lat="45.27347" lon="5.75893">
        <ele>1047</ele>
        <time>2021-11-21T11:03:22Z</time>
      </trkpt>
      <trkpt lat="45.27351" lon="5.75899">
        <ele>1047.4</ele>
        <time>2021-11-21T11:03:23Z</time>
      </trkpt>
      <trkpt lat="45.27356" lon="5.75905">
        <ele>1047.8</ele>
        <time>2021-11-21T11:03:24Z</time>
      </trkpt>
      <trkpt lat="45.27361" lon="5.75911">
        <ele>1048.4</ele>
        <time>2021-11-21T11:03:25Z</time>
      </trkpt>
      <trkpt lat="45.27365" lon="5.75916">
        <ele>1048.8</ele>
        <time>2021-11-21T11:03:26Z</time>
      </trkpt>
      <trkpt lat="45.2737" lon="5.75923">
        <ele>1049.4</ele>
        <time>2021-11-21T11:03:27Z</time>
      </trkpt>
      <trkpt lat="45.27374" lon="5.75929">
        <ele>1049.8</ele>
        <time>2021-11-21T11:03:28Z</time>
      </trkpt>
      <trkpt lat="45.27377" lon="5.75935">
        <ele>1050.2</ele>
        <time>2021-11-21T11:03:29Z</time>
      </trkpt>
      <trkpt lat="45.27382" lon="5.75942">
        <ele>1050.6</ele>
        <time>2021-11-21T11:03:30Z</time>
      </trkpt>
      <trkpt lat="45.27386" lon="5.75948">
        <ele>1050.8</ele>
        <time>2021-11-21T11:03:31Z</time>
      </trkpt>
      <trkpt lat="45.2739" lon="5.75954">
        <ele>1051.2</ele>
        <time>2021-11-21T11:03:32Z</time>
      </trkpt>
      <trkpt lat="45.27394" lon="5.75961">
        <ele>1051.4</ele>
        <time>2021-11-21T11:03:33Z</time>
      </trkpt>
      <trkpt lat="45.27398" lon="5.75967">
        <ele>1051.6</ele>
        <time>2021-11-21T11:03:34Z</time>
      </trkpt>
      <trkpt lat="45.27402" lon="5.75973">
        <ele>1052</ele>
        <time>2021-11-21T11:03:35Z</time>
      </trkpt>
      <trkpt lat="45.27406" lon="5.7598">
        <ele>1052.6</ele>
        <time>2021-11-21T11:03:36Z</time>
      </trkpt>
      <trkpt lat="45.2741" lon="5.75987">
        <ele>1053.2</ele>
        <time>2021-11-21T11:03:37Z</time>
      </trkpt>
      <trkpt lat="45.27415" lon="5.75993">
        <ele>1053.6</ele>
        <time>2021-11-21T11:03:38Z</time>
      </trkpt>
      <trkpt lat="45.2742" lon="5.75999">
        <ele>1054</ele>
        <time>2021-11-21T11:03:39Z</time>
      </trkpt>
      <trkpt lat="45.27425" lon="5.76005">
        <ele>1054.4</ele>
        <time>2021-11-21T11:03:40Z</time>
      </trkpt>
      <trkpt lat="45.2743" lon="5.76011">
        <ele>1055.4</ele>
        <time>2021-11-21T11:03:41Z</time>
      </trkpt>
      <trkpt lat="45.27435" lon="5.76016">
        <ele>1056</ele>
        <time>2021-11-21T11:03:42Z</time>
      </trkpt>
      <trkpt lat="45.27441" lon="5.76021">
        <ele>1056.6</ele>
        <time>2021-11-21T11:03:43Z</time>
      </trkpt>
      <trkpt lat="45.27446" lon="5.76027">
        <ele>1057</ele>
        <time>2021-11-21T11:03:44Z</time>
      </trkpt>
      <trkpt lat="45.27452" lon="5.76031">
        <ele>1057.6</ele>
        <time>2021-11-21T11:03:45Z</time>
      </trkpt>
      <trkpt lat="45.27457" lon="5.76036">
        <ele>1058</ele>
        <time>2021-11-21T11:03:46Z</time>
      </trkpt>
      <trkpt lat="45.27463" lon="5.7604">
        <ele>1058.2</ele>
        <time>2021-11-21T11:03:47Z</time>
      </trkpt>
      <trkpt lat="45.27469" lon="5.76044">
        <ele>1058.8</ele>
        <time>2021-11-21T11:03:48Z</time>
      </trkpt>
      <trkpt lat="45.27475" lon="5.76047">
        <ele>1059.4</ele>
        <time>2021-11-21T11:03:49Z</time>
      </trkpt>
      <trkpt lat="45.27481" lon="5.76051">
        <ele>1060</ele>
        <time>2021-11-21T11:03:50Z</time>
      </trkpt>
      <trkpt lat="45.27487" lon="5.76054">
        <ele>1060.4</ele>
        <time>2021-11-21T11:03:51Z</time>
      </trkpt>
      <trkpt lat="45.27493" lon="5.76057">
        <ele>1060.6</ele>
        <time>2021-11-21T11:03:52Z</time>
      </trkpt>
      <trkpt lat="45.27499" lon="5.7606">
        <ele>1061.2</ele>
        <time>2021-11-21T11:03:53Z</time>
      </trkpt>
      <trkpt lat="45.27505" lon="5.76063">
        <ele>1061.8</ele>
        <time>2021-11-21T11:03:54Z</time>
      </trkpt>
      <trkpt lat="45.27511" lon="5.76067">
        <ele>1062.6</ele>
        <time>2021-11-21T11:03:55Z</time>
      </trkpt>
      <trkpt lat="45.27517" lon="5.76069">
        <ele>1063</ele>
        <time>2021-11-21T11:03:56Z</time>
      </trkpt>
      <trkpt lat="45.27523" lon="5.76072">
        <ele>1063.6</ele>
        <time>2021-11-21T11:03:57Z</time>
      </trkpt>
      <trkpt lat="45.27529" lon="5.76075">
        <ele>1064</ele>
        <time>2021-11-21T11:03:58Z</time>
      </trkpt>
      <trkpt lat="45.27535" lon="5.76077">
        <ele>1064.8</ele>
        <time>2021-11-21T11:03:59Z</time>
      </trkpt>
      <trkpt lat="45.27542" lon="5.76078">
        <ele>1065.4</ele>
        <time>2021-11-21T11:04:00Z</time>
      </trkpt>
      <trkpt lat="45.27548" lon="5.76079">
        <ele>1066</ele>
        <time>2021-11-21T11:04:01Z</time>
      </trkpt>
      <trkpt lat="45.27555" lon="5.7608">
        <ele>1066.6</ele>
        <time>2021-11-21T11:04:02Z</time>
      </trkpt>
      <trkpt lat="45.27561" lon="5.76081">
        <ele>1066.8</ele>
        <time>2021-11-21T11:04:03Z</time>
      </trkpt>
      <trkpt lat="45.27568" lon="5.76083">
        <ele>1067.6</ele>
        <time>2021-11-21T11:04:04Z</time>
      </trkpt>
      <trkpt lat="45.27574" lon="5.76084">
        <ele>1068.2</ele>
        <time>2021-11-21T11:04:05Z</time>
      </trkpt>
      <trkpt lat="45.27579" lon="5.76087">
        <ele>1068.8</ele>
        <time>2021-11-21T11:04:06Z</time>
      </trkpt>
      <trkpt lat="45.27585" lon="5.7609">
        <ele>1069.4</ele>
        <time>2021-11-21T11:04:07Z</time>
      </trkpt>
      <trkpt lat="45.2759" lon="5.76095">
        <ele>1069.8</ele>
        <time>2021-11-21T11:04:08Z</time>
      </trkpt>
      <trkpt lat="45.27595" lon="5.76102">
        <ele>1070.4</ele>
        <time>2021-11-21T11:04:09Z</time>
      </trkpt>
      <trkpt lat="45.27598" lon="5.76109">
        <ele>1070.8</ele>
        <time>2021-11-21T11:04:10Z</time>
      </trkpt>
      <trkpt lat="45.27599" lon="5.76118">
        <ele>1071.6</ele>
        <time>2021-11-21T11:04:11Z</time>
      </trkpt>
      <trkpt lat="45.27599" lon="5.76127">
        <ele>1072</ele>
        <time>2021-11-21T11:04:12Z</time>
      </trkpt>
      <trkpt lat="45.27597" lon="5.76136">
        <ele>1072.8</ele>
        <time>2021-11-21T11:04:13Z</time>
      </trkpt>
      <trkpt lat="45.27593" lon="5.76144">
        <ele>1073</ele>
        <time>2021-11-21T11:04:14Z</time>
      </trkpt>
      <trkpt lat="45.27588" lon="5.7615">
        <ele>1073.8</ele>
        <time>2021-11-21T11:04:15Z</time>
      </trkpt>
      <trkpt lat="45.27582" lon="5.76154">
        <ele>1074</ele>
        <time>2021-11-21T11:04:16Z</time>
      </trkpt>
      <trkpt lat="45.27575" lon="5.76155">
        <ele>1074.4</ele>
        <time>2021-11-21T11:04:17Z</time>
      </trkpt>
      <trkpt lat="45.27569" lon="5.76157">
        <ele>1075</ele>
        <time>2021-11-21T11:04:18Z</time>
      </trkpt>
      <trkpt lat="45.27562" lon="5.76157">
        <ele>1075.6</ele>
        <time>2021-11-21T11:04:19Z</time>
      </trkpt>
      <trkpt lat="45.27555" lon="5.76158">
        <ele>1076</ele>
        <time>2021-11-21T11:04:20Z</time>
      </trkpt>
      <trkpt lat="45.27549" lon="5.76159">
        <ele>1076.8</ele>
        <time>2021-11-21T11:04:21Z</time>
      </trkpt>
      <trkpt lat="45.27542" lon="5.7616">
        <ele>1077.2</ele>
        <time>2021-11-21T11:04:22Z</time>
      </trkpt>
      <trkpt lat="45.27536" lon="5.76163">
        <ele>1077.6</ele>
        <time>2021-11-21T11:04:23Z</time>
      </trkpt>
      <trkpt lat="45.2753" lon="5.76165">
        <ele>1077.8</ele>
        <time>2021-11-21T11:04:24Z</time>
      </trkpt>
      <trkpt lat="45.27524" lon="5.76169">
        <ele>1078.2</ele>
        <time>2021-11-21T11:04:25Z</time>
      </trkpt>
      <trkpt lat="45.27518" lon="5.76172">
        <ele>1079</ele>
        <time>2021-11-21T11:04:26Z</time>
      </trkpt>
      <trkpt lat="45.27512" lon="5.76177">
        <ele>1079.6</ele>
        <time>2021-11-21T11:04:27Z</time>
      </trkpt>
      <trkpt lat="45.27507" lon="5.76182">
        <ele>1080</ele>
        <time>2021-11-21T11:04:28Z</time>
      </trkpt>
      <trkpt lat="45.27501" lon="5.76186">
        <ele>1080.6</ele>
        <time>2021-11-21T11:04:29Z</time>
      </trkpt>
      <trkpt lat="45.27495" lon="5.7619">
        <ele>1081</ele>
        <time>2021-11-21T11:04:30Z</time>
      </trkpt>
      <trkpt lat="45.27489" lon="5.76194">
        <ele>1081.8</ele>
        <time>2021-11-21T11:04:31Z</time>
      </trkpt>
      <trkpt lat="45.27483" lon="5.76197">
        <ele>1082.4</ele>
        <time>2021-11-21T11:04:32Z</time>
      </trkpt>
      <trkpt lat="45.27476" lon="5.76201">
        <ele>1083</ele>
        <time>2021-11-21T11:04:33Z</time>
      </trkpt>
      <trkpt lat="45.27471" lon="5.76205">
        <ele>1083.4</ele>
        <time>2021-11-21T11:04:34Z</time>
      </trkpt>
      <trkpt lat="45.27465" lon="5.76209">
        <ele>1083.6</ele>
        <time>2021-11-21T11:04:35Z</time>
      </trkpt>
      <trkpt lat="45.2746" lon="5.76214">
        <ele>1084</ele>
        <time>2021-11-21T11:04:36Z</time>
      </trkpt>
      <trkpt lat="45.27454" lon="5.76218">
        <ele>1084.4</ele>
        <time>2021-11-21T11:04:37Z</time>
      </trkpt>
      <trkpt lat="45.27448" lon="5.76222">
        <ele>1084.8</ele>
        <time>2021-11-21T11:04:38Z</time>
      </trkpt>
      <trkpt lat="45.27442" lon="5.76226">
        <ele>1085.2</ele>
        <time>2021-11-21T11:04:39Z</time>
      </trkpt>
      <trkpt lat="45.27436" lon="5.7623">
        <ele>1085.6</ele>
        <time>2021-11-21T11:04:40Z</time>
      </trkpt>
      <trkpt lat="45.2743" lon="5.76234">
        <ele>1086</ele>
        <time>2021-11-21T11:04:41Z</time>
      </trkpt>
      <trkpt lat="45.27424" lon="5.76238">
        <ele>1086.4</ele>
        <time>2021-11-21T11:04:42Z</time>
      </trkpt>
      <trkpt lat="45.27418" lon="5.76243">
        <ele>1086.6</ele>
        <time>2021-11-21T11:04:43Z</time>
      </trkpt>
      <trkpt lat="45.27413" lon="5.76247">
        <ele>1087</ele>
        <time>2021-11-21T11:04:44Z</time>
      </trkpt>
      <trkpt lat="45.27408" lon="5.76253">
        <ele>1087.6</ele>
        <time>2021-11-21T11:04:45Z</time>
      </trkpt>
      <trkpt lat="45.27403" lon="5.76258">
        <ele>1088</ele>
        <time>2021-11-21T11:04:46Z</time>
      </trkpt>
      <trkpt lat="45.27398" lon="5.76265">
        <ele>1088.6</ele>
        <time>2021-11-21T11:04:47Z</time>
      </trkpt>
      <trkpt lat="45.27394" lon="5.76272">
        <ele>1089</ele>
        <time>2021-11-21T11:04:48Z</time>
      </trkpt>
      <trkpt lat="45.27391" lon="5.7628">
        <ele>1089.6</ele>
        <time>2021-11-21T11:04:49Z</time>
      </trkpt>
      <trkpt lat="45.27389" lon="5.76288">
        <ele>1089.6</ele>
        <time>2021-11-21T11:04:50Z</time>
      </trkpt>
      <trkpt lat="45.27388" lon="5.76296">
        <ele>1090</ele>
        <time>2021-11-21T11:04:51Z</time>
      </trkpt>
      <trkpt lat="45.27387" lon="5.76305">
        <ele>1090.4</ele>
        <time>2021-11-21T11:04:52Z</time>
      </trkpt>
      <trkpt lat="45.27387" lon="5.76313">
        <ele>1090.8</ele>
        <time>2021-11-21T11:04:53Z</time>
      </trkpt>
      <trkpt lat="45.27388" lon="5.76322">
        <ele>1091.4</ele>
        <time>2021-11-21T11:04:54Z</time>
      </trkpt>
      <trkpt lat="45.2739" lon="5.7633">
        <ele>1092</ele>
        <time>2021-11-21T11:04:55Z</time>
      </trkpt>
      <trkpt lat="45.27393" lon="5.76338">
        <ele>1092.8</ele>
        <time>2021-11-21T11:04:56Z</time>
      </trkpt>
      <trkpt lat="45.27395" lon="5.76347">
        <ele>1093.4</ele>
        <time>2021-11-21T11:04:57Z</time>
      </trkpt>
      <trkpt lat="45.27397" lon="5.76355">
        <ele>1093.6</ele>
        <time>2021-11-21T11:04:58Z</time>
      </trkpt>
      <trkpt lat="45.27399" lon="5.76364">
        <ele>1094</ele>
        <time>2021-11-21T11:04:59Z</time>
      </trkpt>
      <trkpt lat="45.274" lon="5.76373">
        <ele>1094.8</ele>
        <time>2021-11-21T11:05:00Z</time>
      </trkpt>
      <trkpt lat="45.27401" lon="5.76382">
        <ele>1095.6</ele>
        <time>2021-11-21T11:05:01Z</time>
      </trkpt>
      <trkpt lat="45.27403" lon="5.76391">
        <ele>1095.8</ele>
        <time>2021-11-21T11:05:02Z</time>
      </trkpt>
      <trkpt lat="45.27404" lon="5.76399">
        <ele>1096.2</ele>
        <time>2021-11-21T11:05:03Z</time>
      </trkpt>
      <trkpt lat="45.27406" lon="5.76408">
        <ele>1096.8</ele>
        <time>2021-11-21T11:05:04Z</time>
      </trkpt>
      <trkpt lat="45.27407" lon="5.76417">
        <ele>1097.4</ele>
        <time>2021-11-21T11:05:05Z</time>
      </trkpt>
      <trkpt lat="45.27409" lon="5.76435">
        <ele>1098.8</ele>
        <time>2021-11-21T11:05:07Z</time>
      </trkpt>
      <trkpt lat="45.2741" lon="5.76444">
        <ele>1099</ele>
        <time>2021-11-21T11:05:08Z</time>
      </trkpt>
      <trkpt lat="45.2741" lon="5.76463">
        <ele>1099.8</ele>
        <time>2021-11-21T11:05:10Z</time>
      </trkpt>
      <trkpt lat="45.27411" lon="5.76472">
        <ele>1100.2</ele>
        <time>2021-11-21T11:05:11Z</time>
      </trkpt>
      <trkpt lat="45.27411" lon="5.7649">
        <ele>1101.2</ele>
        <time>2021-11-21T11:05:13Z</time>
      </trkpt>
      <trkpt lat="45.27412" lon="5.76508">
        <ele>1102.4</ele>
        <time>2021-11-21T11:05:15Z</time>
      </trkpt>
      <trkpt lat="45.27413" lon="5.76517">
        <ele>1103</ele>
        <time>2021-11-21T11:05:16Z</time>
      </trkpt>
      <trkpt lat="45.27413" lon="5.76535">
        <ele>1103.6</ele>
        <time>2021-11-21T11:05:18Z</time>
      </trkpt>
      <trkpt lat="45.27415" lon="5.76554">
        <ele>1104.4</ele>
        <time>2021-11-21T11:05:20Z</time>
      </trkpt>
      <trkpt lat="45.27416" lon="5.76573">
        <ele>1105</ele>
        <time>2021-11-21T11:05:22Z</time>
      </trkpt>
      <trkpt lat="45.27416" lon="5.76591">
        <ele>1106.2</ele>
        <time>2021-11-21T11:05:24Z</time>
      </trkpt>
      <trkpt lat="45.27411" lon="5.76608">
        <ele>1107</ele>
        <time>2021-11-21T11:05:26Z</time>
      </trkpt>
      <trkpt lat="45.27401" lon="5.76619">
        <ele>1108</ele>
        <time>2021-11-21T11:05:28Z</time>
      </trkpt>
      <trkpt lat="45.2739" lon="5.76618">
        <ele>1108.6</ele>
        <time>2021-11-21T11:05:30Z</time>
      </trkpt>
      <trkpt lat="45.27379" lon="5.76604">
        <ele>1110.2</ele>
        <time>2021-11-21T11:05:32Z</time>
      </trkpt>
      <trkpt lat="45.2737" lon="5.76588">
        <ele>1111.2</ele>
        <time>2021-11-21T11:05:34Z</time>
      </trkpt>
      <trkpt lat="45.27361" lon="5.76578">
        <ele>1112.2</ele>
        <time>2021-11-21T11:05:36Z</time>
      </trkpt>
      <trkpt lat="45.27349" lon="5.76574">
        <ele>1113.2</ele>
        <time>2021-11-21T11:05:38Z</time>
      </trkpt>
      <trkpt lat="45.27337" lon="5.76569">
        <ele>1114.2</ele>
        <time>2021-11-21T11:05:40Z</time>
      </trkpt>
      <trkpt lat="45.27324" lon="5.76563">
        <ele>1114.8</ele>
        <time>2021-11-21T11:05:42Z</time>
      </trkpt>
      <trkpt lat="45.27312" lon="5.76556">
        <ele>1115.4</ele>
        <time>2021-11-21T11:05:44Z</time>
      </trkpt>
      <trkpt lat="45.27301" lon="5.76552">
        <ele>1116.2</ele>
        <time>2021-11-21T11:05:46Z</time>
      </trkpt>
      <trkpt lat="45.27291" lon="5.76557">
        <ele>1117.8</ele>
        <time>2021-11-21T11:05:49Z</time>
      </trkpt>
      <trkpt lat="45.2729" lon="5.76561">
        <ele>1118.4</ele>
        <time>2021-11-21T11:05:50Z</time>
      </trkpt>
      <trkpt lat="45.27299" lon="5.76573">
        <ele>1119.8</ele>
        <time>2021-11-21T11:05:53Z</time>
      </trkpt>
      <trkpt lat="45.27309" lon="5.76581">
        <ele>1120.6</ele>
        <time>2021-11-21T11:05:55Z</time>
      </trkpt>
      <trkpt lat="45.2732" lon="5.76589">
        <ele>1120.8</ele>
        <time>2021-11-21T11:05:57Z</time>
      </trkpt>
      <trkpt lat="45.27331" lon="5.76597">
        <ele>1121.6</ele>
        <time>2021-11-21T11:05:59Z</time>
      </trkpt>
      <trkpt lat="45.27342" lon="5.76605">
        <ele>1122.2</ele>
        <time>2021-11-21T11:06:01Z</time>
      </trkpt>
      <trkpt lat="45.27351" lon="5.76614">
        <ele>1122.6</ele>
        <time>2021-11-21T11:06:03Z</time>
      </trkpt>
      <trkpt lat="45.27359" lon="5.76623">
        <ele>1123.4</ele>
        <time>2021-11-21T11:06:05Z</time>
      </trkpt>
      <trkpt lat="45.27366" lon="5.76636">
        <ele>1125.2</ele>
        <time>2021-11-21T11:06:08Z</time>
      </trkpt>
      <trkpt lat="45.27371" lon="5.76647">
        <ele>1126.8</ele>
        <time>2021-11-21T11:06:11Z</time>
      </trkpt>
      <trkpt lat="45.27376" lon="5.76663">
        <ele>1129.4</ele>
        <time>2021-11-21T11:06:15Z</time>
      </trkpt>
      <trkpt lat="45.2738" lon="5.76679">
        <ele>1130.2</ele>
        <time>2021-11-21T11:06:18Z</time>
      </trkpt>
      <trkpt lat="45.27385" lon="5.76692">
        <ele>1130.6</ele>
        <time>2021-11-21T11:06:21Z</time>
      </trkpt>
      <trkpt lat="45.27391" lon="5.76703">
        <ele>1131.4</ele>
        <time>2021-11-21T11:06:23Z</time>
      </trkpt>
      <trkpt lat="45.274" lon="5.76713">
        <ele>1132.2</ele>
        <time>2021-11-21T11:06:25Z</time>
      </trkpt>
      <trkpt lat="45.2741" lon="5.76722">
        <ele>1132.6</ele>
        <time>2021-11-21T11:06:27Z</time>
      </trkpt>
      <trkpt lat="45.27422" lon="5.76729">
        <ele>1133.4</ele>
        <time>2021-11-21T11:06:29Z</time>
      </trkpt>
      <trkpt lat="45.27432" lon="5.76736">
        <ele>1134.2</ele>
        <time>2021-11-21T11:06:31Z</time>
      </trkpt>
      <trkpt lat="45.27445" lon="5.76744">
        <ele>1135</ele>
        <time>2021-11-21T11:06:33Z</time>
      </trkpt>
      <trkpt lat="45.2746" lon="5.76749">
        <ele>1136</ele>
        <time>2021-11-21T11:06:35Z</time>
      </trkpt>
      <trkpt lat="45.27472" lon="5.76741">
        <ele>1137.2</ele>
        <time>2021-11-21T11:06:37Z</time>
      </trkpt>
      <trkpt lat="45.27478" lon="5.76725">
        <ele>1138.4</ele>
        <time>2021-11-21T11:06:39Z</time>
      </trkpt>
      <trkpt lat="45.27484" lon="5.76708">
        <ele>1139</ele>
        <time>2021-11-21T11:06:41Z</time>
      </trkpt>
      <trkpt lat="45.27486" lon="5.7669">
        <ele>1139.8</ele>
        <time>2021-11-21T11:06:43Z</time>
      </trkpt>
      <trkpt lat="45.27486" lon="5.76672">
        <ele>1140.4</ele>
        <time>2021-11-21T11:06:45Z</time>
      </trkpt>
      <trkpt lat="45.27488" lon="5.76655">
        <ele>1141.2</ele>
        <time>2021-11-21T11:06:47Z</time>
      </trkpt>
      <trkpt lat="45.27491" lon="5.76639">
        <ele>1141.4</ele>
        <time>2021-11-21T11:06:49Z</time>
      </trkpt>
      <trkpt lat="45.27493" lon="5.76622">
        <ele>1142.4</ele>
        <time>2021-11-21T11:06:51Z</time>
      </trkpt>
      <trkpt lat="45.275" lon="5.7661">
        <ele>1143</ele>
        <time>2021-11-21T11:06:53Z</time>
      </trkpt>
      <trkpt lat="45.27513" lon="5.76606">
        <ele>1143.6</ele>
        <time>2021-11-21T11:06:55Z</time>
      </trkpt>
      <trkpt lat="45.27526" lon="5.76605">
        <ele>1144.8</ele>
        <time>2021-11-21T11:06:57Z</time>
      </trkpt>
      <trkpt lat="45.27538" lon="5.76605">
        <ele>1145.8</ele>
        <time>2021-11-21T11:06:59Z</time>
      </trkpt>
      <trkpt lat="45.27551" lon="5.76604">
        <ele>1147.2</ele>
        <time>2021-11-21T11:07:01Z</time>
      </trkpt>
      <trkpt lat="45.27564" lon="5.76605">
        <ele>1148.4</ele>
        <time>2021-11-21T11:07:03Z</time>
      </trkpt>
      <trkpt lat="45.27576" lon="5.76605">
        <ele>1149.4</ele>
        <time>2021-11-21T11:07:05Z</time>
      </trkpt>
      <trkpt lat="45.27589" lon="5.76604">
        <ele>1150.4</ele>
        <time>2021-11-21T11:07:07Z</time>
      </trkpt>
      <trkpt lat="45.27601" lon="5.76605">
        <ele>1151.6</ele>
        <time>2021-11-21T11:07:09Z</time>
      </trkpt>
      <trkpt lat="45.27613" lon="5.76605">
        <ele>1152.6</ele>
        <time>2021-11-21T11:07:11Z</time>
      </trkpt>
      <trkpt lat="45.27626" lon="5.76609">
        <ele>1154</ele>
        <time>2021-11-21T11:07:13Z</time>
      </trkpt>
      <trkpt lat="45.27638" lon="5.76616">
        <ele>1154.8</ele>
        <time>2021-11-21T11:07:15Z</time>
      </trkpt>
      <trkpt lat="45.27649" lon="5.76624">
        <ele>1156.2</ele>
        <time>2021-11-21T11:07:17Z</time>
      </trkpt>
      <trkpt lat="45.2766" lon="5.76631">
        <ele>1157</ele>
        <time>2021-11-21T11:07:19Z</time>
      </trkpt>
      <trkpt lat="45.27666" lon="5.76635">
        <ele>1157.2</ele>
        <time>2021-11-21T11:07:20Z</time>
      </trkpt>
      <trkpt lat="45.27676" lon="5.76643">
        <ele>1158.4</ele>
        <time>2021-11-21T11:07:22Z</time>
      </trkpt>
      <trkpt lat="45.27687" lon="5.76649">
        <ele>1159.4</ele>
        <time>2021-11-21T11:07:24Z</time>
      </trkpt>
      <trkpt lat="45.27699" lon="5.76654">
        <ele>1160.6</ele>
        <time>2021-11-21T11:07:26Z</time>
      </trkpt>
      <trkpt lat="45.27712" lon="5.7666">
        <ele>1161.6</ele>
        <time>2021-11-21T11:07:28Z</time>
      </trkpt>
      <trkpt lat="45.27723" lon="5.76663">
        <ele>1162.6</ele>
        <time>2021-11-21T11:07:30Z</time>
      </trkpt>
      <trkpt lat="45.27735" lon="5.76664">
        <ele>1163.4</ele>
        <time>2021-11-21T11:07:32Z</time>
      </trkpt>
      <trkpt lat="45.27747" lon="5.76664">
        <ele>1164.4</ele>
        <time>2021-11-21T11:07:34Z</time>
      </trkpt>
      <trkpt lat="45.27759" lon="5.76661">
        <ele>1165</ele>
        <time>2021-11-21T11:07:36Z</time>
      </trkpt>
      <trkpt lat="45.27772" lon="5.76657">
        <ele>1166</ele>
        <time>2021-11-21T11:07:38Z</time>
      </trkpt>
      <trkpt lat="45.27785" lon="5.76653">
        <ele>1167</ele>
        <time>2021-11-21T11:07:40Z</time>
      </trkpt>
      <trkpt lat="45.27799" lon="5.76649">
        <ele>1168</ele>
        <time>2021-11-21T11:07:42Z</time>
      </trkpt>
      <trkpt lat="45.27812" lon="5.76642">
        <ele>1168.8</ele>
        <time>2021-11-21T11:07:44Z</time>
      </trkpt>
      <trkpt lat="45.27825" lon="5.76635">
        <ele>1170</ele>
        <time>2021-11-21T11:07:46Z</time>
      </trkpt>
      <trkpt lat="45.27838" lon="5.76626">
        <ele>1171</ele>
        <time>2021-11-21T11:07:48Z</time>
      </trkpt>
      <trkpt lat="45.27851" lon="5.76618">
        <ele>1172.4</ele>
        <time>2021-11-21T11:07:50Z</time>
      </trkpt>
      <trkpt lat="45.27864" lon="5.76614">
        <ele>1173.4</ele>
        <time>2021-11-21T11:07:52Z</time>
      </trkpt>
      <trkpt lat="45.27877" lon="5.76614">
        <ele>1174.4</ele>
        <time>2021-11-21T11:07:54Z</time>
      </trkpt>
      <trkpt lat="45.2789" lon="5.76614">
        <ele>1175.4</ele>
        <time>2021-11-21T11:07:56Z</time>
      </trkpt>
      <trkpt lat="45.27903" lon="5.76615">
        <ele>1176.6</ele>
        <time>2021-11-21T11:07:58Z</time>
      </trkpt>
      <trkpt lat="45.27916" lon="5.76614">
        <ele>1177.4</ele>
        <time>2021-11-21T11:08:00Z</time>
      </trkpt>
      <trkpt lat="45.27929" lon="5.76614">
        <ele>1178.8</ele>
        <time>2021-11-21T11:08:02Z</time>
      </trkpt>
      <trkpt lat="45.27942" lon="5.76616">
        <ele>1179.6</ele>
        <time>2021-11-21T11:08:04Z</time>
      </trkpt>
      <trkpt lat="45.27955" lon="5.76621">
        <ele>1180.6</ele>
        <time>2021-11-21T11:08:06Z</time>
      </trkpt>
      <trkpt lat="45.27961" lon="5.76625">
        <ele>1181.2</ele>
        <time>2021-11-21T11:08:07Z</time>
      </trkpt>
      <trkpt lat="45.27968" lon="5.76628">
        <ele>1181.8</ele>
        <time>2021-11-21T11:08:08Z</time>
      </trkpt>
      <trkpt lat="45.27981" lon="5.76633">
        <ele>1183</ele>
        <time>2021-11-21T11:08:10Z</time>
      </trkpt>
      <trkpt lat="45.27994" lon="5.76635">
        <ele>1184</ele>
        <time>2021-11-21T11:08:12Z</time>
      </trkpt>
      <trkpt lat="45.28001" lon="5.76635">
        <ele>1184.8</ele>
        <time>2021-11-21T11:08:13Z</time>
      </trkpt>
      <trkpt lat="45.28015" lon="5.76635">
        <ele>1185.6</ele>
        <time>2021-11-21T11:08:15Z</time>
      </trkpt>
      <trkpt lat="45.28021" lon="5.76635">
        <ele>1186</ele>
        <time>2021-11-21T11:08:16Z</time>
      </trkpt>
      <trkpt lat="45.28028" lon="5.76635">
        <ele>1186.6</ele>
        <time>2021-11-21T11:08:17Z</time>
      </trkpt>
      <trkpt lat="45.28042" lon="5.76634">
        <ele>1187.6</ele>
        <time>2021-11-21T11:08:19Z</time>
      </trkpt>
      <trkpt lat="45.28055" lon="5.76634">
        <ele>1188.4</ele>
        <time>2021-11-21T11:08:21Z</time>
      </trkpt>
      <trkpt lat="45.28068" lon="5.76632">
        <ele>1189.6</ele>
        <time>2021-11-21T11:08:23Z</time>
      </trkpt>
      <trkpt lat="45.28081" lon="5.76629">
        <ele>1190.8</ele>
        <time>2021-11-21T11:08:25Z</time>
      </trkpt>
      <trkpt lat="45.28095" lon="5.76631">
        <ele>1192</ele>
        <time>2021-11-21T11:08:27Z</time>
      </trkpt>
      <trkpt lat="45.28109" lon="5.76634">
        <ele>1192.6</ele>
        <time>2021-11-21T11:08:29Z</time>
      </trkpt>
      <trkpt lat="45.28124" lon="5.7664">
        <ele>1193.2</ele>
        <time>2021-11-21T11:08:31Z</time>
      </trkpt>
      <trkpt lat="45.28137" lon="5.76646">
        <ele>1194.4</ele>
        <time>2021-11-21T11:08:33Z</time>
      </trkpt>
      <trkpt lat="45.28151" lon="5.76652">
        <ele>1195.8</ele>
        <time>2021-11-21T11:08:35Z</time>
      </trkpt>
      <trkpt lat="45.28163" lon="5.76658">
        <ele>1196.8</ele>
        <time>2021-11-21T11:08:37Z</time>
      </trkpt>
      <trkpt lat="45.28175" lon="5.76665">
        <ele>1198</ele>
        <time>2021-11-21T11:08:39Z</time>
      </trkpt>
      <trkpt lat="45.28188" lon="5.7667">
        <ele>1199</ele>
        <time>2021-11-21T11:08:41Z</time>
      </trkpt>
      <trkpt lat="45.28201" lon="5.76675">
        <ele>1200.2</ele>
        <time>2021-11-21T11:08:43Z</time>
      </trkpt>
      <trkpt lat="45.28214" lon="5.76677">
        <ele>1201.2</ele>
        <time>2021-11-21T11:08:45Z</time>
      </trkpt>
      <trkpt lat="45.28227" lon="5.76675">
        <ele>1202.2</ele>
        <time>2021-11-21T11:08:47Z</time>
      </trkpt>
      <trkpt lat="45.28239" lon="5.76666">
        <ele>1203</ele>
        <time>2021-11-21T11:08:49Z</time>
      </trkpt>
      <trkpt lat="45.28246" lon="5.76652">
        <ele>1204.2</ele>
        <time>2021-11-21T11:08:51Z</time>
      </trkpt>
      <trkpt lat="45.28247" lon="5.76641">
        <ele>1204.6</ele>
        <time>2021-11-21T11:08:52Z</time>
      </trkpt>
      <trkpt lat="45.28247" lon="5.76631">
        <ele>1205.2</ele>
        <time>2021-11-21T11:08:53Z</time>
      </trkpt>
      <trkpt lat="45.28246" lon="5.7662">
        <ele>1205.8</ele>
        <time>2021-11-21T11:08:54Z</time>
      </trkpt>
      <trkpt lat="45.28246" lon="5.76609">
        <ele>1206.2</ele>
        <time>2021-11-21T11:08:55Z</time>
      </trkpt>
      <trkpt lat="45.28245" lon="5.766">
        <ele>1206.6</ele>
        <time>2021-11-21T11:08:56Z</time>
      </trkpt>
      <trkpt lat="45.28245" lon="5.7659">
        <ele>1207.2</ele>
        <time>2021-11-21T11:08:57Z</time>
      </trkpt>
      <trkpt lat="45.28245" lon="5.76579">
        <ele>1208</ele>
        <time>2021-11-21T11:08:58Z</time>
      </trkpt>
      <trkpt lat="45.28244" lon="5.76569">
        <ele>1208.6</ele>
        <time>2021-11-21T11:08:59Z</time>
      </trkpt>
      <trkpt lat="45.28244" lon="5.76559">
        <ele>1208.8</ele>
        <time>2021-11-21T11:09:00Z</time>
      </trkpt>
      <trkpt lat="45.28245" lon="5.7655">
        <ele>1209.2</ele>
        <time>2021-11-21T11:09:01Z</time>
      </trkpt>
      <trkpt lat="45.28245" lon="5.76542">
        <ele>1209.4</ele>
        <time>2021-11-21T11:09:02Z</time>
      </trkpt>
      <trkpt lat="45.28247" lon="5.76524">
        <ele>1210.4</ele>
        <time>2021-11-21T11:09:04Z</time>
      </trkpt>
      <trkpt lat="45.28251" lon="5.76506">
        <ele>1211.2</ele>
        <time>2021-11-21T11:09:06Z</time>
      </trkpt>
      <trkpt lat="45.28253" lon="5.76497">
        <ele>1211.6</ele>
        <time>2021-11-21T11:09:07Z</time>
      </trkpt>
      <trkpt lat="45.28255" lon="5.76478">
        <ele>1212.6</ele>
        <time>2021-11-21T11:09:09Z</time>
      </trkpt>
      <trkpt lat="45.28256" lon="5.76461">
        <ele>1213.8</ele>
        <time>2021-11-21T11:09:11Z</time>
      </trkpt>
      <trkpt lat="45.28249" lon="5.76441">
        <ele>1215</ele>
        <time>2021-11-21T11:09:13Z</time>
      </trkpt>
      <trkpt lat="45.28241" lon="5.76424">
        <ele>1216.2</ele>
        <time>2021-11-21T11:09:15Z</time>
      </trkpt>
      <trkpt lat="45.28232" lon="5.76411">
        <ele>1217.2</ele>
        <time>2021-11-21T11:09:17Z</time>
      </trkpt>
      <trkpt lat="45.28221" lon="5.76398">
        <ele>1218.2</ele>
        <time>2021-11-21T11:09:19Z</time>
      </trkpt>
      <trkpt lat="45.28214" lon="5.76383">
        <ele>1219</ele>
        <time>2021-11-21T11:09:21Z</time>
      </trkpt>
      <trkpt lat="45.28213" lon="5.76375">
        <ele>1219.4</ele>
        <time>2021-11-21T11:09:22Z</time>
      </trkpt>
      <trkpt lat="45.28215" lon="5.76368">
        <ele>1219.8</ele>
        <time>2021-11-21T11:09:23Z</time>
      </trkpt>
      <trkpt lat="45.28227" lon="5.76367">
        <ele>1221</ele>
        <time>2021-11-21T11:09:25Z</time>
      </trkpt>
      <trkpt lat="45.2824" lon="5.76378">
        <ele>1222</ele>
        <time>2021-11-21T11:09:27Z</time>
      </trkpt>
      <trkpt lat="45.28245" lon="5.76384">
        <ele>1222.6</ele>
        <time>2021-11-21T11:09:28Z</time>
      </trkpt>
      <trkpt lat="45.28257" lon="5.76392">
        <ele>1224.2</ele>
        <time>2021-11-21T11:09:30Z</time>
      </trkpt>
      <trkpt lat="45.28271" lon="5.76397">
        <ele>1224.8</ele>
        <time>2021-11-21T11:09:32Z</time>
      </trkpt>
      <trkpt lat="45.28277" lon="5.76401">
        <ele>1225.2</ele>
        <time>2021-11-21T11:09:33Z</time>
      </trkpt>
      <trkpt lat="45.2829" lon="5.76409">
        <ele>1225.8</ele>
        <time>2021-11-21T11:09:35Z</time>
      </trkpt>
      <trkpt lat="45.28301" lon="5.76416">
        <ele>1226.4</ele>
        <time>2021-11-21T11:09:37Z</time>
      </trkpt>
      <trkpt lat="45.28313" lon="5.76423">
        <ele>1227.2</ele>
        <time>2021-11-21T11:09:39Z</time>
      </trkpt>
      <trkpt lat="45.28319" lon="5.76426">
        <ele>1227.6</ele>
        <time>2021-11-21T11:09:40Z</time>
      </trkpt>
      <trkpt lat="45.28325" lon="5.76428">
        <ele>1228</ele>
        <time>2021-11-21T11:09:41Z</time>
      </trkpt>
      <trkpt lat="45.28331" lon="5.76429">
        <ele>1228.4</ele>
        <time>2021-11-21T11:09:42Z</time>
      </trkpt>
      <trkpt lat="45.28337" lon="5.7643">
        <ele>1229</ele>
        <time>2021-11-21T11:09:43Z</time>
      </trkpt>
      <trkpt lat="45.28343" lon="5.76429">
        <ele>1229.4</ele>
        <time>2021-11-21T11:09:44Z</time>
      </trkpt>
      <trkpt lat="45.28349" lon="5.76429">
        <ele>1229.8</ele>
        <time>2021-11-21T11:09:45Z</time>
      </trkpt>
      <trkpt lat="45.28354" lon="5.76428">
        <ele>1230.2</ele>
        <time>2021-11-21T11:09:46Z</time>
      </trkpt>
      <trkpt lat="45.28359" lon="5.76426">
        <ele>1230.6</ele>
        <time>2021-11-21T11:09:47Z</time>
      </trkpt>
      <trkpt lat="45.28364" lon="5.76425">
        <ele>1231.2</ele>
        <time>2021-11-21T11:09:48Z</time>
      </trkpt>
      <trkpt lat="45.2837" lon="5.76422">
        <ele>1231.8</ele>
        <time>2021-11-21T11:09:49Z</time>
      </trkpt>
      <trkpt lat="45.28375" lon="5.7642">
        <ele>1232.2</ele>
        <time>2021-11-21T11:09:50Z</time>
      </trkpt>
      <trkpt lat="45.28387" lon="5.76414">
        <ele>1233</ele>
        <time>2021-11-21T11:09:52Z</time>
      </trkpt>
      <trkpt lat="45.28392" lon="5.76411">
        <ele>1233.4</ele>
        <time>2021-11-21T11:09:53Z</time>
      </trkpt>
      <trkpt lat="45.28403" lon="5.76405">
        <ele>1234.4</ele>
        <time>2021-11-21T11:09:55Z</time>
      </trkpt>
      <trkpt lat="45.28416" lon="5.76401">
        <ele>1235.4</ele>
        <time>2021-11-21T11:09:57Z</time>
      </trkpt>
      <trkpt lat="45.28427" lon="5.76398">
        <ele>1236.4</ele>
        <time>2021-11-21T11:09:59Z</time>
      </trkpt>
      <trkpt lat="45.28439" lon="5.76396">
        <ele>1237.6</ele>
        <time>2021-11-21T11:10:01Z</time>
      </trkpt>
      <trkpt lat="45.28449" lon="5.76394">
        <ele>1238.8</ele>
        <time>2021-11-21T11:10:03Z</time>
      </trkpt>
      <trkpt lat="45.28461" lon="5.76395">
        <ele>1239.6</ele>
        <time>2021-11-21T11:10:05Z</time>
      </trkpt>
      <trkpt lat="45.28473" lon="5.76396">
        <ele>1240.8</ele>
        <time>2021-11-21T11:10:07Z</time>
      </trkpt>
      <trkpt lat="45.28485" lon="5.76399">
        <ele>1241.8</ele>
        <time>2021-11-21T11:10:09Z</time>
      </trkpt>
      <trkpt lat="45.28497" lon="5.76402">
        <ele>1242.6</ele>
        <time>2021-11-21T11:10:11Z</time>
      </trkpt>
      <trkpt lat="45.28509" lon="5.76408">
        <ele>1243.4</ele>
        <time>2021-11-21T11:10:13Z</time>
      </trkpt>
      <trkpt lat="45.28522" lon="5.76412">
        <ele>1244</ele>
        <time>2021-11-21T11:10:15Z</time>
      </trkpt>
      <trkpt lat="45.28534" lon="5.76415">
        <ele>1245</ele>
        <time>2021-11-21T11:10:17Z</time>
      </trkpt>
      <trkpt lat="45.28546" lon="5.76418">
        <ele>1246.2</ele>
        <time>2021-11-21T11:10:19Z</time>
      </trkpt>
      <trkpt lat="45.28558" lon="5.76422">
        <ele>1247.2</ele>
        <time>2021-11-21T11:10:21Z</time>
      </trkpt>
      <trkpt lat="45.28569" lon="5.76426">
        <ele>1248.2</ele>
        <time>2021-11-21T11:10:23Z</time>
      </trkpt>
      <trkpt lat="45.28581" lon="5.7643">
        <ele>1249.4</ele>
        <time>2021-11-21T11:10:25Z</time>
      </trkpt>
      <trkpt lat="45.28593" lon="5.76434">
        <ele>1250.4</ele>
        <time>2021-11-21T11:10:27Z</time>
      </trkpt>
      <trkpt lat="45.28605" lon="5.76437">
        <ele>1251.6</ele>
        <time>2021-11-21T11:10:29Z</time>
      </trkpt>
      <trkpt lat="45.28617" lon="5.76442">
        <ele>1252.6</ele>
        <time>2021-11-21T11:10:31Z</time>
      </trkpt>
      <trkpt lat="45.28629" lon="5.76447">
        <ele>1253.4</ele>
        <time>2021-11-21T11:10:33Z</time>
      </trkpt>
      <trkpt lat="45.28641" lon="5.76451">
        <ele>1254.2</ele>
        <time>2021-11-21T11:10:35Z</time>
      </trkpt>
      <trkpt lat="45.28646" lon="5.76453">
        <ele>1254.8</ele>
        <time>2021-11-21T11:10:36Z</time>
      </trkpt>
      <trkpt lat="45.28652" lon="5.76455">
        <ele>1255.2</ele>
        <time>2021-11-21T11:10:37Z</time>
      </trkpt>
      <trkpt lat="45.28658" lon="5.76457">
        <ele>1255.6</ele>
        <time>2021-11-21T11:10:38Z</time>
      </trkpt>
      <trkpt lat="45.2867" lon="5.76461">
        <ele>1256.8</ele>
        <time>2021-11-21T11:10:40Z</time>
      </trkpt>
      <trkpt lat="45.28682" lon="5.76465">
        <ele>1256.8</ele>
        <time>2021-11-21T11:10:42Z</time>
      </trkpt>
      <trkpt lat="45.28693" lon="5.7647">
        <ele>1258.8</ele>
        <time>2021-11-21T11:10:44Z</time>
      </trkpt>
      <trkpt lat="45.28705" lon="5.76476">
        <ele>1260</ele>
        <time>2021-11-21T11:10:46Z</time>
      </trkpt>
      <trkpt lat="45.28716" lon="5.76482">
        <ele>1261.2</ele>
        <time>2021-11-21T11:10:48Z</time>
      </trkpt>
      <trkpt lat="45.28727" lon="5.7649">
        <ele>1261.6</ele>
        <time>2021-11-21T11:10:50Z</time>
      </trkpt>
      <trkpt lat="45.28737" lon="5.765">
        <ele>1262.6</ele>
        <time>2021-11-21T11:10:52Z</time>
      </trkpt>
      <trkpt lat="45.28744" lon="5.76511">
        <ele>1263.8</ele>
        <time>2021-11-21T11:10:54Z</time>
      </trkpt>
      <trkpt lat="45.28748" lon="5.76518">
        <ele>1264.4</ele>
        <time>2021-11-21T11:10:55Z</time>
      </trkpt>
      <trkpt lat="45.28751" lon="5.76525">
        <ele>1265</ele>
        <time>2021-11-21T11:10:56Z</time>
      </trkpt>
      <trkpt lat="45.28753" lon="5.76533">
        <ele>1265.2</ele>
        <time>2021-11-21T11:10:57Z</time>
      </trkpt>
      <trkpt lat="45.28754" lon="5.76541">
        <ele>1265.6</ele>
        <time>2021-11-21T11:10:58Z</time>
      </trkpt>
      <trkpt lat="45.28755" lon="5.7655">
        <ele>1266</ele>
        <time>2021-11-21T11:10:59Z</time>
      </trkpt>
      <trkpt lat="45.28755" lon="5.76558">
        <ele>1266.6</ele>
        <time>2021-11-21T11:11:00Z</time>
      </trkpt>
      <trkpt lat="45.28754" lon="5.76567">
        <ele>1267.2</ele>
        <time>2021-11-21T11:11:01Z</time>
      </trkpt>
      <trkpt lat="45.28753" lon="5.76575">
        <ele>1267.8</ele>
        <time>2021-11-21T11:11:02Z</time>
      </trkpt>
      <trkpt lat="45.28751" lon="5.76584">
        <ele>1268.4</ele>
        <time>2021-11-21T11:11:03Z</time>
      </trkpt>
      <trkpt lat="45.28751" lon="5.76593">
        <ele>1268.8</ele>
        <time>2021-11-21T11:11:04Z</time>
      </trkpt>
      <trkpt lat="45.2875" lon="5.76602">
        <ele>1269.2</ele>
        <time>2021-11-21T11:11:05Z</time>
      </trkpt>
      <trkpt lat="45.28751" lon="5.7661">
        <ele>1269.8</ele>
        <time>2021-11-21T11:11:06Z</time>
      </trkpt>
      <trkpt lat="45.28754" lon="5.76618">
        <ele>1270.4</ele>
        <time>2021-11-21T11:11:07Z</time>
      </trkpt>
      <trkpt lat="45.28757" lon="5.76625">
        <ele>1271</ele>
        <time>2021-11-21T11:11:08Z</time>
      </trkpt>
      <trkpt lat="45.28761" lon="5.76631">
        <ele>1271.4</ele>
        <time>2021-11-21T11:11:09Z</time>
      </trkpt>
      <trkpt lat="45.28772" lon="5.76638">
        <ele>1272.6</ele>
        <time>2021-11-21T11:11:11Z</time>
      </trkpt>
      <trkpt lat="45.28785" lon="5.76642">
        <ele>1273.6</ele>
        <time>2021-11-21T11:11:13Z</time>
      </trkpt>
      <trkpt lat="45.28798" lon="5.76647">
        <ele>1274.6</ele>
        <time>2021-11-21T11:11:15Z</time>
      </trkpt>
      <trkpt lat="45.28812" lon="5.76653">
        <ele>1275.8</ele>
        <time>2021-11-21T11:11:17Z</time>
      </trkpt>
      <trkpt lat="45.28818" lon="5.76655">
        <ele>1276.2</ele>
        <time>2021-11-21T11:11:18Z</time>
      </trkpt>
      <trkpt lat="45.28832" lon="5.76658">
        <ele>1276.6</ele>
        <time>2021-11-21T11:11:20Z</time>
      </trkpt>
      <trkpt lat="45.28846" lon="5.7666">
        <ele>1277.8</ele>
        <time>2021-11-21T11:11:22Z</time>
      </trkpt>
      <trkpt lat="45.28859" lon="5.7666">
        <ele>1278.8</ele>
        <time>2021-11-21T11:11:24Z</time>
      </trkpt>
      <trkpt lat="45.28865" lon="5.76661">
        <ele>1279</ele>
        <time>2021-11-21T11:11:25Z</time>
      </trkpt>
      <trkpt lat="45.28871" lon="5.76661">
        <ele>1279.6</ele>
        <time>2021-11-21T11:11:26Z</time>
      </trkpt>
      <trkpt lat="45.28877" lon="5.76663">
        <ele>1279.8</ele>
        <time>2021-11-21T11:11:27Z</time>
      </trkpt>
      <trkpt lat="45.28883" lon="5.76665">
        <ele>1280.4</ele>
        <time>2021-11-21T11:11:28Z</time>
      </trkpt>
      <trkpt lat="45.28889" lon="5.76668">
        <ele>1281</ele>
        <time>2021-11-21T11:11:29Z</time>
      </trkpt>
      <trkpt lat="45.28895" lon="5.76671">
        <ele>1281.6</ele>
        <time>2021-11-21T11:11:30Z</time>
      </trkpt>
      <trkpt lat="45.28901" lon="5.76673">
        <ele>1282</ele>
        <time>2021-11-21T11:11:31Z</time>
      </trkpt>
      <trkpt lat="45.28907" lon="5.76676">
        <ele>1282.4</ele>
        <time>2021-11-21T11:11:32Z</time>
      </trkpt>
      <trkpt lat="45.28912" lon="5.76678">
        <ele>1282.8</ele>
        <time>2021-11-21T11:11:33Z</time>
      </trkpt>
      <trkpt lat="45.28918" lon="5.7668">
        <ele>1283.2</ele>
        <time>2021-11-21T11:11:34Z</time>
      </trkpt>
      <trkpt lat="45.28924" lon="5.76683">
        <ele>1283.6</ele>
        <time>2021-11-21T11:11:35Z</time>
      </trkpt>
      <trkpt lat="45.28929" lon="5.76686">
        <ele>1284.2</ele>
        <time>2021-11-21T11:11:36Z</time>
      </trkpt>
      <trkpt lat="45.28935" lon="5.76689">
        <ele>1284.4</ele>
        <time>2021-11-21T11:11:37Z</time>
      </trkpt>
      <trkpt lat="45.28941" lon="5.76692">
        <ele>1285</ele>
        <time>2021-11-21T11:11:38Z</time>
      </trkpt>
      <trkpt lat="45.28946" lon="5.76694">
        <ele>1285.2</ele>
        <time>2021-11-21T11:11:39Z</time>
      </trkpt>
      <trkpt lat="45.28952" lon="5.76697">
        <ele>1285.8</ele>
        <time>2021-11-21T11:11:40Z</time>
      </trkpt>
      <trkpt lat="45.28957" lon="5.76699">
        <ele>1286.4</ele>
        <time>2021-11-21T11:11:41Z</time>
      </trkpt>
      <trkpt lat="45.28963" lon="5.76702">
        <ele>1286.6</ele>
        <time>2021-11-21T11:11:42Z</time>
      </trkpt>
      <trkpt lat="45.2897" lon="5.76704">
        <ele>1286.8</ele>
        <time>2021-11-21T11:11:43Z</time>
      </trkpt>
      <trkpt lat="45.28976" lon="5.76705">
        <ele>1287.2</ele>
        <time>2021-11-21T11:11:44Z</time>
      </trkpt>
      <trkpt lat="45.28983" lon="5.76705">
        <ele>1287.4</ele>
        <time>2021-11-21T11:11:45Z</time>
      </trkpt>
      <trkpt lat="45.28991" lon="5.76704">
        <ele>1288</ele>
        <time>2021-11-21T11:11:46Z</time>
      </trkpt>
      <trkpt lat="45.28999" lon="5.76703">
        <ele>1288.8</ele>
        <time>2021-11-21T11:11:47Z</time>
      </trkpt>
      <trkpt lat="45.29007" lon="5.76699">
        <ele>1289.2</ele>
        <time>2021-11-21T11:11:48Z</time>
      </trkpt>
      <trkpt lat="45.29015" lon="5.76694">
        <ele>1289.6</ele>
        <time>2021-11-21T11:11:49Z</time>
      </trkpt>
      <trkpt lat="45.29023" lon="5.7669">
        <ele>1289.8</ele>
        <time>2021-11-21T11:11:50Z</time>
      </trkpt>
      <trkpt lat="45.29031" lon="5.76686">
        <ele>1290.2</ele>
        <time>2021-11-21T11:11:51Z</time>
      </trkpt>
      <trkpt lat="45.29039" lon="5.76682">
        <ele>1290.4</ele>
        <time>2021-11-21T11:11:52Z</time>
      </trkpt>
      <trkpt lat="45.29048" lon="5.76678">
        <ele>1290.8</ele>
        <time>2021-11-21T11:11:53Z</time>
      </trkpt>
      <trkpt lat="45.29056" lon="5.76675">
        <ele>1291.2</ele>
        <time>2021-11-21T11:11:54Z</time>
      </trkpt>
      <trkpt lat="45.29064" lon="5.76672">
        <ele>1291.2</ele>
        <time>2021-11-21T11:11:55Z</time>
      </trkpt>
      <trkpt lat="45.29072" lon="5.76669">
        <ele>1291</ele>
        <time>2021-11-21T11:11:56Z</time>
      </trkpt>
      <trkpt lat="45.2908" lon="5.76667">
        <ele>1291</ele>
        <time>2021-11-21T11:11:57Z</time>
      </trkpt>
      <trkpt lat="45.29088" lon="5.76665">
        <ele>1291</ele>
        <time>2021-11-21T11:11:58Z</time>
      </trkpt>
      <trkpt lat="45.29095" lon="5.76663">
        <ele>1290.8</ele>
        <time>2021-11-21T11:11:59Z</time>
      </trkpt>
      <trkpt lat="45.29103" lon="5.76661">
        <ele>1290.4</ele>
        <time>2021-11-21T11:12:00Z</time>
      </trkpt>
      <trkpt lat="45.29111" lon="5.7666">
        <ele>1290</ele>
        <time>2021-11-21T11:12:01Z</time>
      </trkpt>
      <trkpt lat="45.29118" lon="5.76658">
        <ele>1289.6</ele>
        <time>2021-11-21T11:12:02Z</time>
      </trkpt>
      <trkpt lat="45.29126" lon="5.76657">
        <ele>1289.8</ele>
        <time>2021-11-21T11:12:03Z</time>
      </trkpt>
      <trkpt lat="45.29134" lon="5.76655">
        <ele>1290</ele>
        <time>2021-11-21T11:12:04Z</time>
      </trkpt>
      <trkpt lat="45.29141" lon="5.76654">
        <ele>1290.2</ele>
        <time>2021-11-21T11:12:05Z</time>
      </trkpt>
      <trkpt lat="45.29149" lon="5.76652">
        <ele>1290.4</ele>
        <time>2021-11-21T11:12:06Z</time>
      </trkpt>
      <trkpt lat="45.29156" lon="5.7665">
        <ele>1290.8</ele>
        <time>2021-11-21T11:12:07Z</time>
      </trkpt>
      <trkpt lat="45.29164" lon="5.76648">
        <ele>1290.8</ele>
        <time>2021-11-21T11:12:08Z</time>
      </trkpt>
      <trkpt lat="45.29172" lon="5.76647">
        <ele>1291.2</ele>
        <time>2021-11-21T11:12:09Z</time>
      </trkpt>
      <trkpt lat="45.2918" lon="5.76646">
        <ele>1291.8</ele>
        <time>2021-11-21T11:12:10Z</time>
      </trkpt>
      <trkpt lat="45.29189" lon="5.76645">
        <ele>1292</ele>
        <time>2021-11-21T11:12:11Z</time>
      </trkpt>
      <trkpt lat="45.29197" lon="5.76645">
        <ele>1292.4</ele>
        <time>2021-11-21T11:12:12Z</time>
      </trkpt>
      <trkpt lat="45.29205" lon="5.76645">
        <ele>1292.8</ele>
        <time>2021-11-21T11:12:13Z</time>
      </trkpt>
      <trkpt lat="45.29213" lon="5.76644">
        <ele>1293</ele>
        <time>2021-11-21T11:12:14Z</time>
      </trkpt>
      <trkpt lat="45.29222" lon="5.76643">
        <ele>1293.2</ele>
        <time>2021-11-21T11:12:15Z</time>
      </trkpt>
      <trkpt lat="45.2923" lon="5.76643">
        <ele>1293.6</ele>
        <time>2021-11-21T11:12:16Z</time>
      </trkpt>
      <trkpt lat="45.29237" lon="5.76642">
        <ele>1294</ele>
        <time>2021-11-21T11:12:17Z</time>
      </trkpt>
      <trkpt lat="45.29248" lon="5.76642">
        <ele>1294.6</ele>
        <time>2021-11-21T11:12:19Z</time>
      </trkpt>
      <trkpt lat="45.2925" lon="5.76641">
        <ele>1291.2</ele>
        <time>2021-11-21T11:12:43Z</time>
      </trkpt>
      <trkpt lat="45.29248" lon="5.76641">
        <ele>1291</ele>
        <time>2021-11-21T11:12:51Z</time>
      </trkpt>
      <trkpt lat="45.29249" lon="5.76645">
        <ele>1291.2</ele>
        <time>2021-11-21T11:12:54Z</time>
      </trkpt>
      <trkpt lat="45.29257" lon="5.76638">
        <ele>1291.6</ele>
        <time>2021-11-21T11:13:43Z</time>
      </trkpt>
      <trkpt lat="45.29254" lon="5.76644">
        <ele>1292.2</ele>
        <time>2021-11-21T11:14:03Z</time>
      </trkpt>
      <trkpt lat="45.29263" lon="5.76648">
        <ele>1291.4</ele>
        <time>2021-11-21T11:15:03Z</time>
      </trkpt>
      <trkpt lat="45.29265" lon="5.7665">
        <ele>1291.8</ele>
        <time>2021-11-21T11:16:25Z</time>
      </trkpt>
      <trkpt lat="45.29268" lon="5.76649">
        <ele>1292.2</ele>
        <time>2021-11-21T11:16:35Z</time>
      </trkpt>
      <trkpt lat="45.29271" lon="5.76649">
        <ele>1292.2</ele>
        <time>2021-11-21T11:16:37Z</time>
      </trkpt>
      <trkpt lat="45.29282" lon="5.7665">
        <ele>1292</ele>
        <time>2021-11-21T11:16:41Z</time>
      </trkpt>
      <trkpt lat="45.29291" lon="5.76648">
        <ele>1292.2</ele>
        <time>2021-11-21T11:16:43Z</time>
      </trkpt>
      <trkpt lat="45.29296" lon="5.76647">
        <ele>1292.2</ele>
        <time>2021-11-21T11:16:44Z</time>
      </trkpt>
      <trkpt lat="45.29302" lon="5.76646">
        <ele>1292.2</ele>
        <time>2021-11-21T11:16:45Z</time>
      </trkpt>
      <trkpt lat="45.29308" lon="5.76644">
        <ele>1292.2</ele>
        <time>2021-11-21T11:16:46Z</time>
      </trkpt>
      <trkpt lat="45.29314" lon="5.76642">
        <ele>1292</ele>
        <time>2021-11-21T11:16:47Z</time>
      </trkpt>
      <trkpt lat="45.29321" lon="5.76639">
        <ele>1292</ele>
        <time>2021-11-21T11:16:48Z</time>
      </trkpt>
      <trkpt lat="45.29327" lon="5.76637">
        <ele>1291.8</ele>
        <time>2021-11-21T11:16:49Z</time>
      </trkpt>
      <trkpt lat="45.29334" lon="5.76635">
        <ele>1291.8</ele>
        <time>2021-11-21T11:16:50Z</time>
      </trkpt>
      <trkpt lat="45.29341" lon="5.76633">
        <ele>1291.8</ele>
        <time>2021-11-21T11:16:51Z</time>
      </trkpt>
      <trkpt lat="45.29347" lon="5.76631">
        <ele>1291.8</ele>
        <time>2021-11-21T11:16:52Z</time>
      </trkpt>
      <trkpt lat="45.29354" lon="5.76629">
        <ele>1292</ele>
        <time>2021-11-21T11:16:53Z</time>
      </trkpt>
      <trkpt lat="45.2936" lon="5.76626">
        <ele>1291.8</ele>
        <time>2021-11-21T11:16:54Z</time>
      </trkpt>
      <trkpt lat="45.29366" lon="5.76622">
        <ele>1292</ele>
        <time>2021-11-21T11:16:55Z</time>
      </trkpt>
      <trkpt lat="45.29372" lon="5.76618">
        <ele>1292.4</ele>
        <time>2021-11-21T11:16:56Z</time>
      </trkpt>
      <trkpt lat="45.29379" lon="5.76615">
        <ele>1292.6</ele>
        <time>2021-11-21T11:16:57Z</time>
      </trkpt>
      <trkpt lat="45.29385" lon="5.76611">
        <ele>1292.8</ele>
        <time>2021-11-21T11:16:58Z</time>
      </trkpt>
      <trkpt lat="45.29391" lon="5.76607">
        <ele>1293</ele>
        <time>2021-11-21T11:16:59Z</time>
      </trkpt>
      <trkpt lat="45.29397" lon="5.76603">
        <ele>1293.2</ele>
        <time>2021-11-21T11:17:00Z</time>
      </trkpt>
      <trkpt lat="45.29403" lon="5.76598">
        <ele>1293.2</ele>
        <time>2021-11-21T11:17:01Z</time>
      </trkpt>
      <trkpt lat="45.29409" lon="5.76593">
        <ele>1293.2</ele>
        <time>2021-11-21T11:17:02Z</time>
      </trkpt>
      <trkpt lat="45.29415" lon="5.76587">
        <ele>1293.4</ele>
        <time>2021-11-21T11:17:03Z</time>
      </trkpt>
      <trkpt lat="45.2942" lon="5.76581">
        <ele>1293.4</ele>
        <time>2021-11-21T11:17:04Z</time>
      </trkpt>
      <trkpt lat="45.29425" lon="5.76574">
        <ele>1293.8</ele>
        <time>2021-11-21T11:17:05Z</time>
      </trkpt>
      <trkpt lat="45.29429" lon="5.76568">
        <ele>1294.4</ele>
        <time>2021-11-21T11:17:06Z</time>
      </trkpt>
      <trkpt lat="45.29433" lon="5.7656">
        <ele>1294.6</ele>
        <time>2021-11-21T11:17:07Z</time>
      </trkpt>
      <trkpt lat="45.29437" lon="5.76552">
        <ele>1294.6</ele>
        <time>2021-11-21T11:17:08Z</time>
      </trkpt>
      <trkpt lat="45.2944" lon="5.76544">
        <ele>1295.2</ele>
        <time>2021-11-21T11:17:09Z</time>
      </trkpt>
      <trkpt lat="45.29444" lon="5.76536">
        <ele>1295.2</ele>
        <time>2021-11-21T11:17:10Z</time>
      </trkpt>
      <trkpt lat="45.29448" lon="5.76527">
        <ele>1295</ele>
        <time>2021-11-21T11:17:11Z</time>
      </trkpt>
      <trkpt lat="45.29453" lon="5.76518">
        <ele>1295.2</ele>
        <time>2021-11-21T11:17:12Z</time>
      </trkpt>
      <trkpt lat="45.29462" lon="5.765">
        <ele>1296</ele>
        <time>2021-11-21T11:17:14Z</time>
      </trkpt>
      <trkpt lat="45.29466" lon="5.76492">
        <ele>1296</ele>
        <time>2021-11-21T11:17:15Z</time>
      </trkpt>
      <trkpt lat="45.2947" lon="5.76483">
        <ele>1296.2</ele>
        <time>2021-11-21T11:17:16Z</time>
      </trkpt>
      <trkpt lat="45.29472" lon="5.76473">
        <ele>1296.2</ele>
        <time>2021-11-21T11:17:17Z</time>
      </trkpt>
      <trkpt lat="45.29472" lon="5.76463">
        <ele>1296.4</ele>
        <time>2021-11-21T11:17:18Z</time>
      </trkpt>
      <trkpt lat="45.29471" lon="5.76453">
        <ele>1296.4</ele>
        <time>2021-11-21T11:17:19Z</time>
      </trkpt>
      <trkpt lat="45.29468" lon="5.76442">
        <ele>1296.4</ele>
        <time>2021-11-21T11:17:20Z</time>
      </trkpt>
      <trkpt lat="45.29464" lon="5.76431">
        <ele>1296</ele>
        <time>2021-11-21T11:17:21Z</time>
      </trkpt>
      <trkpt lat="45.29459" lon="5.76421">
        <ele>1295.8</ele>
        <time>2021-11-21T11:17:22Z</time>
      </trkpt>
      <trkpt lat="45.29455" lon="5.7641">
        <ele>1295.4</ele>
        <time>2021-11-21T11:17:23Z</time>
      </trkpt>
      <trkpt lat="45.2945" lon="5.764">
        <ele>1295.4</ele>
        <time>2021-11-21T11:17:24Z</time>
      </trkpt>
      <trkpt lat="45.29445" lon="5.76389">
        <ele>1295.4</ele>
        <time>2021-11-21T11:17:25Z</time>
      </trkpt>
      <trkpt lat="45.29441" lon="5.76379">
        <ele>1295</ele>
        <time>2021-11-21T11:17:26Z</time>
      </trkpt>
      <trkpt lat="45.29437" lon="5.76368">
        <ele>1294.8</ele>
        <time>2021-11-21T11:17:27Z</time>
      </trkpt>
      <trkpt lat="45.29435" lon="5.76358">
        <ele>1294.8</ele>
        <time>2021-11-21T11:17:28Z</time>
      </trkpt>
      <trkpt lat="45.29435" lon="5.76347">
        <ele>1294.8</ele>
        <time>2021-11-21T11:17:29Z</time>
      </trkpt>
      <trkpt lat="45.29438" lon="5.76337">
        <ele>1294.6</ele>
        <time>2021-11-21T11:17:30Z</time>
      </trkpt>
      <trkpt lat="45.29443" lon="5.76328">
        <ele>1294.4</ele>
        <time>2021-11-21T11:17:31Z</time>
      </trkpt>
      <trkpt lat="45.29449" lon="5.76322">
        <ele>1293.8</ele>
        <time>2021-11-21T11:17:32Z</time>
      </trkpt>
      <trkpt lat="45.29456" lon="5.76318">
        <ele>1293.6</ele>
        <time>2021-11-21T11:17:33Z</time>
      </trkpt>
      <trkpt lat="45.29464" lon="5.76315">
        <ele>1293.4</ele>
        <time>2021-11-21T11:17:34Z</time>
      </trkpt>
      <trkpt lat="45.29472" lon="5.76313">
        <ele>1293</ele>
        <time>2021-11-21T11:17:35Z</time>
      </trkpt>
      <trkpt lat="45.29479" lon="5.7631">
        <ele>1292.4</ele>
        <time>2021-11-21T11:17:36Z</time>
      </trkpt>
      <trkpt lat="45.29487" lon="5.76305">
        <ele>1291.6</ele>
        <time>2021-11-21T11:17:37Z</time>
      </trkpt>
      <trkpt lat="45.29494" lon="5.76299">
        <ele>1291.2</ele>
        <time>2021-11-21T11:17:38Z</time>
      </trkpt>
      <trkpt lat="45.29501" lon="5.76292">
        <ele>1290.8</ele>
        <time>2021-11-21T11:17:39Z</time>
      </trkpt>
      <trkpt lat="45.29506" lon="5.76283">
        <ele>1290</ele>
        <time>2021-11-21T11:17:40Z</time>
      </trkpt>
      <trkpt lat="45.2951" lon="5.76272">
        <ele>1289.8</ele>
        <time>2021-11-21T11:17:41Z</time>
      </trkpt>
      <trkpt lat="45.29513" lon="5.76261">
        <ele>1289.4</ele>
        <time>2021-11-21T11:17:42Z</time>
      </trkpt>
      <trkpt lat="45.29514" lon="5.76249">
        <ele>1289.2</ele>
        <time>2021-11-21T11:17:43Z</time>
      </trkpt>
      <trkpt lat="45.29515" lon="5.76237">
        <ele>1289</ele>
        <time>2021-11-21T11:17:44Z</time>
      </trkpt>
      <trkpt lat="45.29515" lon="5.76225">
        <ele>1288.6</ele>
        <time>2021-11-21T11:17:45Z</time>
      </trkpt>
      <trkpt lat="45.29516" lon="5.76212">
        <ele>1288.2</ele>
        <time>2021-11-21T11:17:46Z</time>
      </trkpt>
      <trkpt lat="45.29517" lon="5.762">
        <ele>1287.6</ele>
        <time>2021-11-21T11:17:47Z</time>
      </trkpt>
      <trkpt lat="45.29519" lon="5.76188">
        <ele>1287.4</ele>
        <time>2021-11-21T11:17:48Z</time>
      </trkpt>
      <trkpt lat="45.29521" lon="5.76176">
        <ele>1287.4</ele>
        <time>2021-11-21T11:17:49Z</time>
      </trkpt>
      <trkpt lat="45.29525" lon="5.76165">
        <ele>1286.8</ele>
        <time>2021-11-21T11:17:50Z</time>
      </trkpt>
      <trkpt lat="45.2953" lon="5.76156">
        <ele>1286.6</ele>
        <time>2021-11-21T11:17:51Z</time>
      </trkpt>
      <trkpt lat="45.29538" lon="5.76149">
        <ele>1286.2</ele>
        <time>2021-11-21T11:17:52Z</time>
      </trkpt>
      <trkpt lat="45.29546" lon="5.76144">
        <ele>1286</ele>
        <time>2021-11-21T11:17:53Z</time>
      </trkpt>
      <trkpt lat="45.29555" lon="5.76142">
        <ele>1286</ele>
        <time>2021-11-21T11:17:54Z</time>
      </trkpt>
      <trkpt lat="45.29563" lon="5.76142">
        <ele>1285.4</ele>
        <time>2021-11-21T11:17:55Z</time>
      </trkpt>
      <trkpt lat="45.29571" lon="5.76143">
        <ele>1285.2</ele>
        <time>2021-11-21T11:17:56Z</time>
      </trkpt>
      <trkpt lat="45.29579" lon="5.76143">
        <ele>1284.4</ele>
        <time>2021-11-21T11:17:57Z</time>
      </trkpt>
      <trkpt lat="45.29587" lon="5.76142">
        <ele>1284.2</ele>
        <time>2021-11-21T11:17:58Z</time>
      </trkpt>
      <trkpt lat="45.29595" lon="5.76139">
        <ele>1283.8</ele>
        <time>2021-11-21T11:17:59Z</time>
      </trkpt>
      <trkpt lat="45.29602" lon="5.76135">
        <ele>1283.8</ele>
        <time>2021-11-21T11:18:00Z</time>
      </trkpt>
      <trkpt lat="45.29609" lon="5.76131">
        <ele>1283.4</ele>
        <time>2021-11-21T11:18:01Z</time>
      </trkpt>
      <trkpt lat="45.29616" lon="5.76125">
        <ele>1283</ele>
        <time>2021-11-21T11:18:02Z</time>
      </trkpt>
      <trkpt lat="45.29622" lon="5.76118">
        <ele>1282.8</ele>
        <time>2021-11-21T11:18:03Z</time>
      </trkpt>
      <trkpt lat="45.29628" lon="5.76109">
        <ele>1282.2</ele>
        <time>2021-11-21T11:18:04Z</time>
      </trkpt>
      <trkpt lat="45.29633" lon="5.761">
        <ele>1281.6</ele>
        <time>2021-11-21T11:18:05Z</time>
      </trkpt>
      <trkpt lat="45.29638" lon="5.76091">
        <ele>1281.6</ele>
        <time>2021-11-21T11:18:06Z</time>
      </trkpt>
      <trkpt lat="45.29643" lon="5.76081">
        <ele>1281.2</ele>
        <time>2021-11-21T11:18:07Z</time>
      </trkpt>
      <trkpt lat="45.29647" lon="5.76071">
        <ele>1281.2</ele>
        <time>2021-11-21T11:18:08Z</time>
      </trkpt>
      <trkpt lat="45.2965" lon="5.7606">
        <ele>1280.8</ele>
        <time>2021-11-21T11:18:09Z</time>
      </trkpt>
      <trkpt lat="45.29653" lon="5.76049">
        <ele>1280.8</ele>
        <time>2021-11-21T11:18:10Z</time>
      </trkpt>
      <trkpt lat="45.29655" lon="5.76025">
        <ele>1280.6</ele>
        <time>2021-11-21T11:18:12Z</time>
      </trkpt>
      <trkpt lat="45.29655" lon="5.76012">
        <ele>1280.6</ele>
        <time>2021-11-21T11:18:13Z</time>
      </trkpt>
      <trkpt lat="45.29655" lon="5.75999">
        <ele>1280.6</ele>
        <time>2021-11-21T11:18:14Z</time>
      </trkpt>
      <trkpt lat="45.29656" lon="5.75987">
        <ele>1280.6</ele>
        <time>2021-11-21T11:18:15Z</time>
      </trkpt>
      <trkpt lat="45.29656" lon="5.75974">
        <ele>1281</ele>
        <time>2021-11-21T11:18:16Z</time>
      </trkpt>
      <trkpt lat="45.29656" lon="5.75961">
        <ele>1281.2</ele>
        <time>2021-11-21T11:18:17Z</time>
      </trkpt>
      <trkpt lat="45.29657" lon="5.75947">
        <ele>1281.2</ele>
        <time>2021-11-21T11:18:18Z</time>
      </trkpt>
      <trkpt lat="45.29658" lon="5.75934">
        <ele>1281.4</ele>
        <time>2021-11-21T11:18:19Z</time>
      </trkpt>
      <trkpt lat="45.29659" lon="5.75921">
        <ele>1281.4</ele>
        <time>2021-11-21T11:18:20Z</time>
      </trkpt>
      <trkpt lat="45.2966" lon="5.75907">
        <ele>1280.8</ele>
        <time>2021-11-21T11:18:21Z</time>
      </trkpt>
      <trkpt lat="45.29662" lon="5.75894">
        <ele>1280</ele>
        <time>2021-11-21T11:18:22Z</time>
      </trkpt>
      <trkpt lat="45.29664" lon="5.75881">
        <ele>1280.4</ele>
        <time>2021-11-21T11:18:23Z</time>
      </trkpt>
      <trkpt lat="45.29667" lon="5.75869">
        <ele>1280.2</ele>
        <time>2021-11-21T11:18:24Z</time>
      </trkpt>
      <trkpt lat="45.2967" lon="5.75856">
        <ele>1280.2</ele>
        <time>2021-11-21T11:18:25Z</time>
      </trkpt>
      <trkpt lat="45.29673" lon="5.75844">
        <ele>1280.6</ele>
        <time>2021-11-21T11:18:26Z</time>
      </trkpt>
      <trkpt lat="45.2968" lon="5.75822">
        <ele>1280</ele>
        <time>2021-11-21T11:18:28Z</time>
      </trkpt>
      <trkpt lat="45.29693" lon="5.7581">
        <ele>1279.8</ele>
        <time>2021-11-21T11:18:30Z</time>
      </trkpt>
      <trkpt lat="45.29703" lon="5.7581">
        <ele>1279.4</ele>
        <time>2021-11-21T11:18:31Z</time>
      </trkpt>
      <trkpt lat="45.29714" lon="5.75813">
        <ele>1279.2</ele>
        <time>2021-11-21T11:18:32Z</time>
      </trkpt>
      <trkpt lat="45.29724" lon="5.75817">
        <ele>1279.2</ele>
        <time>2021-11-21T11:18:33Z</time>
      </trkpt>
      <trkpt lat="45.29738" lon="5.75826">
        <ele>1278.8</ele>
        <time>2021-11-21T11:18:35Z</time>
      </trkpt>
      <trkpt lat="45.29749" lon="5.75837">
        <ele>1279.4</ele>
        <time>2021-11-21T11:18:37Z</time>
      </trkpt>
      <trkpt lat="45.29761" lon="5.75835">
        <ele>1279.6</ele>
        <time>2021-11-21T11:18:39Z</time>
      </trkpt>
      <trkpt lat="45.29764" lon="5.75829">
        <ele>1280</ele>
        <time>2021-11-21T11:18:40Z</time>
      </trkpt>
      <trkpt lat="45.29764" lon="5.75821">
        <ele>1279.8</ele>
        <time>2021-11-21T11:18:41Z</time>
      </trkpt>
      <trkpt lat="45.29763" lon="5.75813">
        <ele>1280.6</ele>
        <time>2021-11-21T11:18:42Z</time>
      </trkpt>
      <trkpt lat="45.29762" lon="5.75804">
        <ele>1281.4</ele>
        <time>2021-11-21T11:18:43Z</time>
      </trkpt>
      <trkpt lat="45.29759" lon="5.75796">
        <ele>1282</ele>
        <time>2021-11-21T11:18:44Z</time>
      </trkpt>
      <trkpt lat="45.29757" lon="5.75787">
        <ele>1282.6</ele>
        <time>2021-11-21T11:18:45Z</time>
      </trkpt>
      <trkpt lat="45.29755" lon="5.75779">
        <ele>1283</ele>
        <time>2021-11-21T11:18:46Z</time>
      </trkpt>
      <trkpt lat="45.29753" lon="5.7577">
        <ele>1283.8</ele>
        <time>2021-11-21T11:18:47Z</time>
      </trkpt>
      <trkpt lat="45.29752" lon="5.75761">
        <ele>1284.2</ele>
        <time>2021-11-21T11:18:48Z</time>
      </trkpt>
      <trkpt lat="45.29751" lon="5.75751">
        <ele>1284.4</ele>
        <time>2021-11-21T11:18:49Z</time>
      </trkpt>
      <trkpt lat="45.2975" lon="5.75742">
        <ele>1285</ele>
        <time>2021-11-21T11:18:50Z</time>
      </trkpt>
      <trkpt lat="45.29749" lon="5.75732">
        <ele>1285.8</ele>
        <time>2021-11-21T11:18:51Z</time>
      </trkpt>
      <trkpt lat="45.29749" lon="5.75723">
        <ele>1286.6</ele>
        <time>2021-11-21T11:18:52Z</time>
      </trkpt>
      <trkpt lat="45.29749" lon="5.75713">
        <ele>1287.4</ele>
        <time>2021-11-21T11:18:53Z</time>
      </trkpt>
      <trkpt lat="45.29748" lon="5.75702">
        <ele>1287.6</ele>
        <time>2021-11-21T11:18:54Z</time>
      </trkpt>
      <trkpt lat="45.29747" lon="5.75692">
        <ele>1288.4</ele>
        <time>2021-11-21T11:18:55Z</time>
      </trkpt>
      <trkpt lat="45.29747" lon="5.75682">
        <ele>1289</ele>
        <time>2021-11-21T11:18:56Z</time>
      </trkpt>
      <trkpt lat="45.29746" lon="5.75672">
        <ele>1289.6</ele>
        <time>2021-11-21T11:18:57Z</time>
      </trkpt>
      <trkpt lat="45.29746" lon="5.75662">
        <ele>1290</ele>
        <time>2021-11-21T11:18:58Z</time>
      </trkpt>
      <trkpt lat="45.29745" lon="5.75653">
        <ele>1290.6</ele>
        <time>2021-11-21T11:18:59Z</time>
      </trkpt>
      <trkpt lat="45.29746" lon="5.75644">
        <ele>1290.8</ele>
        <time>2021-11-21T11:19:00Z</time>
      </trkpt>
      <trkpt lat="45.29747" lon="5.75634">
        <ele>1291.4</ele>
        <time>2021-11-21T11:19:01Z</time>
      </trkpt>
      <trkpt lat="45.29748" lon="5.75624">
        <ele>1291.6</ele>
        <time>2021-11-21T11:19:02Z</time>
      </trkpt>
      <trkpt lat="45.29751" lon="5.75605">
        <ele>1292.4</ele>
        <time>2021-11-21T11:19:04Z</time>
      </trkpt>
      <trkpt lat="45.29759" lon="5.7559">
        <ele>1293.8</ele>
        <time>2021-11-21T11:19:06Z</time>
      </trkpt>
      <trkpt lat="45.29764" lon="5.75584">
        <ele>1294.2</ele>
        <time>2021-11-21T11:19:07Z</time>
      </trkpt>
      <trkpt lat="45.29769" lon="5.75579">
        <ele>1295</ele>
        <time>2021-11-21T11:19:08Z</time>
      </trkpt>
      <trkpt lat="45.29781" lon="5.75572">
        <ele>1295</ele>
        <time>2021-11-21T11:19:10Z</time>
      </trkpt>
      <trkpt lat="45.29787" lon="5.75568">
        <ele>1295.8</ele>
        <time>2021-11-21T11:19:11Z</time>
      </trkpt>
      <trkpt lat="45.29793" lon="5.75564">
        <ele>1297</ele>
        <time>2021-11-21T11:19:12Z</time>
      </trkpt>
      <trkpt lat="45.29797" lon="5.7556">
        <ele>1297.6</ele>
        <time>2021-11-21T11:19:13Z</time>
      </trkpt>
      <trkpt lat="45.29802" lon="5.75555">
        <ele>1298</ele>
        <time>2021-11-21T11:19:14Z</time>
      </trkpt>
      <trkpt lat="45.29807" lon="5.7555">
        <ele>1298.8</ele>
        <time>2021-11-21T11:19:15Z</time>
      </trkpt>
      <trkpt lat="45.29811" lon="5.75544">
        <ele>1299.6</ele>
        <time>2021-11-21T11:19:16Z</time>
      </trkpt>
      <trkpt lat="45.29813" lon="5.75536">
        <ele>1300.6</ele>
        <time>2021-11-21T11:19:17Z</time>
      </trkpt>
      <trkpt lat="45.29814" lon="5.75529">
        <ele>1301.2</ele>
        <time>2021-11-21T11:19:18Z</time>
      </trkpt>
      <trkpt lat="45.29815" lon="5.75521">
        <ele>1301.8</ele>
        <time>2021-11-21T11:19:19Z</time>
      </trkpt>
      <trkpt lat="45.29816" lon="5.75512">
        <ele>1302.2</ele>
        <time>2021-11-21T11:19:20Z</time>
      </trkpt>
      <trkpt lat="45.29815" lon="5.75504">
        <ele>1302.8</ele>
        <time>2021-11-21T11:19:21Z</time>
      </trkpt>
      <trkpt lat="45.29815" lon="5.75496">
        <ele>1303.6</ele>
        <time>2021-11-21T11:19:22Z</time>
      </trkpt>
      <trkpt lat="45.29813" lon="5.75487">
        <ele>1304.2</ele>
        <time>2021-11-21T11:19:23Z</time>
      </trkpt>
      <trkpt lat="45.29812" lon="5.75479">
        <ele>1305.2</ele>
        <time>2021-11-21T11:19:24Z</time>
      </trkpt>
      <trkpt lat="45.2981" lon="5.75471">
        <ele>1305.8</ele>
        <time>2021-11-21T11:19:25Z</time>
      </trkpt>
      <trkpt lat="45.29808" lon="5.75463">
        <ele>1306.2</ele>
        <time>2021-11-21T11:19:26Z</time>
      </trkpt>
      <trkpt lat="45.29805" lon="5.75455">
        <ele>1306.6</ele>
        <time>2021-11-21T11:19:27Z</time>
      </trkpt>
      <trkpt lat="45.29803" lon="5.75446">
        <ele>1307.6</ele>
        <time>2021-11-21T11:19:28Z</time>
      </trkpt>
      <trkpt lat="45.29802" lon="5.75438">
        <ele>1308</ele>
        <time>2021-11-21T11:19:29Z</time>
      </trkpt>
      <trkpt lat="45.298" lon="5.7543">
        <ele>1308.2</ele>
        <time>2021-11-21T11:19:30Z</time>
      </trkpt>
      <trkpt lat="45.29798" lon="5.75422">
        <ele>1308.6</ele>
        <time>2021-11-21T11:19:31Z</time>
      </trkpt>
      <trkpt lat="45.29798" lon="5.75414">
        <ele>1309.4</ele>
        <time>2021-11-21T11:19:32Z</time>
      </trkpt>
      <trkpt lat="45.29797" lon="5.75406">
        <ele>1310</ele>
        <time>2021-11-21T11:19:33Z</time>
      </trkpt>
      <trkpt lat="45.29797" lon="5.75398">
        <ele>1310.8</ele>
        <time>2021-11-21T11:19:34Z</time>
      </trkpt>
      <trkpt lat="45.29796" lon="5.7539">
        <ele>1311.4</ele>
        <time>2021-11-21T11:19:35Z</time>
      </trkpt>
      <trkpt lat="45.29796" lon="5.75382">
        <ele>1312</ele>
        <time>2021-11-21T11:19:36Z</time>
      </trkpt>
      <trkpt lat="45.29795" lon="5.75374">
        <ele>1312.4</ele>
        <time>2021-11-21T11:19:37Z</time>
      </trkpt>
      <trkpt lat="45.29794" lon="5.75366">
        <ele>1312.8</ele>
        <time>2021-11-21T11:19:38Z</time>
      </trkpt>
      <trkpt lat="45.29793" lon="5.75358">
        <ele>1313.8</ele>
        <time>2021-11-21T11:19:39Z</time>
      </trkpt>
      <trkpt lat="45.29792" lon="5.7535">
        <ele>1314.2</ele>
        <time>2021-11-21T11:19:40Z</time>
      </trkpt>
      <trkpt lat="45.29792" lon="5.75341">
        <ele>1315.2</ele>
        <time>2021-11-21T11:19:41Z</time>
      </trkpt>
      <trkpt lat="45.29791" lon="5.75333">
        <ele>1315.4</ele>
        <time>2021-11-21T11:19:42Z</time>
      </trkpt>
      <trkpt lat="45.29791" lon="5.75325">
        <ele>1316.4</ele>
        <time>2021-11-21T11:19:43Z</time>
      </trkpt>
      <trkpt lat="45.2979" lon="5.75317">
        <ele>1317</ele>
        <time>2021-11-21T11:19:44Z</time>
      </trkpt>
      <trkpt lat="45.2979" lon="5.75308">
        <ele>1317.8</ele>
        <time>2021-11-21T11:19:45Z</time>
      </trkpt>
      <trkpt lat="45.29789" lon="5.753">
        <ele>1318.4</ele>
        <time>2021-11-21T11:19:46Z</time>
      </trkpt>
      <trkpt lat="45.29789" lon="5.75292">
        <ele>1319.4</ele>
        <time>2021-11-21T11:19:47Z</time>
      </trkpt>
      <trkpt lat="45.29789" lon="5.75284">
        <ele>1320.2</ele>
        <time>2021-11-21T11:19:48Z</time>
      </trkpt>
      <trkpt lat="45.29789" lon="5.75276">
        <ele>1320.6</ele>
        <time>2021-11-21T11:19:49Z</time>
      </trkpt>
      <trkpt lat="45.2979" lon="5.75268">
        <ele>1321.4</ele>
        <time>2021-11-21T11:19:50Z</time>
      </trkpt>
      <trkpt lat="45.29792" lon="5.7526">
        <ele>1321.8</ele>
        <time>2021-11-21T11:19:51Z</time>
      </trkpt>
      <trkpt lat="45.29794" lon="5.75252">
        <ele>1322.6</ele>
        <time>2021-11-21T11:19:52Z</time>
      </trkpt>
      <trkpt lat="45.29797" lon="5.75245">
        <ele>1323.4</ele>
        <time>2021-11-21T11:19:53Z</time>
      </trkpt>
      <trkpt lat="45.29802" lon="5.75239">
        <ele>1323.8</ele>
        <time>2021-11-21T11:19:54Z</time>
      </trkpt>
      <trkpt lat="45.29807" lon="5.75234">
        <ele>1324.4</ele>
        <time>2021-11-21T11:19:55Z</time>
      </trkpt>
      <trkpt lat="45.29814" lon="5.7523">
        <ele>1325.2</ele>
        <time>2021-11-21T11:19:56Z</time>
      </trkpt>
      <trkpt lat="45.2982" lon="5.75228">
        <ele>1325.2</ele>
        <time>2021-11-21T11:19:57Z</time>
      </trkpt>
      <trkpt lat="45.29826" lon="5.75227">
        <ele>1325.6</ele>
        <time>2021-11-21T11:19:58Z</time>
      </trkpt>
      <trkpt lat="45.29833" lon="5.75226">
        <ele>1326.4</ele>
        <time>2021-11-21T11:19:59Z</time>
      </trkpt>
      <trkpt lat="45.29839" lon="5.75225">
        <ele>1327</ele>
        <time>2021-11-21T11:20:00Z</time>
      </trkpt>
      <trkpt lat="45.29851" lon="5.7523">
        <ele>1328.2</ele>
        <time>2021-11-21T11:20:02Z</time>
      </trkpt>
      <trkpt lat="45.29864" lon="5.75238">
        <ele>1329.4</ele>
        <time>2021-11-21T11:20:04Z</time>
      </trkpt>
      <trkpt lat="45.29878" lon="5.75243">
        <ele>1330.4</ele>
        <time>2021-11-21T11:20:06Z</time>
      </trkpt>
      <trkpt lat="45.29885" lon="5.75243">
        <ele>1330.8</ele>
        <time>2021-11-21T11:20:07Z</time>
      </trkpt>
      <trkpt lat="45.29897" lon="5.75239">
        <ele>1332.2</ele>
        <time>2021-11-21T11:20:09Z</time>
      </trkpt>
      <trkpt lat="45.29903" lon="5.75234">
        <ele>1332.8</ele>
        <time>2021-11-21T11:20:10Z</time>
      </trkpt>
      <trkpt lat="45.29909" lon="5.75227">
        <ele>1332.8</ele>
        <time>2021-11-21T11:20:11Z</time>
      </trkpt>
      <trkpt lat="45.29916" lon="5.7522">
        <ele>1333.8</ele>
        <time>2021-11-21T11:20:12Z</time>
      </trkpt>
      <trkpt lat="45.29922" lon="5.75214">
        <ele>1334.4</ele>
        <time>2021-11-21T11:20:13Z</time>
      </trkpt>
      <trkpt lat="45.29928" lon="5.7521">
        <ele>1334.8</ele>
        <time>2021-11-21T11:20:14Z</time>
      </trkpt>
      <trkpt lat="45.29935" lon="5.75209">
        <ele>1334.4</ele>
        <time>2021-11-21T11:20:15Z</time>
      </trkpt>
      <trkpt lat="45.29942" lon="5.75211">
        <ele>1334.8</ele>
        <time>2021-11-21T11:20:16Z</time>
      </trkpt>
      <trkpt lat="45.29948" lon="5.75216">
        <ele>1335.2</ele>
        <time>2021-11-21T11:20:17Z</time>
      </trkpt>
      <trkpt lat="45.29953" lon="5.75225">
        <ele>1335.6</ele>
        <time>2021-11-21T11:20:18Z</time>
      </trkpt>
      <trkpt lat="45.29957" lon="5.75234">
        <ele>1335.8</ele>
        <time>2021-11-21T11:20:19Z</time>
      </trkpt>
      <trkpt lat="45.2996" lon="5.75243">
        <ele>1336.2</ele>
        <time>2021-11-21T11:20:20Z</time>
      </trkpt>
      <trkpt lat="45.29963" lon="5.75252">
        <ele>1336.4</ele>
        <time>2021-11-21T11:20:21Z</time>
      </trkpt>
      <trkpt lat="45.29965" lon="5.75261">
        <ele>1336.8</ele>
        <time>2021-11-21T11:20:22Z</time>
      </trkpt>
      <trkpt lat="45.29968" lon="5.75269">
        <ele>1337.2</ele>
        <time>2021-11-21T11:20:23Z</time>
      </trkpt>
      <trkpt lat="45.2997" lon="5.75277">
        <ele>1337.6</ele>
        <time>2021-11-21T11:20:24Z</time>
      </trkpt>
      <trkpt lat="45.29973" lon="5.75285">
        <ele>1337.8</ele>
        <time>2021-11-21T11:20:25Z</time>
      </trkpt>
      <trkpt lat="45.29975" lon="5.75292">
        <ele>1338.4</ele>
        <time>2021-11-21T11:20:26Z</time>
      </trkpt>
      <trkpt lat="45.29979" lon="5.75298">
        <ele>1339</ele>
        <time>2021-11-21T11:20:27Z</time>
      </trkpt>
      <trkpt lat="45.29984" lon="5.75304">
        <ele>1339.6</ele>
        <time>2021-11-21T11:20:28Z</time>
      </trkpt>
      <trkpt lat="45.29994" lon="5.75312">
        <ele>1340.6</ele>
        <time>2021-11-21T11:20:30Z</time>
      </trkpt>
      <trkpt lat="45.30005" lon="5.7532">
        <ele>1341.6</ele>
        <time>2021-11-21T11:20:32Z</time>
      </trkpt>
      <trkpt lat="45.30016" lon="5.75329">
        <ele>1343.4</ele>
        <time>2021-11-21T11:20:34Z</time>
      </trkpt>
      <trkpt lat="45.30026" lon="5.75338">
        <ele>1344.2</ele>
        <time>2021-11-21T11:20:36Z</time>
      </trkpt>
      <trkpt lat="45.30036" lon="5.75348">
        <ele>1345.6</ele>
        <time>2021-11-21T11:20:38Z</time>
      </trkpt>
      <trkpt lat="45.30045" lon="5.75357">
        <ele>1347</ele>
        <time>2021-11-21T11:20:40Z</time>
      </trkpt>
      <trkpt lat="45.30054" lon="5.75368">
        <ele>1348.4</ele>
        <time>2021-11-21T11:20:42Z</time>
      </trkpt>
      <trkpt lat="45.3006" lon="5.75381">
        <ele>1349.6</ele>
        <time>2021-11-21T11:20:44Z</time>
      </trkpt>
      <trkpt lat="45.30067" lon="5.75392">
        <ele>1351</ele>
        <time>2021-11-21T11:20:46Z</time>
      </trkpt>
      <trkpt lat="45.30074" lon="5.75402">
        <ele>1352</ele>
        <time>2021-11-21T11:20:48Z</time>
      </trkpt>
      <trkpt lat="45.30081" lon="5.75412">
        <ele>1352.8</ele>
        <time>2021-11-21T11:20:50Z</time>
      </trkpt>
      <trkpt lat="45.30089" lon="5.75422">
        <ele>1354</ele>
        <time>2021-11-21T11:20:52Z</time>
      </trkpt>
      <trkpt lat="45.30096" lon="5.75433">
        <ele>1355.6</ele>
        <time>2021-11-21T11:20:54Z</time>
      </trkpt>
      <trkpt lat="45.30103" lon="5.75443">
        <ele>1357.6</ele>
        <time>2021-11-21T11:20:56Z</time>
      </trkpt>
      <trkpt lat="45.3011" lon="5.75455">
        <ele>1358.6</ele>
        <time>2021-11-21T11:20:58Z</time>
      </trkpt>
      <trkpt lat="45.30114" lon="5.75471">
        <ele>1359.4</ele>
        <time>2021-11-21T11:21:00Z</time>
      </trkpt>
      <trkpt lat="45.30121" lon="5.75483">
        <ele>1360.8</ele>
        <time>2021-11-21T11:21:02Z</time>
      </trkpt>
      <trkpt lat="45.30131" lon="5.75493">
        <ele>1362</ele>
        <time>2021-11-21T11:21:04Z</time>
      </trkpt>
      <trkpt lat="45.30143" lon="5.75501">
        <ele>1363.4</ele>
        <time>2021-11-21T11:21:06Z</time>
      </trkpt>
      <trkpt lat="45.30156" lon="5.75508">
        <ele>1365</ele>
        <time>2021-11-21T11:21:08Z</time>
      </trkpt>
      <trkpt lat="45.30169" lon="5.75513">
        <ele>1366.6</ele>
        <time>2021-11-21T11:21:10Z</time>
      </trkpt>
      <trkpt lat="45.30181" lon="5.75518">
        <ele>1367.4</ele>
        <time>2021-11-21T11:21:12Z</time>
      </trkpt>
      <trkpt lat="45.30192" lon="5.75527">
        <ele>1368.4</ele>
        <time>2021-11-21T11:21:14Z</time>
      </trkpt>
      <trkpt lat="45.30202" lon="5.75536">
        <ele>1369.6</ele>
        <time>2021-11-21T11:21:16Z</time>
      </trkpt>
      <trkpt lat="45.30211" lon="5.75544">
        <ele>1369.6</ele>
        <time>2021-11-21T11:21:18Z</time>
      </trkpt>
      <trkpt lat="45.30221" lon="5.75554">
        <ele>1371.8</ele>
        <time>2021-11-21T11:21:20Z</time>
      </trkpt>
      <trkpt lat="45.3023" lon="5.75563">
        <ele>1373</ele>
        <time>2021-11-21T11:21:22Z</time>
      </trkpt>
      <trkpt lat="45.30238" lon="5.75573">
        <ele>1374.2</ele>
        <time>2021-11-21T11:21:24Z</time>
      </trkpt>
      <trkpt lat="45.30245" lon="5.75585">
        <ele>1375.4</ele>
        <time>2021-11-21T11:21:26Z</time>
      </trkpt>
      <trkpt lat="45.30251" lon="5.756">
        <ele>1377</ele>
        <time>2021-11-21T11:21:28Z</time>
      </trkpt>
      <trkpt lat="45.30254" lon="5.75619">
        <ele>1378.2</ele>
        <time>2021-11-21T11:21:30Z</time>
      </trkpt>
      <trkpt lat="45.3026" lon="5.75634">
        <ele>1379.6</ele>
        <time>2021-11-21T11:21:32Z</time>
      </trkpt>
      <trkpt lat="45.30267" lon="5.75645">
        <ele>1380.6</ele>
        <time>2021-11-21T11:21:34Z</time>
      </trkpt>
      <trkpt lat="45.30279" lon="5.75651">
        <ele>1382</ele>
        <time>2021-11-21T11:21:36Z</time>
      </trkpt>
      <trkpt lat="45.30292" lon="5.75655">
        <ele>1383.2</ele>
        <time>2021-11-21T11:21:38Z</time>
      </trkpt>
      <trkpt lat="45.30303" lon="5.75658">
        <ele>1384.8</ele>
        <time>2021-11-21T11:21:40Z</time>
      </trkpt>
      <trkpt lat="45.30313" lon="5.75662">
        <ele>1386.2</ele>
        <time>2021-11-21T11:21:42Z</time>
      </trkpt>
      <trkpt lat="45.30325" lon="5.75665">
        <ele>1387.4</ele>
        <time>2021-11-21T11:21:44Z</time>
      </trkpt>
      <trkpt lat="45.30336" lon="5.75669">
        <ele>1388.4</ele>
        <time>2021-11-21T11:21:46Z</time>
      </trkpt>
      <trkpt lat="45.30346" lon="5.75674">
        <ele>1389.6</ele>
        <time>2021-11-21T11:21:48Z</time>
      </trkpt>
      <trkpt lat="45.30357" lon="5.75679">
        <ele>1391</ele>
        <time>2021-11-21T11:21:50Z</time>
      </trkpt>
      <trkpt lat="45.30367" lon="5.75683">
        <ele>1392</ele>
        <time>2021-11-21T11:21:52Z</time>
      </trkpt>
      <trkpt lat="45.30378" lon="5.75686">
        <ele>1393.8</ele>
        <time>2021-11-21T11:21:54Z</time>
      </trkpt>
      <trkpt lat="45.30389" lon="5.75689">
        <ele>1395.8</ele>
        <time>2021-11-21T11:21:56Z</time>
      </trkpt>
      <trkpt lat="45.30399" lon="5.75694">
        <ele>1397</ele>
        <time>2021-11-21T11:21:58Z</time>
      </trkpt>
      <trkpt lat="45.30409" lon="5.75697">
        <ele>1398.4</ele>
        <time>2021-11-21T11:22:00Z</time>
      </trkpt>
      <trkpt lat="45.30417" lon="5.75696">
        <ele>1399.4</ele>
        <time>2021-11-21T11:22:02Z</time>
      </trkpt>
      <trkpt lat="45.30421" lon="5.75695">
        <ele>1400</ele>
        <time>2021-11-21T11:22:03Z</time>
      </trkpt>
      <trkpt lat="45.30425" lon="5.75692">
        <ele>1400.8</ele>
        <time>2021-11-21T11:22:04Z</time>
      </trkpt>
      <trkpt lat="45.30429" lon="5.75689">
        <ele>1401.4</ele>
        <time>2021-11-21T11:22:05Z</time>
      </trkpt>
      <trkpt lat="45.30432" lon="5.75685">
        <ele>1401.8</ele>
        <time>2021-11-21T11:22:06Z</time>
      </trkpt>
      <trkpt lat="45.30435" lon="5.75681">
        <ele>1402</ele>
        <time>2021-11-21T11:22:07Z</time>
      </trkpt>
      <trkpt lat="45.30438" lon="5.75676">
        <ele>1402.8</ele>
        <time>2021-11-21T11:22:08Z</time>
      </trkpt>
      <trkpt lat="45.30441" lon="5.75671">
        <ele>1403.4</ele>
        <time>2021-11-21T11:22:09Z</time>
      </trkpt>
      <trkpt lat="45.30443" lon="5.75664">
        <ele>1404.2</ele>
        <time>2021-11-21T11:22:10Z</time>
      </trkpt>
      <trkpt lat="45.30444" lon="5.75656">
        <ele>1405.2</ele>
        <time>2021-11-21T11:22:11Z</time>
      </trkpt>
      <trkpt lat="45.30445" lon="5.75649">
        <ele>1405.6</ele>
        <time>2021-11-21T11:22:12Z</time>
      </trkpt>
      <trkpt lat="45.30445" lon="5.75641">
        <ele>1406.4</ele>
        <time>2021-11-21T11:22:13Z</time>
      </trkpt>
      <trkpt lat="45.30444" lon="5.75633">
        <ele>1407.2</ele>
        <time>2021-11-21T11:22:14Z</time>
      </trkpt>
      <trkpt lat="45.30443" lon="5.75624">
        <ele>1408.2</ele>
        <time>2021-11-21T11:22:15Z</time>
      </trkpt>
      <trkpt lat="45.30442" lon="5.75616">
        <ele>1409</ele>
        <time>2021-11-21T11:22:16Z</time>
      </trkpt>
      <trkpt lat="45.30442" lon="5.75608">
        <ele>1409.4</ele>
        <time>2021-11-21T11:22:17Z</time>
      </trkpt>
      <trkpt lat="45.30441" lon="5.756">
        <ele>1410.4</ele>
        <time>2021-11-21T11:22:18Z</time>
      </trkpt>
      <trkpt lat="45.3044" lon="5.75589">
        <ele>1411.2</ele>
        <time>2021-11-21T11:22:19Z</time>
      </trkpt>
      <trkpt lat="45.30438" lon="5.75579">
        <ele>1411.6</ele>
        <time>2021-11-21T11:22:20Z</time>
      </trkpt>
      <trkpt lat="45.30437" lon="5.75569">
        <ele>1412.2</ele>
        <time>2021-11-21T11:22:21Z</time>
      </trkpt>
      <trkpt lat="45.30436" lon="5.7556">
        <ele>1412.8</ele>
        <time>2021-11-21T11:22:22Z</time>
      </trkpt>
      <trkpt lat="45.30435" lon="5.75552">
        <ele>1413.2</ele>
        <time>2021-11-21T11:22:23Z</time>
      </trkpt>
      <trkpt lat="45.30434" lon="5.75543">
        <ele>1413.8</ele>
        <time>2021-11-21T11:22:24Z</time>
      </trkpt>
      <trkpt lat="45.30433" lon="5.75534">
        <ele>1414.4</ele>
        <time>2021-11-21T11:22:25Z</time>
      </trkpt>
      <trkpt lat="45.30432" lon="5.75526">
        <ele>1415.2</ele>
        <time>2021-11-21T11:22:26Z</time>
      </trkpt>
      <trkpt lat="45.30431" lon="5.75518">
        <ele>1415.6</ele>
        <time>2021-11-21T11:22:27Z</time>
      </trkpt>
      <trkpt lat="45.3043" lon="5.75509">
        <ele>1416.6</ele>
        <time>2021-11-21T11:22:28Z</time>
      </trkpt>
      <trkpt lat="45.30429" lon="5.75501">
        <ele>1417.6</ele>
        <time>2021-11-21T11:22:29Z</time>
      </trkpt>
      <trkpt lat="45.30429" lon="5.75493">
        <ele>1418.2</ele>
        <time>2021-11-21T11:22:30Z</time>
      </trkpt>
      <trkpt lat="45.30428" lon="5.75484">
        <ele>1418.8</ele>
        <time>2021-11-21T11:22:31Z</time>
      </trkpt>
      <trkpt lat="45.30427" lon="5.75476">
        <ele>1419.6</ele>
        <time>2021-11-21T11:22:32Z</time>
      </trkpt>
      <trkpt lat="45.30427" lon="5.75468">
        <ele>1420.2</ele>
        <time>2021-11-21T11:22:33Z</time>
      </trkpt>
      <trkpt lat="45.30427" lon="5.7546">
        <ele>1420.8</ele>
        <time>2021-11-21T11:22:34Z</time>
      </trkpt>
      <trkpt lat="45.30426" lon="5.75453">
        <ele>1421.8</ele>
        <time>2021-11-21T11:22:35Z</time>
      </trkpt>
      <trkpt lat="45.30425" lon="5.75445">
        <ele>1422.2</ele>
        <time>2021-11-21T11:22:36Z</time>
      </trkpt>
      <trkpt lat="45.30424" lon="5.75438">
        <ele>1422.8</ele>
        <time>2021-11-21T11:22:37Z</time>
      </trkpt>
      <trkpt lat="45.30422" lon="5.7543">
        <ele>1423.4</ele>
        <time>2021-11-21T11:22:38Z</time>
      </trkpt>
      <trkpt lat="45.30422" lon="5.75422">
        <ele>1423.8</ele>
        <time>2021-11-21T11:22:39Z</time>
      </trkpt>
      <trkpt lat="45.30422" lon="5.75414">
        <ele>1424.2</ele>
        <time>2021-11-21T11:22:40Z</time>
      </trkpt>
      <trkpt lat="45.30422" lon="5.75406">
        <ele>1424.6</ele>
        <time>2021-11-21T11:22:41Z</time>
      </trkpt>
      <trkpt lat="45.30423" lon="5.75399">
        <ele>1425.4</ele>
        <time>2021-11-21T11:22:42Z</time>
      </trkpt>
      <trkpt lat="45.30426" lon="5.75395">
        <ele>1426.4</ele>
        <time>2021-11-21T11:22:43Z</time>
      </trkpt>
      <trkpt lat="45.30431" lon="5.75392">
        <ele>1427</ele>
        <time>2021-11-21T11:22:44Z</time>
      </trkpt>
      <trkpt lat="45.30436" lon="5.75392">
        <ele>1427.2</ele>
        <time>2021-11-21T11:22:45Z</time>
      </trkpt>
      <trkpt lat="45.3044" lon="5.75394">
        <ele>1428</ele>
        <time>2021-11-21T11:22:46Z</time>
      </trkpt>
      <trkpt lat="45.30445" lon="5.75395">
        <ele>1428.6</ele>
        <time>2021-11-21T11:22:47Z</time>
      </trkpt>
      <trkpt lat="45.3045" lon="5.75394">
        <ele>1429.4</ele>
        <time>2021-11-21T11:22:48Z</time>
      </trkpt>
      <trkpt lat="45.30454" lon="5.75392">
        <ele>1430</ele>
        <time>2021-11-21T11:22:49Z</time>
      </trkpt>
      <trkpt lat="45.30467" lon="5.75386">
        <ele>1430.8</ele>
        <time>2021-11-21T11:22:51Z</time>
      </trkpt>
      <trkpt lat="45.30474" lon="5.75385">
        <ele>1431.4</ele>
        <time>2021-11-21T11:22:52Z</time>
      </trkpt>
      <trkpt lat="45.3048" lon="5.75386">
        <ele>1431.8</ele>
        <time>2021-11-21T11:22:53Z</time>
      </trkpt>
      <trkpt lat="45.30486" lon="5.75387">
        <ele>1432.6</ele>
        <time>2021-11-21T11:22:54Z</time>
      </trkpt>
      <trkpt lat="45.30494" lon="5.75386">
        <ele>1433</ele>
        <time>2021-11-21T11:22:55Z</time>
      </trkpt>
      <trkpt lat="45.305" lon="5.75383">
        <ele>1433.8</ele>
        <time>2021-11-21T11:22:56Z</time>
      </trkpt>
      <trkpt lat="45.30505" lon="5.75379">
        <ele>1434</ele>
        <time>2021-11-21T11:22:57Z</time>
      </trkpt>
      <trkpt lat="45.30507" lon="5.75372">
        <ele>1434.8</ele>
        <time>2021-11-21T11:22:58Z</time>
      </trkpt>
      <trkpt lat="45.30506" lon="5.75366">
        <ele>1435.8</ele>
        <time>2021-11-21T11:22:59Z</time>
      </trkpt>
      <trkpt lat="45.30503" lon="5.7536">
        <ele>1436</ele>
        <time>2021-11-21T11:23:00Z</time>
      </trkpt>
      <trkpt lat="45.30499" lon="5.75354">
        <ele>1436.8</ele>
        <time>2021-11-21T11:23:01Z</time>
      </trkpt>
      <trkpt lat="45.30489" lon="5.75349">
        <ele>1438</ele>
        <time>2021-11-21T11:23:03Z</time>
      </trkpt>
      <trkpt lat="45.30476" lon="5.75347">
        <ele>1438.6</ele>
        <time>2021-11-21T11:23:05Z</time>
      </trkpt>
      <trkpt lat="45.30463" lon="5.75349">
        <ele>1440</ele>
        <time>2021-11-21T11:23:07Z</time>
      </trkpt>
      <trkpt lat="45.3045" lon="5.75351">
        <ele>1440.8</ele>
        <time>2021-11-21T11:23:09Z</time>
      </trkpt>
      <trkpt lat="45.30437" lon="5.75349">
        <ele>1441.6</ele>
        <time>2021-11-21T11:23:11Z</time>
      </trkpt>
      <trkpt lat="45.30427" lon="5.75342">
        <ele>1443</ele>
        <time>2021-11-21T11:23:13Z</time>
      </trkpt>
      <trkpt lat="45.30424" lon="5.75336">
        <ele>1443.6</ele>
        <time>2021-11-21T11:23:14Z</time>
      </trkpt>
      <trkpt lat="45.3042" lon="5.7533">
        <ele>1444</ele>
        <time>2021-11-21T11:23:15Z</time>
      </trkpt>
      <trkpt lat="45.30416" lon="5.75326">
        <ele>1444.8</ele>
        <time>2021-11-21T11:23:16Z</time>
      </trkpt>
      <trkpt lat="45.30411" lon="5.75323">
        <ele>1445.2</ele>
        <time>2021-11-21T11:23:17Z</time>
      </trkpt>
      <trkpt lat="45.30401" lon="5.7533">
        <ele>1446.6</ele>
        <time>2021-11-21T11:23:20Z</time>
      </trkpt>
      <trkpt lat="45.30394" lon="5.75343">
        <ele>1448</ele>
        <time>2021-11-21T11:23:22Z</time>
      </trkpt>
      <trkpt lat="45.3039" lon="5.75347">
        <ele>1448.6</ele>
        <time>2021-11-21T11:23:23Z</time>
      </trkpt>
      <trkpt lat="45.30383" lon="5.75348">
        <ele>1449.4</ele>
        <time>2021-11-21T11:23:24Z</time>
      </trkpt>
      <trkpt lat="45.30378" lon="5.75344">
        <ele>1449.4</ele>
        <time>2021-11-21T11:23:25Z</time>
      </trkpt>
      <trkpt lat="45.30376" lon="5.75337">
        <ele>1450</ele>
        <time>2021-11-21T11:23:26Z</time>
      </trkpt>
      <trkpt lat="45.30376" lon="5.75328">
        <ele>1450.8</ele>
        <time>2021-11-21T11:23:27Z</time>
      </trkpt>
      <trkpt lat="45.30378" lon="5.75321">
        <ele>1451.4</ele>
        <time>2021-11-21T11:23:28Z</time>
      </trkpt>
      <trkpt lat="45.30382" lon="5.75315">
        <ele>1452.4</ele>
        <time>2021-11-21T11:23:29Z</time>
      </trkpt>
      <trkpt lat="45.30386" lon="5.7531">
        <ele>1452.6</ele>
        <time>2021-11-21T11:23:30Z</time>
      </trkpt>
      <trkpt lat="45.3039" lon="5.75305">
        <ele>1453.2</ele>
        <time>2021-11-21T11:23:31Z</time>
      </trkpt>
      <trkpt lat="45.30394" lon="5.75299">
        <ele>1453.8</ele>
        <time>2021-11-21T11:23:32Z</time>
      </trkpt>
      <trkpt lat="45.30405" lon="5.75291">
        <ele>1455</ele>
        <time>2021-11-21T11:23:34Z</time>
      </trkpt>
      <trkpt lat="45.30411" lon="5.75289">
        <ele>1455.6</ele>
        <time>2021-11-21T11:23:35Z</time>
      </trkpt>
      <trkpt lat="45.30418" lon="5.75289">
        <ele>1456.2</ele>
        <time>2021-11-21T11:23:36Z</time>
      </trkpt>
      <trkpt lat="45.30424" lon="5.75289">
        <ele>1456.8</ele>
        <time>2021-11-21T11:23:37Z</time>
      </trkpt>
      <trkpt lat="45.30437" lon="5.75287">
        <ele>1458</ele>
        <time>2021-11-21T11:23:39Z</time>
      </trkpt>
      <trkpt lat="45.30443" lon="5.75288">
        <ele>1458.2</ele>
        <time>2021-11-21T11:23:40Z</time>
      </trkpt>
      <trkpt lat="45.3045" lon="5.75288">
        <ele>1459</ele>
        <time>2021-11-21T11:23:41Z</time>
      </trkpt>
      <trkpt lat="45.30457" lon="5.75288">
        <ele>1459.6</ele>
        <time>2021-11-21T11:23:42Z</time>
      </trkpt>
      <trkpt lat="45.30464" lon="5.75288">
        <ele>1460</ele>
        <time>2021-11-21T11:23:43Z</time>
      </trkpt>
      <trkpt lat="45.3047" lon="5.75289">
        <ele>1460.4</ele>
        <time>2021-11-21T11:23:44Z</time>
      </trkpt>
      <trkpt lat="45.30477" lon="5.75289">
        <ele>1461</ele>
        <time>2021-11-21T11:23:45Z</time>
      </trkpt>
      <trkpt lat="45.3049" lon="5.75287">
        <ele>1461.4</ele>
        <time>2021-11-21T11:23:47Z</time>
      </trkpt>
      <trkpt lat="45.30505" lon="5.75286">
        <ele>1462</ele>
        <time>2021-11-21T11:23:49Z</time>
      </trkpt>
      <trkpt lat="45.3052" lon="5.7529">
        <ele>1462.6</ele>
        <time>2021-11-21T11:23:51Z</time>
      </trkpt>
      <trkpt lat="45.30534" lon="5.75297">
        <ele>1463.4</ele>
        <time>2021-11-21T11:23:53Z</time>
      </trkpt>
      <trkpt lat="45.30547" lon="5.75305">
        <ele>1464.4</ele>
        <time>2021-11-21T11:23:55Z</time>
      </trkpt>
      <trkpt lat="45.30557" lon="5.75314">
        <ele>1464.6</ele>
        <time>2021-11-21T11:23:57Z</time>
      </trkpt>
      <trkpt lat="45.30568" lon="5.75319">
        <ele>1465.6</ele>
        <time>2021-11-21T11:23:59Z</time>
      </trkpt>
      <trkpt lat="45.30578" lon="5.75323">
        <ele>1466</ele>
        <time>2021-11-21T11:24:01Z</time>
      </trkpt>
      <trkpt lat="45.30588" lon="5.75326">
        <ele>1467.2</ele>
        <time>2021-11-21T11:24:03Z</time>
      </trkpt>
      <trkpt lat="45.30599" lon="5.75331">
        <ele>1468.8</ele>
        <time>2021-11-21T11:24:05Z</time>
      </trkpt>
      <trkpt lat="45.30609" lon="5.75336">
        <ele>1469.8</ele>
        <time>2021-11-21T11:24:07Z</time>
      </trkpt>
      <trkpt lat="45.30621" lon="5.75345">
        <ele>1472</ele>
        <time>2021-11-21T11:24:10Z</time>
      </trkpt>
      <trkpt lat="45.30631" lon="5.7535">
        <ele>1473</ele>
        <time>2021-11-21T11:24:12Z</time>
      </trkpt>
      <trkpt lat="45.30641" lon="5.75355">
        <ele>1474.6</ele>
        <time>2021-11-21T11:24:14Z</time>
      </trkpt>
      <trkpt lat="45.30651" lon="5.75359">
        <ele>1475.8</ele>
        <time>2021-11-21T11:24:16Z</time>
      </trkpt>
      <trkpt lat="45.30662" lon="5.75364">
        <ele>1477.2</ele>
        <time>2021-11-21T11:24:18Z</time>
      </trkpt>
      <trkpt lat="45.30671" lon="5.75373">
        <ele>1478.8</ele>
        <time>2021-11-21T11:24:20Z</time>
      </trkpt>
      <trkpt lat="45.30676" lon="5.75384">
        <ele>1480.4</ele>
        <time>2021-11-21T11:24:22Z</time>
      </trkpt>
      <trkpt lat="45.30685" lon="5.75397">
        <ele>1482</ele>
        <time>2021-11-21T11:24:25Z</time>
      </trkpt>
      <trkpt lat="45.30693" lon="5.7541">
        <ele>1484.4</ele>
        <time>2021-11-21T11:24:28Z</time>
      </trkpt>
      <trkpt lat="45.30703" lon="5.75422">
        <ele>1486.8</ele>
        <time>2021-11-21T11:24:31Z</time>
      </trkpt>
      <trkpt lat="45.30712" lon="5.75431">
        <ele>1488.2</ele>
        <time>2021-11-21T11:24:33Z</time>
      </trkpt>
      <trkpt lat="45.30721" lon="5.7544">
        <ele>1489.4</ele>
        <time>2021-11-21T11:24:35Z</time>
      </trkpt>
      <trkpt lat="45.30732" lon="5.75446">
        <ele>1490.6</ele>
        <time>2021-11-21T11:24:37Z</time>
      </trkpt>
      <trkpt lat="45.30742" lon="5.75454">
        <ele>1491.8</ele>
        <time>2021-11-21T11:24:39Z</time>
      </trkpt>
      <trkpt lat="45.3075" lon="5.75464">
        <ele>1493.4</ele>
        <time>2021-11-21T11:24:41Z</time>
      </trkpt>
      <trkpt lat="45.30759" lon="5.75472">
        <ele>1494.8</ele>
        <time>2021-11-21T11:24:43Z</time>
      </trkpt>
      <trkpt lat="45.30769" lon="5.7548">
        <ele>1496</ele>
        <time>2021-11-21T11:24:45Z</time>
      </trkpt>
      <trkpt lat="45.30774" lon="5.75483">
        <ele>1496.4</ele>
        <time>2021-11-21T11:24:46Z</time>
      </trkpt>
      <trkpt lat="45.30784" lon="5.75484">
        <ele>1496.8</ele>
        <time>2021-11-21T11:24:47Z</time>
      </trkpt>
      <trkpt lat="45.3079" lon="5.75486">
        <ele>1497.4</ele>
        <time>2021-11-21T11:24:48Z</time>
      </trkpt>
      <trkpt lat="45.30797" lon="5.75488">
        <ele>1498.4</ele>
        <time>2021-11-21T11:24:49Z</time>
      </trkpt>
      <trkpt lat="45.30803" lon="5.7549">
        <ele>1499</ele>
        <time>2021-11-21T11:24:50Z</time>
      </trkpt>
      <trkpt lat="45.30809" lon="5.75491">
        <ele>1499.6</ele>
        <time>2021-11-21T11:24:51Z</time>
      </trkpt>
      <trkpt lat="45.30815" lon="5.75493">
        <ele>1500.4</ele>
        <time>2021-11-21T11:24:52Z</time>
      </trkpt>
      <trkpt lat="45.3082" lon="5.75496">
        <ele>1501</ele>
        <time>2021-11-21T11:24:53Z</time>
      </trkpt>
      <trkpt lat="45.30825" lon="5.75499">
        <ele>1502</ele>
        <time>2021-11-21T11:24:54Z</time>
      </trkpt>
      <trkpt lat="45.3083" lon="5.75502">
        <ele>1503</ele>
        <time>2021-11-21T11:24:55Z</time>
      </trkpt>
      <trkpt lat="45.30834" lon="5.75506">
        <ele>1503.2</ele>
        <time>2021-11-21T11:24:56Z</time>
      </trkpt>
      <trkpt lat="45.30839" lon="5.75509">
        <ele>1503.6</ele>
        <time>2021-11-21T11:24:57Z</time>
      </trkpt>
      <trkpt lat="45.30845" lon="5.75512">
        <ele>1504</ele>
        <time>2021-11-21T11:24:58Z</time>
      </trkpt>
      <trkpt lat="45.3085" lon="5.75514">
        <ele>1505</ele>
        <time>2021-11-21T11:24:59Z</time>
      </trkpt>
      <trkpt lat="45.30859" lon="5.75521">
        <ele>1506.8</ele>
        <time>2021-11-21T11:25:01Z</time>
      </trkpt>
      <trkpt lat="45.30864" lon="5.75524">
        <ele>1507.4</ele>
        <time>2021-11-21T11:25:02Z</time>
      </trkpt>
      <trkpt lat="45.30868" lon="5.75528">
        <ele>1508.2</ele>
        <time>2021-11-21T11:25:03Z</time>
      </trkpt>
      <trkpt lat="45.30872" lon="5.75533">
        <ele>1508.8</ele>
        <time>2021-11-21T11:25:04Z</time>
      </trkpt>
      <trkpt lat="45.30876" lon="5.75538">
        <ele>1509.8</ele>
        <time>2021-11-21T11:25:05Z</time>
      </trkpt>
      <trkpt lat="45.30881" lon="5.75543">
        <ele>1510.2</ele>
        <time>2021-11-21T11:25:06Z</time>
      </trkpt>
      <trkpt lat="45.30885" lon="5.75548">
        <ele>1510.6</ele>
        <time>2021-11-21T11:25:07Z</time>
      </trkpt>
      <trkpt lat="45.30888" lon="5.75553">
        <ele>1511.4</ele>
        <time>2021-11-21T11:25:08Z</time>
      </trkpt>
      <trkpt lat="45.30892" lon="5.75557">
        <ele>1512.2</ele>
        <time>2021-11-21T11:25:09Z</time>
      </trkpt>
      <trkpt lat="45.30897" lon="5.75555">
        <ele>1513.2</ele>
        <time>2021-11-21T11:25:10Z</time>
      </trkpt>
      <trkpt lat="45.309" lon="5.75549">
        <ele>1513.8</ele>
        <time>2021-11-21T11:25:11Z</time>
      </trkpt>
      <trkpt lat="45.309" lon="5.75542">
        <ele>1514.6</ele>
        <time>2021-11-21T11:25:12Z</time>
      </trkpt>
      <trkpt lat="45.30898" lon="5.75535">
        <ele>1515.2</ele>
        <time>2021-11-21T11:25:13Z</time>
      </trkpt>
      <trkpt lat="45.30893" lon="5.75529">
        <ele>1516.2</ele>
        <time>2021-11-21T11:25:14Z</time>
      </trkpt>
      <trkpt lat="45.30889" lon="5.75523">
        <ele>1516.4</ele>
        <time>2021-11-21T11:25:15Z</time>
      </trkpt>
      <trkpt lat="45.30884" lon="5.75515">
        <ele>1517.2</ele>
        <time>2021-11-21T11:25:16Z</time>
      </trkpt>
      <trkpt lat="45.30875" lon="5.75505">
        <ele>1518.2</ele>
        <time>2021-11-21T11:25:18Z</time>
      </trkpt>
      <trkpt lat="45.30868" lon="5.75494">
        <ele>1519.4</ele>
        <time>2021-11-21T11:25:20Z</time>
      </trkpt>
      <trkpt lat="45.30865" lon="5.75487">
        <ele>1520</ele>
        <time>2021-11-21T11:25:21Z</time>
      </trkpt>
      <trkpt lat="45.30863" lon="5.7548">
        <ele>1520.2</ele>
        <time>2021-11-21T11:25:22Z</time>
      </trkpt>
      <trkpt lat="45.3086" lon="5.75474">
        <ele>1521</ele>
        <time>2021-11-21T11:25:23Z</time>
      </trkpt>
      <trkpt lat="45.30856" lon="5.7546">
        <ele>1521.6</ele>
        <time>2021-11-21T11:25:25Z</time>
      </trkpt>
      <trkpt lat="45.30853" lon="5.75447">
        <ele>1523.2</ele>
        <time>2021-11-21T11:25:27Z</time>
      </trkpt>
      <trkpt lat="45.30851" lon="5.7544">
        <ele>1523.4</ele>
        <time>2021-11-21T11:25:28Z</time>
      </trkpt>
      <trkpt lat="45.30849" lon="5.75433">
        <ele>1524</ele>
        <time>2021-11-21T11:25:29Z</time>
      </trkpt>
      <trkpt lat="45.30842" lon="5.7542">
        <ele>1525</ele>
        <time>2021-11-21T11:25:31Z</time>
      </trkpt>
      <trkpt lat="45.30839" lon="5.75414">
        <ele>1525.8</ele>
        <time>2021-11-21T11:25:32Z</time>
      </trkpt>
      <trkpt lat="45.30832" lon="5.75403">
        <ele>1526.6</ele>
        <time>2021-11-21T11:25:34Z</time>
      </trkpt>
      <trkpt lat="45.30826" lon="5.7539">
        <ele>1527.8</ele>
        <time>2021-11-21T11:25:36Z</time>
      </trkpt>
      <trkpt lat="45.3082" lon="5.75378">
        <ele>1529.6</ele>
        <time>2021-11-21T11:25:38Z</time>
      </trkpt>
      <trkpt lat="45.30813" lon="5.75367">
        <ele>1530.8</ele>
        <time>2021-11-21T11:25:40Z</time>
      </trkpt>
      <trkpt lat="45.30808" lon="5.75355">
        <ele>1532</ele>
        <time>2021-11-21T11:25:42Z</time>
      </trkpt>
      <trkpt lat="45.30802" lon="5.75344">
        <ele>1533.2</ele>
        <time>2021-11-21T11:25:44Z</time>
      </trkpt>
      <trkpt lat="45.30796" lon="5.75334">
        <ele>1534.6</ele>
        <time>2021-11-21T11:25:46Z</time>
      </trkpt>
      <trkpt lat="45.30791" lon="5.75323">
        <ele>1536.2</ele>
        <time>2021-11-21T11:25:48Z</time>
      </trkpt>
      <trkpt lat="45.30783" lon="5.75311">
        <ele>1537.4</ele>
        <time>2021-11-21T11:25:50Z</time>
      </trkpt>
      <trkpt lat="45.30777" lon="5.75299">
        <ele>1538.8</ele>
        <time>2021-11-21T11:25:52Z</time>
      </trkpt>
      <trkpt lat="45.30771" lon="5.75287">
        <ele>1540.2</ele>
        <time>2021-11-21T11:25:54Z</time>
      </trkpt>
      <trkpt lat="45.30764" lon="5.75276">
        <ele>1541.4</ele>
        <time>2021-11-21T11:25:56Z</time>
      </trkpt>
      <trkpt lat="45.30759" lon="5.75264">
        <ele>1542.8</ele>
        <time>2021-11-21T11:25:58Z</time>
      </trkpt>
      <trkpt lat="45.30751" lon="5.75254">
        <ele>1544.8</ele>
        <time>2021-11-21T11:26:00Z</time>
      </trkpt>
      <trkpt lat="45.30744" lon="5.75243">
        <ele>1546.4</ele>
        <time>2021-11-21T11:26:02Z</time>
      </trkpt>
      <trkpt lat="45.30742" lon="5.75237">
        <ele>1547.4</ele>
        <time>2021-11-21T11:26:03Z</time>
      </trkpt>
      <trkpt lat="45.3074" lon="5.75229">
        <ele>1548</ele>
        <time>2021-11-21T11:26:04Z</time>
      </trkpt>
      <trkpt lat="45.3074" lon="5.75221">
        <ele>1548.8</ele>
        <time>2021-11-21T11:26:05Z</time>
      </trkpt>
      <trkpt lat="45.30742" lon="5.75214">
        <ele>1549.4</ele>
        <time>2021-11-21T11:26:06Z</time>
      </trkpt>
      <trkpt lat="45.30747" lon="5.75211">
        <ele>1550.2</ele>
        <time>2021-11-21T11:26:07Z</time>
      </trkpt>
      <trkpt lat="45.3076" lon="5.75212">
        <ele>1551.2</ele>
        <time>2021-11-21T11:26:09Z</time>
      </trkpt>
      <trkpt lat="45.3077" lon="5.75217">
        <ele>1552.4</ele>
        <time>2021-11-21T11:26:11Z</time>
      </trkpt>
      <trkpt lat="45.30774" lon="5.75235">
        <ele>1553.6</ele>
        <time>2021-11-21T11:26:13Z</time>
      </trkpt>
      <trkpt lat="45.3078" lon="5.75249">
        <ele>1555.2</ele>
        <time>2021-11-21T11:26:15Z</time>
      </trkpt>
      <trkpt lat="45.30782" lon="5.75255">
        <ele>1555.6</ele>
        <time>2021-11-21T11:26:16Z</time>
      </trkpt>
      <trkpt lat="45.30786" lon="5.75261">
        <ele>1555.8</ele>
        <time>2021-11-21T11:26:17Z</time>
      </trkpt>
      <trkpt lat="45.30789" lon="5.75266">
        <ele>1556.6</ele>
        <time>2021-11-21T11:26:18Z</time>
      </trkpt>
      <trkpt lat="45.30793" lon="5.75271">
        <ele>1557.4</ele>
        <time>2021-11-21T11:26:19Z</time>
      </trkpt>
      <trkpt lat="45.30797" lon="5.75275">
        <ele>1558.4</ele>
        <time>2021-11-21T11:26:20Z</time>
      </trkpt>
      <trkpt lat="45.30801" lon="5.7528">
        <ele>1559</ele>
        <time>2021-11-21T11:26:21Z</time>
      </trkpt>
      <trkpt lat="45.30806" lon="5.75285">
        <ele>1559.6</ele>
        <time>2021-11-21T11:26:22Z</time>
      </trkpt>
      <trkpt lat="45.3081" lon="5.75289">
        <ele>1560.4</ele>
        <time>2021-11-21T11:26:23Z</time>
      </trkpt>
      <trkpt lat="45.30815" lon="5.75293">
        <ele>1561</ele>
        <time>2021-11-21T11:26:24Z</time>
      </trkpt>
      <trkpt lat="45.30819" lon="5.75297">
        <ele>1562</ele>
        <time>2021-11-21T11:26:25Z</time>
      </trkpt>
      <trkpt lat="45.30824" lon="5.75302">
        <ele>1562.4</ele>
        <time>2021-11-21T11:26:26Z</time>
      </trkpt>
      <trkpt lat="45.30829" lon="5.75306">
        <ele>1562.8</ele>
        <time>2021-11-21T11:26:27Z</time>
      </trkpt>
      <trkpt lat="45.30833" lon="5.75311">
        <ele>1563.6</ele>
        <time>2021-11-21T11:26:28Z</time>
      </trkpt>
      <trkpt lat="45.30838" lon="5.75315">
        <ele>1564</ele>
        <time>2021-11-21T11:26:29Z</time>
      </trkpt>
      <trkpt lat="45.30843" lon="5.75319">
        <ele>1564.2</ele>
        <time>2021-11-21T11:26:30Z</time>
      </trkpt>
      <trkpt lat="45.30848" lon="5.75322">
        <ele>1565</ele>
        <time>2021-11-21T11:26:31Z</time>
      </trkpt>
      <trkpt lat="45.30854" lon="5.75324">
        <ele>1565.8</ele>
        <time>2021-11-21T11:26:32Z</time>
      </trkpt>
      <trkpt lat="45.3086" lon="5.75326">
        <ele>1566.2</ele>
        <time>2021-11-21T11:26:33Z</time>
      </trkpt>
      <trkpt lat="45.30866" lon="5.75328">
        <ele>1566.8</ele>
        <time>2021-11-21T11:26:34Z</time>
      </trkpt>
      <trkpt lat="45.30872" lon="5.7533">
        <ele>1567.4</ele>
        <time>2021-11-21T11:26:35Z</time>
      </trkpt>
      <trkpt lat="45.30878" lon="5.75332">
        <ele>1568</ele>
        <time>2021-11-21T11:26:36Z</time>
      </trkpt>
      <trkpt lat="45.30884" lon="5.75334">
        <ele>1568.2</ele>
        <time>2021-11-21T11:26:37Z</time>
      </trkpt>
      <trkpt lat="45.30889" lon="5.75339">
        <ele>1569</ele>
        <time>2021-11-21T11:26:38Z</time>
      </trkpt>
      <trkpt lat="45.30894" lon="5.75344">
        <ele>1569.6</ele>
        <time>2021-11-21T11:26:39Z</time>
      </trkpt>
      <trkpt lat="45.30899" lon="5.75349">
        <ele>1570</ele>
        <time>2021-11-21T11:26:40Z</time>
      </trkpt>
      <trkpt lat="45.30904" lon="5.75354">
        <ele>1570.4</ele>
        <time>2021-11-21T11:26:41Z</time>
      </trkpt>
      <trkpt lat="45.30908" lon="5.75359">
        <ele>1571.4</ele>
        <time>2021-11-21T11:26:42Z</time>
      </trkpt>
      <trkpt lat="45.30913" lon="5.75364">
        <ele>1571.8</ele>
        <time>2021-11-21T11:26:43Z</time>
      </trkpt>
      <trkpt lat="45.30918" lon="5.75368">
        <ele>1572.2</ele>
        <time>2021-11-21T11:26:44Z</time>
      </trkpt>
      <trkpt lat="45.30923" lon="5.75373">
        <ele>1572.8</ele>
        <time>2021-11-21T11:26:45Z</time>
      </trkpt>
      <trkpt lat="45.30927" lon="5.75378">
        <ele>1573.4</ele>
        <time>2021-11-21T11:26:46Z</time>
      </trkpt>
      <trkpt lat="45.30931" lon="5.75383">
        <ele>1573.8</ele>
        <time>2021-11-21T11:26:47Z</time>
      </trkpt>
      <trkpt lat="45.30936" lon="5.75387">
        <ele>1574.4</ele>
        <time>2021-11-21T11:26:48Z</time>
      </trkpt>
      <trkpt lat="45.30941" lon="5.75392">
        <ele>1574.8</ele>
        <time>2021-11-21T11:26:49Z</time>
      </trkpt>
      <trkpt lat="45.30946" lon="5.75396">
        <ele>1575.4</ele>
        <time>2021-11-21T11:26:50Z</time>
      </trkpt>
      <trkpt lat="45.3095" lon="5.754">
        <ele>1575.8</ele>
        <time>2021-11-21T11:26:51Z</time>
      </trkpt>
      <trkpt lat="45.30955" lon="5.75404">
        <ele>1576.8</ele>
        <time>2021-11-21T11:26:52Z</time>
      </trkpt>
      <trkpt lat="45.30961" lon="5.75406">
        <ele>1577.8</ele>
        <time>2021-11-21T11:26:53Z</time>
      </trkpt>
      <trkpt lat="45.30966" lon="5.75408">
        <ele>1578.2</ele>
        <time>2021-11-21T11:26:54Z</time>
      </trkpt>
      <trkpt lat="45.30973" lon="5.75409">
        <ele>1579</ele>
        <time>2021-11-21T11:26:55Z</time>
      </trkpt>
      <trkpt lat="45.30978" lon="5.75409">
        <ele>1579.2</ele>
        <time>2021-11-21T11:26:56Z</time>
      </trkpt>
      <trkpt lat="45.30983" lon="5.75409">
        <ele>1580</ele>
        <time>2021-11-21T11:26:57Z</time>
      </trkpt>
      <trkpt lat="45.30989" lon="5.75409">
        <ele>1581</ele>
        <time>2021-11-21T11:26:58Z</time>
      </trkpt>
      <trkpt lat="45.30994" lon="5.75409">
        <ele>1582</ele>
        <time>2021-11-21T11:26:59Z</time>
      </trkpt>
      <trkpt lat="45.30999" lon="5.75409">
        <ele>1582.4</ele>
        <time>2021-11-21T11:27:00Z</time>
      </trkpt>
      <trkpt lat="45.31004" lon="5.75409">
        <ele>1583</ele>
        <time>2021-11-21T11:27:01Z</time>
      </trkpt>
      <trkpt lat="45.31008" lon="5.7541">
        <ele>1583.8</ele>
        <time>2021-11-21T11:27:02Z</time>
      </trkpt>
      <trkpt lat="45.31013" lon="5.7541">
        <ele>1584.6</ele>
        <time>2021-11-21T11:27:03Z</time>
      </trkpt>
      <trkpt lat="45.31018" lon="5.7541">
        <ele>1585.2</ele>
        <time>2021-11-21T11:27:04Z</time>
      </trkpt>
      <trkpt lat="45.31023" lon="5.75411">
        <ele>1585.8</ele>
        <time>2021-11-21T11:27:05Z</time>
      </trkpt>
      <trkpt lat="45.31028" lon="5.75412">
        <ele>1586.4</ele>
        <time>2021-11-21T11:27:06Z</time>
      </trkpt>
      <trkpt lat="45.31033" lon="5.75413">
        <ele>1586.6</ele>
        <time>2021-11-21T11:27:07Z</time>
      </trkpt>
      <trkpt lat="45.31038" lon="5.75415">
        <ele>1587.2</ele>
        <time>2021-11-21T11:27:08Z</time>
      </trkpt>
      <trkpt lat="45.31043" lon="5.75417">
        <ele>1588</ele>
        <time>2021-11-21T11:27:09Z</time>
      </trkpt>
      <trkpt lat="45.31048" lon="5.7542">
        <ele>1588.4</ele>
        <time>2021-11-21T11:27:10Z</time>
      </trkpt>
      <trkpt lat="45.31052" lon="5.75422">
        <ele>1588.2</ele>
        <time>2021-11-21T11:27:11Z</time>
      </trkpt>
      <trkpt lat="45.31056" lon="5.75425">
        <ele>1589.6</ele>
        <time>2021-11-21T11:27:12Z</time>
      </trkpt>
      <trkpt lat="45.31061" lon="5.75429">
        <ele>1590.6</ele>
        <time>2021-11-21T11:27:13Z</time>
      </trkpt>
      <trkpt lat="45.31066" lon="5.75432">
        <ele>1591.2</ele>
        <time>2021-11-21T11:27:14Z</time>
      </trkpt>
      <trkpt lat="45.3107" lon="5.75436">
        <ele>1592</ele>
        <time>2021-11-21T11:27:15Z</time>
      </trkpt>
      <trkpt lat="45.31075" lon="5.75439">
        <ele>1593</ele>
        <time>2021-11-21T11:27:16Z</time>
      </trkpt>
      <trkpt lat="45.31079" lon="5.75443">
        <ele>1593.4</ele>
        <time>2021-11-21T11:27:17Z</time>
      </trkpt>
      <trkpt lat="45.31084" lon="5.75447">
        <ele>1594.4</ele>
        <time>2021-11-21T11:27:18Z</time>
      </trkpt>
      <trkpt lat="45.31089" lon="5.7545">
        <ele>1595.4</ele>
        <time>2021-11-21T11:27:19Z</time>
      </trkpt>
      <trkpt lat="45.31093" lon="5.75454">
        <ele>1596</ele>
        <time>2021-11-21T11:27:20Z</time>
      </trkpt>
      <trkpt lat="45.31097" lon="5.75458">
        <ele>1597.2</ele>
        <time>2021-11-21T11:27:21Z</time>
      </trkpt>
      <trkpt lat="45.31102" lon="5.75461">
        <ele>1597.6</ele>
        <time>2021-11-21T11:27:22Z</time>
      </trkpt>
      <trkpt lat="45.31107" lon="5.75464">
        <ele>1598.2</ele>
        <time>2021-11-21T11:27:23Z</time>
      </trkpt>
      <trkpt lat="45.31112" lon="5.75466">
        <ele>1599</ele>
        <time>2021-11-21T11:27:24Z</time>
      </trkpt>
      <trkpt lat="45.31118" lon="5.75468">
        <ele>1599.6</ele>
        <time>2021-11-21T11:27:25Z</time>
      </trkpt>
      <trkpt lat="45.31124" lon="5.7547">
        <ele>1600.6</ele>
        <time>2021-11-21T11:27:26Z</time>
      </trkpt>
      <trkpt lat="45.31131" lon="5.75472">
        <ele>1601.2</ele>
        <time>2021-11-21T11:27:27Z</time>
      </trkpt>
      <trkpt lat="45.31139" lon="5.75473">
        <ele>1601.6</ele>
        <time>2021-11-21T11:27:28Z</time>
      </trkpt>
      <trkpt lat="45.31146" lon="5.75474">
        <ele>1602.4</ele>
        <time>2021-11-21T11:27:29Z</time>
      </trkpt>
      <trkpt lat="45.31155" lon="5.75475">
        <ele>1603</ele>
        <time>2021-11-21T11:27:30Z</time>
      </trkpt>
      <trkpt lat="45.31163" lon="5.75476">
        <ele>1603.8</ele>
        <time>2021-11-21T11:27:31Z</time>
      </trkpt>
      <trkpt lat="45.31172" lon="5.75477">
        <ele>1604.4</ele>
        <time>2021-11-21T11:27:32Z</time>
      </trkpt>
      <trkpt lat="45.31181" lon="5.75477">
        <ele>1605</ele>
        <time>2021-11-21T11:27:33Z</time>
      </trkpt>
      <trkpt lat="45.31189" lon="5.75477">
        <ele>1605.6</ele>
        <time>2021-11-21T11:27:34Z</time>
      </trkpt>
      <trkpt lat="45.31198" lon="5.75476">
        <ele>1605.8</ele>
        <time>2021-11-21T11:27:35Z</time>
      </trkpt>
      <trkpt lat="45.31206" lon="5.75474">
        <ele>1606.4</ele>
        <time>2021-11-21T11:27:36Z</time>
      </trkpt>
      <trkpt lat="45.31214" lon="5.7547">
        <ele>1606.4</ele>
        <time>2021-11-21T11:27:37Z</time>
      </trkpt>
      <trkpt lat="45.31222" lon="5.75464">
        <ele>1606.6</ele>
        <time>2021-11-21T11:27:38Z</time>
      </trkpt>
      <trkpt lat="45.31229" lon="5.75457">
        <ele>1606</ele>
        <time>2021-11-21T11:27:39Z</time>
      </trkpt>
      <trkpt lat="45.31237" lon="5.75449">
        <ele>1606.2</ele>
        <time>2021-11-21T11:27:40Z</time>
      </trkpt>
      <trkpt lat="45.31244" lon="5.75441">
        <ele>1606.4</ele>
        <time>2021-11-21T11:27:41Z</time>
      </trkpt>
      <trkpt lat="45.31252" lon="5.75433">
        <ele>1606.6</ele>
        <time>2021-11-21T11:27:42Z</time>
      </trkpt>
      <trkpt lat="45.3126" lon="5.75427">
        <ele>1606</ele>
        <time>2021-11-21T11:27:43Z</time>
      </trkpt>
      <trkpt lat="45.31268" lon="5.75422">
        <ele>1605.8</ele>
        <time>2021-11-21T11:27:44Z</time>
      </trkpt>
      <trkpt lat="45.31277" lon="5.75418">
        <ele>1605.6</ele>
        <time>2021-11-21T11:27:45Z</time>
      </trkpt>
      <trkpt lat="45.31286" lon="5.75414">
        <ele>1605.2</ele>
        <time>2021-11-21T11:27:46Z</time>
      </trkpt>
      <trkpt lat="45.31295" lon="5.7541">
        <ele>1605.2</ele>
        <time>2021-11-21T11:27:47Z</time>
      </trkpt>
      <trkpt lat="45.31303" lon="5.75406">
        <ele>1605</ele>
        <time>2021-11-21T11:27:48Z</time>
      </trkpt>
      <trkpt lat="45.31311" lon="5.75402">
        <ele>1605.2</ele>
        <time>2021-11-21T11:27:49Z</time>
      </trkpt>
      <trkpt lat="45.31319" lon="5.75397">
        <ele>1605.2</ele>
        <time>2021-11-21T11:27:50Z</time>
      </trkpt>
      <trkpt lat="45.31327" lon="5.75392">
        <ele>1604.4</ele>
        <time>2021-11-21T11:27:51Z</time>
      </trkpt>
      <trkpt lat="45.31334" lon="5.75386">
        <ele>1604.6</ele>
        <time>2021-11-21T11:27:52Z</time>
      </trkpt>
      <trkpt lat="45.31341" lon="5.75381">
        <ele>1604.4</ele>
        <time>2021-11-21T11:27:53Z</time>
      </trkpt>
      <trkpt lat="45.3135" lon="5.75377">
        <ele>1605</ele>
        <time>2021-11-21T11:27:54Z</time>
      </trkpt>
      <trkpt lat="45.31358" lon="5.75376">
        <ele>1604.4</ele>
        <time>2021-11-21T11:27:55Z</time>
      </trkpt>
      <trkpt lat="45.31367" lon="5.75376">
        <ele>1604.6</ele>
        <time>2021-11-21T11:27:56Z</time>
      </trkpt>
      <trkpt lat="45.31376" lon="5.75377">
        <ele>1604.6</ele>
        <time>2021-11-21T11:27:57Z</time>
      </trkpt>
      <trkpt lat="45.31384" lon="5.75378">
        <ele>1604.4</ele>
        <time>2021-11-21T11:27:58Z</time>
      </trkpt>
      <trkpt lat="45.31393" lon="5.75379">
        <ele>1604.4</ele>
        <time>2021-11-21T11:27:59Z</time>
      </trkpt>
      <trkpt lat="45.31402" lon="5.7538">
        <ele>1604.2</ele>
        <time>2021-11-21T11:28:00Z</time>
      </trkpt>
      <trkpt lat="45.3141" lon="5.75381">
        <ele>1604</ele>
        <time>2021-11-21T11:28:01Z</time>
      </trkpt>
      <trkpt lat="45.31419" lon="5.75382">
        <ele>1604</ele>
        <time>2021-11-21T11:28:02Z</time>
      </trkpt>
      <trkpt lat="45.31427" lon="5.75384">
        <ele>1604.8</ele>
        <time>2021-11-21T11:28:03Z</time>
      </trkpt>
      <trkpt lat="45.31435" lon="5.75385">
        <ele>1605.2</ele>
        <time>2021-11-21T11:28:04Z</time>
      </trkpt>
      <trkpt lat="45.31444" lon="5.75387">
        <ele>1605.4</ele>
        <time>2021-11-21T11:28:05Z</time>
      </trkpt>
      <trkpt lat="45.31452" lon="5.75388">
        <ele>1605.4</ele>
        <time>2021-11-21T11:28:06Z</time>
      </trkpt>
      <trkpt lat="45.3146" lon="5.7539">
        <ele>1605.8</ele>
        <time>2021-11-21T11:28:07Z</time>
      </trkpt>
      <trkpt lat="45.31468" lon="5.7539">
        <ele>1605.2</ele>
        <time>2021-11-21T11:28:08Z</time>
      </trkpt>
      <trkpt lat="45.31476" lon="5.75391">
        <ele>1605.2</ele>
        <time>2021-11-21T11:28:09Z</time>
      </trkpt>
      <trkpt lat="45.31484" lon="5.75392">
        <ele>1605.6</ele>
        <time>2021-11-21T11:28:10Z</time>
      </trkpt>
      <trkpt lat="45.31492" lon="5.75393">
        <ele>1606.2</ele>
        <time>2021-11-21T11:28:11Z</time>
      </trkpt>
      <trkpt lat="45.315" lon="5.75395">
        <ele>1606.6</ele>
        <time>2021-11-21T11:28:12Z</time>
      </trkpt>
      <trkpt lat="45.31508" lon="5.75399">
        <ele>1607</ele>
        <time>2021-11-21T11:28:13Z</time>
      </trkpt>
      <trkpt lat="45.31515" lon="5.75404">
        <ele>1607.4</ele>
        <time>2021-11-21T11:28:14Z</time>
      </trkpt>
      <trkpt lat="45.31521" lon="5.75411">
        <ele>1607.8</ele>
        <time>2021-11-21T11:28:15Z</time>
      </trkpt>
      <trkpt lat="45.31528" lon="5.75417">
        <ele>1608.2</ele>
        <time>2021-11-21T11:28:16Z</time>
      </trkpt>
      <trkpt lat="45.31534" lon="5.75423">
        <ele>1608.6</ele>
        <time>2021-11-21T11:28:17Z</time>
      </trkpt>
      <trkpt lat="45.31541" lon="5.75428">
        <ele>1608.4</ele>
        <time>2021-11-21T11:28:18Z</time>
      </trkpt>
      <trkpt lat="45.31549" lon="5.75433">
        <ele>1608.8</ele>
        <time>2021-11-21T11:28:19Z</time>
      </trkpt>
      <trkpt lat="45.31556" lon="5.75436">
        <ele>1608.8</ele>
        <time>2021-11-21T11:28:20Z</time>
      </trkpt>
      <trkpt lat="45.31564" lon="5.75439">
        <ele>1609.8</ele>
        <time>2021-11-21T11:28:21Z</time>
      </trkpt>
      <trkpt lat="45.31572" lon="5.75441">
        <ele>1610.4</ele>
        <time>2021-11-21T11:28:22Z</time>
      </trkpt>
      <trkpt lat="45.3158" lon="5.75443">
        <ele>1610.8</ele>
        <time>2021-11-21T11:28:23Z</time>
      </trkpt>
      <trkpt lat="45.31588" lon="5.75445">
        <ele>1610.8</ele>
        <time>2021-11-21T11:28:24Z</time>
      </trkpt>
      <trkpt lat="45.31596" lon="5.75447">
        <ele>1611.4</ele>
        <time>2021-11-21T11:28:25Z</time>
      </trkpt>
      <trkpt lat="45.31603" lon="5.75451">
        <ele>1612.2</ele>
        <time>2021-11-21T11:28:26Z</time>
      </trkpt>
      <trkpt lat="45.31611" lon="5.75455">
        <ele>1612.4</ele>
        <time>2021-11-21T11:28:27Z</time>
      </trkpt>
      <trkpt lat="45.31618" lon="5.75461">
        <ele>1613.2</ele>
        <time>2021-11-21T11:28:28Z</time>
      </trkpt>
      <trkpt lat="45.31624" lon="5.75468">
        <ele>1613.6</ele>
        <time>2021-11-21T11:28:29Z</time>
      </trkpt>
      <trkpt lat="45.31631" lon="5.75475">
        <ele>1613.2</ele>
        <time>2021-11-21T11:28:30Z</time>
      </trkpt>
      <trkpt lat="45.31637" lon="5.75482">
        <ele>1613.4</ele>
        <time>2021-11-21T11:28:31Z</time>
      </trkpt>
      <trkpt lat="45.31643" lon="5.7549">
        <ele>1613.6</ele>
        <time>2021-11-21T11:28:32Z</time>
      </trkpt>
      <trkpt lat="45.31649" lon="5.75497">
        <ele>1614.2</ele>
        <time>2021-11-21T11:28:33Z</time>
      </trkpt>
      <trkpt lat="45.31655" lon="5.75505">
        <ele>1614.8</ele>
        <time>2021-11-21T11:28:34Z</time>
      </trkpt>
      <trkpt lat="45.31661" lon="5.75512">
        <ele>1615.2</ele>
        <time>2021-11-21T11:28:35Z</time>
      </trkpt>
      <trkpt lat="45.31668" lon="5.75519">
        <ele>1615.6</ele>
        <time>2021-11-21T11:28:36Z</time>
      </trkpt>
      <trkpt lat="45.31674" lon="5.75525">
        <ele>1616.4</ele>
        <time>2021-11-21T11:28:37Z</time>
      </trkpt>
      <trkpt lat="45.31681" lon="5.75532">
        <ele>1617.2</ele>
        <time>2021-11-21T11:28:38Z</time>
      </trkpt>
      <trkpt lat="45.31688" lon="5.75537">
        <ele>1618</ele>
        <time>2021-11-21T11:28:39Z</time>
      </trkpt>
      <trkpt lat="45.31695" lon="5.75542">
        <ele>1618.4</ele>
        <time>2021-11-21T11:28:40Z</time>
      </trkpt>
      <trkpt lat="45.31703" lon="5.75546">
        <ele>1619</ele>
        <time>2021-11-21T11:28:41Z</time>
      </trkpt>
      <trkpt lat="45.3171" lon="5.7555">
        <ele>1619.4</ele>
        <time>2021-11-21T11:28:42Z</time>
      </trkpt>
      <trkpt lat="45.31718" lon="5.75553">
        <ele>1619.8</ele>
        <time>2021-11-21T11:28:43Z</time>
      </trkpt>
      <trkpt lat="45.31725" lon="5.75558">
        <ele>1620.4</ele>
        <time>2021-11-21T11:28:44Z</time>
      </trkpt>
      <trkpt lat="45.31732" lon="5.75565">
        <ele>1620.6</ele>
        <time>2021-11-21T11:28:45Z</time>
      </trkpt>
      <trkpt lat="45.31738" lon="5.75572">
        <ele>1620.8</ele>
        <time>2021-11-21T11:28:46Z</time>
      </trkpt>
      <trkpt lat="45.31743" lon="5.7558">
        <ele>1621.2</ele>
        <time>2021-11-21T11:28:47Z</time>
      </trkpt>
      <trkpt lat="45.31749" lon="5.75588">
        <ele>1621</ele>
        <time>2021-11-21T11:28:48Z</time>
      </trkpt>
      <trkpt lat="45.31756" lon="5.75593">
        <ele>1621.4</ele>
        <time>2021-11-21T11:28:49Z</time>
      </trkpt>
      <trkpt lat="45.31764" lon="5.75594">
        <ele>1622.6</ele>
        <time>2021-11-21T11:28:50Z</time>
      </trkpt>
      <trkpt lat="45.31772" lon="5.75592">
        <ele>1622.8</ele>
        <time>2021-11-21T11:28:51Z</time>
      </trkpt>
      <trkpt lat="45.31779" lon="5.75588">
        <ele>1623.4</ele>
        <time>2021-11-21T11:28:52Z</time>
      </trkpt>
      <trkpt lat="45.31786" lon="5.75583">
        <ele>1624.6</ele>
        <time>2021-11-21T11:28:53Z</time>
      </trkpt>
      <trkpt lat="45.31793" lon="5.75577">
        <ele>1625.2</ele>
        <time>2021-11-21T11:28:54Z</time>
      </trkpt>
      <trkpt lat="45.318" lon="5.75572">
        <ele>1625.8</ele>
        <time>2021-11-21T11:28:55Z</time>
      </trkpt>
      <trkpt lat="45.31808" lon="5.75569">
        <ele>1626</ele>
        <time>2021-11-21T11:28:56Z</time>
      </trkpt>
      <trkpt lat="45.31816" lon="5.75568">
        <ele>1626.4</ele>
        <time>2021-11-21T11:28:57Z</time>
      </trkpt>
      <trkpt lat="45.31824" lon="5.75571">
        <ele>1626.8</ele>
        <time>2021-11-21T11:28:58Z</time>
      </trkpt>
      <trkpt lat="45.31831" lon="5.75576">
        <ele>1627</ele>
        <time>2021-11-21T11:28:59Z</time>
      </trkpt>
      <trkpt lat="45.31837" lon="5.75582">
        <ele>1627.8</ele>
        <time>2021-11-21T11:29:00Z</time>
      </trkpt>
      <trkpt lat="45.31843" lon="5.75587">
        <ele>1627.6</ele>
        <time>2021-11-21T11:29:01Z</time>
      </trkpt>
      <trkpt lat="45.31849" lon="5.75592">
        <ele>1628.2</ele>
        <time>2021-11-21T11:29:02Z</time>
      </trkpt>
      <trkpt lat="45.31854" lon="5.75597">
        <ele>1629</ele>
        <time>2021-11-21T11:29:03Z</time>
      </trkpt>
      <trkpt lat="45.31859" lon="5.75601">
        <ele>1629.2</ele>
        <time>2021-11-21T11:29:04Z</time>
      </trkpt>
      <trkpt lat="45.31864" lon="5.75605">
        <ele>1629.8</ele>
        <time>2021-11-21T11:29:05Z</time>
      </trkpt>
      <trkpt lat="45.31868" lon="5.7561">
        <ele>1630.4</ele>
        <time>2021-11-21T11:29:06Z</time>
      </trkpt>
      <trkpt lat="45.31873" lon="5.75614">
        <ele>1631.2</ele>
        <time>2021-11-21T11:29:07Z</time>
      </trkpt>
      <trkpt lat="45.31877" lon="5.75619">
        <ele>1631.8</ele>
        <time>2021-11-21T11:29:08Z</time>
      </trkpt>
      <trkpt lat="45.31882" lon="5.75624">
        <ele>1632.8</ele>
        <time>2021-11-21T11:29:09Z</time>
      </trkpt>
      <trkpt lat="45.31885" lon="5.75629">
        <ele>1633.4</ele>
        <time>2021-11-21T11:29:10Z</time>
      </trkpt>
      <trkpt lat="45.31889" lon="5.75633">
        <ele>1634</ele>
        <time>2021-11-21T11:29:11Z</time>
      </trkpt>
      <trkpt lat="45.31892" lon="5.75636">
        <ele>1634.6</ele>
        <time>2021-11-21T11:29:12Z</time>
      </trkpt>
      <trkpt lat="45.31895" lon="5.7564">
        <ele>1634.8</ele>
        <time>2021-11-21T11:29:13Z</time>
      </trkpt>
      <trkpt lat="45.31898" lon="5.75643">
        <ele>1635.2</ele>
        <time>2021-11-21T11:29:14Z</time>
      </trkpt>
      <trkpt lat="45.31902" lon="5.75646">
        <ele>1635</ele>
        <time>2021-11-21T11:29:15Z</time>
      </trkpt>
      <trkpt lat="45.31906" lon="5.75648">
        <ele>1635.4</ele>
        <time>2021-11-21T11:29:16Z</time>
      </trkpt>
      <trkpt lat="45.3191" lon="5.7565">
        <ele>1635.8</ele>
        <time>2021-11-21T11:29:17Z</time>
      </trkpt>
      <trkpt lat="45.31915" lon="5.7565">
        <ele>1635.4</ele>
        <time>2021-11-21T11:29:18Z</time>
      </trkpt>
      <trkpt lat="45.31919" lon="5.7565">
        <ele>1635.4</ele>
        <time>2021-11-21T11:29:19Z</time>
      </trkpt>
      <trkpt lat="45.31922" lon="5.75648">
        <ele>1635.4</ele>
        <time>2021-11-21T11:29:20Z</time>
      </trkpt>
      <trkpt lat="45.31925" lon="5.75646">
        <ele>1635.6</ele>
        <time>2021-11-21T11:29:21Z</time>
      </trkpt>
      <trkpt lat="45.31928" lon="5.75645">
        <ele>1635.2</ele>
        <time>2021-11-21T11:29:22Z</time>
      </trkpt>
      <trkpt lat="45.3193" lon="5.75644">
        <ele>1635</ele>
        <time>2021-11-21T11:29:23Z</time>
      </trkpt>
      <trkpt lat="45.31934" lon="5.75644">
        <ele>1634.4</ele>
        <time>2021-11-21T11:29:24Z</time>
      </trkpt>
      <trkpt lat="45.31937" lon="5.75645">
        <ele>1634.4</ele>
        <time>2021-11-21T11:29:25Z</time>
      </trkpt>
      <trkpt lat="45.31941" lon="5.75647">
        <ele>1633.8</ele>
        <time>2021-11-21T11:29:26Z</time>
      </trkpt>
      <trkpt lat="45.31944" lon="5.7565">
        <ele>1633.6</ele>
        <time>2021-11-21T11:29:27Z</time>
      </trkpt>
      <trkpt lat="45.31947" lon="5.75652">
        <ele>1633.4</ele>
        <time>2021-11-21T11:29:28Z</time>
      </trkpt>
      <trkpt lat="45.3195" lon="5.75655">
        <ele>1633.2</ele>
        <time>2021-11-21T11:29:29Z</time>
      </trkpt>
      <trkpt lat="45.31953" lon="5.75657">
        <ele>1632.6</ele>
        <time>2021-11-21T11:29:30Z</time>
      </trkpt>
      <trkpt lat="45.31955" lon="5.7566">
        <ele>1632.4</ele>
        <time>2021-11-21T11:29:31Z</time>
      </trkpt>
      <trkpt lat="45.31957" lon="5.75663">
        <ele>1632.2</ele>
        <time>2021-11-21T11:29:32Z</time>
      </trkpt>
      <trkpt lat="45.3196" lon="5.75665">
        <ele>1632.2</ele>
        <time>2021-11-21T11:29:33Z</time>
      </trkpt>
      <trkpt lat="45.31963" lon="5.75668">
        <ele>1631.8</ele>
        <time>2021-11-21T11:29:34Z</time>
      </trkpt>
      <trkpt lat="45.31965" lon="5.75671">
        <ele>1631.6</ele>
        <time>2021-11-21T11:29:35Z</time>
      </trkpt>
      <trkpt lat="45.31966" lon="5.75675">
        <ele>1631.8</ele>
        <time>2021-11-21T11:29:36Z</time>
      </trkpt>
      <trkpt lat="45.31966" lon="5.75679">
        <ele>1631.8</ele>
        <time>2021-11-21T11:29:37Z</time>
      </trkpt>
      <trkpt lat="45.31966" lon="5.75683">
        <ele>1631.8</ele>
        <time>2021-11-21T11:29:38Z</time>
      </trkpt>
      <trkpt lat="45.31967" lon="5.75686">
        <ele>1631.6</ele>
        <time>2021-11-21T11:29:39Z</time>
      </trkpt>
      <trkpt lat="45.31968" lon="5.75689">
        <ele>1631.4</ele>
        <time>2021-11-21T11:29:40Z</time>
      </trkpt>
      <trkpt lat="45.31969" lon="5.75692">
        <ele>1630.8</ele>
        <time>2021-11-21T11:29:41Z</time>
      </trkpt>
      <trkpt lat="45.3197" lon="5.75694">
        <ele>1630.2</ele>
        <time>2021-11-21T11:29:42Z</time>
      </trkpt>
      <trkpt lat="45.31971" lon="5.75697">
        <ele>1630.4</ele>
        <time>2021-11-21T11:29:43Z</time>
      </trkpt>
      <trkpt lat="45.31971" lon="5.757">
        <ele>1630.8</ele>
        <time>2021-11-21T11:29:44Z</time>
      </trkpt>
      <trkpt lat="45.31972" lon="5.75703">
        <ele>1630.6</ele>
        <time>2021-11-21T11:29:45Z</time>
      </trkpt>
      <trkpt lat="45.31973" lon="5.75707">
        <ele>1630.6</ele>
        <time>2021-11-21T11:29:47Z</time>
      </trkpt>
      <trkpt lat="45.31976" lon="5.7571">
        <ele>1631</ele>
        <time>2021-11-21T11:29:49Z</time>
      </trkpt>
      <trkpt lat="45.31979" lon="5.75712">
        <ele>1631.4</ele>
        <time>2021-11-21T11:29:51Z</time>
      </trkpt>
      <trkpt lat="45.3198" lon="5.75714">
        <ele>1631.4</ele>
        <time>2021-11-21T11:29:52Z</time>
      </trkpt>
      <trkpt lat="45.31982" lon="5.75717">
        <ele>1631.6</ele>
        <time>2021-11-21T11:29:53Z</time>
      </trkpt>
      <trkpt lat="45.31983" lon="5.75719">
        <ele>1632</ele>
        <time>2021-11-21T11:29:54Z</time>
      </trkpt>
      <trkpt lat="45.31984" lon="5.75722">
        <ele>1630.6</ele>
        <time>2021-11-21T11:29:55Z</time>
      </trkpt>
      <trkpt lat="45.31985" lon="5.75724">
        <ele>1630.8</ele>
        <time>2021-11-21T11:29:56Z</time>
      </trkpt>
      <trkpt lat="45.31987" lon="5.75726">
        <ele>1630.4</ele>
        <time>2021-11-21T11:29:57Z</time>
      </trkpt>
      <trkpt lat="45.31988" lon="5.75728">
        <ele>1630.6</ele>
        <time>2021-11-21T11:29:58Z</time>
      </trkpt>
      <trkpt lat="45.3199" lon="5.75729">
        <ele>1630.8</ele>
        <time>2021-11-21T11:29:59Z</time>
      </trkpt>
      <trkpt lat="45.31992" lon="5.7573">
        <ele>1631</ele>
        <time>2021-11-21T11:30:00Z</time>
      </trkpt>
      <trkpt lat="45.31994" lon="5.75731">
        <ele>1630.8</ele>
        <time>2021-11-21T11:30:01Z</time>
      </trkpt>
      <trkpt lat="45.31997" lon="5.75733">
        <ele>1631.2</ele>
        <time>2021-11-21T11:30:02Z</time>
      </trkpt>
      <trkpt lat="45.31999" lon="5.75735">
        <ele>1631.2</ele>
        <time>2021-11-21T11:30:03Z</time>
      </trkpt>
      <trkpt lat="45.32001" lon="5.75737">
        <ele>1630.6</ele>
        <time>2021-11-21T11:30:04Z</time>
      </trkpt>
      <trkpt lat="45.32002" lon="5.75739">
        <ele>1631</ele>
        <time>2021-11-21T11:30:05Z</time>
      </trkpt>
      <trkpt lat="45.32003" lon="5.75742">
        <ele>1631.2</ele>
        <time>2021-11-21T11:30:06Z</time>
      </trkpt>
      <trkpt lat="45.32005" lon="5.75744">
        <ele>1630.8</ele>
        <time>2021-11-21T11:30:07Z</time>
      </trkpt>
      <trkpt lat="45.32006" lon="5.75746">
        <ele>1630.6</ele>
        <time>2021-11-21T11:30:08Z</time>
      </trkpt>
      <trkpt lat="45.32008" lon="5.75747">
        <ele>1630.8</ele>
        <time>2021-11-21T11:30:09Z</time>
      </trkpt>
      <trkpt lat="45.3201" lon="5.75748">
        <ele>1630.4</ele>
        <time>2021-11-21T11:30:10Z</time>
      </trkpt>
      <trkpt lat="45.32013" lon="5.75748">
        <ele>1630.2</ele>
        <time>2021-11-21T11:30:11Z</time>
      </trkpt>
      <trkpt lat="45.32016" lon="5.75748">
        <ele>1630.2</ele>
        <time>2021-11-21T11:30:12Z</time>
      </trkpt>
      <trkpt lat="45.32018" lon="5.75747">
        <ele>1630.2</ele>
        <time>2021-11-21T11:30:13Z</time>
      </trkpt>
      <trkpt lat="45.32021" lon="5.75748">
        <ele>1630.6</ele>
        <time>2021-11-21T11:30:14Z</time>
      </trkpt>
      <trkpt lat="45.32023" lon="5.75749">
        <ele>1630.6</ele>
        <time>2021-11-21T11:30:15Z</time>
      </trkpt>
      <trkpt lat="45.32026" lon="5.75751">
        <ele>1630.6</ele>
        <time>2021-11-21T11:30:16Z</time>
      </trkpt>
      <trkpt lat="45.32028" lon="5.75752">
        <ele>1631</ele>
        <time>2021-11-21T11:30:17Z</time>
      </trkpt>
      <trkpt lat="45.3203" lon="5.75754">
        <ele>1631</ele>
        <time>2021-11-21T11:30:18Z</time>
      </trkpt>
      <trkpt lat="45.32032" lon="5.75756">
        <ele>1631.4</ele>
        <time>2021-11-21T11:30:19Z</time>
      </trkpt>
      <trkpt lat="45.32034" lon="5.75756">
        <ele>1631.8</ele>
        <time>2021-11-21T11:30:20Z</time>
      </trkpt>
      <trkpt lat="45.32036" lon="5.75756">
        <ele>1632</ele>
        <time>2021-11-21T11:30:21Z</time>
      </trkpt>
      <trkpt lat="45.32039" lon="5.75756">
        <ele>1631.8</ele>
        <time>2021-11-21T11:30:22Z</time>
      </trkpt>
      <trkpt lat="45.32041" lon="5.75757">
        <ele>1632.8</ele>
        <time>2021-11-21T11:30:23Z</time>
      </trkpt>
      <trkpt lat="45.32043" lon="5.75757">
        <ele>1633.4</ele>
        <time>2021-11-21T11:30:24Z</time>
      </trkpt>
      <trkpt lat="45.32045" lon="5.75757">
        <ele>1633.8</ele>
        <time>2021-11-21T11:30:25Z</time>
      </trkpt>
      <trkpt lat="45.32047" lon="5.75758">
        <ele>1634</ele>
        <time>2021-11-21T11:30:26Z</time>
      </trkpt>
      <trkpt lat="45.32049" lon="5.75758">
        <ele>1634.4</ele>
        <time>2021-11-21T11:30:27Z</time>
      </trkpt>
      <trkpt lat="45.32051" lon="5.75759">
        <ele>1635</ele>
        <time>2021-11-21T11:30:28Z</time>
      </trkpt>
      <trkpt lat="45.32054" lon="5.75759">
        <ele>1635.2</ele>
        <time>2021-11-21T11:30:29Z</time>
      </trkpt>
      <trkpt lat="45.32056" lon="5.7576">
        <ele>1635.8</ele>
        <time>2021-11-21T11:30:30Z</time>
      </trkpt>
      <trkpt lat="45.32059" lon="5.7576">
        <ele>1636.4</ele>
        <time>2021-11-21T11:30:31Z</time>
      </trkpt>
      <trkpt lat="45.32062" lon="5.7576">
        <ele>1636.8</ele>
        <time>2021-11-21T11:30:32Z</time>
      </trkpt>
      <trkpt lat="45.32064" lon="5.75761">
        <ele>1637.6</ele>
        <time>2021-11-21T11:30:33Z</time>
      </trkpt>
      <trkpt lat="45.32067" lon="5.75761">
        <ele>1638</ele>
        <time>2021-11-21T11:30:34Z</time>
      </trkpt>
      <trkpt lat="45.3207" lon="5.75762">
        <ele>1638.2</ele>
        <time>2021-11-21T11:30:35Z</time>
      </trkpt>
      <trkpt lat="45.32073" lon="5.75762">
        <ele>1638.8</ele>
        <time>2021-11-21T11:30:36Z</time>
      </trkpt>
      <trkpt lat="45.32075" lon="5.75761">
        <ele>1639.4</ele>
        <time>2021-11-21T11:30:37Z</time>
      </trkpt>
      <trkpt lat="45.32077" lon="5.7576">
        <ele>1640</ele>
        <time>2021-11-21T11:30:38Z</time>
      </trkpt>
      <trkpt lat="45.3208" lon="5.7576">
        <ele>1640.2</ele>
        <time>2021-11-21T11:30:39Z</time>
      </trkpt>
      <trkpt lat="45.32082" lon="5.75759">
        <ele>1640.4</ele>
        <time>2021-11-21T11:30:40Z</time>
      </trkpt>
      <trkpt lat="45.32084" lon="5.75758">
        <ele>1640.6</ele>
        <time>2021-11-21T11:30:41Z</time>
      </trkpt>
      <trkpt lat="45.32086" lon="5.75757">
        <ele>1641</ele>
        <time>2021-11-21T11:30:42Z</time>
      </trkpt>
      <trkpt lat="45.32088" lon="5.75757">
        <ele>1641.6</ele>
        <time>2021-11-21T11:30:43Z</time>
      </trkpt>
      <trkpt lat="45.32091" lon="5.75757">
        <ele>1642</ele>
        <time>2021-11-21T11:30:44Z</time>
      </trkpt>
      <trkpt lat="45.32093" lon="5.75757">
        <ele>1642.8</ele>
        <time>2021-11-21T11:30:45Z</time>
      </trkpt>
      <trkpt lat="45.32095" lon="5.75756">
        <ele>1643.2</ele>
        <time>2021-11-21T11:30:46Z</time>
      </trkpt>
      <trkpt lat="45.32098" lon="5.75756">
        <ele>1643.2</ele>
        <time>2021-11-21T11:30:47Z</time>
      </trkpt>
      <trkpt lat="45.321" lon="5.75756">
        <ele>1644</ele>
        <time>2021-11-21T11:30:48Z</time>
      </trkpt>
      <trkpt lat="45.32102" lon="5.75756">
        <ele>1643</ele>
        <time>2021-11-21T11:30:49Z</time>
      </trkpt>
      <trkpt lat="45.32105" lon="5.75757">
        <ele>1643.8</ele>
        <time>2021-11-21T11:30:50Z</time>
      </trkpt>
      <trkpt lat="45.32107" lon="5.75757">
        <ele>1644.4</ele>
        <time>2021-11-21T11:30:51Z</time>
      </trkpt>
      <trkpt lat="45.32109" lon="5.75757">
        <ele>1644.8</ele>
        <time>2021-11-21T11:30:52Z</time>
      </trkpt>
      <trkpt lat="45.32112" lon="5.75758">
        <ele>1645.2</ele>
        <time>2021-11-21T11:30:53Z</time>
      </trkpt>
      <trkpt lat="45.32115" lon="5.75759">
        <ele>1646</ele>
        <time>2021-11-21T11:30:54Z</time>
      </trkpt>
      <trkpt lat="45.32118" lon="5.7576">
        <ele>1646.4</ele>
        <time>2021-11-21T11:30:55Z</time>
      </trkpt>
      <trkpt lat="45.3212" lon="5.75762">
        <ele>1647.6</ele>
        <time>2021-11-21T11:30:56Z</time>
      </trkpt>
      <trkpt lat="45.32123" lon="5.75763">
        <ele>1648</ele>
        <time>2021-11-21T11:30:57Z</time>
      </trkpt>
      <trkpt lat="45.32125" lon="5.75764">
        <ele>1648.2</ele>
        <time>2021-11-21T11:30:58Z</time>
      </trkpt>
      <trkpt lat="45.32127" lon="5.75764">
        <ele>1649</ele>
        <time>2021-11-21T11:30:59Z</time>
      </trkpt>
      <trkpt lat="45.3213" lon="5.75765">
        <ele>1649.4</ele>
        <time>2021-11-21T11:31:00Z</time>
      </trkpt>
      <trkpt lat="45.32131" lon="5.75767">
        <ele>1649.6</ele>
        <time>2021-11-21T11:31:01Z</time>
      </trkpt>
      <trkpt lat="45.32133" lon="5.75768">
        <ele>1649.8</ele>
        <time>2021-11-21T11:31:02Z</time>
      </trkpt>
      <trkpt lat="45.32135" lon="5.7577">
        <ele>1650.6</ele>
        <time>2021-11-21T11:31:03Z</time>
      </trkpt>
      <trkpt lat="45.32137" lon="5.7577">
        <ele>1651</ele>
        <time>2021-11-21T11:31:04Z</time>
      </trkpt>
      <trkpt lat="45.32139" lon="5.75772">
        <ele>1651.4</ele>
        <time>2021-11-21T11:31:05Z</time>
      </trkpt>
      <trkpt lat="45.3214" lon="5.75773">
        <ele>1651.8</ele>
        <time>2021-11-21T11:31:06Z</time>
      </trkpt>
      <trkpt lat="45.32142" lon="5.75775">
        <ele>1651.6</ele>
        <time>2021-11-21T11:31:07Z</time>
      </trkpt>
      <trkpt lat="45.32145" lon="5.75776">
        <ele>1652.4</ele>
        <time>2021-11-21T11:31:09Z</time>
      </trkpt>
      <trkpt lat="45.32148" lon="5.75778">
        <ele>1653.6</ele>
        <time>2021-11-21T11:31:11Z</time>
      </trkpt>
      <trkpt lat="45.3215" lon="5.75779">
        <ele>1654.2</ele>
        <time>2021-11-21T11:31:12Z</time>
      </trkpt>
      <trkpt lat="45.32152" lon="5.7578">
        <ele>1654.6</ele>
        <time>2021-11-21T11:31:13Z</time>
      </trkpt>
      <trkpt lat="45.32155" lon="5.75781">
        <ele>1655</ele>
        <time>2021-11-21T11:31:14Z</time>
      </trkpt>
      <trkpt lat="45.32157" lon="5.75783">
        <ele>1655.8</ele>
        <time>2021-11-21T11:31:15Z</time>
      </trkpt>
      <trkpt lat="45.32159" lon="5.75784">
        <ele>1656.2</ele>
        <time>2021-11-21T11:31:16Z</time>
      </trkpt>
      <trkpt lat="45.32161" lon="5.75786">
        <ele>1656.8</ele>
        <time>2021-11-21T11:31:17Z</time>
      </trkpt>
      <trkpt lat="45.32163" lon="5.75787">
        <ele>1657.2</ele>
        <time>2021-11-21T11:31:18Z</time>
      </trkpt>
      <trkpt lat="45.32165" lon="5.75789">
        <ele>1658</ele>
        <time>2021-11-21T11:31:19Z</time>
      </trkpt>
      <trkpt lat="45.32167" lon="5.75791">
        <ele>1658.2</ele>
        <time>2021-11-21T11:31:20Z</time>
      </trkpt>
      <trkpt lat="45.32169" lon="5.75792">
        <ele>1658.8</ele>
        <time>2021-11-21T11:31:21Z</time>
      </trkpt>
      <trkpt lat="45.32171" lon="5.75793">
        <ele>1659.2</ele>
        <time>2021-11-21T11:31:22Z</time>
      </trkpt>
      <trkpt lat="45.32173" lon="5.75794">
        <ele>1659.2</ele>
        <time>2021-11-21T11:31:23Z</time>
      </trkpt>
      <trkpt lat="45.32176" lon="5.75794">
        <ele>1659.8</ele>
        <time>2021-11-21T11:31:24Z</time>
      </trkpt>
      <trkpt lat="45.32178" lon="5.75794">
        <ele>1660.4</ele>
        <time>2021-11-21T11:31:25Z</time>
      </trkpt>
      <trkpt lat="45.3218" lon="5.75795">
        <ele>1660.6</ele>
        <time>2021-11-21T11:31:26Z</time>
      </trkpt>
      <trkpt lat="45.32183" lon="5.75796">
        <ele>1660.8</ele>
        <time>2021-11-21T11:31:27Z</time>
      </trkpt>
      <trkpt lat="45.32185" lon="5.75796">
        <ele>1661.2</ele>
        <time>2021-11-21T11:31:28Z</time>
      </trkpt>
      <trkpt lat="45.32188" lon="5.75797">
        <ele>1661.4</ele>
        <time>2021-11-21T11:31:29Z</time>
      </trkpt>
      <trkpt lat="45.3219" lon="5.75797">
        <ele>1661.8</ele>
        <time>2021-11-21T11:31:30Z</time>
      </trkpt>
      <trkpt lat="45.32192" lon="5.75798">
        <ele>1662.2</ele>
        <time>2021-11-21T11:31:31Z</time>
      </trkpt>
      <trkpt lat="45.32195" lon="5.75798">
        <ele>1662.6</ele>
        <time>2021-11-21T11:31:32Z</time>
      </trkpt>
      <trkpt lat="45.32197" lon="5.75799">
        <ele>1663</ele>
        <time>2021-11-21T11:31:33Z</time>
      </trkpt>
      <trkpt lat="45.32199" lon="5.75799">
        <ele>1663.2</ele>
        <time>2021-11-21T11:31:34Z</time>
      </trkpt>
      <trkpt lat="45.32201" lon="5.758">
        <ele>1664</ele>
        <time>2021-11-21T11:31:35Z</time>
      </trkpt>
      <trkpt lat="45.32204" lon="5.75801">
        <ele>1664.2</ele>
        <time>2021-11-21T11:31:36Z</time>
      </trkpt>
      <trkpt lat="45.32206" lon="5.75802">
        <ele>1665</ele>
        <time>2021-11-21T11:31:37Z</time>
      </trkpt>
      <trkpt lat="45.32208" lon="5.75802">
        <ele>1665.2</ele>
        <time>2021-11-21T11:31:38Z</time>
      </trkpt>
      <trkpt lat="45.3221" lon="5.75803">
        <ele>1665.8</ele>
        <time>2021-11-21T11:31:39Z</time>
      </trkpt>
      <trkpt lat="45.32213" lon="5.75802">
        <ele>1666.6</ele>
        <time>2021-11-21T11:31:41Z</time>
      </trkpt>
      <trkpt lat="45.32215" lon="5.75799">
        <ele>1666.2</ele>
        <time>2021-11-21T11:31:43Z</time>
      </trkpt>
      <trkpt lat="45.32216" lon="5.75797">
        <ele>1667.2</ele>
        <time>2021-11-21T11:31:44Z</time>
      </trkpt>
      <trkpt lat="45.32217" lon="5.75795">
        <ele>1667.6</ele>
        <time>2021-11-21T11:31:45Z</time>
      </trkpt>
      <trkpt lat="45.32219" lon="5.75793">
        <ele>1668.2</ele>
        <time>2021-11-21T11:31:46Z</time>
      </trkpt>
      <trkpt lat="45.3222" lon="5.7579">
        <ele>1669</ele>
        <time>2021-11-21T11:31:47Z</time>
      </trkpt>
      <trkpt lat="45.32222" lon="5.75788">
        <ele>1669.6</ele>
        <time>2021-11-21T11:31:48Z</time>
      </trkpt>
      <trkpt lat="45.32224" lon="5.75787">
        <ele>1670.4</ele>
        <time>2021-11-21T11:31:49Z</time>
      </trkpt>
      <trkpt lat="45.32226" lon="5.75786">
        <ele>1671</ele>
        <time>2021-11-21T11:31:50Z</time>
      </trkpt>
      <trkpt lat="45.32228" lon="5.75786">
        <ele>1671.2</ele>
        <time>2021-11-21T11:31:51Z</time>
      </trkpt>
      <trkpt lat="45.3223" lon="5.75785">
        <ele>1672</ele>
        <time>2021-11-21T11:31:52Z</time>
      </trkpt>
      <trkpt lat="45.32232" lon="5.75785">
        <ele>1672.2</ele>
        <time>2021-11-21T11:31:53Z</time>
      </trkpt>
      <trkpt lat="45.32234" lon="5.75784">
        <ele>1672.4</ele>
        <time>2021-11-21T11:31:54Z</time>
      </trkpt>
      <trkpt lat="45.32236" lon="5.75782">
        <ele>1673.2</ele>
        <time>2021-11-21T11:31:55Z</time>
      </trkpt>
      <trkpt lat="45.32238" lon="5.7578">
        <ele>1673.6</ele>
        <time>2021-11-21T11:31:56Z</time>
      </trkpt>
      <trkpt lat="45.3224" lon="5.75779">
        <ele>1673.8</ele>
        <time>2021-11-21T11:31:57Z</time>
      </trkpt>
      <trkpt lat="45.32242" lon="5.75778">
        <ele>1674</ele>
        <time>2021-11-21T11:31:58Z</time>
      </trkpt>
      <trkpt lat="45.32244" lon="5.75778">
        <ele>1674.2</ele>
        <time>2021-11-21T11:31:59Z</time>
      </trkpt>
      <trkpt lat="45.32246" lon="5.75777">
        <ele>1674.8</ele>
        <time>2021-11-21T11:32:00Z</time>
      </trkpt>
      <trkpt lat="45.32248" lon="5.75777">
        <ele>1675</ele>
        <time>2021-11-21T11:32:01Z</time>
      </trkpt>
      <trkpt lat="45.3225" lon="5.75777">
        <ele>1675</ele>
        <time>2021-11-21T11:32:02Z</time>
      </trkpt>
      <trkpt lat="45.32251" lon="5.75777">
        <ele>1675.4</ele>
        <time>2021-11-21T11:32:03Z</time>
      </trkpt>
      <trkpt lat="45.32255" lon="5.75779">
        <ele>1676.2</ele>
        <time>2021-11-21T11:32:05Z</time>
      </trkpt>
      <trkpt lat="45.32257" lon="5.75781">
        <ele>1676.6</ele>
        <time>2021-11-21T11:32:06Z</time>
      </trkpt>
      <trkpt lat="45.32258" lon="5.75783">
        <ele>1677.2</ele>
        <time>2021-11-21T11:32:07Z</time>
      </trkpt>
      <trkpt lat="45.32259" lon="5.75784">
        <ele>1677.4</ele>
        <time>2021-11-21T11:32:08Z</time>
      </trkpt>
      <trkpt lat="45.32261" lon="5.75786">
        <ele>1678</ele>
        <time>2021-11-21T11:32:09Z</time>
      </trkpt>
      <trkpt lat="45.32263" lon="5.7579">
        <ele>1678.6</ele>
        <time>2021-11-21T11:32:11Z</time>
      </trkpt>
      <trkpt lat="45.32266" lon="5.75792">
        <ele>1678.6</ele>
        <time>2021-11-21T11:32:13Z</time>
      </trkpt>
      <trkpt lat="45.32268" lon="5.75796">
        <ele>1679.2</ele>
        <time>2021-11-21T11:32:15Z</time>
      </trkpt>
      <trkpt lat="45.32269" lon="5.75798">
        <ele>1679.4</ele>
        <time>2021-11-21T11:32:16Z</time>
      </trkpt>
      <trkpt lat="45.3227" lon="5.75801">
        <ele>1680</ele>
        <time>2021-11-21T11:32:17Z</time>
      </trkpt>
      <trkpt lat="45.32272" lon="5.75803">
        <ele>1680.2</ele>
        <time>2021-11-21T11:32:18Z</time>
      </trkpt>
      <trkpt lat="45.32273" lon="5.75805">
        <ele>1680.2</ele>
        <time>2021-11-21T11:32:19Z</time>
      </trkpt>
      <trkpt lat="45.32275" lon="5.75808">
        <ele>1680.4</ele>
        <time>2021-11-21T11:32:20Z</time>
      </trkpt>
      <trkpt lat="45.32276" lon="5.7581">
        <ele>1680.4</ele>
        <time>2021-11-21T11:32:21Z</time>
      </trkpt>
      <trkpt lat="45.32277" lon="5.75812">
        <ele>1680.8</ele>
        <time>2021-11-21T11:32:22Z</time>
      </trkpt>
      <trkpt lat="45.32279" lon="5.75815">
        <ele>1681</ele>
        <time>2021-11-21T11:32:23Z</time>
      </trkpt>
      <trkpt lat="45.32281" lon="5.75817">
        <ele>1681.4</ele>
        <time>2021-11-21T11:32:24Z</time>
      </trkpt>
      <trkpt lat="45.32283" lon="5.75819">
        <ele>1682</ele>
        <time>2021-11-21T11:32:25Z</time>
      </trkpt>
      <trkpt lat="45.32285" lon="5.75821">
        <ele>1682.4</ele>
        <time>2021-11-21T11:32:26Z</time>
      </trkpt>
      <trkpt lat="45.32287" lon="5.75822">
        <ele>1682.2</ele>
        <time>2021-11-21T11:32:27Z</time>
      </trkpt>
      <trkpt lat="45.32289" lon="5.75824">
        <ele>1681.6</ele>
        <time>2021-11-21T11:32:28Z</time>
      </trkpt>
      <trkpt lat="45.32291" lon="5.75825">
        <ele>1682.2</ele>
        <time>2021-11-21T11:32:29Z</time>
      </trkpt>
      <trkpt lat="45.32293" lon="5.75827">
        <ele>1682.8</ele>
        <time>2021-11-21T11:32:30Z</time>
      </trkpt>
      <trkpt lat="45.32295" lon="5.75829">
        <ele>1683.2</ele>
        <time>2021-11-21T11:32:31Z</time>
      </trkpt>
      <trkpt lat="45.32297" lon="5.7583">
        <ele>1683.8</ele>
        <time>2021-11-21T11:32:32Z</time>
      </trkpt>
      <trkpt lat="45.32299" lon="5.75831">
        <ele>1684</ele>
        <time>2021-11-21T11:32:33Z</time>
      </trkpt>
      <trkpt lat="45.32302" lon="5.7583">
        <ele>1684.6</ele>
        <time>2021-11-21T11:32:34Z</time>
      </trkpt>
      <trkpt lat="45.32304" lon="5.7583">
        <ele>1685</ele>
        <time>2021-11-21T11:32:35Z</time>
      </trkpt>
      <trkpt lat="45.32307" lon="5.7583">
        <ele>1685.2</ele>
        <time>2021-11-21T11:32:36Z</time>
      </trkpt>
      <trkpt lat="45.32309" lon="5.75831">
        <ele>1685.8</ele>
        <time>2021-11-21T11:32:37Z</time>
      </trkpt>
      <trkpt lat="45.32312" lon="5.75832">
        <ele>1686.2</ele>
        <time>2021-11-21T11:32:38Z</time>
      </trkpt>
      <trkpt lat="45.32314" lon="5.75833">
        <ele>1686.6</ele>
        <time>2021-11-21T11:32:39Z</time>
      </trkpt>
      <trkpt lat="45.32316" lon="5.75835">
        <ele>1686.8</ele>
        <time>2021-11-21T11:32:40Z</time>
      </trkpt>
      <trkpt lat="45.32318" lon="5.75836">
        <ele>1687.2</ele>
        <time>2021-11-21T11:32:41Z</time>
      </trkpt>
      <trkpt lat="45.3232" lon="5.75837">
        <ele>1687.8</ele>
        <time>2021-11-21T11:32:42Z</time>
      </trkpt>
      <trkpt lat="45.32322" lon="5.75838">
        <ele>1688</ele>
        <time>2021-11-21T11:32:43Z</time>
      </trkpt>
      <trkpt lat="45.32323" lon="5.75839">
        <ele>1688.4</ele>
        <time>2021-11-21T11:32:44Z</time>
      </trkpt>
      <trkpt lat="45.32325" lon="5.75841">
        <ele>1688.6</ele>
        <time>2021-11-21T11:32:45Z</time>
      </trkpt>
      <trkpt lat="45.32327" lon="5.75842">
        <ele>1689</ele>
        <time>2021-11-21T11:32:46Z</time>
      </trkpt>
      <trkpt lat="45.32329" lon="5.75843">
        <ele>1689.6</ele>
        <time>2021-11-21T11:32:47Z</time>
      </trkpt>
      <trkpt lat="45.32331" lon="5.75844">
        <ele>1690</ele>
        <time>2021-11-21T11:32:48Z</time>
      </trkpt>
      <trkpt lat="45.32333" lon="5.75844">
        <ele>1690.6</ele>
        <time>2021-11-21T11:32:49Z</time>
      </trkpt>
      <trkpt lat="45.32334" lon="5.75845">
        <ele>1690.6</ele>
        <time>2021-11-21T11:32:50Z</time>
      </trkpt>
      <trkpt lat="45.32336" lon="5.75844">
        <ele>1690.8</ele>
        <time>2021-11-21T11:32:51Z</time>
      </trkpt>
      <trkpt lat="45.32338" lon="5.75844">
        <ele>1691.2</ele>
        <time>2021-11-21T11:32:52Z</time>
      </trkpt>
      <trkpt lat="45.3234" lon="5.75843">
        <ele>1691</ele>
        <time>2021-11-21T11:32:53Z</time>
      </trkpt>
      <trkpt lat="45.32342" lon="5.75842">
        <ele>1691.6</ele>
        <time>2021-11-21T11:32:54Z</time>
      </trkpt>
      <trkpt lat="45.32344" lon="5.75841">
        <ele>1691.8</ele>
        <time>2021-11-21T11:32:55Z</time>
      </trkpt>
      <trkpt lat="45.32347" lon="5.7584">
        <ele>1692</ele>
        <time>2021-11-21T11:32:57Z</time>
      </trkpt>
      <trkpt lat="45.3235" lon="5.75841">
        <ele>1693</ele>
        <time>2021-11-21T11:32:59Z</time>
      </trkpt>
      <trkpt lat="45.32352" lon="5.75841">
        <ele>1693.2</ele>
        <time>2021-11-21T11:33:00Z</time>
      </trkpt>
      <trkpt lat="45.32354" lon="5.75842">
        <ele>1693.6</ele>
        <time>2021-11-21T11:33:01Z</time>
      </trkpt>
      <trkpt lat="45.32357" lon="5.75845">
        <ele>1694</ele>
        <time>2021-11-21T11:33:03Z</time>
      </trkpt>
      <trkpt lat="45.32359" lon="5.75846">
        <ele>1694.2</ele>
        <time>2021-11-21T11:33:04Z</time>
      </trkpt>
      <trkpt lat="45.3236" lon="5.75848">
        <ele>1694</ele>
        <time>2021-11-21T11:33:05Z</time>
      </trkpt>
      <trkpt lat="45.32362" lon="5.75849">
        <ele>1694</ele>
        <time>2021-11-21T11:33:06Z</time>
      </trkpt>
      <trkpt lat="45.32364" lon="5.7585">
        <ele>1694</ele>
        <time>2021-11-21T11:33:07Z</time>
      </trkpt>
      <trkpt lat="45.32366" lon="5.75855">
        <ele>1694</ele>
        <time>2021-11-21T11:33:09Z</time>
      </trkpt>
      <trkpt lat="45.32366" lon="5.75857">
        <ele>1694.2</ele>
        <time>2021-11-21T11:33:10Z</time>
      </trkpt>
      <trkpt lat="45.32367" lon="5.7586">
        <ele>1694</ele>
        <time>2021-11-21T11:33:11Z</time>
      </trkpt>
      <trkpt lat="45.32368" lon="5.75862">
        <ele>1694</ele>
        <time>2021-11-21T11:33:12Z</time>
      </trkpt>
      <trkpt lat="45.32368" lon="5.75864">
        <ele>1694.4</ele>
        <time>2021-11-21T11:33:13Z</time>
      </trkpt>
      <trkpt lat="45.32369" lon="5.75867">
        <ele>1694.6</ele>
        <time>2021-11-21T11:33:14Z</time>
      </trkpt>
      <trkpt lat="45.3237" lon="5.75869">
        <ele>1694.8</ele>
        <time>2021-11-21T11:33:15Z</time>
      </trkpt>
      <trkpt lat="45.32372" lon="5.75872">
        <ele>1694.8</ele>
        <time>2021-11-21T11:33:16Z</time>
      </trkpt>
      <trkpt lat="45.32373" lon="5.75874">
        <ele>1695.2</ele>
        <time>2021-11-21T11:33:17Z</time>
      </trkpt>
      <trkpt lat="45.32375" lon="5.75876">
        <ele>1694.8</ele>
        <time>2021-11-21T11:33:18Z</time>
      </trkpt>
      <trkpt lat="45.32377" lon="5.75878">
        <ele>1695</ele>
        <time>2021-11-21T11:33:19Z</time>
      </trkpt>
      <trkpt lat="45.32379" lon="5.7588">
        <ele>1695.4</ele>
        <time>2021-11-21T11:33:20Z</time>
      </trkpt>
      <trkpt lat="45.3238" lon="5.75883">
        <ele>1695.6</ele>
        <time>2021-11-21T11:33:21Z</time>
      </trkpt>
      <trkpt lat="45.32381" lon="5.75885">
        <ele>1696</ele>
        <time>2021-11-21T11:33:22Z</time>
      </trkpt>
      <trkpt lat="45.32382" lon="5.75887">
        <ele>1695.8</ele>
        <time>2021-11-21T11:33:23Z</time>
      </trkpt>
      <trkpt lat="45.32383" lon="5.7589">
        <ele>1696.2</ele>
        <time>2021-11-21T11:33:24Z</time>
      </trkpt>
      <trkpt lat="45.32384" lon="5.75892">
        <ele>1696.4</ele>
        <time>2021-11-21T11:33:25Z</time>
      </trkpt>
      <trkpt lat="45.32384" lon="5.75895">
        <ele>1696.6</ele>
        <time>2021-11-21T11:33:26Z</time>
      </trkpt>
      <trkpt lat="45.32385" lon="5.75897">
        <ele>1696.4</ele>
        <time>2021-11-21T11:33:27Z</time>
      </trkpt>
      <trkpt lat="45.32387" lon="5.759">
        <ele>1696.8</ele>
        <time>2021-11-21T11:33:29Z</time>
      </trkpt>
      <trkpt lat="45.32386" lon="5.75897">
        <ele>1698.6</ele>
        <time>2021-11-21T11:33:40Z</time>
      </trkpt>
      <trkpt lat="45.32388" lon="5.759">
        <ele>1699</ele>
        <time>2021-11-21T11:33:46Z</time>
      </trkpt>
      <trkpt lat="45.3239" lon="5.759">
        <ele>1699.2</ele>
        <time>2021-11-21T11:33:53Z</time>
      </trkpt>
      <trkpt lat="45.32391" lon="5.75902">
        <ele>1699.4</ele>
        <time>2021-11-21T11:33:55Z</time>
      </trkpt>
      <trkpt lat="45.32394" lon="5.759">
        <ele>1699.8</ele>
        <time>2021-11-21T11:34:00Z</time>
      </trkpt>
      <trkpt lat="45.32395" lon="5.75898">
        <ele>1699.6</ele>
        <time>2021-11-21T11:34:02Z</time>
      </trkpt>
      <trkpt lat="45.32397" lon="5.75896">
        <ele>1698.8</ele>
        <time>2021-11-21T11:34:04Z</time>
      </trkpt>
      <trkpt lat="45.32399" lon="5.75898">
        <ele>1698.4</ele>
        <time>2021-11-21T11:34:07Z</time>
      </trkpt>
      <trkpt lat="45.32398" lon="5.75895">
        <ele>1697.2</ele>
        <time>2021-11-21T11:34:15Z</time>
      </trkpt>
      <trkpt lat="45.32396" lon="5.75895">
        <ele>1697.8</ele>
        <time>2021-11-21T11:34:24Z</time>
      </trkpt>
      <trkpt lat="45.32393" lon="5.75895">
        <ele>1697.4</ele>
        <time>2021-11-21T11:34:26Z</time>
      </trkpt>
      <trkpt lat="45.32391" lon="5.75897">
        <ele>1698</ele>
        <time>2021-11-21T11:34:28Z</time>
      </trkpt>
      <trkpt lat="45.32388" lon="5.75898">
        <ele>1697.6</ele>
        <time>2021-11-21T11:34:35Z</time>
      </trkpt>
      <trkpt lat="45.32386" lon="5.75899">
        <ele>1697.8</ele>
        <time>2021-11-21T11:34:38Z</time>
      </trkpt>
      <trkpt lat="45.32385" lon="5.75897">
        <ele>1698</ele>
        <time>2021-11-21T11:34:40Z</time>
      </trkpt>
      <trkpt lat="45.32383" lon="5.75897">
        <ele>1698.4</ele>
        <time>2021-11-21T11:34:42Z</time>
      </trkpt>
      <trkpt lat="45.3238" lon="5.75897">
        <ele>1698.8</ele>
        <time>2021-11-21T11:34:44Z</time>
      </trkpt>
      <trkpt lat="45.32378" lon="5.75898">
        <ele>1699.6</ele>
        <time>2021-11-21T11:34:46Z</time>
      </trkpt>
      <trkpt lat="45.32376" lon="5.759">
        <ele>1699.8</ele>
        <time>2021-11-21T11:34:48Z</time>
      </trkpt>
      <trkpt lat="45.32374" lon="5.759">
        <ele>1699.6</ele>
        <time>2021-11-21T11:34:52Z</time>
      </trkpt>
      <trkpt lat="45.32371" lon="5.75902">
        <ele>1699.4</ele>
        <time>2021-11-21T11:34:54Z</time>
      </trkpt>
      <trkpt lat="45.32369" lon="5.75903">
        <ele>1699.2</ele>
        <time>2021-11-21T11:34:55Z</time>
      </trkpt>
      <trkpt lat="45.32367" lon="5.75904">
        <ele>1699.6</ele>
        <time>2021-11-21T11:34:57Z</time>
      </trkpt>
      <trkpt lat="45.32365" lon="5.75905">
        <ele>1699.4</ele>
        <time>2021-11-21T11:34:59Z</time>
      </trkpt>
      <trkpt lat="45.32362" lon="5.75906">
        <ele>1699.4</ele>
        <time>2021-11-21T11:35:01Z</time>
      </trkpt>
      <trkpt lat="45.3236" lon="5.75908">
        <ele>1699</ele>
        <time>2021-11-21T11:35:03Z</time>
      </trkpt>
      <trkpt lat="45.32358" lon="5.7591">
        <ele>1699</ele>
        <time>2021-11-21T11:35:05Z</time>
      </trkpt>
      <trkpt lat="45.32355" lon="5.75912">
        <ele>1699.4</ele>
        <time>2021-11-21T11:35:07Z</time>
      </trkpt>
      <trkpt lat="45.32353" lon="5.75913">
        <ele>1699.2</ele>
        <time>2021-11-21T11:35:09Z</time>
      </trkpt>
      <trkpt lat="45.32352" lon="5.75914">
        <ele>1699.4</ele>
        <time>2021-11-21T11:35:11Z</time>
      </trkpt>
      <trkpt lat="45.32354" lon="5.75913">
        <ele>1701.2</ele>
        <time>2021-11-21T11:35:44Z</time>
      </trkpt>
      <trkpt lat="45.32356" lon="5.75911">
        <ele>1701</ele>
        <time>2021-11-21T11:35:46Z</time>
      </trkpt>
      <trkpt lat="45.32358" lon="5.75911">
        <ele>1700.8</ele>
        <time>2021-11-21T11:35:48Z</time>
      </trkpt>
      <trkpt lat="45.32361" lon="5.75909">
        <ele>1700.6</ele>
        <time>2021-11-21T11:35:50Z</time>
      </trkpt>
      <trkpt lat="45.32363" lon="5.75907">
        <ele>1700.2</ele>
        <time>2021-11-21T11:35:52Z</time>
      </trkpt>
      <trkpt lat="45.32365" lon="5.75905">
        <ele>1699.8</ele>
        <time>2021-11-21T11:35:54Z</time>
      </trkpt>
      <trkpt lat="45.32367" lon="5.75904">
        <ele>1699.6</ele>
        <time>2021-11-21T11:35:56Z</time>
      </trkpt>
      <trkpt lat="45.3237" lon="5.75902">
        <ele>1699.4</ele>
        <time>2021-11-21T11:35:58Z</time>
      </trkpt>
      <trkpt lat="45.32372" lon="5.75901">
        <ele>1699.6</ele>
        <time>2021-11-21T11:36:00Z</time>
      </trkpt>
      <trkpt lat="45.32374" lon="5.75901">
        <ele>1699.6</ele>
        <time>2021-11-21T11:36:02Z</time>
      </trkpt>
      <trkpt lat="45.32376" lon="5.759">
        <ele>1699.4</ele>
        <time>2021-11-21T11:36:04Z</time>
      </trkpt>
      <trkpt lat="45.32378" lon="5.75898">
        <ele>1699.8</ele>
        <time>2021-11-21T11:36:06Z</time>
      </trkpt>
      <trkpt lat="45.32381" lon="5.75899">
        <ele>1699.8</ele>
        <time>2021-11-21T11:36:08Z</time>
      </trkpt>
      <trkpt lat="45.32383" lon="5.75898">
        <ele>1699.6</ele>
        <time>2021-11-21T11:36:11Z</time>
      </trkpt>
      <trkpt lat="45.32385" lon="5.75897">
        <ele>1699.4</ele>
        <time>2021-11-21T11:36:13Z</time>
      </trkpt>
      <trkpt lat="45.32387" lon="5.75895">
        <ele>1699</ele>
        <time>2021-11-21T11:36:15Z</time>
      </trkpt>
      <trkpt lat="45.32388" lon="5.75897">
        <ele>1698.6</ele>
        <time>2021-11-21T11:36:45Z</time>
      </trkpt>
      <trkpt lat="45.32388" lon="5.759">
        <ele>1698.6</ele>
        <time>2021-11-21T11:36:48Z</time>
      </trkpt>
      <trkpt lat="45.3239" lon="5.75898">
        <ele>1699.4</ele>
        <time>2021-11-21T11:36:57Z</time>
      </trkpt>
      <trkpt lat="45.32388" lon="5.75898">
        <ele>1699</ele>
        <time>2021-11-21T11:37:06Z</time>
      </trkpt>
      <trkpt lat="45.32386" lon="5.75897">
        <ele>1698.8</ele>
        <time>2021-11-21T11:37:21Z</time>
      </trkpt>
      <trkpt lat="45.32384" lon="5.75895">
        <ele>1698.6</ele>
        <time>2021-11-21T11:37:26Z</time>
      </trkpt>
      <trkpt lat="45.32382" lon="5.75897">
        <ele>1699.2</ele>
        <time>2021-11-21T11:37:28Z</time>
      </trkpt>
      <trkpt lat="45.3238" lon="5.75901">
        <ele>1699.2</ele>
        <time>2021-11-21T11:37:30Z</time>
      </trkpt>
      <trkpt lat="45.3238" lon="5.75906">
        <ele>1699.2</ele>
        <time>2021-11-21T11:37:32Z</time>
      </trkpt>
      <trkpt lat="45.32378" lon="5.7591">
        <ele>1698.6</ele>
        <time>2021-11-21T11:37:34Z</time>
      </trkpt>
      <trkpt lat="45.32376" lon="5.75912">
        <ele>1698.6</ele>
        <time>2021-11-21T11:37:35Z</time>
      </trkpt>
      <trkpt lat="45.32374" lon="5.75913">
        <ele>1698.8</ele>
        <time>2021-11-21T11:37:36Z</time>
      </trkpt>
      <trkpt lat="45.32373" lon="5.75915">
        <ele>1699</ele>
        <time>2021-11-21T11:37:37Z</time>
      </trkpt>
      <trkpt lat="45.32371" lon="5.75916">
        <ele>1698.6</ele>
        <time>2021-11-21T11:37:38Z</time>
      </trkpt>
      <trkpt lat="45.3237" lon="5.75917">
        <ele>1698.4</ele>
        <time>2021-11-21T11:37:39Z</time>
      </trkpt>
      <trkpt lat="45.32366" lon="5.75919">
        <ele>1698.6</ele>
        <time>2021-11-21T11:37:41Z</time>
      </trkpt>
      <trkpt lat="45.32365" lon="5.7592">
        <ele>1699.2</ele>
        <time>2021-11-21T11:37:42Z</time>
      </trkpt>
      <trkpt lat="45.32363" lon="5.75922">
        <ele>1699.4</ele>
        <time>2021-11-21T11:37:43Z</time>
      </trkpt>
      <trkpt lat="45.32361" lon="5.75923">
        <ele>1700</ele>
        <time>2021-11-21T11:37:44Z</time>
      </trkpt>
      <trkpt lat="45.32359" lon="5.75923">
        <ele>1699.8</ele>
        <time>2021-11-21T11:37:45Z</time>
      </trkpt>
      <trkpt lat="45.32357" lon="5.75924">
        <ele>1699.8</ele>
        <time>2021-11-21T11:37:46Z</time>
      </trkpt>
      <trkpt lat="45.32355" lon="5.75925">
        <ele>1700.6</ele>
        <time>2021-11-21T11:37:47Z</time>
      </trkpt>
      <trkpt lat="45.32354" lon="5.75927">
        <ele>1701.2</ele>
        <time>2021-11-21T11:37:48Z</time>
      </trkpt>
      <trkpt lat="45.32352" lon="5.75928">
        <ele>1701.4</ele>
        <time>2021-11-21T11:37:49Z</time>
      </trkpt>
      <trkpt lat="45.3235" lon="5.75929">
        <ele>1701.6</ele>
        <time>2021-11-21T11:37:50Z</time>
      </trkpt>
      <trkpt lat="45.32348" lon="5.7593">
        <ele>1701.6</ele>
        <time>2021-11-21T11:37:51Z</time>
      </trkpt>
      <trkpt lat="45.32346" lon="5.75931">
        <ele>1701.4</ele>
        <time>2021-11-21T11:37:52Z</time>
      </trkpt>
      <trkpt lat="45.32344" lon="5.75932">
        <ele>1701</ele>
        <time>2021-11-21T11:37:53Z</time>
      </trkpt>
      <trkpt lat="45.32342" lon="5.75933">
        <ele>1700.8</ele>
        <time>2021-11-21T11:37:54Z</time>
      </trkpt>
      <trkpt lat="45.32341" lon="5.75934">
        <ele>1700.8</ele>
        <time>2021-11-21T11:37:55Z</time>
      </trkpt>
      <trkpt lat="45.32339" lon="5.75934">
        <ele>1701.2</ele>
        <time>2021-11-21T11:37:56Z</time>
      </trkpt>
      <trkpt lat="45.32337" lon="5.75935">
        <ele>1701.8</ele>
        <time>2021-11-21T11:37:57Z</time>
      </trkpt>
      <trkpt lat="45.32334" lon="5.75935">
        <ele>1701.6</ele>
        <time>2021-11-21T11:37:59Z</time>
      </trkpt>
      <trkpt lat="45.3233" lon="5.75935">
        <ele>1702.4</ele>
        <time>2021-11-21T11:38:01Z</time>
      </trkpt>
      <trkpt lat="45.32328" lon="5.75936">
        <ele>1702.4</ele>
        <time>2021-11-21T11:38:02Z</time>
      </trkpt>
      <trkpt lat="45.32327" lon="5.75936">
        <ele>1703.2</ele>
        <time>2021-11-21T11:38:03Z</time>
      </trkpt>
      <trkpt lat="45.32323" lon="5.75936">
        <ele>1703</ele>
        <time>2021-11-21T11:38:05Z</time>
      </trkpt>
      <trkpt lat="45.32321" lon="5.75935">
        <ele>1701.4</ele>
        <time>2021-11-21T11:38:06Z</time>
      </trkpt>
      <trkpt lat="45.3232" lon="5.75935">
        <ele>1701.8</ele>
        <time>2021-11-21T11:38:07Z</time>
      </trkpt>
      <trkpt lat="45.32317" lon="5.75934">
        <ele>1701.6</ele>
        <time>2021-11-21T11:38:09Z</time>
      </trkpt>
      <trkpt lat="45.32314" lon="5.75932">
        <ele>1701.6</ele>
        <time>2021-11-21T11:38:11Z</time>
      </trkpt>
      <trkpt lat="45.32311" lon="5.75929">
        <ele>1701.8</ele>
        <time>2021-11-21T11:38:13Z</time>
      </trkpt>
      <trkpt lat="45.3231" lon="5.75928">
        <ele>1701.8</ele>
        <time>2021-11-21T11:38:14Z</time>
      </trkpt>
      <trkpt lat="45.32307" lon="5.75925">
        <ele>1700.8</ele>
        <time>2021-11-21T11:38:16Z</time>
      </trkpt>
      <trkpt lat="45.32305" lon="5.75922">
        <ele>1701.2</ele>
        <time>2021-11-21T11:38:18Z</time>
      </trkpt>
      <trkpt lat="45.32302" lon="5.75921">
        <ele>1701</ele>
        <time>2021-11-21T11:38:20Z</time>
      </trkpt>
      <trkpt lat="45.323" lon="5.75921">
        <ele>1701.8</ele>
        <time>2021-11-21T11:38:21Z</time>
      </trkpt>
      <trkpt lat="45.32298" lon="5.75921">
        <ele>1701.8</ele>
        <time>2021-11-21T11:38:22Z</time>
      </trkpt>
      <trkpt lat="45.32296" lon="5.7592">
        <ele>1700.6</ele>
        <time>2021-11-21T11:38:23Z</time>
      </trkpt>
      <trkpt lat="45.32294" lon="5.7592">
        <ele>1700.6</ele>
        <time>2021-11-21T11:38:24Z</time>
      </trkpt>
      <trkpt lat="45.32292" lon="5.75919">
        <ele>1700.2</ele>
        <time>2021-11-21T11:38:25Z</time>
      </trkpt>
      <trkpt lat="45.32291" lon="5.75918">
        <ele>1699.4</ele>
        <time>2021-11-21T11:38:26Z</time>
      </trkpt>
      <trkpt lat="45.32289" lon="5.75917">
        <ele>1699.4</ele>
        <time>2021-11-21T11:38:27Z</time>
      </trkpt>
      <trkpt lat="45.32287" lon="5.75916">
        <ele>1699</ele>
        <time>2021-11-21T11:38:28Z</time>
      </trkpt>
      <trkpt lat="45.32285" lon="5.75916">
        <ele>1698.4</ele>
        <time>2021-11-21T11:38:29Z</time>
      </trkpt>
      <trkpt lat="45.32282" lon="5.75913">
        <ele>1697.6</ele>
        <time>2021-11-21T11:38:31Z</time>
      </trkpt>
      <trkpt lat="45.32279" lon="5.75911">
        <ele>1696.4</ele>
        <time>2021-11-21T11:38:33Z</time>
      </trkpt>
      <trkpt lat="45.32277" lon="5.75909">
        <ele>1696.4</ele>
        <time>2021-11-21T11:38:35Z</time>
      </trkpt>
      <trkpt lat="45.32274" lon="5.75907">
        <ele>1697</ele>
        <time>2021-11-21T11:38:37Z</time>
      </trkpt>
      <trkpt lat="45.32273" lon="5.75905">
        <ele>1696.4</ele>
        <time>2021-11-21T11:38:39Z</time>
      </trkpt>
      <trkpt lat="45.32269" lon="5.75904">
        <ele>1694.6</ele>
        <time>2021-11-21T11:38:43Z</time>
      </trkpt>
      <trkpt lat="45.32268" lon="5.75903">
        <ele>1693.6</ele>
        <time>2021-11-21T11:38:44Z</time>
      </trkpt>
      <trkpt lat="45.32266" lon="5.75902">
        <ele>1692.8</ele>
        <time>2021-11-21T11:38:45Z</time>
      </trkpt>
      <trkpt lat="45.32264" lon="5.75901">
        <ele>1692.8</ele>
        <time>2021-11-21T11:38:46Z</time>
      </trkpt>
      <trkpt lat="45.32262" lon="5.759">
        <ele>1691.8</ele>
        <time>2021-11-21T11:38:47Z</time>
      </trkpt>
      <trkpt lat="45.32259" lon="5.75898">
        <ele>1691.6</ele>
        <time>2021-11-21T11:38:49Z</time>
      </trkpt>
      <trkpt lat="45.32258" lon="5.75897">
        <ele>1691.6</ele>
        <time>2021-11-21T11:38:51Z</time>
      </trkpt>
      <trkpt lat="45.32256" lon="5.75894">
        <ele>1691.2</ele>
        <time>2021-11-21T11:38:53Z</time>
      </trkpt>
      <trkpt lat="45.32253" lon="5.75892">
        <ele>1691.6</ele>
        <time>2021-11-21T11:38:55Z</time>
      </trkpt>
      <trkpt lat="45.32251" lon="5.75889">
        <ele>1691</ele>
        <time>2021-11-21T11:38:57Z</time>
      </trkpt>
      <trkpt lat="45.32249" lon="5.75886">
        <ele>1690.4</ele>
        <time>2021-11-21T11:38:59Z</time>
      </trkpt>
      <trkpt lat="45.32247" lon="5.75884">
        <ele>1689.2</ele>
        <time>2021-11-21T11:39:01Z</time>
      </trkpt>
      <trkpt lat="45.32244" lon="5.75881">
        <ele>1689</ele>
        <time>2021-11-21T11:39:03Z</time>
      </trkpt>
      <trkpt lat="45.32242" lon="5.75878">
        <ele>1688.2</ele>
        <time>2021-11-21T11:39:05Z</time>
      </trkpt>
      <trkpt lat="45.3224" lon="5.75874">
        <ele>1687.6</ele>
        <time>2021-11-21T11:39:07Z</time>
      </trkpt>
      <trkpt lat="45.32238" lon="5.75871">
        <ele>1686.2</ele>
        <time>2021-11-21T11:39:09Z</time>
      </trkpt>
      <trkpt lat="45.32236" lon="5.75868">
        <ele>1685.8</ele>
        <time>2021-11-21T11:39:11Z</time>
      </trkpt>
      <trkpt lat="45.32234" lon="5.75865">
        <ele>1685</ele>
        <time>2021-11-21T11:39:13Z</time>
      </trkpt>
      <trkpt lat="45.32232" lon="5.75862">
        <ele>1683.6</ele>
        <time>2021-11-21T11:39:15Z</time>
      </trkpt>
      <trkpt lat="45.32229" lon="5.7586">
        <ele>1683.8</ele>
        <time>2021-11-21T11:39:17Z</time>
      </trkpt>
      <trkpt lat="45.32227" lon="5.75856">
        <ele>1682.8</ele>
        <time>2021-11-21T11:39:19Z</time>
      </trkpt>
      <trkpt lat="45.32225" lon="5.75854">
        <ele>1682.6</ele>
        <time>2021-11-21T11:39:21Z</time>
      </trkpt>
      <trkpt lat="45.32223" lon="5.7585">
        <ele>1681.4</ele>
        <time>2021-11-21T11:39:23Z</time>
      </trkpt>
      <trkpt lat="45.3222" lon="5.75847">
        <ele>1681</ele>
        <time>2021-11-21T11:39:25Z</time>
      </trkpt>
      <trkpt lat="45.32218" lon="5.75843">
        <ele>1680.2</ele>
        <time>2021-11-21T11:39:27Z</time>
      </trkpt>
      <trkpt lat="45.32216" lon="5.7584">
        <ele>1680</ele>
        <time>2021-11-21T11:39:29Z</time>
      </trkpt>
      <trkpt lat="45.32214" lon="5.75836">
        <ele>1678.2</ele>
        <time>2021-11-21T11:39:31Z</time>
      </trkpt>
      <trkpt lat="45.32212" lon="5.75831">
        <ele>1677.6</ele>
        <time>2021-11-21T11:39:33Z</time>
      </trkpt>
      <trkpt lat="45.32211" lon="5.75829">
        <ele>1677.2</ele>
        <time>2021-11-21T11:39:34Z</time>
      </trkpt>
      <trkpt lat="45.3221" lon="5.75826">
        <ele>1676.4</ele>
        <time>2021-11-21T11:39:35Z</time>
      </trkpt>
      <trkpt lat="45.32209" lon="5.75824">
        <ele>1675.8</ele>
        <time>2021-11-21T11:39:36Z</time>
      </trkpt>
      <trkpt lat="45.32209" lon="5.75821">
        <ele>1675.6</ele>
        <time>2021-11-21T11:39:37Z</time>
      </trkpt>
      <trkpt lat="45.32207" lon="5.75817">
        <ele>1674.6</ele>
        <time>2021-11-21T11:39:39Z</time>
      </trkpt>
      <trkpt lat="45.32207" lon="5.75813">
        <ele>1673.4</ele>
        <time>2021-11-21T11:39:41Z</time>
      </trkpt>
      <trkpt lat="45.32205" lon="5.75809">
        <ele>1673.6</ele>
        <time>2021-11-21T11:39:43Z</time>
      </trkpt>
      <trkpt lat="45.32203" lon="5.75805">
        <ele>1673.2</ele>
        <time>2021-11-21T11:39:45Z</time>
      </trkpt>
      <trkpt lat="45.32201" lon="5.75802">
        <ele>1672.4</ele>
        <time>2021-11-21T11:39:47Z</time>
      </trkpt>
      <trkpt lat="45.32199" lon="5.75801">
        <ele>1671.6</ele>
        <time>2021-11-21T11:39:53Z</time>
      </trkpt>
      <trkpt lat="45.32196" lon="5.758">
        <ele>1670.4</ele>
        <time>2021-11-21T11:39:56Z</time>
      </trkpt>
      <trkpt lat="45.32194" lon="5.758">
        <ele>1669.4</ele>
        <time>2021-11-21T11:39:58Z</time>
      </trkpt>
      <trkpt lat="45.32192" lon="5.758">
        <ele>1669.2</ele>
        <time>2021-11-21T11:40:01Z</time>
      </trkpt>
      <trkpt lat="45.32189" lon="5.75799">
        <ele>1668.8</ele>
        <time>2021-11-21T11:40:03Z</time>
      </trkpt>
      <trkpt lat="45.32186" lon="5.75797">
        <ele>1668.2</ele>
        <time>2021-11-21T11:40:05Z</time>
      </trkpt>
      <trkpt lat="45.32184" lon="5.75797">
        <ele>1668.4</ele>
        <time>2021-11-21T11:40:07Z</time>
      </trkpt>
      <trkpt lat="45.32181" lon="5.75796">
        <ele>1668.2</ele>
        <time>2021-11-21T11:40:09Z</time>
      </trkpt>
      <trkpt lat="45.32179" lon="5.75796">
        <ele>1668.2</ele>
        <time>2021-11-21T11:40:10Z</time>
      </trkpt>
      <trkpt lat="45.32177" lon="5.75795">
        <ele>1668.2</ele>
        <time>2021-11-21T11:40:11Z</time>
      </trkpt>
      <trkpt lat="45.32175" lon="5.75794">
        <ele>1668</ele>
        <time>2021-11-21T11:40:12Z</time>
      </trkpt>
      <trkpt lat="45.32172" lon="5.75793">
        <ele>1667.2</ele>
        <time>2021-11-21T11:40:14Z</time>
      </trkpt>
      <trkpt lat="45.32169" lon="5.75792">
        <ele>1667</ele>
        <time>2021-11-21T11:40:16Z</time>
      </trkpt>
      <trkpt lat="45.32166" lon="5.75791">
        <ele>1666.4</ele>
        <time>2021-11-21T11:40:18Z</time>
      </trkpt>
      <trkpt lat="45.32164" lon="5.7579">
        <ele>1666.4</ele>
        <time>2021-11-21T11:40:19Z</time>
      </trkpt>
      <trkpt lat="45.32162" lon="5.7579">
        <ele>1666</ele>
        <time>2021-11-21T11:40:20Z</time>
      </trkpt>
      <trkpt lat="45.32158" lon="5.75788">
        <ele>1665.8</ele>
        <time>2021-11-21T11:40:22Z</time>
      </trkpt>
      <trkpt lat="45.32155" lon="5.75786">
        <ele>1665.6</ele>
        <time>2021-11-21T11:40:24Z</time>
      </trkpt>
      <trkpt lat="45.32152" lon="5.75784">
        <ele>1664.6</ele>
        <time>2021-11-21T11:40:26Z</time>
      </trkpt>
      <trkpt lat="45.32149" lon="5.75782">
        <ele>1663.2</ele>
        <time>2021-11-21T11:40:28Z</time>
      </trkpt>
      <trkpt lat="45.32147" lon="5.75781">
        <ele>1663</ele>
        <time>2021-11-21T11:40:29Z</time>
      </trkpt>
      <trkpt lat="45.32145" lon="5.7578">
        <ele>1662.6</ele>
        <time>2021-11-21T11:40:30Z</time>
      </trkpt>
      <trkpt lat="45.32142" lon="5.75778">
        <ele>1662.6</ele>
        <time>2021-11-21T11:40:32Z</time>
      </trkpt>
      <trkpt lat="45.3214" lon="5.75777">
        <ele>1662.8</ele>
        <time>2021-11-21T11:40:33Z</time>
      </trkpt>
      <trkpt lat="45.32137" lon="5.75775">
        <ele>1662.4</ele>
        <time>2021-11-21T11:40:35Z</time>
      </trkpt>
      <trkpt lat="45.32134" lon="5.75772">
        <ele>1662.8</ele>
        <time>2021-11-21T11:40:37Z</time>
      </trkpt>
      <trkpt lat="45.32132" lon="5.75771">
        <ele>1661.2</ele>
        <time>2021-11-21T11:40:38Z</time>
      </trkpt>
      <trkpt lat="45.3213" lon="5.75771">
        <ele>1661</ele>
        <time>2021-11-21T11:40:39Z</time>
      </trkpt>
      <trkpt lat="45.32128" lon="5.7577">
        <ele>1660.8</ele>
        <time>2021-11-21T11:40:40Z</time>
      </trkpt>
      <trkpt lat="45.32126" lon="5.7577">
        <ele>1660.4</ele>
        <time>2021-11-21T11:40:41Z</time>
      </trkpt>
      <trkpt lat="45.32124" lon="5.75769">
        <ele>1660.2</ele>
        <time>2021-11-21T11:40:42Z</time>
      </trkpt>
      <trkpt lat="45.32122" lon="5.75767">
        <ele>1660.4</ele>
        <time>2021-11-21T11:40:43Z</time>
      </trkpt>
      <trkpt lat="45.3212" lon="5.75766">
        <ele>1659.6</ele>
        <time>2021-11-21T11:40:44Z</time>
      </trkpt>
      <trkpt lat="45.32118" lon="5.75764">
        <ele>1659.8</ele>
        <time>2021-11-21T11:40:45Z</time>
      </trkpt>
      <trkpt lat="45.32116" lon="5.75763">
        <ele>1660.4</ele>
        <time>2021-11-21T11:40:46Z</time>
      </trkpt>
      <trkpt lat="45.32114" lon="5.75761">
        <ele>1660</ele>
        <time>2021-11-21T11:40:47Z</time>
      </trkpt>
      <trkpt lat="45.32113" lon="5.75758">
        <ele>1659.2</ele>
        <time>2021-11-21T11:40:48Z</time>
      </trkpt>
      <trkpt lat="45.32111" lon="5.75756">
        <ele>1658.8</ele>
        <time>2021-11-21T11:40:49Z</time>
      </trkpt>
      <trkpt lat="45.32109" lon="5.75754">
        <ele>1658.8</ele>
        <time>2021-11-21T11:40:50Z</time>
      </trkpt>
      <trkpt lat="45.32107" lon="5.75752">
        <ele>1657.8</ele>
        <time>2021-11-21T11:40:51Z</time>
      </trkpt>
      <trkpt lat="45.32104" lon="5.75751">
        <ele>1657</ele>
        <time>2021-11-21T11:40:52Z</time>
      </trkpt>
      <trkpt lat="45.32101" lon="5.75751">
        <ele>1656.4</ele>
        <time>2021-11-21T11:40:53Z</time>
      </trkpt>
      <trkpt lat="45.32099" lon="5.7575">
        <ele>1656.2</ele>
        <time>2021-11-21T11:40:54Z</time>
      </trkpt>
      <trkpt lat="45.32097" lon="5.75749">
        <ele>1656.2</ele>
        <time>2021-11-21T11:40:55Z</time>
      </trkpt>
      <trkpt lat="45.32095" lon="5.75749">
        <ele>1655.6</ele>
        <time>2021-11-21T11:40:56Z</time>
      </trkpt>
      <trkpt lat="45.32092" lon="5.75749">
        <ele>1655.2</ele>
        <time>2021-11-21T11:40:58Z</time>
      </trkpt>
      <trkpt lat="45.3209" lon="5.75748">
        <ele>1655.8</ele>
        <time>2021-11-21T11:40:59Z</time>
      </trkpt>
      <trkpt lat="45.32088" lon="5.75748">
        <ele>1655.2</ele>
        <time>2021-11-21T11:41:00Z</time>
      </trkpt>
      <trkpt lat="45.32086" lon="5.75748">
        <ele>1654.4</ele>
        <time>2021-11-21T11:41:01Z</time>
      </trkpt>
      <trkpt lat="45.32083" lon="5.75748">
        <ele>1653.6</ele>
        <time>2021-11-21T11:41:02Z</time>
      </trkpt>
      <trkpt lat="45.32081" lon="5.75747">
        <ele>1652.8</ele>
        <time>2021-11-21T11:41:03Z</time>
      </trkpt>
      <trkpt lat="45.32079" lon="5.75746">
        <ele>1653</ele>
        <time>2021-11-21T11:41:04Z</time>
      </trkpt>
      <trkpt lat="45.32076" lon="5.75744">
        <ele>1652.4</ele>
        <time>2021-11-21T11:41:05Z</time>
      </trkpt>
      <trkpt lat="45.32074" lon="5.75743">
        <ele>1652.6</ele>
        <time>2021-11-21T11:41:06Z</time>
      </trkpt>
      <trkpt lat="45.32072" lon="5.75742">
        <ele>1652.4</ele>
        <time>2021-11-21T11:41:07Z</time>
      </trkpt>
      <trkpt lat="45.3207" lon="5.75741">
        <ele>1651.6</ele>
        <time>2021-11-21T11:41:08Z</time>
      </trkpt>
      <trkpt lat="45.32067" lon="5.7574">
        <ele>1650</ele>
        <time>2021-11-21T11:41:10Z</time>
      </trkpt>
      <trkpt lat="45.32065" lon="5.75739">
        <ele>1650.6</ele>
        <time>2021-11-21T11:41:11Z</time>
      </trkpt>
      <trkpt lat="45.32063" lon="5.75738">
        <ele>1650</ele>
        <time>2021-11-21T11:41:12Z</time>
      </trkpt>
      <trkpt lat="45.3206" lon="5.75737">
        <ele>1650.4</ele>
        <time>2021-11-21T11:41:13Z</time>
      </trkpt>
      <trkpt lat="45.32058" lon="5.75736">
        <ele>1649.2</ele>
        <time>2021-11-21T11:41:14Z</time>
      </trkpt>
      <trkpt lat="45.32056" lon="5.75736">
        <ele>1648.8</ele>
        <time>2021-11-21T11:41:15Z</time>
      </trkpt>
      <trkpt lat="45.32053" lon="5.75737">
        <ele>1648.6</ele>
        <time>2021-11-21T11:41:16Z</time>
      </trkpt>
      <trkpt lat="45.32051" lon="5.75737">
        <ele>1648</ele>
        <time>2021-11-21T11:41:17Z</time>
      </trkpt>
      <trkpt lat="45.3205" lon="5.75738">
        <ele>1647</ele>
        <time>2021-11-21T11:41:18Z</time>
      </trkpt>
      <trkpt lat="45.32047" lon="5.75741">
        <ele>1646.8</ele>
        <time>2021-11-21T11:41:20Z</time>
      </trkpt>
      <trkpt lat="45.32045" lon="5.75744">
        <ele>1645.2</ele>
        <time>2021-11-21T11:41:22Z</time>
      </trkpt>
      <trkpt lat="45.32043" lon="5.75745">
        <ele>1645</ele>
        <time>2021-11-21T11:41:23Z</time>
      </trkpt>
      <trkpt lat="45.3204" lon="5.75747">
        <ele>1645</ele>
        <time>2021-11-21T11:41:25Z</time>
      </trkpt>
      <trkpt lat="45.32038" lon="5.75748">
        <ele>1644.6</ele>
        <time>2021-11-21T11:41:27Z</time>
      </trkpt>
      <trkpt lat="45.32034" lon="5.7575">
        <ele>1644.2</ele>
        <time>2021-11-21T11:41:29Z</time>
      </trkpt>
      <trkpt lat="45.32032" lon="5.7575">
        <ele>1643.4</ele>
        <time>2021-11-21T11:41:30Z</time>
      </trkpt>
      <trkpt lat="45.3203" lon="5.7575">
        <ele>1643.4</ele>
        <time>2021-11-21T11:41:31Z</time>
      </trkpt>
      <trkpt lat="45.32027" lon="5.75748">
        <ele>1642</ele>
        <time>2021-11-21T11:41:33Z</time>
      </trkpt>
      <trkpt lat="45.32025" lon="5.75747">
        <ele>1641.8</ele>
        <time>2021-11-21T11:41:34Z</time>
      </trkpt>
      <trkpt lat="45.32022" lon="5.75746">
        <ele>1641.6</ele>
        <time>2021-11-21T11:41:35Z</time>
      </trkpt>
      <trkpt lat="45.32019" lon="5.75745">
        <ele>1641.6</ele>
        <time>2021-11-21T11:41:36Z</time>
      </trkpt>
      <trkpt lat="45.32016" lon="5.75744">
        <ele>1641.8</ele>
        <time>2021-11-21T11:41:37Z</time>
      </trkpt>
      <trkpt lat="45.32012" lon="5.75744">
        <ele>1641</ele>
        <time>2021-11-21T11:41:38Z</time>
      </trkpt>
      <trkpt lat="45.32009" lon="5.75744">
        <ele>1640</ele>
        <time>2021-11-21T11:41:39Z</time>
      </trkpt>
      <trkpt lat="45.32006" lon="5.75744">
        <ele>1640.2</ele>
        <time>2021-11-21T11:41:40Z</time>
      </trkpt>
      <trkpt lat="45.32003" lon="5.75743">
        <ele>1640.4</ele>
        <time>2021-11-21T11:41:41Z</time>
      </trkpt>
      <trkpt lat="45.32" lon="5.75742">
        <ele>1639.4</ele>
        <time>2021-11-21T11:41:42Z</time>
      </trkpt>
      <trkpt lat="45.31997" lon="5.75741">
        <ele>1639.8</ele>
        <time>2021-11-21T11:41:43Z</time>
      </trkpt>
      <trkpt lat="45.31995" lon="5.75738">
        <ele>1639.6</ele>
        <time>2021-11-21T11:41:44Z</time>
      </trkpt>
      <trkpt lat="45.31993" lon="5.75735">
        <ele>1640</ele>
        <time>2021-11-21T11:41:45Z</time>
      </trkpt>
      <trkpt lat="45.31992" lon="5.75732">
        <ele>1639</ele>
        <time>2021-11-21T11:41:46Z</time>
      </trkpt>
      <trkpt lat="45.3199" lon="5.7573">
        <ele>1638.6</ele>
        <time>2021-11-21T11:41:47Z</time>
      </trkpt>
      <trkpt lat="45.31989" lon="5.75728">
        <ele>1638.2</ele>
        <time>2021-11-21T11:41:48Z</time>
      </trkpt>
      <trkpt lat="45.31987" lon="5.75727">
        <ele>1638.2</ele>
        <time>2021-11-21T11:41:49Z</time>
      </trkpt>
      <trkpt lat="45.31986" lon="5.75725">
        <ele>1637.2</ele>
        <time>2021-11-21T11:41:50Z</time>
      </trkpt>
      <trkpt lat="45.31983" lon="5.75723">
        <ele>1634.8</ele>
        <time>2021-11-21T11:41:52Z</time>
      </trkpt>
      <trkpt lat="45.31981" lon="5.7572">
        <ele>1633.4</ele>
        <time>2021-11-21T11:41:54Z</time>
      </trkpt>
      <trkpt lat="45.31979" lon="5.75717">
        <ele>1631.6</ele>
        <time>2021-11-21T11:41:56Z</time>
      </trkpt>
      <trkpt lat="45.31977" lon="5.75716">
        <ele>1631.8</ele>
        <time>2021-11-21T11:41:57Z</time>
      </trkpt>
      <trkpt lat="45.31975" lon="5.75714">
        <ele>1631.4</ele>
        <time>2021-11-21T11:41:58Z</time>
      </trkpt>
      <trkpt lat="45.31974" lon="5.75713">
        <ele>1631.6</ele>
        <time>2021-11-21T11:41:59Z</time>
      </trkpt>
      <trkpt lat="45.31971" lon="5.75709">
        <ele>1632</ele>
        <time>2021-11-21T11:42:01Z</time>
      </trkpt>
      <trkpt lat="45.31969" lon="5.75705">
        <ele>1631.8</ele>
        <time>2021-11-21T11:42:03Z</time>
      </trkpt>
      <trkpt lat="45.31968" lon="5.75701">
        <ele>1632.2</ele>
        <time>2021-11-21T11:42:05Z</time>
      </trkpt>
      <trkpt lat="45.31967" lon="5.75698">
        <ele>1631.4</ele>
        <time>2021-11-21T11:42:06Z</time>
      </trkpt>
      <trkpt lat="45.31967" lon="5.75696">
        <ele>1631.6</ele>
        <time>2021-11-21T11:42:07Z</time>
      </trkpt>
      <trkpt lat="45.31965" lon="5.75691">
        <ele>1631.2</ele>
        <time>2021-11-21T11:42:09Z</time>
      </trkpt>
      <trkpt lat="45.31964" lon="5.75688">
        <ele>1631.6</ele>
        <time>2021-11-21T11:42:10Z</time>
      </trkpt>
      <trkpt lat="45.31964" lon="5.75685">
        <ele>1631.6</ele>
        <time>2021-11-21T11:42:11Z</time>
      </trkpt>
      <trkpt lat="45.31963" lon="5.75682">
        <ele>1630.8</ele>
        <time>2021-11-21T11:42:12Z</time>
      </trkpt>
      <trkpt lat="45.31963" lon="5.75679">
        <ele>1631.4</ele>
        <time>2021-11-21T11:42:13Z</time>
      </trkpt>
      <trkpt lat="45.31962" lon="5.75675">
        <ele>1631.8</ele>
        <time>2021-11-21T11:42:14Z</time>
      </trkpt>
      <trkpt lat="45.31962" lon="5.75672">
        <ele>1631.8</ele>
        <time>2021-11-21T11:42:15Z</time>
      </trkpt>
      <trkpt lat="45.31961" lon="5.75668">
        <ele>1631.4</ele>
        <time>2021-11-21T11:42:16Z</time>
      </trkpt>
      <trkpt lat="45.3196" lon="5.75665">
        <ele>1630</ele>
        <time>2021-11-21T11:42:17Z</time>
      </trkpt>
      <trkpt lat="45.31959" lon="5.75663">
        <ele>1630.8</ele>
        <time>2021-11-21T11:42:18Z</time>
      </trkpt>
      <trkpt lat="45.31957" lon="5.75661">
        <ele>1630.8</ele>
        <time>2021-11-21T11:42:19Z</time>
      </trkpt>
      <trkpt lat="45.31955" lon="5.7566">
        <ele>1630.2</ele>
        <time>2021-11-21T11:42:20Z</time>
      </trkpt>
      <trkpt lat="45.31953" lon="5.75658">
        <ele>1629</ele>
        <time>2021-11-21T11:42:21Z</time>
      </trkpt>
      <trkpt lat="45.31951" lon="5.75656">
        <ele>1630.2</ele>
        <time>2021-11-21T11:42:22Z</time>
      </trkpt>
      <trkpt lat="45.31948" lon="5.75654">
        <ele>1630.8</ele>
        <time>2021-11-21T11:42:23Z</time>
      </trkpt>
      <trkpt lat="45.31946" lon="5.75652">
        <ele>1631.4</ele>
        <time>2021-11-21T11:42:24Z</time>
      </trkpt>
      <trkpt lat="45.31943" lon="5.7565">
        <ele>1630.6</ele>
        <time>2021-11-21T11:42:25Z</time>
      </trkpt>
      <trkpt lat="45.3194" lon="5.75648">
        <ele>1630.6</ele>
        <time>2021-11-21T11:42:26Z</time>
      </trkpt>
      <trkpt lat="45.31937" lon="5.75645">
        <ele>1630.8</ele>
        <time>2021-11-21T11:42:27Z</time>
      </trkpt>
      <trkpt lat="45.31934" lon="5.75644">
        <ele>1631</ele>
        <time>2021-11-21T11:42:28Z</time>
      </trkpt>
      <trkpt lat="45.3193" lon="5.75642">
        <ele>1631.2</ele>
        <time>2021-11-21T11:42:29Z</time>
      </trkpt>
      <trkpt lat="45.31927" lon="5.75642">
        <ele>1632.6</ele>
        <time>2021-11-21T11:42:30Z</time>
      </trkpt>
      <trkpt lat="45.31924" lon="5.75643">
        <ele>1632.8</ele>
        <time>2021-11-21T11:42:31Z</time>
      </trkpt>
      <trkpt lat="45.31922" lon="5.75644">
        <ele>1633.2</ele>
        <time>2021-11-21T11:42:32Z</time>
      </trkpt>
      <trkpt lat="45.31919" lon="5.75646">
        <ele>1633.8</ele>
        <time>2021-11-21T11:42:33Z</time>
      </trkpt>
      <trkpt lat="45.31916" lon="5.75647">
        <ele>1633.2</ele>
        <time>2021-11-21T11:42:34Z</time>
      </trkpt>
      <trkpt lat="45.31912" lon="5.75648">
        <ele>1633</ele>
        <time>2021-11-21T11:42:35Z</time>
      </trkpt>
      <trkpt lat="45.31909" lon="5.75648">
        <ele>1632.6</ele>
        <time>2021-11-21T11:42:36Z</time>
      </trkpt>
      <trkpt lat="45.31905" lon="5.75647">
        <ele>1632.2</ele>
        <time>2021-11-21T11:42:37Z</time>
      </trkpt>
      <trkpt lat="45.31902" lon="5.75646">
        <ele>1631.4</ele>
        <time>2021-11-21T11:42:38Z</time>
      </trkpt>
      <trkpt lat="45.31898" lon="5.75644">
        <ele>1631.4</ele>
        <time>2021-11-21T11:42:39Z</time>
      </trkpt>
      <trkpt lat="45.31895" lon="5.75642">
        <ele>1630.6</ele>
        <time>2021-11-21T11:42:40Z</time>
      </trkpt>
      <trkpt lat="45.31892" lon="5.75639">
        <ele>1631</ele>
        <time>2021-11-21T11:42:41Z</time>
      </trkpt>
      <trkpt lat="45.3189" lon="5.75636">
        <ele>1630.8</ele>
        <time>2021-11-21T11:42:42Z</time>
      </trkpt>
      <trkpt lat="45.31887" lon="5.75633">
        <ele>1631.4</ele>
        <time>2021-11-21T11:42:43Z</time>
      </trkpt>
      <trkpt lat="45.31885" lon="5.7563">
        <ele>1632</ele>
        <time>2021-11-21T11:42:44Z</time>
      </trkpt>
      <trkpt lat="45.31882" lon="5.75627">
        <ele>1632.4</ele>
        <time>2021-11-21T11:42:45Z</time>
      </trkpt>
      <trkpt lat="45.3188" lon="5.75624">
        <ele>1632.6</ele>
        <time>2021-11-21T11:42:46Z</time>
      </trkpt>
      <trkpt lat="45.31877" lon="5.7562">
        <ele>1632.8</ele>
        <time>2021-11-21T11:42:47Z</time>
      </trkpt>
      <trkpt lat="45.31874" lon="5.75617">
        <ele>1632.8</ele>
        <time>2021-11-21T11:42:48Z</time>
      </trkpt>
      <trkpt lat="45.3187" lon="5.75614">
        <ele>1633.4</ele>
        <time>2021-11-21T11:42:49Z</time>
      </trkpt>
      <trkpt lat="45.31867" lon="5.75611">
        <ele>1633.6</ele>
        <time>2021-11-21T11:42:50Z</time>
      </trkpt>
      <trkpt lat="45.31865" lon="5.75609">
        <ele>1633.8</ele>
        <time>2021-11-21T11:42:51Z</time>
      </trkpt>
      <trkpt lat="45.31862" lon="5.75606">
        <ele>1634.2</ele>
        <time>2021-11-21T11:42:52Z</time>
      </trkpt>
      <trkpt lat="45.31859" lon="5.75603">
        <ele>1634.6</ele>
        <time>2021-11-21T11:42:53Z</time>
      </trkpt>
      <trkpt lat="45.31856" lon="5.75599">
        <ele>1635</ele>
        <time>2021-11-21T11:42:54Z</time>
      </trkpt>
      <trkpt lat="45.31853" lon="5.75596">
        <ele>1634.6</ele>
        <time>2021-11-21T11:42:55Z</time>
      </trkpt>
      <trkpt lat="45.31849" lon="5.75593">
        <ele>1635</ele>
        <time>2021-11-21T11:42:56Z</time>
      </trkpt>
      <trkpt lat="45.31845" lon="5.7559">
        <ele>1635</ele>
        <time>2021-11-21T11:42:57Z</time>
      </trkpt>
      <trkpt lat="45.31841" lon="5.75587">
        <ele>1634.6</ele>
        <time>2021-11-21T11:42:58Z</time>
      </trkpt>
      <trkpt lat="45.31837" lon="5.75584">
        <ele>1635</ele>
        <time>2021-11-21T11:42:59Z</time>
      </trkpt>
      <trkpt lat="45.31833" lon="5.7558">
        <ele>1635.6</ele>
        <time>2021-11-21T11:43:00Z</time>
      </trkpt>
      <trkpt lat="45.3183" lon="5.75577">
        <ele>1635.4</ele>
        <time>2021-11-21T11:43:01Z</time>
      </trkpt>
      <trkpt lat="45.31825" lon="5.75574">
        <ele>1635.4</ele>
        <time>2021-11-21T11:43:02Z</time>
      </trkpt>
      <trkpt lat="45.31821" lon="5.75571">
        <ele>1635.6</ele>
        <time>2021-11-21T11:43:03Z</time>
      </trkpt>
      <trkpt lat="45.31816" lon="5.75568">
        <ele>1636.2</ele>
        <time>2021-11-21T11:43:04Z</time>
      </trkpt>
      <trkpt lat="45.31811" lon="5.75567">
        <ele>1636</ele>
        <time>2021-11-21T11:43:05Z</time>
      </trkpt>
      <trkpt lat="45.31805" lon="5.75567">
        <ele>1636.4</ele>
        <time>2021-11-21T11:43:06Z</time>
      </trkpt>
      <trkpt lat="45.31799" lon="5.75569">
        <ele>1636.8</ele>
        <time>2021-11-21T11:43:07Z</time>
      </trkpt>
      <trkpt lat="45.31793" lon="5.75572">
        <ele>1636.4</ele>
        <time>2021-11-21T11:43:08Z</time>
      </trkpt>
      <trkpt lat="45.31787" lon="5.75576">
        <ele>1636.2</ele>
        <time>2021-11-21T11:43:09Z</time>
      </trkpt>
      <trkpt lat="45.31781" lon="5.7558">
        <ele>1636.2</ele>
        <time>2021-11-21T11:43:10Z</time>
      </trkpt>
      <trkpt lat="45.31775" lon="5.75584">
        <ele>1637</ele>
        <time>2021-11-21T11:43:11Z</time>
      </trkpt>
      <trkpt lat="45.31768" lon="5.75588">
        <ele>1637</ele>
        <time>2021-11-21T11:43:12Z</time>
      </trkpt>
      <trkpt lat="45.31761" lon="5.7559">
        <ele>1637</ele>
        <time>2021-11-21T11:43:13Z</time>
      </trkpt>
      <trkpt lat="45.31754" lon="5.7559">
        <ele>1636.4</ele>
        <time>2021-11-21T11:43:14Z</time>
      </trkpt>
      <trkpt lat="45.31747" lon="5.75587">
        <ele>1635.6</ele>
        <time>2021-11-21T11:43:15Z</time>
      </trkpt>
      <trkpt lat="45.31742" lon="5.75581">
        <ele>1635.2</ele>
        <time>2021-11-21T11:43:16Z</time>
      </trkpt>
      <trkpt lat="45.31738" lon="5.75575">
        <ele>1635</ele>
        <time>2021-11-21T11:43:17Z</time>
      </trkpt>
      <trkpt lat="45.31733" lon="5.75568">
        <ele>1635.2</ele>
        <time>2021-11-21T11:43:18Z</time>
      </trkpt>
      <trkpt lat="45.31729" lon="5.75562">
        <ele>1634.6</ele>
        <time>2021-11-21T11:43:19Z</time>
      </trkpt>
      <trkpt lat="45.31724" lon="5.75556">
        <ele>1633.8</ele>
        <time>2021-11-21T11:43:20Z</time>
      </trkpt>
      <trkpt lat="45.31719" lon="5.75552">
        <ele>1634</ele>
        <time>2021-11-21T11:43:21Z</time>
      </trkpt>
      <trkpt lat="45.31713" lon="5.75548">
        <ele>1632</ele>
        <time>2021-11-21T11:43:22Z</time>
      </trkpt>
      <trkpt lat="45.31707" lon="5.75544">
        <ele>1632.6</ele>
        <time>2021-11-21T11:43:23Z</time>
      </trkpt>
      <trkpt lat="45.317" lon="5.75541">
        <ele>1632.4</ele>
        <time>2021-11-21T11:43:24Z</time>
      </trkpt>
      <trkpt lat="45.31694" lon="5.75538">
        <ele>1632</ele>
        <time>2021-11-21T11:43:25Z</time>
      </trkpt>
      <trkpt lat="45.31688" lon="5.75535">
        <ele>1632.2</ele>
        <time>2021-11-21T11:43:26Z</time>
      </trkpt>
      <trkpt lat="45.31682" lon="5.75531">
        <ele>1632.8</ele>
        <time>2021-11-21T11:43:27Z</time>
      </trkpt>
      <trkpt lat="45.31676" lon="5.75526">
        <ele>1632.4</ele>
        <time>2021-11-21T11:43:28Z</time>
      </trkpt>
      <trkpt lat="45.31671" lon="5.75521">
        <ele>1632</ele>
        <time>2021-11-21T11:43:29Z</time>
      </trkpt>
      <trkpt lat="45.31665" lon="5.75515">
        <ele>1631</ele>
        <time>2021-11-21T11:43:30Z</time>
      </trkpt>
      <trkpt lat="45.3166" lon="5.7551">
        <ele>1629.6</ele>
        <time>2021-11-21T11:43:31Z</time>
      </trkpt>
      <trkpt lat="45.31655" lon="5.75504">
        <ele>1629</ele>
        <time>2021-11-21T11:43:32Z</time>
      </trkpt>
      <trkpt lat="45.31649" lon="5.75498">
        <ele>1627.8</ele>
        <time>2021-11-21T11:43:33Z</time>
      </trkpt>
      <trkpt lat="45.31644" lon="5.75492">
        <ele>1627.8</ele>
        <time>2021-11-21T11:43:34Z</time>
      </trkpt>
      <trkpt lat="45.31639" lon="5.75486">
        <ele>1628.8</ele>
        <time>2021-11-21T11:43:35Z</time>
      </trkpt>
      <trkpt lat="45.31634" lon="5.7548">
        <ele>1628.4</ele>
        <time>2021-11-21T11:43:36Z</time>
      </trkpt>
      <trkpt lat="45.31628" lon="5.75474">
        <ele>1627.2</ele>
        <time>2021-11-21T11:43:37Z</time>
      </trkpt>
      <trkpt lat="45.31623" lon="5.75467">
        <ele>1627.4</ele>
        <time>2021-11-21T11:43:38Z</time>
      </trkpt>
      <trkpt lat="45.31618" lon="5.75461">
        <ele>1626.4</ele>
        <time>2021-11-21T11:43:39Z</time>
      </trkpt>
      <trkpt lat="45.31612" lon="5.75455">
        <ele>1626.8</ele>
        <time>2021-11-21T11:43:40Z</time>
      </trkpt>
      <trkpt lat="45.31606" lon="5.75449">
        <ele>1626.8</ele>
        <time>2021-11-21T11:43:41Z</time>
      </trkpt>
      <trkpt lat="45.31599" lon="5.75445">
        <ele>1624.8</ele>
        <time>2021-11-21T11:43:42Z</time>
      </trkpt>
      <trkpt lat="45.31592" lon="5.75441">
        <ele>1624.6</ele>
        <time>2021-11-21T11:43:43Z</time>
      </trkpt>
      <trkpt lat="45.31585" lon="5.75439">
        <ele>1624.8</ele>
        <time>2021-11-21T11:43:44Z</time>
      </trkpt>
      <trkpt lat="45.31577" lon="5.75438">
        <ele>1623.6</ele>
        <time>2021-11-21T11:43:45Z</time>
      </trkpt>
      <trkpt lat="45.3157" lon="5.75437">
        <ele>1623.4</ele>
        <time>2021-11-21T11:43:46Z</time>
      </trkpt>
      <trkpt lat="45.31562" lon="5.75435">
        <ele>1622.6</ele>
        <time>2021-11-21T11:43:47Z</time>
      </trkpt>
      <trkpt lat="45.31555" lon="5.75433">
        <ele>1622.6</ele>
        <time>2021-11-21T11:43:48Z</time>
      </trkpt>
      <trkpt lat="45.31548" lon="5.7543">
        <ele>1621.6</ele>
        <time>2021-11-21T11:43:49Z</time>
      </trkpt>
      <trkpt lat="45.31541" lon="5.75427">
        <ele>1622.2</ele>
        <time>2021-11-21T11:43:50Z</time>
      </trkpt>
      <trkpt lat="45.31534" lon="5.75423">
        <ele>1622.4</ele>
        <time>2021-11-21T11:43:51Z</time>
      </trkpt>
      <trkpt lat="45.31528" lon="5.75418">
        <ele>1622</ele>
        <time>2021-11-21T11:43:52Z</time>
      </trkpt>
      <trkpt lat="45.31522" lon="5.75413">
        <ele>1621.6</ele>
        <time>2021-11-21T11:43:53Z</time>
      </trkpt>
      <trkpt lat="45.31515" lon="5.75408">
        <ele>1621.6</ele>
        <time>2021-11-21T11:43:54Z</time>
      </trkpt>
      <trkpt lat="45.31509" lon="5.75402">
        <ele>1621.8</ele>
        <time>2021-11-21T11:43:55Z</time>
      </trkpt>
      <trkpt lat="45.31502" lon="5.75397">
        <ele>1622.6</ele>
        <time>2021-11-21T11:43:56Z</time>
      </trkpt>
      <trkpt lat="45.31496" lon="5.75393">
        <ele>1621.4</ele>
        <time>2021-11-21T11:43:57Z</time>
      </trkpt>
      <trkpt lat="45.31488" lon="5.7539">
        <ele>1620.8</ele>
        <time>2021-11-21T11:43:58Z</time>
      </trkpt>
      <trkpt lat="45.31481" lon="5.75388">
        <ele>1620.6</ele>
        <time>2021-11-21T11:43:59Z</time>
      </trkpt>
      <trkpt lat="45.31473" lon="5.75388">
        <ele>1620</ele>
        <time>2021-11-21T11:44:00Z</time>
      </trkpt>
      <trkpt lat="45.31465" lon="5.75388">
        <ele>1619.2</ele>
        <time>2021-11-21T11:44:01Z</time>
      </trkpt>
      <trkpt lat="45.31457" lon="5.75387">
        <ele>1618.6</ele>
        <time>2021-11-21T11:44:02Z</time>
      </trkpt>
      <trkpt lat="45.31449" lon="5.75387">
        <ele>1616.8</ele>
        <time>2021-11-21T11:44:03Z</time>
      </trkpt>
      <trkpt lat="45.31441" lon="5.75385">
        <ele>1615</ele>
        <time>2021-11-21T11:44:04Z</time>
      </trkpt>
      <trkpt lat="45.31432" lon="5.75383">
        <ele>1614.8</ele>
        <time>2021-11-21T11:44:05Z</time>
      </trkpt>
      <trkpt lat="45.31424" lon="5.75381">
        <ele>1613.6</ele>
        <time>2021-11-21T11:44:06Z</time>
      </trkpt>
      <trkpt lat="45.31416" lon="5.7538">
        <ele>1613.6</ele>
        <time>2021-11-21T11:44:07Z</time>
      </trkpt>
      <trkpt lat="45.31408" lon="5.75379">
        <ele>1612.4</ele>
        <time>2021-11-21T11:44:08Z</time>
      </trkpt>
      <trkpt lat="45.314" lon="5.75378">
        <ele>1612</ele>
        <time>2021-11-21T11:44:09Z</time>
      </trkpt>
      <trkpt lat="45.31391" lon="5.75378">
        <ele>1611</ele>
        <time>2021-11-21T11:44:10Z</time>
      </trkpt>
      <trkpt lat="45.31383" lon="5.75377">
        <ele>1611</ele>
        <time>2021-11-21T11:44:11Z</time>
      </trkpt>
      <trkpt lat="45.31375" lon="5.75376">
        <ele>1610.2</ele>
        <time>2021-11-21T11:44:12Z</time>
      </trkpt>
      <trkpt lat="45.31367" lon="5.75376">
        <ele>1609</ele>
        <time>2021-11-21T11:44:13Z</time>
      </trkpt>
      <trkpt lat="45.3136" lon="5.75375">
        <ele>1609.6</ele>
        <time>2021-11-21T11:44:14Z</time>
      </trkpt>
      <trkpt lat="45.31353" lon="5.75375">
        <ele>1610.2</ele>
        <time>2021-11-21T11:44:15Z</time>
      </trkpt>
      <trkpt lat="45.31345" lon="5.75375">
        <ele>1609.2</ele>
        <time>2021-11-21T11:44:16Z</time>
      </trkpt>
      <trkpt lat="45.31338" lon="5.75377">
        <ele>1609.6</ele>
        <time>2021-11-21T11:44:17Z</time>
      </trkpt>
      <trkpt lat="45.31332" lon="5.7538">
        <ele>1610.4</ele>
        <time>2021-11-21T11:44:18Z</time>
      </trkpt>
      <trkpt lat="45.31325" lon="5.75384">
        <ele>1610.6</ele>
        <time>2021-11-21T11:44:19Z</time>
      </trkpt>
      <trkpt lat="45.31319" lon="5.7539">
        <ele>1610</ele>
        <time>2021-11-21T11:44:20Z</time>
      </trkpt>
      <trkpt lat="45.31313" lon="5.75395">
        <ele>1608.8</ele>
        <time>2021-11-21T11:44:21Z</time>
      </trkpt>
      <trkpt lat="45.31307" lon="5.75399">
        <ele>1608.4</ele>
        <time>2021-11-21T11:44:22Z</time>
      </trkpt>
      <trkpt lat="45.313" lon="5.75402">
        <ele>1608.4</ele>
        <time>2021-11-21T11:44:23Z</time>
      </trkpt>
      <trkpt lat="45.31294" lon="5.75405">
        <ele>1608.2</ele>
        <time>2021-11-21T11:44:24Z</time>
      </trkpt>
      <trkpt lat="45.31288" lon="5.75407">
        <ele>1607.8</ele>
        <time>2021-11-21T11:44:25Z</time>
      </trkpt>
      <trkpt lat="45.31282" lon="5.7541">
        <ele>1606.4</ele>
        <time>2021-11-21T11:44:26Z</time>
      </trkpt>
      <trkpt lat="45.31276" lon="5.75412">
        <ele>1606</ele>
        <time>2021-11-21T11:44:27Z</time>
      </trkpt>
      <trkpt lat="45.3127" lon="5.75415">
        <ele>1606.4</ele>
        <time>2021-11-21T11:44:28Z</time>
      </trkpt>
      <trkpt lat="45.31264" lon="5.75417">
        <ele>1605.6</ele>
        <time>2021-11-21T11:44:29Z</time>
      </trkpt>
      <trkpt lat="45.31258" lon="5.75421">
        <ele>1605.2</ele>
        <time>2021-11-21T11:44:30Z</time>
      </trkpt>
      <trkpt lat="45.31253" lon="5.75425">
        <ele>1605</ele>
        <time>2021-11-21T11:44:31Z</time>
      </trkpt>
      <trkpt lat="45.31247" lon="5.7543">
        <ele>1605.6</ele>
        <time>2021-11-21T11:44:32Z</time>
      </trkpt>
      <trkpt lat="45.31241" lon="5.75435">
        <ele>1605.2</ele>
        <time>2021-11-21T11:44:33Z</time>
      </trkpt>
      <trkpt lat="45.31235" lon="5.75441">
        <ele>1605.8</ele>
        <time>2021-11-21T11:44:34Z</time>
      </trkpt>
      <trkpt lat="45.3123" lon="5.75447">
        <ele>1606</ele>
        <time>2021-11-21T11:44:35Z</time>
      </trkpt>
      <trkpt lat="45.31225" lon="5.75453">
        <ele>1606.2</ele>
        <time>2021-11-21T11:44:36Z</time>
      </trkpt>
      <trkpt lat="45.31219" lon="5.75459">
        <ele>1606.4</ele>
        <time>2021-11-21T11:44:37Z</time>
      </trkpt>
      <trkpt lat="45.31214" lon="5.75464">
        <ele>1606.4</ele>
        <time>2021-11-21T11:44:38Z</time>
      </trkpt>
      <trkpt lat="45.31209" lon="5.75469">
        <ele>1605.8</ele>
        <time>2021-11-21T11:44:39Z</time>
      </trkpt>
      <trkpt lat="45.31203" lon="5.75473">
        <ele>1605.2</ele>
        <time>2021-11-21T11:44:40Z</time>
      </trkpt>
      <trkpt lat="45.31197" lon="5.75475">
        <ele>1605.6</ele>
        <time>2021-11-21T11:44:41Z</time>
      </trkpt>
      <trkpt lat="45.31191" lon="5.75476">
        <ele>1605.2</ele>
        <time>2021-11-21T11:44:42Z</time>
      </trkpt>
      <trkpt lat="45.31185" lon="5.75476">
        <ele>1605.2</ele>
        <time>2021-11-21T11:44:43Z</time>
      </trkpt>
      <trkpt lat="45.31178" lon="5.75476">
        <ele>1605</ele>
        <time>2021-11-21T11:44:44Z</time>
      </trkpt>
      <trkpt lat="45.31172" lon="5.75476">
        <ele>1604.8</ele>
        <time>2021-11-21T11:44:45Z</time>
      </trkpt>
      <trkpt lat="45.31166" lon="5.75475">
        <ele>1604.6</ele>
        <time>2021-11-21T11:44:46Z</time>
      </trkpt>
      <trkpt lat="45.31159" lon="5.75475">
        <ele>1605.4</ele>
        <time>2021-11-21T11:44:47Z</time>
      </trkpt>
      <trkpt lat="45.31153" lon="5.75474">
        <ele>1605</ele>
        <time>2021-11-21T11:44:48Z</time>
      </trkpt>
      <trkpt lat="45.31147" lon="5.75474">
        <ele>1604.8</ele>
        <time>2021-11-21T11:44:49Z</time>
      </trkpt>
      <trkpt lat="45.31141" lon="5.75473">
        <ele>1605.2</ele>
        <time>2021-11-21T11:44:50Z</time>
      </trkpt>
      <trkpt lat="45.31135" lon="5.75471">
        <ele>1605.8</ele>
        <time>2021-11-21T11:44:51Z</time>
      </trkpt>
      <trkpt lat="45.31129" lon="5.7547">
        <ele>1606</ele>
        <time>2021-11-21T11:44:52Z</time>
      </trkpt>
      <trkpt lat="45.31124" lon="5.75468">
        <ele>1605.8</ele>
        <time>2021-11-21T11:44:53Z</time>
      </trkpt>
      <trkpt lat="45.31118" lon="5.75466">
        <ele>1606</ele>
        <time>2021-11-21T11:44:54Z</time>
      </trkpt>
      <trkpt lat="45.31114" lon="5.75463">
        <ele>1606</ele>
        <time>2021-11-21T11:44:55Z</time>
      </trkpt>
      <trkpt lat="45.31109" lon="5.75461">
        <ele>1606.2</ele>
        <time>2021-11-21T11:44:56Z</time>
      </trkpt>
      <trkpt lat="45.31105" lon="5.75458">
        <ele>1606.2</ele>
        <time>2021-11-21T11:44:57Z</time>
      </trkpt>
      <trkpt lat="45.311" lon="5.75455">
        <ele>1606.6</ele>
        <time>2021-11-21T11:44:58Z</time>
      </trkpt>
      <trkpt lat="45.31095" lon="5.75451">
        <ele>1606.8</ele>
        <time>2021-11-21T11:44:59Z</time>
      </trkpt>
      <trkpt lat="45.3109" lon="5.75447">
        <ele>1607.2</ele>
        <time>2021-11-21T11:45:00Z</time>
      </trkpt>
      <trkpt lat="45.31084" lon="5.75443">
        <ele>1607.6</ele>
        <time>2021-11-21T11:45:01Z</time>
      </trkpt>
      <trkpt lat="45.31078" lon="5.75437">
        <ele>1607.6</ele>
        <time>2021-11-21T11:45:02Z</time>
      </trkpt>
      <trkpt lat="45.31071" lon="5.75432">
        <ele>1607.6</ele>
        <time>2021-11-21T11:45:03Z</time>
      </trkpt>
      <trkpt lat="45.31065" lon="5.75427">
        <ele>1607.8</ele>
        <time>2021-11-21T11:45:04Z</time>
      </trkpt>
      <trkpt lat="45.31058" lon="5.75421">
        <ele>1607.6</ele>
        <time>2021-11-21T11:45:05Z</time>
      </trkpt>
      <trkpt lat="45.31052" lon="5.75416">
        <ele>1607.8</ele>
        <time>2021-11-21T11:45:06Z</time>
      </trkpt>
      <trkpt lat="45.31045" lon="5.75412">
        <ele>1608</ele>
        <time>2021-11-21T11:45:07Z</time>
      </trkpt>
      <trkpt lat="45.31039" lon="5.7541">
        <ele>1608</ele>
        <time>2021-11-21T11:45:08Z</time>
      </trkpt>
      <trkpt lat="45.31033" lon="5.75408">
        <ele>1607.8</ele>
        <time>2021-11-21T11:45:09Z</time>
      </trkpt>
      <trkpt lat="45.31027" lon="5.75407">
        <ele>1607.4</ele>
        <time>2021-11-21T11:45:10Z</time>
      </trkpt>
      <trkpt lat="45.31023" lon="5.75405">
        <ele>1607.4</ele>
        <time>2021-11-21T11:45:11Z</time>
      </trkpt>
      <trkpt lat="45.31021" lon="5.75405">
        <ele>1607</ele>
        <time>2021-11-21T11:45:12Z</time>
      </trkpt>
      <trkpt lat="45.31017" lon="5.75405">
        <ele>1598</ele>
        <time>2021-11-21T11:45:46Z</time>
      </trkpt>
      <trkpt lat="45.31013" lon="5.75405">
        <ele>1598</ele>
        <time>2021-11-21T11:45:47Z</time>
      </trkpt>
      <trkpt lat="45.31009" lon="5.75404">
        <ele>1598</ele>
        <time>2021-11-21T11:45:48Z</time>
      </trkpt>
      <trkpt lat="45.31005" lon="5.75403">
        <ele>1597.8</ele>
        <time>2021-11-21T11:45:49Z</time>
      </trkpt>
      <trkpt lat="45.31" lon="5.75402">
        <ele>1598</ele>
        <time>2021-11-21T11:45:50Z</time>
      </trkpt>
      <trkpt lat="45.30995" lon="5.75403">
        <ele>1598.2</ele>
        <time>2021-11-21T11:45:51Z</time>
      </trkpt>
      <trkpt lat="45.3099" lon="5.75404">
        <ele>1598.2</ele>
        <time>2021-11-21T11:45:52Z</time>
      </trkpt>
      <trkpt lat="45.30984" lon="5.75405">
        <ele>1598.2</ele>
        <time>2021-11-21T11:45:53Z</time>
      </trkpt>
      <trkpt lat="45.30978" lon="5.75405">
        <ele>1598</ele>
        <time>2021-11-21T11:45:54Z</time>
      </trkpt>
      <trkpt lat="45.30972" lon="5.75405">
        <ele>1598.2</ele>
        <time>2021-11-21T11:45:55Z</time>
      </trkpt>
      <trkpt lat="45.30967" lon="5.75404">
        <ele>1598</ele>
        <time>2021-11-21T11:45:56Z</time>
      </trkpt>
      <trkpt lat="45.30961" lon="5.75403">
        <ele>1597.6</ele>
        <time>2021-11-21T11:45:57Z</time>
      </trkpt>
      <trkpt lat="45.30954" lon="5.75401">
        <ele>1597.2</ele>
        <time>2021-11-21T11:45:58Z</time>
      </trkpt>
      <trkpt lat="45.30948" lon="5.75398">
        <ele>1596.6</ele>
        <time>2021-11-21T11:45:59Z</time>
      </trkpt>
      <trkpt lat="45.30942" lon="5.75394">
        <ele>1595.8</ele>
        <time>2021-11-21T11:46:00Z</time>
      </trkpt>
      <trkpt lat="45.30936" lon="5.75388">
        <ele>1595.6</ele>
        <time>2021-11-21T11:46:01Z</time>
      </trkpt>
      <trkpt lat="45.30931" lon="5.75383">
        <ele>1595.4</ele>
        <time>2021-11-21T11:46:02Z</time>
      </trkpt>
      <trkpt lat="45.30926" lon="5.75377">
        <ele>1594.4</ele>
        <time>2021-11-21T11:46:03Z</time>
      </trkpt>
      <trkpt lat="45.30921" lon="5.75372">
        <ele>1594</ele>
        <time>2021-11-21T11:46:04Z</time>
      </trkpt>
      <trkpt lat="45.30915" lon="5.75366">
        <ele>1593.4</ele>
        <time>2021-11-21T11:46:05Z</time>
      </trkpt>
      <trkpt lat="45.3091" lon="5.75361">
        <ele>1592.8</ele>
        <time>2021-11-21T11:46:06Z</time>
      </trkpt>
      <trkpt lat="45.30905" lon="5.75356">
        <ele>1592.2</ele>
        <time>2021-11-21T11:46:07Z</time>
      </trkpt>
      <trkpt lat="45.30899" lon="5.7535">
        <ele>1591.4</ele>
        <time>2021-11-21T11:46:08Z</time>
      </trkpt>
      <trkpt lat="45.30893" lon="5.75345">
        <ele>1590.4</ele>
        <time>2021-11-21T11:46:09Z</time>
      </trkpt>
      <trkpt lat="45.30887" lon="5.75339">
        <ele>1589.8</ele>
        <time>2021-11-21T11:46:10Z</time>
      </trkpt>
      <trkpt lat="45.30881" lon="5.75334">
        <ele>1589</ele>
        <time>2021-11-21T11:46:11Z</time>
      </trkpt>
      <trkpt lat="45.30875" lon="5.7533">
        <ele>1588.2</ele>
        <time>2021-11-21T11:46:12Z</time>
      </trkpt>
      <trkpt lat="45.30868" lon="5.75327">
        <ele>1587</ele>
        <time>2021-11-21T11:46:13Z</time>
      </trkpt>
      <trkpt lat="45.3086" lon="5.75325">
        <ele>1586.6</ele>
        <time>2021-11-21T11:46:14Z</time>
      </trkpt>
      <trkpt lat="45.30853" lon="5.75323">
        <ele>1585.2</ele>
        <time>2021-11-21T11:46:15Z</time>
      </trkpt>
      <trkpt lat="45.30845" lon="5.75321">
        <ele>1584.4</ele>
        <time>2021-11-21T11:46:16Z</time>
      </trkpt>
      <trkpt lat="45.30838" lon="5.75318">
        <ele>1584</ele>
        <time>2021-11-21T11:46:17Z</time>
      </trkpt>
      <trkpt lat="45.30831" lon="5.75313">
        <ele>1583.8</ele>
        <time>2021-11-21T11:46:18Z</time>
      </trkpt>
      <trkpt lat="45.30826" lon="5.75307">
        <ele>1582.8</ele>
        <time>2021-11-21T11:46:19Z</time>
      </trkpt>
      <trkpt lat="45.3082" lon="5.75301">
        <ele>1582</ele>
        <time>2021-11-21T11:46:20Z</time>
      </trkpt>
      <trkpt lat="45.30814" lon="5.75295">
        <ele>1581.2</ele>
        <time>2021-11-21T11:46:21Z</time>
      </trkpt>
      <trkpt lat="45.30808" lon="5.7529">
        <ele>1580.6</ele>
        <time>2021-11-21T11:46:22Z</time>
      </trkpt>
      <trkpt lat="45.30802" lon="5.75285">
        <ele>1580.2</ele>
        <time>2021-11-21T11:46:23Z</time>
      </trkpt>
      <trkpt lat="45.30796" lon="5.75281">
        <ele>1579.2</ele>
        <time>2021-11-21T11:46:24Z</time>
      </trkpt>
      <trkpt lat="45.3079" lon="5.75275">
        <ele>1578.6</ele>
        <time>2021-11-21T11:46:25Z</time>
      </trkpt>
      <trkpt lat="45.30785" lon="5.75269">
        <ele>1578.4</ele>
        <time>2021-11-21T11:46:26Z</time>
      </trkpt>
      <trkpt lat="45.3078" lon="5.75262">
        <ele>1577.8</ele>
        <time>2021-11-21T11:46:27Z</time>
      </trkpt>
      <trkpt lat="45.30774" lon="5.75255">
        <ele>1577</ele>
        <time>2021-11-21T11:46:28Z</time>
      </trkpt>
      <trkpt lat="45.30768" lon="5.75247">
        <ele>1576.6</ele>
        <time>2021-11-21T11:46:29Z</time>
      </trkpt>
      <trkpt lat="45.30763" lon="5.7524">
        <ele>1575.4</ele>
        <time>2021-11-21T11:46:30Z</time>
      </trkpt>
      <trkpt lat="45.30757" lon="5.75232">
        <ele>1574.8</ele>
        <time>2021-11-21T11:46:31Z</time>
      </trkpt>
      <trkpt lat="45.30752" lon="5.75224">
        <ele>1574.4</ele>
        <time>2021-11-21T11:46:32Z</time>
      </trkpt>
      <trkpt lat="45.30748" lon="5.75216">
        <ele>1573.8</ele>
        <time>2021-11-21T11:46:33Z</time>
      </trkpt>
      <trkpt lat="45.30743" lon="5.7521">
        <ele>1573.4</ele>
        <time>2021-11-21T11:46:34Z</time>
      </trkpt>
      <trkpt lat="45.3074" lon="5.75205">
        <ele>1573</ele>
        <time>2021-11-21T11:46:35Z</time>
      </trkpt>
      <trkpt lat="45.30736" lon="5.75204">
        <ele>1572.4</ele>
        <time>2021-11-21T11:46:36Z</time>
      </trkpt>
      <trkpt lat="45.30732" lon="5.75207">
        <ele>1571.8</ele>
        <time>2021-11-21T11:46:37Z</time>
      </trkpt>
      <trkpt lat="45.30729" lon="5.75214">
        <ele>1570.6</ele>
        <time>2021-11-21T11:46:38Z</time>
      </trkpt>
      <trkpt lat="45.30729" lon="5.75225">
        <ele>1568.8</ele>
        <time>2021-11-21T11:46:39Z</time>
      </trkpt>
      <trkpt lat="45.30729" lon="5.75235">
        <ele>1567.8</ele>
        <time>2021-11-21T11:46:40Z</time>
      </trkpt>
      <trkpt lat="45.30731" lon="5.75243">
        <ele>1567.4</ele>
        <time>2021-11-21T11:46:41Z</time>
      </trkpt>
      <trkpt lat="45.30733" lon="5.75251">
        <ele>1567.2</ele>
        <time>2021-11-21T11:46:42Z</time>
      </trkpt>
      <trkpt lat="45.30741" lon="5.75268">
        <ele>1566</ele>
        <time>2021-11-21T11:46:44Z</time>
      </trkpt>
      <trkpt lat="45.3075" lon="5.75289">
        <ele>1564.4</ele>
        <time>2021-11-21T11:46:46Z</time>
      </trkpt>
      <trkpt lat="45.30759" lon="5.75309">
        <ele>1563</ele>
        <time>2021-11-21T11:46:48Z</time>
      </trkpt>
      <trkpt lat="45.3077" lon="5.75325">
        <ele>1561.6</ele>
        <time>2021-11-21T11:46:50Z</time>
      </trkpt>
      <trkpt lat="45.30777" lon="5.75336">
        <ele>1560.6</ele>
        <time>2021-11-21T11:46:51Z</time>
      </trkpt>
      <trkpt lat="45.30783" lon="5.75346">
        <ele>1560</ele>
        <time>2021-11-21T11:46:52Z</time>
      </trkpt>
      <trkpt lat="45.30789" lon="5.75357">
        <ele>1559.4</ele>
        <time>2021-11-21T11:46:53Z</time>
      </trkpt>
      <trkpt lat="45.30801" lon="5.75376">
        <ele>1557.6</ele>
        <time>2021-11-21T11:46:55Z</time>
      </trkpt>
      <trkpt lat="45.30804" lon="5.75389">
        <ele>1557.2</ele>
        <time>2021-11-21T11:46:56Z</time>
      </trkpt>
      <trkpt lat="45.30809" lon="5.75401">
        <ele>1556</ele>
        <time>2021-11-21T11:46:57Z</time>
      </trkpt>
      <trkpt lat="45.30814" lon="5.75413">
        <ele>1555</ele>
        <time>2021-11-21T11:46:58Z</time>
      </trkpt>
      <trkpt lat="45.30819" lon="5.75424">
        <ele>1554.6</ele>
        <time>2021-11-21T11:46:59Z</time>
      </trkpt>
      <trkpt lat="45.30832" lon="5.75442">
        <ele>1552.2</ele>
        <time>2021-11-21T11:47:01Z</time>
      </trkpt>
      <trkpt lat="45.3084" lon="5.75452">
        <ele>1550.8</ele>
        <time>2021-11-21T11:47:02Z</time>
      </trkpt>
      <trkpt lat="45.30848" lon="5.75475">
        <ele>1548.8</ele>
        <time>2021-11-21T11:47:04Z</time>
      </trkpt>
      <trkpt lat="45.30854" lon="5.75497">
        <ele>1546.2</ele>
        <time>2021-11-21T11:47:06Z</time>
      </trkpt>
      <trkpt lat="45.30862" lon="5.75515">
        <ele>1544.2</ele>
        <time>2021-11-21T11:47:08Z</time>
      </trkpt>
      <trkpt lat="45.30868" lon="5.75525">
        <ele>1542.6</ele>
        <time>2021-11-21T11:47:09Z</time>
      </trkpt>
      <trkpt lat="45.30875" lon="5.75534">
        <ele>1541.2</ele>
        <time>2021-11-21T11:47:10Z</time>
      </trkpt>
      <trkpt lat="45.30882" lon="5.75542">
        <ele>1539.8</ele>
        <time>2021-11-21T11:47:11Z</time>
      </trkpt>
      <trkpt lat="45.30893" lon="5.75554">
        <ele>1537</ele>
        <time>2021-11-21T11:47:13Z</time>
      </trkpt>
      <trkpt lat="45.30892" lon="5.75567">
        <ele>1535.2</ele>
        <time>2021-11-21T11:47:15Z</time>
      </trkpt>
      <trkpt lat="45.3088" lon="5.75563">
        <ele>1533.2</ele>
        <time>2021-11-21T11:47:17Z</time>
      </trkpt>
      <trkpt lat="45.30876" lon="5.75554">
        <ele>1532.4</ele>
        <time>2021-11-21T11:47:18Z</time>
      </trkpt>
      <trkpt lat="45.30871" lon="5.75547">
        <ele>1530.2</ele>
        <time>2021-11-21T11:47:19Z</time>
      </trkpt>
      <trkpt lat="45.30865" lon="5.7554">
        <ele>1528.8</ele>
        <time>2021-11-21T11:47:20Z</time>
      </trkpt>
      <trkpt lat="45.30859" lon="5.75533">
        <ele>1528.2</ele>
        <time>2021-11-21T11:47:21Z</time>
      </trkpt>
      <trkpt lat="45.30851" lon="5.75526">
        <ele>1527.6</ele>
        <time>2021-11-21T11:47:22Z</time>
      </trkpt>
      <trkpt lat="45.30843" lon="5.75519">
        <ele>1527</ele>
        <time>2021-11-21T11:47:23Z</time>
      </trkpt>
      <trkpt lat="45.30835" lon="5.75513">
        <ele>1526.4</ele>
        <time>2021-11-21T11:47:24Z</time>
      </trkpt>
      <trkpt lat="45.30827" lon="5.75508">
        <ele>1525.8</ele>
        <time>2021-11-21T11:47:25Z</time>
      </trkpt>
      <trkpt lat="45.3082" lon="5.75502">
        <ele>1525.4</ele>
        <time>2021-11-21T11:47:26Z</time>
      </trkpt>
      <trkpt lat="45.30812" lon="5.75497">
        <ele>1525</ele>
        <time>2021-11-21T11:47:27Z</time>
      </trkpt>
      <trkpt lat="45.30805" lon="5.75492">
        <ele>1524.8</ele>
        <time>2021-11-21T11:47:28Z</time>
      </trkpt>
      <trkpt lat="45.30798" lon="5.75488">
        <ele>1524</ele>
        <time>2021-11-21T11:47:29Z</time>
      </trkpt>
      <trkpt lat="45.3079" lon="5.75486">
        <ele>1524</ele>
        <time>2021-11-21T11:47:30Z</time>
      </trkpt>
      <trkpt lat="45.30774" lon="5.75481">
        <ele>1522.2</ele>
        <time>2021-11-21T11:47:32Z</time>
      </trkpt>
      <trkpt lat="45.3076" lon="5.75472">
        <ele>1520.4</ele>
        <time>2021-11-21T11:47:34Z</time>
      </trkpt>
      <trkpt lat="45.30753" lon="5.75466">
        <ele>1519.4</ele>
        <time>2021-11-21T11:47:35Z</time>
      </trkpt>
      <trkpt lat="45.30746" lon="5.7546">
        <ele>1518.8</ele>
        <time>2021-11-21T11:47:36Z</time>
      </trkpt>
      <trkpt lat="45.30738" lon="5.75453">
        <ele>1517.6</ele>
        <time>2021-11-21T11:47:37Z</time>
      </trkpt>
      <trkpt lat="45.30731" lon="5.75447">
        <ele>1516.4</ele>
        <time>2021-11-21T11:47:38Z</time>
      </trkpt>
      <trkpt lat="45.30724" lon="5.75442">
        <ele>1515.8</ele>
        <time>2021-11-21T11:47:39Z</time>
      </trkpt>
      <trkpt lat="45.30717" lon="5.75437">
        <ele>1514.6</ele>
        <time>2021-11-21T11:47:40Z</time>
      </trkpt>
      <trkpt lat="45.30709" lon="5.75432">
        <ele>1513.6</ele>
        <time>2021-11-21T11:47:41Z</time>
      </trkpt>
      <trkpt lat="45.30701" lon="5.75426">
        <ele>1512.6</ele>
        <time>2021-11-21T11:47:42Z</time>
      </trkpt>
      <trkpt lat="45.30686" lon="5.75414">
        <ele>1511</ele>
        <time>2021-11-21T11:47:44Z</time>
      </trkpt>
      <trkpt lat="45.30679" lon="5.75407">
        <ele>1510</ele>
        <time>2021-11-21T11:47:45Z</time>
      </trkpt>
      <trkpt lat="45.30671" lon="5.754">
        <ele>1509.2</ele>
        <time>2021-11-21T11:47:46Z</time>
      </trkpt>
      <trkpt lat="45.30659" lon="5.75383">
        <ele>1506.8</ele>
        <time>2021-11-21T11:47:48Z</time>
      </trkpt>
      <trkpt lat="45.30647" lon="5.75368">
        <ele>1505</ele>
        <time>2021-11-21T11:47:50Z</time>
      </trkpt>
      <trkpt lat="45.30631" lon="5.75358">
        <ele>1503.2</ele>
        <time>2021-11-21T11:47:52Z</time>
      </trkpt>
      <trkpt lat="45.30614" lon="5.75352">
        <ele>1501.4</ele>
        <time>2021-11-21T11:47:54Z</time>
      </trkpt>
      <trkpt lat="45.30605" lon="5.75349">
        <ele>1500.2</ele>
        <time>2021-11-21T11:47:55Z</time>
      </trkpt>
      <trkpt lat="45.30596" lon="5.75344">
        <ele>1498.8</ele>
        <time>2021-11-21T11:47:56Z</time>
      </trkpt>
      <trkpt lat="45.3058" lon="5.75334">
        <ele>1496.4</ele>
        <time>2021-11-21T11:47:58Z</time>
      </trkpt>
      <trkpt lat="45.30564" lon="5.75324">
        <ele>1494</ele>
        <time>2021-11-21T11:48:00Z</time>
      </trkpt>
      <trkpt lat="45.30556" lon="5.75318">
        <ele>1492.8</ele>
        <time>2021-11-21T11:48:01Z</time>
      </trkpt>
      <trkpt lat="45.3054" lon="5.75308">
        <ele>1491.2</ele>
        <time>2021-11-21T11:48:03Z</time>
      </trkpt>
      <trkpt lat="45.30527" lon="5.75296">
        <ele>1488.4</ele>
        <time>2021-11-21T11:48:05Z</time>
      </trkpt>
      <trkpt lat="45.30514" lon="5.75283">
        <ele>1485.8</ele>
        <time>2021-11-21T11:48:07Z</time>
      </trkpt>
      <trkpt lat="45.30501" lon="5.75277">
        <ele>1484</ele>
        <time>2021-11-21T11:48:09Z</time>
      </trkpt>
      <trkpt lat="45.30488" lon="5.75275">
        <ele>1482.6</ele>
        <time>2021-11-21T11:48:11Z</time>
      </trkpt>
      <trkpt lat="45.30475" lon="5.75277">
        <ele>1478.6</ele>
        <time>2021-11-21T11:48:13Z</time>
      </trkpt>
      <trkpt lat="45.30466" lon="5.7528">
        <ele>1476.6</ele>
        <time>2021-11-21T11:48:15Z</time>
      </trkpt>
      <trkpt lat="45.30455" lon="5.7528">
        <ele>1475</ele>
        <time>2021-11-21T11:48:17Z</time>
      </trkpt>
      <trkpt lat="45.30441" lon="5.75283">
        <ele>1473.2</ele>
        <time>2021-11-21T11:48:19Z</time>
      </trkpt>
      <trkpt lat="45.30427" lon="5.75285">
        <ele>1470.8</ele>
        <time>2021-11-21T11:48:21Z</time>
      </trkpt>
      <trkpt lat="45.30414" lon="5.75286">
        <ele>1470</ele>
        <time>2021-11-21T11:48:23Z</time>
      </trkpt>
      <trkpt lat="45.30405" lon="5.75296">
        <ele>1468.8</ele>
        <time>2021-11-21T11:48:25Z</time>
      </trkpt>
      <trkpt lat="45.30397" lon="5.75312">
        <ele>1467.8</ele>
        <time>2021-11-21T11:48:27Z</time>
      </trkpt>
      <trkpt lat="45.30394" lon="5.75335">
        <ele>1467</ele>
        <time>2021-11-21T11:48:29Z</time>
      </trkpt>
      <trkpt lat="45.30398" lon="5.7535">
        <ele>1466</ele>
        <time>2021-11-21T11:48:31Z</time>
      </trkpt>
      <trkpt lat="45.30408" lon="5.75348">
        <ele>1465.6</ele>
        <time>2021-11-21T11:48:33Z</time>
      </trkpt>
      <trkpt lat="45.30423" lon="5.75337">
        <ele>1464.8</ele>
        <time>2021-11-21T11:48:35Z</time>
      </trkpt>
      <trkpt lat="45.30433" lon="5.75325">
        <ele>1463.8</ele>
        <time>2021-11-21T11:48:37Z</time>
      </trkpt>
      <trkpt lat="45.30444" lon="5.75327">
        <ele>1462.6</ele>
        <time>2021-11-21T11:48:39Z</time>
      </trkpt>
      <trkpt lat="45.30451" lon="5.75344">
        <ele>1461</ele>
        <time>2021-11-21T11:48:41Z</time>
      </trkpt>
      <trkpt lat="45.3046" lon="5.75353">
        <ele>1461</ele>
        <time>2021-11-21T11:48:43Z</time>
      </trkpt>
      <trkpt lat="45.30474" lon="5.75352">
        <ele>1460.2</ele>
        <time>2021-11-21T11:48:45Z</time>
      </trkpt>
      <trkpt lat="45.30484" lon="5.75352">
        <ele>1459.8</ele>
        <time>2021-11-21T11:48:46Z</time>
      </trkpt>
      <trkpt lat="45.30499" lon="5.75355">
        <ele>1457.6</ele>
        <time>2021-11-21T11:48:48Z</time>
      </trkpt>
      <trkpt lat="45.30512" lon="5.75361">
        <ele>1456</ele>
        <time>2021-11-21T11:48:50Z</time>
      </trkpt>
      <trkpt lat="45.30519" lon="5.7537">
        <ele>1454.8</ele>
        <time>2021-11-21T11:48:52Z</time>
      </trkpt>
      <trkpt lat="45.30503" lon="5.75376">
        <ele>1453.2</ele>
        <time>2021-11-21T11:48:56Z</time>
      </trkpt>
      <trkpt lat="45.3049" lon="5.75376">
        <ele>1452.2</ele>
        <time>2021-11-21T11:48:57Z</time>
      </trkpt>
      <trkpt lat="45.3048" lon="5.75377">
        <ele>1451.6</ele>
        <time>2021-11-21T11:48:58Z</time>
      </trkpt>
      <trkpt lat="45.3047" lon="5.75378">
        <ele>1450.4</ele>
        <time>2021-11-21T11:48:59Z</time>
      </trkpt>
      <trkpt lat="45.30454" lon="5.75379">
        <ele>1448.8</ele>
        <time>2021-11-21T11:49:01Z</time>
      </trkpt>
      <trkpt lat="45.30443" lon="5.75385">
        <ele>1446.8</ele>
        <time>2021-11-21T11:49:03Z</time>
      </trkpt>
      <trkpt lat="45.30436" lon="5.7541">
        <ele>1445.4</ele>
        <time>2021-11-21T11:49:05Z</time>
      </trkpt>
      <trkpt lat="45.30434" lon="5.75427">
        <ele>1444.6</ele>
        <time>2021-11-21T11:49:06Z</time>
      </trkpt>
      <trkpt lat="45.30436" lon="5.7544">
        <ele>1444.4</ele>
        <time>2021-11-21T11:49:07Z</time>
      </trkpt>
      <trkpt lat="45.30437" lon="5.75452">
        <ele>1443</ele>
        <time>2021-11-21T11:49:08Z</time>
      </trkpt>
      <trkpt lat="45.30438" lon="5.75465">
        <ele>1442.2</ele>
        <time>2021-11-21T11:49:09Z</time>
      </trkpt>
      <trkpt lat="45.30439" lon="5.75479">
        <ele>1441.2</ele>
        <time>2021-11-21T11:49:10Z</time>
      </trkpt>
      <trkpt lat="45.30441" lon="5.75493">
        <ele>1440.2</ele>
        <time>2021-11-21T11:49:11Z</time>
      </trkpt>
      <trkpt lat="45.30442" lon="5.75507">
        <ele>1439.4</ele>
        <time>2021-11-21T11:49:12Z</time>
      </trkpt>
      <trkpt lat="45.30445" lon="5.7552">
        <ele>1438.8</ele>
        <time>2021-11-21T11:49:13Z</time>
      </trkpt>
      <trkpt lat="45.30447" lon="5.75532">
        <ele>1438.2</ele>
        <time>2021-11-21T11:49:14Z</time>
      </trkpt>
      <trkpt lat="45.30447" lon="5.75555">
        <ele>1437</ele>
        <time>2021-11-21T11:49:16Z</time>
      </trkpt>
      <trkpt lat="45.30447" lon="5.75579">
        <ele>1435.6</ele>
        <time>2021-11-21T11:49:18Z</time>
      </trkpt>
      <trkpt lat="45.30449" lon="5.75603">
        <ele>1434.2</ele>
        <time>2021-11-21T11:49:20Z</time>
      </trkpt>
      <trkpt lat="45.30452" lon="5.75627">
        <ele>1432.2</ele>
        <time>2021-11-21T11:49:22Z</time>
      </trkpt>
      <trkpt lat="45.30452" lon="5.75646">
        <ele>1430</ele>
        <time>2021-11-21T11:49:24Z</time>
      </trkpt>
      <trkpt lat="45.30447" lon="5.75661">
        <ele>1428.6</ele>
        <time>2021-11-21T11:49:26Z</time>
      </trkpt>
      <trkpt lat="45.30439" lon="5.75678">
        <ele>1426.8</ele>
        <time>2021-11-21T11:49:28Z</time>
      </trkpt>
      <trkpt lat="45.30429" lon="5.75691">
        <ele>1425.2</ele>
        <time>2021-11-21T11:49:30Z</time>
      </trkpt>
      <trkpt lat="45.30417" lon="5.75701">
        <ele>1422.6</ele>
        <time>2021-11-21T11:49:32Z</time>
      </trkpt>
      <trkpt lat="45.30406" lon="5.75701">
        <ele>1421</ele>
        <time>2021-11-21T11:49:33Z</time>
      </trkpt>
      <trkpt lat="45.30397" lon="5.757">
        <ele>1420.4</ele>
        <time>2021-11-21T11:49:34Z</time>
      </trkpt>
      <trkpt lat="45.30386" lon="5.75696">
        <ele>1419.6</ele>
        <time>2021-11-21T11:49:35Z</time>
      </trkpt>
      <trkpt lat="45.30372" lon="5.75688">
        <ele>1418.4</ele>
        <time>2021-11-21T11:49:36Z</time>
      </trkpt>
      <trkpt lat="45.30361" lon="5.75681">
        <ele>1417.8</ele>
        <time>2021-11-21T11:49:37Z</time>
      </trkpt>
      <trkpt lat="45.30352" lon="5.75677">
        <ele>1417.2</ele>
        <time>2021-11-21T11:49:38Z</time>
      </trkpt>
      <trkpt lat="45.30343" lon="5.75672">
        <ele>1416</ele>
        <time>2021-11-21T11:49:39Z</time>
      </trkpt>
      <trkpt lat="45.30334" lon="5.75668">
        <ele>1415</ele>
        <time>2021-11-21T11:49:40Z</time>
      </trkpt>
      <trkpt lat="45.30317" lon="5.75661">
        <ele>1413.6</ele>
        <time>2021-11-21T11:49:42Z</time>
      </trkpt>
      <trkpt lat="45.30302" lon="5.75655">
        <ele>1411.8</ele>
        <time>2021-11-21T11:49:44Z</time>
      </trkpt>
      <trkpt lat="45.30288" lon="5.75648">
        <ele>1409.6</ele>
        <time>2021-11-21T11:49:46Z</time>
      </trkpt>
      <trkpt lat="45.30275" lon="5.75642">
        <ele>1407</ele>
        <time>2021-11-21T11:49:48Z</time>
      </trkpt>
      <trkpt lat="45.30263" lon="5.75638">
        <ele>1405.6</ele>
        <time>2021-11-21T11:49:50Z</time>
      </trkpt>
      <trkpt lat="45.30251" lon="5.75635">
        <ele>1404</ele>
        <time>2021-11-21T11:49:52Z</time>
      </trkpt>
      <trkpt lat="45.30241" lon="5.75621">
        <ele>1403</ele>
        <time>2021-11-21T11:49:54Z</time>
      </trkpt>
      <trkpt lat="45.30232" lon="5.75605">
        <ele>1401.4</ele>
        <time>2021-11-21T11:49:56Z</time>
      </trkpt>
      <trkpt lat="45.30227" lon="5.75597">
        <ele>1400.6</ele>
        <time>2021-11-21T11:49:57Z</time>
      </trkpt>
      <trkpt lat="45.30218" lon="5.7558">
        <ele>1399.2</ele>
        <time>2021-11-21T11:49:59Z</time>
      </trkpt>
      <trkpt lat="45.30206" lon="5.75564">
        <ele>1397.4</ele>
        <time>2021-11-21T11:50:01Z</time>
      </trkpt>
      <trkpt lat="45.30196" lon="5.7555">
        <ele>1396</ele>
        <time>2021-11-21T11:50:03Z</time>
      </trkpt>
      <trkpt lat="45.30185" lon="5.75538">
        <ele>1393.4</ele>
        <time>2021-11-21T11:50:05Z</time>
      </trkpt>
      <trkpt lat="45.30177" lon="5.75532">
        <ele>1392.8</ele>
        <time>2021-11-21T11:50:06Z</time>
      </trkpt>
      <trkpt lat="45.30162" lon="5.75519">
        <ele>1391</ele>
        <time>2021-11-21T11:50:08Z</time>
      </trkpt>
      <trkpt lat="45.30148" lon="5.75511">
        <ele>1390</ele>
        <time>2021-11-21T11:50:10Z</time>
      </trkpt>
      <trkpt lat="45.30135" lon="5.75504">
        <ele>1387.8</ele>
        <time>2021-11-21T11:50:12Z</time>
      </trkpt>
      <trkpt lat="45.30123" lon="5.75497">
        <ele>1386.2</ele>
        <time>2021-11-21T11:50:14Z</time>
      </trkpt>
      <trkpt lat="45.3011" lon="5.75491">
        <ele>1384.4</ele>
        <time>2021-11-21T11:50:16Z</time>
      </trkpt>
      <trkpt lat="45.301" lon="5.75474">
        <ele>1383</ele>
        <time>2021-11-21T11:50:18Z</time>
      </trkpt>
      <trkpt lat="45.30091" lon="5.75457">
        <ele>1381</ele>
        <time>2021-11-21T11:50:20Z</time>
      </trkpt>
      <trkpt lat="45.30083" lon="5.7544">
        <ele>1379</ele>
        <time>2021-11-21T11:50:22Z</time>
      </trkpt>
      <trkpt lat="45.30074" lon="5.75421">
        <ele>1377.2</ele>
        <time>2021-11-21T11:50:24Z</time>
      </trkpt>
      <trkpt lat="45.30068" lon="5.75413">
        <ele>1376</ele>
        <time>2021-11-21T11:50:25Z</time>
      </trkpt>
      <trkpt lat="45.30062" lon="5.75407">
        <ele>1375.6</ele>
        <time>2021-11-21T11:50:26Z</time>
      </trkpt>
      <trkpt lat="45.30057" lon="5.754">
        <ele>1375.2</ele>
        <time>2021-11-21T11:50:27Z</time>
      </trkpt>
      <trkpt lat="45.30052" lon="5.75394">
        <ele>1374.6</ele>
        <time>2021-11-21T11:50:28Z</time>
      </trkpt>
      <trkpt lat="45.30043" lon="5.75381">
        <ele>1372.8</ele>
        <time>2021-11-21T11:50:30Z</time>
      </trkpt>
      <trkpt lat="45.30034" lon="5.75367">
        <ele>1371.2</ele>
        <time>2021-11-21T11:50:32Z</time>
      </trkpt>
      <trkpt lat="45.30024" lon="5.75355">
        <ele>1370.2</ele>
        <time>2021-11-21T11:50:34Z</time>
      </trkpt>
      <trkpt lat="45.30012" lon="5.75345">
        <ele>1368.4</ele>
        <time>2021-11-21T11:50:36Z</time>
      </trkpt>
      <trkpt lat="45.29998" lon="5.75334">
        <ele>1366.6</ele>
        <time>2021-11-21T11:50:38Z</time>
      </trkpt>
      <trkpt lat="45.29985" lon="5.75321">
        <ele>1365.2</ele>
        <time>2021-11-21T11:50:40Z</time>
      </trkpt>
      <trkpt lat="45.29972" lon="5.75308">
        <ele>1363.2</ele>
        <time>2021-11-21T11:50:42Z</time>
      </trkpt>
      <trkpt lat="45.29961" lon="5.7529">
        <ele>1361.2</ele>
        <time>2021-11-21T11:50:44Z</time>
      </trkpt>
      <trkpt lat="45.29956" lon="5.75279">
        <ele>1360.4</ele>
        <time>2021-11-21T11:50:45Z</time>
      </trkpt>
      <trkpt lat="45.29952" lon="5.75267">
        <ele>1359.4</ele>
        <time>2021-11-21T11:50:46Z</time>
      </trkpt>
      <trkpt lat="45.29949" lon="5.75254">
        <ele>1358.2</ele>
        <time>2021-11-21T11:50:47Z</time>
      </trkpt>
      <trkpt lat="45.29944" lon="5.75233">
        <ele>1356.4</ele>
        <time>2021-11-21T11:50:49Z</time>
      </trkpt>
      <trkpt lat="45.29941" lon="5.75224">
        <ele>1355.8</ele>
        <time>2021-11-21T11:50:50Z</time>
      </trkpt>
      <trkpt lat="45.29938" lon="5.75215">
        <ele>1355</ele>
        <time>2021-11-21T11:50:51Z</time>
      </trkpt>
      <trkpt lat="45.29932" lon="5.75208">
        <ele>1354.4</ele>
        <time>2021-11-21T11:50:52Z</time>
      </trkpt>
      <trkpt lat="45.29926" lon="5.75204">
        <ele>1353.6</ele>
        <time>2021-11-21T11:50:53Z</time>
      </trkpt>
      <trkpt lat="45.2992" lon="5.75203">
        <ele>1352.8</ele>
        <time>2021-11-21T11:50:54Z</time>
      </trkpt>
      <trkpt lat="45.29915" lon="5.75204">
        <ele>1352</ele>
        <time>2021-11-21T11:50:55Z</time>
      </trkpt>
      <trkpt lat="45.29909" lon="5.75207">
        <ele>1350.6</ele>
        <time>2021-11-21T11:50:56Z</time>
      </trkpt>
      <trkpt lat="45.29902" lon="5.75215">
        <ele>1350</ele>
        <time>2021-11-21T11:50:57Z</time>
      </trkpt>
      <trkpt lat="45.29887" lon="5.75228">
        <ele>1348</ele>
        <time>2021-11-21T11:50:59Z</time>
      </trkpt>
      <trkpt lat="45.29879" lon="5.75234">
        <ele>1346.8</ele>
        <time>2021-11-21T11:51:00Z</time>
      </trkpt>
      <trkpt lat="45.2987" lon="5.75238">
        <ele>1345.8</ele>
        <time>2021-11-21T11:51:01Z</time>
      </trkpt>
      <trkpt lat="45.29861" lon="5.75236">
        <ele>1345.2</ele>
        <time>2021-11-21T11:51:02Z</time>
      </trkpt>
      <trkpt lat="45.29845" lon="5.75227">
        <ele>1344</ele>
        <time>2021-11-21T11:51:04Z</time>
      </trkpt>
      <trkpt lat="45.29827" lon="5.75223">
        <ele>1342.8</ele>
        <time>2021-11-21T11:51:06Z</time>
      </trkpt>
      <trkpt lat="45.29812" lon="5.75224">
        <ele>1341.6</ele>
        <time>2021-11-21T11:51:08Z</time>
      </trkpt>
      <trkpt lat="45.29805" lon="5.75237">
        <ele>1340.6</ele>
        <time>2021-11-21T11:51:10Z</time>
      </trkpt>
      <trkpt lat="45.29801" lon="5.7525">
        <ele>1340.2</ele>
        <time>2021-11-21T11:51:11Z</time>
      </trkpt>
      <trkpt lat="45.298" lon="5.75265">
        <ele>1339.6</ele>
        <time>2021-11-21T11:51:12Z</time>
      </trkpt>
      <trkpt lat="45.29799" lon="5.75286">
        <ele>1339</ele>
        <time>2021-11-21T11:51:13Z</time>
      </trkpt>
      <trkpt lat="45.29799" lon="5.75303">
        <ele>1338.6</ele>
        <time>2021-11-21T11:51:14Z</time>
      </trkpt>
      <trkpt lat="45.298" lon="5.75318">
        <ele>1338.2</ele>
        <time>2021-11-21T11:51:15Z</time>
      </trkpt>
      <trkpt lat="45.29801" lon="5.75332">
        <ele>1337.6</ele>
        <time>2021-11-21T11:51:16Z</time>
      </trkpt>
      <trkpt lat="45.29803" lon="5.75356">
        <ele>1336.8</ele>
        <time>2021-11-21T11:51:18Z</time>
      </trkpt>
      <trkpt lat="45.29807" lon="5.7538">
        <ele>1335</ele>
        <time>2021-11-21T11:51:20Z</time>
      </trkpt>
      <trkpt lat="45.29809" lon="5.75403">
        <ele>1334.2</ele>
        <time>2021-11-21T11:51:22Z</time>
      </trkpt>
      <trkpt lat="45.2981" lon="5.75421">
        <ele>1333.4</ele>
        <time>2021-11-21T11:51:24Z</time>
      </trkpt>
      <trkpt lat="45.29812" lon="5.75436">
        <ele>1331.2</ele>
        <time>2021-11-21T11:51:26Z</time>
      </trkpt>
      <trkpt lat="45.29816" lon="5.75453">
        <ele>1328.4</ele>
        <time>2021-11-21T11:51:29Z</time>
      </trkpt>
      <trkpt lat="45.29819" lon="5.75469">
        <ele>1326.2</ele>
        <time>2021-11-21T11:51:31Z</time>
      </trkpt>
      <trkpt lat="45.29822" lon="5.75489">
        <ele>1325.4</ele>
        <time>2021-11-21T11:51:33Z</time>
      </trkpt>
      <trkpt lat="45.29823" lon="5.75513">
        <ele>1324.4</ele>
        <time>2021-11-21T11:51:35Z</time>
      </trkpt>
      <trkpt lat="45.29822" lon="5.75537">
        <ele>1323.2</ele>
        <time>2021-11-21T11:51:37Z</time>
      </trkpt>
      <trkpt lat="45.29818" lon="5.75557">
        <ele>1321.4</ele>
        <time>2021-11-21T11:51:39Z</time>
      </trkpt>
      <trkpt lat="45.29806" lon="5.75573">
        <ele>1320.2</ele>
        <time>2021-11-21T11:51:41Z</time>
      </trkpt>
      <trkpt lat="45.29795" lon="5.75589">
        <ele>1319</ele>
        <time>2021-11-21T11:51:43Z</time>
      </trkpt>
      <trkpt lat="45.29784" lon="5.75601">
        <ele>1317.8</ele>
        <time>2021-11-21T11:51:45Z</time>
      </trkpt>
      <trkpt lat="45.29773" lon="5.7561">
        <ele>1316</ele>
        <time>2021-11-21T11:51:47Z</time>
      </trkpt>
      <trkpt lat="45.29762" lon="5.75625">
        <ele>1314.6</ele>
        <time>2021-11-21T11:51:49Z</time>
      </trkpt>
      <trkpt lat="45.29756" lon="5.75638">
        <ele>1313.6</ele>
        <time>2021-11-21T11:51:50Z</time>
      </trkpt>
      <trkpt lat="45.29755" lon="5.75654">
        <ele>1312.6</ele>
        <time>2021-11-21T11:51:51Z</time>
      </trkpt>
      <trkpt lat="45.29754" lon="5.75672">
        <ele>1312</ele>
        <time>2021-11-21T11:51:52Z</time>
      </trkpt>
      <trkpt lat="45.29752" lon="5.75686">
        <ele>1310.6</ele>
        <time>2021-11-21T11:51:53Z</time>
      </trkpt>
      <trkpt lat="45.29752" lon="5.75701">
        <ele>1309.6</ele>
        <time>2021-11-21T11:51:54Z</time>
      </trkpt>
      <trkpt lat="45.29752" lon="5.75717">
        <ele>1309.2</ele>
        <time>2021-11-21T11:51:55Z</time>
      </trkpt>
      <trkpt lat="45.29753" lon="5.75733">
        <ele>1308.2</ele>
        <time>2021-11-21T11:51:56Z</time>
      </trkpt>
      <trkpt lat="45.29754" lon="5.75748">
        <ele>1307.6</ele>
        <time>2021-11-21T11:51:57Z</time>
      </trkpt>
      <trkpt lat="45.29754" lon="5.75762">
        <ele>1307.2</ele>
        <time>2021-11-21T11:51:58Z</time>
      </trkpt>
      <trkpt lat="45.29753" lon="5.75775">
        <ele>1306</ele>
        <time>2021-11-21T11:51:59Z</time>
      </trkpt>
      <trkpt lat="45.29753" lon="5.75789">
        <ele>1305.2</ele>
        <time>2021-11-21T11:52:00Z</time>
      </trkpt>
      <trkpt lat="45.29755" lon="5.75802">
        <ele>1304.4</ele>
        <time>2021-11-21T11:52:01Z</time>
      </trkpt>
      <trkpt lat="45.29757" lon="5.75815">
        <ele>1303.6</ele>
        <time>2021-11-21T11:52:02Z</time>
      </trkpt>
      <trkpt lat="45.29758" lon="5.75838">
        <ele>1301</ele>
        <time>2021-11-21T11:52:04Z</time>
      </trkpt>
      <trkpt lat="45.29757" lon="5.75853">
        <ele>1300.2</ele>
        <time>2021-11-21T11:52:06Z</time>
      </trkpt>
      <trkpt lat="45.29745" lon="5.75859">
        <ele>1298.4</ele>
        <time>2021-11-21T11:52:09Z</time>
      </trkpt>
      <trkpt lat="45.29733" lon="5.75848">
        <ele>1296.4</ele>
        <time>2021-11-21T11:52:11Z</time>
      </trkpt>
      <trkpt lat="45.29722" lon="5.75834">
        <ele>1294.8</ele>
        <time>2021-11-21T11:52:13Z</time>
      </trkpt>
      <trkpt lat="45.2971" lon="5.75822">
        <ele>1294.4</ele>
        <time>2021-11-21T11:52:15Z</time>
      </trkpt>
      <trkpt lat="45.29697" lon="5.75823">
        <ele>1292.6</ele>
        <time>2021-11-21T11:52:17Z</time>
      </trkpt>
      <trkpt lat="45.29689" lon="5.75836">
        <ele>1291.2</ele>
        <time>2021-11-21T11:52:19Z</time>
      </trkpt>
      <trkpt lat="45.29684" lon="5.75848">
        <ele>1290.2</ele>
        <time>2021-11-21T11:52:20Z</time>
      </trkpt>
      <trkpt lat="45.29674" lon="5.7587">
        <ele>1289.6</ele>
        <time>2021-11-21T11:52:21Z</time>
      </trkpt>
      <trkpt lat="45.2967" lon="5.75885">
        <ele>1289</ele>
        <time>2021-11-21T11:52:22Z</time>
      </trkpt>
      <trkpt lat="45.29666" lon="5.75898">
        <ele>1288.4</ele>
        <time>2021-11-21T11:52:23Z</time>
      </trkpt>
      <trkpt lat="45.29663" lon="5.75909">
        <ele>1287.8</ele>
        <time>2021-11-21T11:52:24Z</time>
      </trkpt>
      <trkpt lat="45.29661" lon="5.7592">
        <ele>1287.4</ele>
        <time>2021-11-21T11:52:25Z</time>
      </trkpt>
      <trkpt lat="45.29659" lon="5.75931">
        <ele>1286.6</ele>
        <time>2021-11-21T11:52:26Z</time>
      </trkpt>
      <trkpt lat="45.29657" lon="5.75941">
        <ele>1285.8</ele>
        <time>2021-11-21T11:52:27Z</time>
      </trkpt>
      <trkpt lat="45.29655" lon="5.75962">
        <ele>1284.2</ele>
        <time>2021-11-21T11:52:29Z</time>
      </trkpt>
      <trkpt lat="45.29654" lon="5.75973">
        <ele>1283.2</ele>
        <time>2021-11-21T11:52:30Z</time>
      </trkpt>
      <trkpt lat="45.29653" lon="5.75983">
        <ele>1282.4</ele>
        <time>2021-11-21T11:52:31Z</time>
      </trkpt>
      <trkpt lat="45.2965" lon="5.76004">
        <ele>1281.6</ele>
        <time>2021-11-21T11:52:33Z</time>
      </trkpt>
      <trkpt lat="45.2965" lon="5.76014">
        <ele>1281.4</ele>
        <time>2021-11-21T11:52:34Z</time>
      </trkpt>
      <trkpt lat="45.29649" lon="5.76024">
        <ele>1281.6</ele>
        <time>2021-11-21T11:52:35Z</time>
      </trkpt>
      <trkpt lat="45.29647" lon="5.76044">
        <ele>1281.8</ele>
        <time>2021-11-21T11:52:37Z</time>
      </trkpt>
      <trkpt lat="45.29645" lon="5.76065">
        <ele>1282.2</ele>
        <time>2021-11-21T11:52:39Z</time>
      </trkpt>
      <trkpt lat="45.29641" lon="5.76084">
        <ele>1282.4</ele>
        <time>2021-11-21T11:52:41Z</time>
      </trkpt>
      <trkpt lat="45.29633" lon="5.76103">
        <ele>1282.4</ele>
        <time>2021-11-21T11:52:43Z</time>
      </trkpt>
      <trkpt lat="45.29624" lon="5.7612">
        <ele>1282.4</ele>
        <time>2021-11-21T11:52:45Z</time>
      </trkpt>
      <trkpt lat="45.29612" lon="5.76134">
        <ele>1282.6</ele>
        <time>2021-11-21T11:52:47Z</time>
      </trkpt>
      <trkpt lat="45.29597" lon="5.76145">
        <ele>1283</ele>
        <time>2021-11-21T11:52:49Z</time>
      </trkpt>
      <trkpt lat="45.2959" lon="5.76149">
        <ele>1282.8</ele>
        <time>2021-11-21T11:52:50Z</time>
      </trkpt>
      <trkpt lat="45.29574" lon="5.76154">
        <ele>1283</ele>
        <time>2021-11-21T11:52:52Z</time>
      </trkpt>
      <trkpt lat="45.29558" lon="5.76155">
        <ele>1282.8</ele>
        <time>2021-11-21T11:52:54Z</time>
      </trkpt>
      <trkpt lat="45.29542" lon="5.76156">
        <ele>1282.6</ele>
        <time>2021-11-21T11:52:56Z</time>
      </trkpt>
      <trkpt lat="45.29531" lon="5.7616">
        <ele>1282.8</ele>
        <time>2021-11-21T11:52:58Z</time>
      </trkpt>
      <trkpt lat="45.29525" lon="5.7617">
        <ele>1283.2</ele>
        <time>2021-11-21T11:53:00Z</time>
      </trkpt>
      <trkpt lat="45.29518" lon="5.76192">
        <ele>1283.2</ele>
        <time>2021-11-21T11:53:02Z</time>
      </trkpt>
      <trkpt lat="45.29514" lon="5.76205">
        <ele>1283.4</ele>
        <time>2021-11-21T11:53:03Z</time>
      </trkpt>
      <trkpt lat="45.29511" lon="5.76228">
        <ele>1283.8</ele>
        <time>2021-11-21T11:53:05Z</time>
      </trkpt>
      <trkpt lat="45.29509" lon="5.76249">
        <ele>1284</ele>
        <time>2021-11-21T11:53:07Z</time>
      </trkpt>
      <trkpt lat="45.29507" lon="5.7627">
        <ele>1284</ele>
        <time>2021-11-21T11:53:09Z</time>
      </trkpt>
      <trkpt lat="45.29502" lon="5.76289">
        <ele>1284</ele>
        <time>2021-11-21T11:53:11Z</time>
      </trkpt>
      <trkpt lat="45.29497" lon="5.76298">
        <ele>1284.4</ele>
        <time>2021-11-21T11:53:12Z</time>
      </trkpt>
      <trkpt lat="45.29492" lon="5.76306">
        <ele>1284.6</ele>
        <time>2021-11-21T11:53:13Z</time>
      </trkpt>
      <trkpt lat="45.2948" lon="5.76317">
        <ele>1285.6</ele>
        <time>2021-11-21T11:53:15Z</time>
      </trkpt>
      <trkpt lat="45.29466" lon="5.76321">
        <ele>1286.2</ele>
        <time>2021-11-21T11:53:17Z</time>
      </trkpt>
      <trkpt lat="45.29458" lon="5.76322">
        <ele>1286.4</ele>
        <time>2021-11-21T11:53:18Z</time>
      </trkpt>
      <trkpt lat="45.29451" lon="5.76324">
        <ele>1286.8</ele>
        <time>2021-11-21T11:53:19Z</time>
      </trkpt>
      <trkpt lat="45.29445" lon="5.76328">
        <ele>1287.4</ele>
        <time>2021-11-21T11:53:20Z</time>
      </trkpt>
      <trkpt lat="45.2944" lon="5.76335">
        <ele>1288.4</ele>
        <time>2021-11-21T11:53:21Z</time>
      </trkpt>
      <trkpt lat="45.29436" lon="5.76343">
        <ele>1289</ele>
        <time>2021-11-21T11:53:22Z</time>
      </trkpt>
      <trkpt lat="45.29434" lon="5.76352">
        <ele>1289</ele>
        <time>2021-11-21T11:53:23Z</time>
      </trkpt>
      <trkpt lat="45.29433" lon="5.76363">
        <ele>1289.2</ele>
        <time>2021-11-21T11:53:24Z</time>
      </trkpt>
      <trkpt lat="45.29435" lon="5.76374">
        <ele>1289.2</ele>
        <time>2021-11-21T11:53:25Z</time>
      </trkpt>
      <trkpt lat="45.29437" lon="5.76384">
        <ele>1289.2</ele>
        <time>2021-11-21T11:53:26Z</time>
      </trkpt>
      <trkpt lat="45.29441" lon="5.76393">
        <ele>1289.4</ele>
        <time>2021-11-21T11:53:27Z</time>
      </trkpt>
      <trkpt lat="45.29445" lon="5.76403">
        <ele>1290</ele>
        <time>2021-11-21T11:53:28Z</time>
      </trkpt>
      <trkpt lat="45.29449" lon="5.76412">
        <ele>1290.4</ele>
        <time>2021-11-21T11:53:29Z</time>
      </trkpt>
      <trkpt lat="45.29453" lon="5.76421">
        <ele>1290.6</ele>
        <time>2021-11-21T11:53:30Z</time>
      </trkpt>
      <trkpt lat="45.29457" lon="5.7643">
        <ele>1290.8</ele>
        <time>2021-11-21T11:53:31Z</time>
      </trkpt>
      <trkpt lat="45.2946" lon="5.7644">
        <ele>1291.2</ele>
        <time>2021-11-21T11:53:32Z</time>
      </trkpt>
      <trkpt lat="45.29463" lon="5.7645">
        <ele>1292.2</ele>
        <time>2021-11-21T11:53:33Z</time>
      </trkpt>
      <trkpt lat="45.29466" lon="5.76459">
        <ele>1292.6</ele>
        <time>2021-11-21T11:53:34Z</time>
      </trkpt>
      <trkpt lat="45.29468" lon="5.76468">
        <ele>1292.8</ele>
        <time>2021-11-21T11:53:35Z</time>
      </trkpt>
      <trkpt lat="45.29469" lon="5.76477">
        <ele>1292.8</ele>
        <time>2021-11-21T11:53:36Z</time>
      </trkpt>
      <trkpt lat="45.29468" lon="5.76485">
        <ele>1293</ele>
        <time>2021-11-21T11:53:37Z</time>
      </trkpt>
      <trkpt lat="45.29465" lon="5.76492">
        <ele>1293.4</ele>
        <time>2021-11-21T11:53:38Z</time>
      </trkpt>
      <trkpt lat="45.29461" lon="5.76497">
        <ele>1294</ele>
        <time>2021-11-21T11:53:39Z</time>
      </trkpt>
      <trkpt lat="45.29456" lon="5.76503">
        <ele>1294.2</ele>
        <time>2021-11-21T11:53:40Z</time>
      </trkpt>
      <trkpt lat="45.29452" lon="5.76509">
        <ele>1293.8</ele>
        <time>2021-11-21T11:53:41Z</time>
      </trkpt>
      <trkpt lat="45.29448" lon="5.76515">
        <ele>1294</ele>
        <time>2021-11-21T11:53:42Z</time>
      </trkpt>
      <trkpt lat="45.29444" lon="5.76522">
        <ele>1294.4</ele>
        <time>2021-11-21T11:53:43Z</time>
      </trkpt>
      <trkpt lat="45.2944" lon="5.7653">
        <ele>1294.8</ele>
        <time>2021-11-21T11:53:44Z</time>
      </trkpt>
      <trkpt lat="45.29436" lon="5.76537">
        <ele>1295.2</ele>
        <time>2021-11-21T11:53:45Z</time>
      </trkpt>
      <trkpt lat="45.29433" lon="5.76545">
        <ele>1295.6</ele>
        <time>2021-11-21T11:53:46Z</time>
      </trkpt>
      <trkpt lat="45.29429" lon="5.76553">
        <ele>1295.8</ele>
        <time>2021-11-21T11:53:47Z</time>
      </trkpt>
      <trkpt lat="45.29425" lon="5.7656">
        <ele>1296.6</ele>
        <time>2021-11-21T11:53:48Z</time>
      </trkpt>
      <trkpt lat="45.29421" lon="5.76568">
        <ele>1297.2</ele>
        <time>2021-11-21T11:53:49Z</time>
      </trkpt>
      <trkpt lat="45.29417" lon="5.76575">
        <ele>1297.4</ele>
        <time>2021-11-21T11:53:50Z</time>
      </trkpt>
      <trkpt lat="45.29412" lon="5.76581">
        <ele>1298</ele>
        <time>2021-11-21T11:53:51Z</time>
      </trkpt>
      <trkpt lat="45.29406" lon="5.76587">
        <ele>1298.2</ele>
        <time>2021-11-21T11:53:52Z</time>
      </trkpt>
      <trkpt lat="45.294" lon="5.76593">
        <ele>1298.4</ele>
        <time>2021-11-21T11:53:53Z</time>
      </trkpt>
      <trkpt lat="45.29394" lon="5.76599">
        <ele>1298.4</ele>
        <time>2021-11-21T11:53:54Z</time>
      </trkpt>
      <trkpt lat="45.29387" lon="5.76604">
        <ele>1298.2</ele>
        <time>2021-11-21T11:53:55Z</time>
      </trkpt>
      <trkpt lat="45.2938" lon="5.76608">
        <ele>1298.6</ele>
        <time>2021-11-21T11:53:56Z</time>
      </trkpt>
      <trkpt lat="45.29372" lon="5.76612">
        <ele>1299</ele>
        <time>2021-11-21T11:53:57Z</time>
      </trkpt>
      <trkpt lat="45.29364" lon="5.76616">
        <ele>1299.2</ele>
        <time>2021-11-21T11:53:58Z</time>
      </trkpt>
      <trkpt lat="45.29357" lon="5.7662">
        <ele>1299.6</ele>
        <time>2021-11-21T11:53:59Z</time>
      </trkpt>
      <trkpt lat="45.29349" lon="5.76624">
        <ele>1299.8</ele>
        <time>2021-11-21T11:54:00Z</time>
      </trkpt>
      <trkpt lat="45.2934" lon="5.76627">
        <ele>1300.4</ele>
        <time>2021-11-21T11:54:01Z</time>
      </trkpt>
      <trkpt lat="45.29331" lon="5.7663">
        <ele>1300</ele>
        <time>2021-11-21T11:54:02Z</time>
      </trkpt>
      <trkpt lat="45.29322" lon="5.76632">
        <ele>1299.8</ele>
        <time>2021-11-21T11:54:03Z</time>
      </trkpt>
      <trkpt lat="45.29313" lon="5.76635">
        <ele>1299.6</ele>
        <time>2021-11-21T11:54:04Z</time>
      </trkpt>
      <trkpt lat="45.29304" lon="5.76637">
        <ele>1299.6</ele>
        <time>2021-11-21T11:54:05Z</time>
      </trkpt>
      <trkpt lat="45.29295" lon="5.76638">
        <ele>1299</ele>
        <time>2021-11-21T11:54:06Z</time>
      </trkpt>
      <trkpt lat="45.29286" lon="5.7664">
        <ele>1298.8</ele>
        <time>2021-11-21T11:54:07Z</time>
      </trkpt>
      <trkpt lat="45.29276" lon="5.7664">
        <ele>1298.6</ele>
        <time>2021-11-21T11:54:08Z</time>
      </trkpt>
      <trkpt lat="45.29259" lon="5.7664">
        <ele>1298.8</ele>
        <time>2021-11-21T11:54:10Z</time>
      </trkpt>
      <trkpt lat="45.29243" lon="5.76641">
        <ele>1299</ele>
        <time>2021-11-21T11:54:12Z</time>
      </trkpt>
      <trkpt lat="45.29226" lon="5.76639">
        <ele>1298.8</ele>
        <time>2021-11-21T11:54:14Z</time>
      </trkpt>
      <trkpt lat="45.2921" lon="5.76637">
        <ele>1298.4</ele>
        <time>2021-11-21T11:54:16Z</time>
      </trkpt>
      <trkpt lat="45.29194" lon="5.76636">
        <ele>1298</ele>
        <time>2021-11-21T11:54:18Z</time>
      </trkpt>
      <trkpt lat="45.29177" lon="5.76637">
        <ele>1298</ele>
        <time>2021-11-21T11:54:20Z</time>
      </trkpt>
      <trkpt lat="45.29168" lon="5.76639">
        <ele>1297.6</ele>
        <time>2021-11-21T11:54:21Z</time>
      </trkpt>
      <trkpt lat="45.29159" lon="5.76641">
        <ele>1297.6</ele>
        <time>2021-11-21T11:54:22Z</time>
      </trkpt>
      <trkpt lat="45.2915" lon="5.76643">
        <ele>1297.8</ele>
        <time>2021-11-21T11:54:23Z</time>
      </trkpt>
      <trkpt lat="45.29141" lon="5.76645">
        <ele>1297.8</ele>
        <time>2021-11-21T11:54:24Z</time>
      </trkpt>
      <trkpt lat="45.29132" lon="5.76647">
        <ele>1297.4</ele>
        <time>2021-11-21T11:54:25Z</time>
      </trkpt>
      <trkpt lat="45.29123" lon="5.76648">
        <ele>1297.8</ele>
        <time>2021-11-21T11:54:26Z</time>
      </trkpt>
      <trkpt lat="45.29114" lon="5.7665">
        <ele>1297.8</ele>
        <time>2021-11-21T11:54:27Z</time>
      </trkpt>
      <trkpt lat="45.29105" lon="5.76653">
        <ele>1297.8</ele>
        <time>2021-11-21T11:54:28Z</time>
      </trkpt>
      <trkpt lat="45.29096" lon="5.76655">
        <ele>1298.4</ele>
        <time>2021-11-21T11:54:29Z</time>
      </trkpt>
      <trkpt lat="45.29087" lon="5.76657">
        <ele>1298.4</ele>
        <time>2021-11-21T11:54:30Z</time>
      </trkpt>
      <trkpt lat="45.29078" lon="5.7666">
        <ele>1298.6</ele>
        <time>2021-11-21T11:54:31Z</time>
      </trkpt>
      <trkpt lat="45.29068" lon="5.76663">
        <ele>1298.8</ele>
        <time>2021-11-21T11:54:32Z</time>
      </trkpt>
      <trkpt lat="45.29059" lon="5.76666">
        <ele>1298.8</ele>
        <time>2021-11-21T11:54:33Z</time>
      </trkpt>
      <trkpt lat="45.2905" lon="5.7667">
        <ele>1298.6</ele>
        <time>2021-11-21T11:54:34Z</time>
      </trkpt>
      <trkpt lat="45.29041" lon="5.76673">
        <ele>1299</ele>
        <time>2021-11-21T11:54:35Z</time>
      </trkpt>
      <trkpt lat="45.29032" lon="5.76677">
        <ele>1299.2</ele>
        <time>2021-11-21T11:54:36Z</time>
      </trkpt>
      <trkpt lat="45.29024" lon="5.76681">
        <ele>1299.2</ele>
        <time>2021-11-21T11:54:37Z</time>
      </trkpt>
      <trkpt lat="45.29016" lon="5.76685">
        <ele>1298.8</ele>
        <time>2021-11-21T11:54:38Z</time>
      </trkpt>
      <trkpt lat="45.29008" lon="5.76689">
        <ele>1298.8</ele>
        <time>2021-11-21T11:54:39Z</time>
      </trkpt>
      <trkpt lat="45.29" lon="5.76693">
        <ele>1298.4</ele>
        <time>2021-11-21T11:54:40Z</time>
      </trkpt>
      <trkpt lat="45.28992" lon="5.76695">
        <ele>1297.6</ele>
        <time>2021-11-21T11:54:41Z</time>
      </trkpt>
      <trkpt lat="45.28984" lon="5.76696">
        <ele>1297.4</ele>
        <time>2021-11-21T11:54:42Z</time>
      </trkpt>
      <trkpt lat="45.28976" lon="5.76695">
        <ele>1297</ele>
        <time>2021-11-21T11:54:43Z</time>
      </trkpt>
      <trkpt lat="45.28968" lon="5.76692">
        <ele>1296.6</ele>
        <time>2021-11-21T11:54:44Z</time>
      </trkpt>
      <trkpt lat="45.2896" lon="5.76689">
        <ele>1296.2</ele>
        <time>2021-11-21T11:54:45Z</time>
      </trkpt>
      <trkpt lat="45.28953" lon="5.76685">
        <ele>1295.6</ele>
        <time>2021-11-21T11:54:46Z</time>
      </trkpt>
      <trkpt lat="45.28945" lon="5.76681">
        <ele>1295.6</ele>
        <time>2021-11-21T11:54:47Z</time>
      </trkpt>
      <trkpt lat="45.28937" lon="5.76677">
        <ele>1295.2</ele>
        <time>2021-11-21T11:54:48Z</time>
      </trkpt>
      <trkpt lat="45.28929" lon="5.76673">
        <ele>1294.6</ele>
        <time>2021-11-21T11:54:49Z</time>
      </trkpt>
      <trkpt lat="45.28921" lon="5.7667">
        <ele>1294.8</ele>
        <time>2021-11-21T11:54:50Z</time>
      </trkpt>
      <trkpt lat="45.28912" lon="5.76666">
        <ele>1294.4</ele>
        <time>2021-11-21T11:54:51Z</time>
      </trkpt>
      <trkpt lat="45.28903" lon="5.76662">
        <ele>1293.8</ele>
        <time>2021-11-21T11:54:52Z</time>
      </trkpt>
      <trkpt lat="45.28894" lon="5.76658">
        <ele>1293.8</ele>
        <time>2021-11-21T11:54:53Z</time>
      </trkpt>
      <trkpt lat="45.28885" lon="5.76654">
        <ele>1294.2</ele>
        <time>2021-11-21T11:54:54Z</time>
      </trkpt>
      <trkpt lat="45.28876" lon="5.76651">
        <ele>1294.4</ele>
        <time>2021-11-21T11:54:55Z</time>
      </trkpt>
      <trkpt lat="45.28866" lon="5.76647">
        <ele>1294.6</ele>
        <time>2021-11-21T11:54:56Z</time>
      </trkpt>
      <trkpt lat="45.28857" lon="5.76645">
        <ele>1294.8</ele>
        <time>2021-11-21T11:54:57Z</time>
      </trkpt>
      <trkpt lat="45.28847" lon="5.76643">
        <ele>1295</ele>
        <time>2021-11-21T11:54:58Z</time>
      </trkpt>
      <trkpt lat="45.28838" lon="5.76642">
        <ele>1295</ele>
        <time>2021-11-21T11:54:59Z</time>
      </trkpt>
      <trkpt lat="45.28827" lon="5.7664">
        <ele>1294.6</ele>
        <time>2021-11-21T11:55:00Z</time>
      </trkpt>
      <trkpt lat="45.28817" lon="5.76638">
        <ele>1294</ele>
        <time>2021-11-21T11:55:01Z</time>
      </trkpt>
      <trkpt lat="45.28807" lon="5.76635">
        <ele>1293</ele>
        <time>2021-11-21T11:55:02Z</time>
      </trkpt>
      <trkpt lat="45.28797" lon="5.76632">
        <ele>1292.6</ele>
        <time>2021-11-21T11:55:03Z</time>
      </trkpt>
      <trkpt lat="45.28787" lon="5.76628">
        <ele>1292.2</ele>
        <time>2021-11-21T11:55:04Z</time>
      </trkpt>
      <trkpt lat="45.28777" lon="5.76623">
        <ele>1291.6</ele>
        <time>2021-11-21T11:55:05Z</time>
      </trkpt>
      <trkpt lat="45.28769" lon="5.76616">
        <ele>1290.8</ele>
        <time>2021-11-21T11:55:06Z</time>
      </trkpt>
      <trkpt lat="45.28762" lon="5.76604">
        <ele>1290.2</ele>
        <time>2021-11-21T11:55:07Z</time>
      </trkpt>
      <trkpt lat="45.28758" lon="5.76591">
        <ele>1289.6</ele>
        <time>2021-11-21T11:55:08Z</time>
      </trkpt>
      <trkpt lat="45.28756" lon="5.76576">
        <ele>1288.6</ele>
        <time>2021-11-21T11:55:09Z</time>
      </trkpt>
      <trkpt lat="45.28755" lon="5.7656">
        <ele>1287.8</ele>
        <time>2021-11-21T11:55:10Z</time>
      </trkpt>
      <trkpt lat="45.28754" lon="5.76545">
        <ele>1287.2</ele>
        <time>2021-11-21T11:55:11Z</time>
      </trkpt>
      <trkpt lat="45.28753" lon="5.76529">
        <ele>1286.6</ele>
        <time>2021-11-21T11:55:12Z</time>
      </trkpt>
      <trkpt lat="45.2875" lon="5.76514">
        <ele>1286.2</ele>
        <time>2021-11-21T11:55:13Z</time>
      </trkpt>
      <trkpt lat="45.28745" lon="5.76501">
        <ele>1285.6</ele>
        <time>2021-11-21T11:55:14Z</time>
      </trkpt>
      <trkpt lat="45.28738" lon="5.76489">
        <ele>1285.2</ele>
        <time>2021-11-21T11:55:15Z</time>
      </trkpt>
      <trkpt lat="45.2873" lon="5.76479">
        <ele>1284.8</ele>
        <time>2021-11-21T11:55:16Z</time>
      </trkpt>
      <trkpt lat="45.28721" lon="5.76469">
        <ele>1284</ele>
        <time>2021-11-21T11:55:17Z</time>
      </trkpt>
      <trkpt lat="45.28712" lon="5.76462">
        <ele>1283.6</ele>
        <time>2021-11-21T11:55:18Z</time>
      </trkpt>
      <trkpt lat="45.28701" lon="5.76455">
        <ele>1283.2</ele>
        <time>2021-11-21T11:55:19Z</time>
      </trkpt>
      <trkpt lat="45.2869" lon="5.7645">
        <ele>1282.6</ele>
        <time>2021-11-21T11:55:20Z</time>
      </trkpt>
      <trkpt lat="45.28678" lon="5.76445">
        <ele>1281.8</ele>
        <time>2021-11-21T11:55:21Z</time>
      </trkpt>
      <trkpt lat="45.28667" lon="5.76441">
        <ele>1281.2</ele>
        <time>2021-11-21T11:55:22Z</time>
      </trkpt>
      <trkpt lat="45.28655" lon="5.76436">
        <ele>1280.2</ele>
        <time>2021-11-21T11:55:23Z</time>
      </trkpt>
      <trkpt lat="45.28643" lon="5.76432">
        <ele>1279.2</ele>
        <time>2021-11-21T11:55:24Z</time>
      </trkpt>
      <trkpt lat="45.28632" lon="5.76428">
        <ele>1278</ele>
        <time>2021-11-21T11:55:25Z</time>
      </trkpt>
      <trkpt lat="45.2862" lon="5.76423">
        <ele>1277.4</ele>
        <time>2021-11-21T11:55:26Z</time>
      </trkpt>
      <trkpt lat="45.28608" lon="5.7642">
        <ele>1276</ele>
        <time>2021-11-21T11:55:27Z</time>
      </trkpt>
      <trkpt lat="45.28597" lon="5.76416">
        <ele>1275.4</ele>
        <time>2021-11-21T11:55:28Z</time>
      </trkpt>
      <trkpt lat="45.28585" lon="5.76413">
        <ele>1274.6</ele>
        <time>2021-11-21T11:55:29Z</time>
      </trkpt>
      <trkpt lat="45.28572" lon="5.76409">
        <ele>1274.2</ele>
        <time>2021-11-21T11:55:30Z</time>
      </trkpt>
      <trkpt lat="45.2856" lon="5.76404">
        <ele>1273.8</ele>
        <time>2021-11-21T11:55:31Z</time>
      </trkpt>
      <trkpt lat="45.28548" lon="5.76399">
        <ele>1273.2</ele>
        <time>2021-11-21T11:55:32Z</time>
      </trkpt>
      <trkpt lat="45.28537" lon="5.76395">
        <ele>1272</ele>
        <time>2021-11-21T11:55:33Z</time>
      </trkpt>
      <trkpt lat="45.28524" lon="5.7639">
        <ele>1271</ele>
        <time>2021-11-21T11:55:34Z</time>
      </trkpt>
      <trkpt lat="45.28512" lon="5.76384">
        <ele>1269.8</ele>
        <time>2021-11-21T11:55:35Z</time>
      </trkpt>
      <trkpt lat="45.285" lon="5.76379">
        <ele>1269</ele>
        <time>2021-11-21T11:55:36Z</time>
      </trkpt>
      <trkpt lat="45.28488" lon="5.76374">
        <ele>1268.2</ele>
        <time>2021-11-21T11:55:37Z</time>
      </trkpt>
      <trkpt lat="45.28477" lon="5.7637">
        <ele>1267.4</ele>
        <time>2021-11-21T11:55:38Z</time>
      </trkpt>
      <trkpt lat="45.28466" lon="5.76366">
        <ele>1266.6</ele>
        <time>2021-11-21T11:55:39Z</time>
      </trkpt>
      <trkpt lat="45.28455" lon="5.76362">
        <ele>1265.6</ele>
        <time>2021-11-21T11:55:40Z</time>
      </trkpt>
      <trkpt lat="45.28444" lon="5.76359">
        <ele>1264.6</ele>
        <time>2021-11-21T11:55:41Z</time>
      </trkpt>
      <trkpt lat="45.28432" lon="5.76359">
        <ele>1262.4</ele>
        <time>2021-11-21T11:55:42Z</time>
      </trkpt>
      <trkpt lat="45.28421" lon="5.76359">
        <ele>1260.4</ele>
        <time>2021-11-21T11:55:43Z</time>
      </trkpt>
      <trkpt lat="45.28409" lon="5.76364">
        <ele>1260.2</ele>
        <time>2021-11-21T11:55:44Z</time>
      </trkpt>
      <trkpt lat="45.28396" lon="5.76367">
        <ele>1259.6</ele>
        <time>2021-11-21T11:55:45Z</time>
      </trkpt>
      <trkpt lat="45.28384" lon="5.76371">
        <ele>1259.2</ele>
        <time>2021-11-21T11:55:46Z</time>
      </trkpt>
      <trkpt lat="45.28373" lon="5.76376">
        <ele>1258.4</ele>
        <time>2021-11-21T11:55:47Z</time>
      </trkpt>
      <trkpt lat="45.28361" lon="5.76381">
        <ele>1257.6</ele>
        <time>2021-11-21T11:55:48Z</time>
      </trkpt>
      <trkpt lat="45.2835" lon="5.76387">
        <ele>1256.2</ele>
        <time>2021-11-21T11:55:49Z</time>
      </trkpt>
      <trkpt lat="45.28338" lon="5.76393">
        <ele>1255.4</ele>
        <time>2021-11-21T11:55:50Z</time>
      </trkpt>
      <trkpt lat="45.28326" lon="5.76396">
        <ele>1254.8</ele>
        <time>2021-11-21T11:55:51Z</time>
      </trkpt>
      <trkpt lat="45.28312" lon="5.76398">
        <ele>1254.2</ele>
        <time>2021-11-21T11:55:52Z</time>
      </trkpt>
      <trkpt lat="45.28299" lon="5.76395">
        <ele>1253.2</ele>
        <time>2021-11-21T11:55:53Z</time>
      </trkpt>
      <trkpt lat="45.28286" lon="5.76389">
        <ele>1252.4</ele>
        <time>2021-11-21T11:55:54Z</time>
      </trkpt>
      <trkpt lat="45.28275" lon="5.76382">
        <ele>1251.4</ele>
        <time>2021-11-21T11:55:55Z</time>
      </trkpt>
      <trkpt lat="45.28262" lon="5.76376">
        <ele>1250.6</ele>
        <time>2021-11-21T11:55:56Z</time>
      </trkpt>
      <trkpt lat="45.2825" lon="5.76369">
        <ele>1248.8</ele>
        <time>2021-11-21T11:55:57Z</time>
      </trkpt>
      <trkpt lat="45.28239" lon="5.76361">
        <ele>1247.4</ele>
        <time>2021-11-21T11:55:58Z</time>
      </trkpt>
      <trkpt lat="45.28229" lon="5.76354">
        <ele>1245.4</ele>
        <time>2021-11-21T11:55:59Z</time>
      </trkpt>
      <trkpt lat="45.28215" lon="5.76349">
        <ele>1244</ele>
        <time>2021-11-21T11:56:01Z</time>
      </trkpt>
      <trkpt lat="45.28209" lon="5.76351">
        <ele>1243.4</ele>
        <time>2021-11-21T11:56:02Z</time>
      </trkpt>
      <trkpt lat="45.28202" lon="5.7637">
        <ele>1241.2</ele>
        <time>2021-11-21T11:56:04Z</time>
      </trkpt>
      <trkpt lat="45.28204" lon="5.76383">
        <ele>1240</ele>
        <time>2021-11-21T11:56:05Z</time>
      </trkpt>
      <trkpt lat="45.28207" lon="5.76395">
        <ele>1239.2</ele>
        <time>2021-11-21T11:56:06Z</time>
      </trkpt>
      <trkpt lat="45.28213" lon="5.76406">
        <ele>1238.4</ele>
        <time>2021-11-21T11:56:07Z</time>
      </trkpt>
      <trkpt lat="45.28221" lon="5.76415">
        <ele>1237.4</ele>
        <time>2021-11-21T11:56:08Z</time>
      </trkpt>
      <trkpt lat="45.28229" lon="5.76423">
        <ele>1236.4</ele>
        <time>2021-11-21T11:56:09Z</time>
      </trkpt>
      <trkpt lat="45.28235" lon="5.76434">
        <ele>1235.4</ele>
        <time>2021-11-21T11:56:10Z</time>
      </trkpt>
      <trkpt lat="45.2824" lon="5.76446">
        <ele>1234.4</ele>
        <time>2021-11-21T11:56:11Z</time>
      </trkpt>
      <trkpt lat="45.28244" lon="5.7646">
        <ele>1233.6</ele>
        <time>2021-11-21T11:56:12Z</time>
      </trkpt>
      <trkpt lat="45.28246" lon="5.76476">
        <ele>1233.2</ele>
        <time>2021-11-21T11:56:13Z</time>
      </trkpt>
      <trkpt lat="45.28245" lon="5.7649">
        <ele>1232.4</ele>
        <time>2021-11-21T11:56:14Z</time>
      </trkpt>
      <trkpt lat="45.28244" lon="5.76505">
        <ele>1232</ele>
        <time>2021-11-21T11:56:15Z</time>
      </trkpt>
      <trkpt lat="45.28241" lon="5.76521">
        <ele>1231.8</ele>
        <time>2021-11-21T11:56:16Z</time>
      </trkpt>
      <trkpt lat="45.28239" lon="5.76536">
        <ele>1231.2</ele>
        <time>2021-11-21T11:56:17Z</time>
      </trkpt>
      <trkpt lat="45.28237" lon="5.76553">
        <ele>1230.6</ele>
        <time>2021-11-21T11:56:18Z</time>
      </trkpt>
      <trkpt lat="45.28236" lon="5.76569">
        <ele>1230</ele>
        <time>2021-11-21T11:56:19Z</time>
      </trkpt>
      <trkpt lat="45.28235" lon="5.76586">
        <ele>1229.6</ele>
        <time>2021-11-21T11:56:20Z</time>
      </trkpt>
      <trkpt lat="45.28235" lon="5.76602">
        <ele>1229</ele>
        <time>2021-11-21T11:56:21Z</time>
      </trkpt>
      <trkpt lat="45.28236" lon="5.76618">
        <ele>1228.6</ele>
        <time>2021-11-21T11:56:22Z</time>
      </trkpt>
      <trkpt lat="45.28237" lon="5.76633">
        <ele>1227.6</ele>
        <time>2021-11-21T11:56:23Z</time>
      </trkpt>
      <trkpt lat="45.28236" lon="5.76647">
        <ele>1227</ele>
        <time>2021-11-21T11:56:24Z</time>
      </trkpt>
      <trkpt lat="45.28234" lon="5.7666">
        <ele>1226.4</ele>
        <time>2021-11-21T11:56:25Z</time>
      </trkpt>
      <trkpt lat="45.28228" lon="5.76671">
        <ele>1226</ele>
        <time>2021-11-21T11:56:26Z</time>
      </trkpt>
      <trkpt lat="45.28219" lon="5.76678">
        <ele>1225.6</ele>
        <time>2021-11-21T11:56:27Z</time>
      </trkpt>
      <trkpt lat="45.28205" lon="5.76682">
        <ele>1224</ele>
        <time>2021-11-21T11:56:29Z</time>
      </trkpt>
      <trkpt lat="45.28194" lon="5.76676">
        <ele>1222.8</ele>
        <time>2021-11-21T11:56:30Z</time>
      </trkpt>
      <trkpt lat="45.28183" lon="5.7667">
        <ele>1221.8</ele>
        <time>2021-11-21T11:56:31Z</time>
      </trkpt>
      <trkpt lat="45.28171" lon="5.76664">
        <ele>1220.8</ele>
        <time>2021-11-21T11:56:32Z</time>
      </trkpt>
      <trkpt lat="45.28159" lon="5.76655">
        <ele>1219.8</ele>
        <time>2021-11-21T11:56:33Z</time>
      </trkpt>
      <trkpt lat="45.28147" lon="5.76647">
        <ele>1219</ele>
        <time>2021-11-21T11:56:34Z</time>
      </trkpt>
      <trkpt lat="45.28135" lon="5.76639">
        <ele>1217.8</ele>
        <time>2021-11-21T11:56:35Z</time>
      </trkpt>
      <trkpt lat="45.28125" lon="5.76632">
        <ele>1217</ele>
        <time>2021-11-21T11:56:36Z</time>
      </trkpt>
      <trkpt lat="45.28114" lon="5.76626">
        <ele>1216.4</ele>
        <time>2021-11-21T11:56:37Z</time>
      </trkpt>
      <trkpt lat="45.28103" lon="5.7662">
        <ele>1215.8</ele>
        <time>2021-11-21T11:56:38Z</time>
      </trkpt>
      <trkpt lat="45.28092" lon="5.76617">
        <ele>1215</ele>
        <time>2021-11-21T11:56:39Z</time>
      </trkpt>
      <trkpt lat="45.28081" lon="5.76615">
        <ele>1214.6</ele>
        <time>2021-11-21T11:56:40Z</time>
      </trkpt>
      <trkpt lat="45.28069" lon="5.76614">
        <ele>1214</ele>
        <time>2021-11-21T11:56:41Z</time>
      </trkpt>
      <trkpt lat="45.28058" lon="5.76613">
        <ele>1213.6</ele>
        <time>2021-11-21T11:56:42Z</time>
      </trkpt>
      <trkpt lat="45.28047" lon="5.76614">
        <ele>1212.8</ele>
        <time>2021-11-21T11:56:43Z</time>
      </trkpt>
      <trkpt lat="45.28036" lon="5.76614">
        <ele>1211.6</ele>
        <time>2021-11-21T11:56:44Z</time>
      </trkpt>
      <trkpt lat="45.28024" lon="5.76614">
        <ele>1209.8</ele>
        <time>2021-11-21T11:56:45Z</time>
      </trkpt>
      <trkpt lat="45.28012" lon="5.76614">
        <ele>1208.4</ele>
        <time>2021-11-21T11:56:46Z</time>
      </trkpt>
      <trkpt lat="45.27999" lon="5.76614">
        <ele>1207.4</ele>
        <time>2021-11-21T11:56:47Z</time>
      </trkpt>
      <trkpt lat="45.27987" lon="5.76613">
        <ele>1206.2</ele>
        <time>2021-11-21T11:56:48Z</time>
      </trkpt>
      <trkpt lat="45.27976" lon="5.76612">
        <ele>1205.6</ele>
        <time>2021-11-21T11:56:49Z</time>
      </trkpt>
      <trkpt lat="45.27965" lon="5.76609">
        <ele>1204.8</ele>
        <time>2021-11-21T11:56:50Z</time>
      </trkpt>
      <trkpt lat="45.27954" lon="5.76605">
        <ele>1203.8</ele>
        <time>2021-11-21T11:56:51Z</time>
      </trkpt>
      <trkpt lat="45.27943" lon="5.76601">
        <ele>1203</ele>
        <time>2021-11-21T11:56:52Z</time>
      </trkpt>
      <trkpt lat="45.27931" lon="5.76597">
        <ele>1201.8</ele>
        <time>2021-11-21T11:56:53Z</time>
      </trkpt>
      <trkpt lat="45.2792" lon="5.76594">
        <ele>1201</ele>
        <time>2021-11-21T11:56:54Z</time>
      </trkpt>
      <trkpt lat="45.27909" lon="5.76592">
        <ele>1200</ele>
        <time>2021-11-21T11:56:55Z</time>
      </trkpt>
      <trkpt lat="45.27898" lon="5.76591">
        <ele>1200.2</ele>
        <time>2021-11-21T11:56:56Z</time>
      </trkpt>
      <trkpt lat="45.27887" lon="5.7659">
        <ele>1199.6</ele>
        <time>2021-11-21T11:56:57Z</time>
      </trkpt>
      <trkpt lat="45.27875" lon="5.76589">
        <ele>1199</ele>
        <time>2021-11-21T11:56:58Z</time>
      </trkpt>
      <trkpt lat="45.27863" lon="5.76591">
        <ele>1198.4</ele>
        <time>2021-11-21T11:56:59Z</time>
      </trkpt>
      <trkpt lat="45.27848" lon="5.76598">
        <ele>1197.8</ele>
        <time>2021-11-21T11:57:00Z</time>
      </trkpt>
      <trkpt lat="45.27834" lon="5.76604">
        <ele>1197.2</ele>
        <time>2021-11-21T11:57:01Z</time>
      </trkpt>
      <trkpt lat="45.27821" lon="5.76611">
        <ele>1196.4</ele>
        <time>2021-11-21T11:57:02Z</time>
      </trkpt>
      <trkpt lat="45.2781" lon="5.76616">
        <ele>1195.2</ele>
        <time>2021-11-21T11:57:03Z</time>
      </trkpt>
      <trkpt lat="45.27798" lon="5.76622">
        <ele>1194.4</ele>
        <time>2021-11-21T11:57:04Z</time>
      </trkpt>
      <trkpt lat="45.27787" lon="5.76626">
        <ele>1193.2</ele>
        <time>2021-11-21T11:57:05Z</time>
      </trkpt>
      <trkpt lat="45.27776" lon="5.7663">
        <ele>1192.4</ele>
        <time>2021-11-21T11:57:06Z</time>
      </trkpt>
      <trkpt lat="45.27764" lon="5.76634">
        <ele>1191.2</ele>
        <time>2021-11-21T11:57:07Z</time>
      </trkpt>
      <trkpt lat="45.27753" lon="5.76636">
        <ele>1190</ele>
        <time>2021-11-21T11:57:08Z</time>
      </trkpt>
      <trkpt lat="45.27742" lon="5.7664">
        <ele>1189.2</ele>
        <time>2021-11-21T11:57:09Z</time>
      </trkpt>
      <trkpt lat="45.27729" lon="5.76642">
        <ele>1188.4</ele>
        <time>2021-11-21T11:57:10Z</time>
      </trkpt>
      <trkpt lat="45.27715" lon="5.76641">
        <ele>1187.4</ele>
        <time>2021-11-21T11:57:11Z</time>
      </trkpt>
      <trkpt lat="45.27702" lon="5.76639">
        <ele>1186.2</ele>
        <time>2021-11-21T11:57:12Z</time>
      </trkpt>
      <trkpt lat="45.2769" lon="5.76634">
        <ele>1185.2</ele>
        <time>2021-11-21T11:57:13Z</time>
      </trkpt>
      <trkpt lat="45.27678" lon="5.7663">
        <ele>1184.4</ele>
        <time>2021-11-21T11:57:14Z</time>
      </trkpt>
      <trkpt lat="45.27668" lon="5.76624">
        <ele>1183.8</ele>
        <time>2021-11-21T11:57:15Z</time>
      </trkpt>
      <trkpt lat="45.27657" lon="5.76617">
        <ele>1183.2</ele>
        <time>2021-11-21T11:57:16Z</time>
      </trkpt>
      <trkpt lat="45.27645" lon="5.76608">
        <ele>1182</ele>
        <time>2021-11-21T11:57:17Z</time>
      </trkpt>
      <trkpt lat="45.27633" lon="5.766">
        <ele>1181</ele>
        <time>2021-11-21T11:57:18Z</time>
      </trkpt>
      <trkpt lat="45.27621" lon="5.76592">
        <ele>1180</ele>
        <time>2021-11-21T11:57:19Z</time>
      </trkpt>
      <trkpt lat="45.2761" lon="5.76586">
        <ele>1179</ele>
        <time>2021-11-21T11:57:20Z</time>
      </trkpt>
      <trkpt lat="45.27599" lon="5.76583">
        <ele>1178</ele>
        <time>2021-11-21T11:57:21Z</time>
      </trkpt>
      <trkpt lat="45.27587" lon="5.76582">
        <ele>1177.2</ele>
        <time>2021-11-21T11:57:22Z</time>
      </trkpt>
      <trkpt lat="45.27575" lon="5.76581">
        <ele>1176.4</ele>
        <time>2021-11-21T11:57:23Z</time>
      </trkpt>
      <trkpt lat="45.27563" lon="5.76582">
        <ele>1175.8</ele>
        <time>2021-11-21T11:57:24Z</time>
      </trkpt>
      <trkpt lat="45.27551" lon="5.76583">
        <ele>1175</ele>
        <time>2021-11-21T11:57:25Z</time>
      </trkpt>
      <trkpt lat="45.27539" lon="5.76583">
        <ele>1174</ele>
        <time>2021-11-21T11:57:26Z</time>
      </trkpt>
      <trkpt lat="45.27527" lon="5.76583">
        <ele>1173</ele>
        <time>2021-11-21T11:57:27Z</time>
      </trkpt>
      <trkpt lat="45.27515" lon="5.76584">
        <ele>1172.2</ele>
        <time>2021-11-21T11:57:28Z</time>
      </trkpt>
      <trkpt lat="45.27504" lon="5.76589">
        <ele>1170.8</ele>
        <time>2021-11-21T11:57:29Z</time>
      </trkpt>
      <trkpt lat="45.27494" lon="5.76594">
        <ele>1169.6</ele>
        <time>2021-11-21T11:57:30Z</time>
      </trkpt>
      <trkpt lat="45.27485" lon="5.76601">
        <ele>1168.8</ele>
        <time>2021-11-21T11:57:31Z</time>
      </trkpt>
      <trkpt lat="45.2748" lon="5.76612">
        <ele>1167.4</ele>
        <time>2021-11-21T11:57:32Z</time>
      </trkpt>
      <trkpt lat="45.27476" lon="5.76625">
        <ele>1166.8</ele>
        <time>2021-11-21T11:57:33Z</time>
      </trkpt>
      <trkpt lat="45.27473" lon="5.76639">
        <ele>1165.8</ele>
        <time>2021-11-21T11:57:34Z</time>
      </trkpt>
      <trkpt lat="45.27471" lon="5.76653">
        <ele>1164.4</ele>
        <time>2021-11-21T11:57:35Z</time>
      </trkpt>
      <trkpt lat="45.2747" lon="5.76668">
        <ele>1163.4</ele>
        <time>2021-11-21T11:57:36Z</time>
      </trkpt>
      <trkpt lat="45.2747" lon="5.76684">
        <ele>1162.6</ele>
        <time>2021-11-21T11:57:37Z</time>
      </trkpt>
      <trkpt lat="45.2747" lon="5.76699">
        <ele>1161.8</ele>
        <time>2021-11-21T11:57:38Z</time>
      </trkpt>
      <trkpt lat="45.2747" lon="5.76715">
        <ele>1160.8</ele>
        <time>2021-11-21T11:57:39Z</time>
      </trkpt>
      <trkpt lat="45.27469" lon="5.76729">
        <ele>1159.8</ele>
        <time>2021-11-21T11:57:40Z</time>
      </trkpt>
      <trkpt lat="45.27465" lon="5.76749">
        <ele>1158</ele>
        <time>2021-11-21T11:57:42Z</time>
      </trkpt>
      <trkpt lat="45.27453" lon="5.76748">
        <ele>1155.8</ele>
        <time>2021-11-21T11:57:44Z</time>
      </trkpt>
      <trkpt lat="45.27438" lon="5.76741">
        <ele>1154</ele>
        <time>2021-11-21T11:57:46Z</time>
      </trkpt>
      <trkpt lat="45.27421" lon="5.76728">
        <ele>1152.2</ele>
        <time>2021-11-21T11:57:48Z</time>
      </trkpt>
      <trkpt lat="45.2741" lon="5.76719">
        <ele>1151.4</ele>
        <time>2021-11-21T11:57:49Z</time>
      </trkpt>
      <trkpt lat="45.27401" lon="5.76708">
        <ele>1150.6</ele>
        <time>2021-11-21T11:57:50Z</time>
      </trkpt>
      <trkpt lat="45.27393" lon="5.76696">
        <ele>1149.8</ele>
        <time>2021-11-21T11:57:51Z</time>
      </trkpt>
      <trkpt lat="45.27386" lon="5.76682">
        <ele>1148.8</ele>
        <time>2021-11-21T11:57:52Z</time>
      </trkpt>
      <trkpt lat="45.27379" lon="5.76667">
        <ele>1148.2</ele>
        <time>2021-11-21T11:57:53Z</time>
      </trkpt>
      <trkpt lat="45.27374" lon="5.76651">
        <ele>1147.8</ele>
        <time>2021-11-21T11:57:54Z</time>
      </trkpt>
      <trkpt lat="45.2737" lon="5.76635">
        <ele>1147.4</ele>
        <time>2021-11-21T11:57:55Z</time>
      </trkpt>
      <trkpt lat="45.27365" lon="5.7662">
        <ele>1146.4</ele>
        <time>2021-11-21T11:57:56Z</time>
      </trkpt>
      <trkpt lat="45.27359" lon="5.76606">
        <ele>1145.6</ele>
        <time>2021-11-21T11:57:57Z</time>
      </trkpt>
      <trkpt lat="45.2735" lon="5.76595">
        <ele>1144.8</ele>
        <time>2021-11-21T11:57:58Z</time>
      </trkpt>
      <trkpt lat="45.2734" lon="5.76586">
        <ele>1143.8</ele>
        <time>2021-11-21T11:57:59Z</time>
      </trkpt>
      <trkpt lat="45.27329" lon="5.76577">
        <ele>1142.8</ele>
        <time>2021-11-21T11:58:00Z</time>
      </trkpt>
      <trkpt lat="45.27316" lon="5.7657">
        <ele>1141.8</ele>
        <time>2021-11-21T11:58:01Z</time>
      </trkpt>
      <trkpt lat="45.27305" lon="5.76562">
        <ele>1141</ele>
        <time>2021-11-21T11:58:02Z</time>
      </trkpt>
      <trkpt lat="45.27295" lon="5.76553">
        <ele>1140.2</ele>
        <time>2021-11-21T11:58:03Z</time>
      </trkpt>
      <trkpt lat="45.27286" lon="5.76546">
        <ele>1139.4</ele>
        <time>2021-11-21T11:58:04Z</time>
      </trkpt>
      <trkpt lat="45.27277" lon="5.76543">
        <ele>1139</ele>
        <time>2021-11-21T11:58:05Z</time>
      </trkpt>
      <trkpt lat="45.27264" lon="5.76547">
        <ele>1138.2</ele>
        <time>2021-11-21T11:58:07Z</time>
      </trkpt>
      <trkpt lat="45.27257" lon="5.76569">
        <ele>1137</ele>
        <time>2021-11-21T11:58:09Z</time>
      </trkpt>
      <trkpt lat="45.27256" lon="5.76583">
        <ele>1136.2</ele>
        <time>2021-11-21T11:58:10Z</time>
      </trkpt>
      <trkpt lat="45.27254" lon="5.76597">
        <ele>1135.2</ele>
        <time>2021-11-21T11:58:11Z</time>
      </trkpt>
      <trkpt lat="45.27252" lon="5.76611">
        <ele>1134.6</ele>
        <time>2021-11-21T11:58:12Z</time>
      </trkpt>
      <trkpt lat="45.27249" lon="5.76625">
        <ele>1133.6</ele>
        <time>2021-11-21T11:58:13Z</time>
      </trkpt>
      <trkpt lat="45.27245" lon="5.76639">
        <ele>1132.4</ele>
        <time>2021-11-21T11:58:14Z</time>
      </trkpt>
      <trkpt lat="45.2724" lon="5.76652">
        <ele>1131.4</ele>
        <time>2021-11-21T11:58:15Z</time>
      </trkpt>
      <trkpt lat="45.27234" lon="5.76665">
        <ele>1130.6</ele>
        <time>2021-11-21T11:58:16Z</time>
      </trkpt>
      <trkpt lat="45.27226" lon="5.76677">
        <ele>1130</ele>
        <time>2021-11-21T11:58:17Z</time>
      </trkpt>
      <trkpt lat="45.27217" lon="5.76686">
        <ele>1129.6</ele>
        <time>2021-11-21T11:58:18Z</time>
      </trkpt>
      <trkpt lat="45.27206" lon="5.76693">
        <ele>1129</ele>
        <time>2021-11-21T11:58:19Z</time>
      </trkpt>
      <trkpt lat="45.27196" lon="5.767">
        <ele>1128.6</ele>
        <time>2021-11-21T11:58:20Z</time>
      </trkpt>
      <trkpt lat="45.27188" lon="5.76708">
        <ele>1128.2</ele>
        <time>2021-11-21T11:58:21Z</time>
      </trkpt>
      <trkpt lat="45.27182" lon="5.76719">
        <ele>1127.8</ele>
        <time>2021-11-21T11:58:22Z</time>
      </trkpt>
      <trkpt lat="45.27179" lon="5.76733">
        <ele>1127.2</ele>
        <time>2021-11-21T11:58:23Z</time>
      </trkpt>
      <trkpt lat="45.27175" lon="5.76747">
        <ele>1125.8</ele>
        <time>2021-11-21T11:58:24Z</time>
      </trkpt>
      <trkpt lat="45.27171" lon="5.76762">
        <ele>1124.8</ele>
        <time>2021-11-21T11:58:25Z</time>
      </trkpt>
      <trkpt lat="45.27166" lon="5.76776">
        <ele>1123.8</ele>
        <time>2021-11-21T11:58:26Z</time>
      </trkpt>
      <trkpt lat="45.27162" lon="5.76791">
        <ele>1122.8</ele>
        <time>2021-11-21T11:58:27Z</time>
      </trkpt>
      <trkpt lat="45.27157" lon="5.76806">
        <ele>1122.2</ele>
        <time>2021-11-21T11:58:28Z</time>
      </trkpt>
      <trkpt lat="45.27153" lon="5.7682">
        <ele>1121.4</ele>
        <time>2021-11-21T11:58:29Z</time>
      </trkpt>
      <trkpt lat="45.27149" lon="5.76836">
        <ele>1120.4</ele>
        <time>2021-11-21T11:58:30Z</time>
      </trkpt>
      <trkpt lat="45.27145" lon="5.76852">
        <ele>1120.2</ele>
        <time>2021-11-21T11:58:31Z</time>
      </trkpt>
      <trkpt lat="45.27141" lon="5.76868">
        <ele>1119.6</ele>
        <time>2021-11-21T11:58:32Z</time>
      </trkpt>
      <trkpt lat="45.27138" lon="5.76885">
        <ele>1118.8</ele>
        <time>2021-11-21T11:58:33Z</time>
      </trkpt>
      <trkpt lat="45.27134" lon="5.76901">
        <ele>1118</ele>
        <time>2021-11-21T11:58:34Z</time>
      </trkpt>
      <trkpt lat="45.27131" lon="5.76917">
        <ele>1117.8</ele>
        <time>2021-11-21T11:58:35Z</time>
      </trkpt>
      <trkpt lat="45.27129" lon="5.76933">
        <ele>1117.4</ele>
        <time>2021-11-21T11:58:36Z</time>
      </trkpt>
      <trkpt lat="45.27128" lon="5.7695">
        <ele>1116.6</ele>
        <time>2021-11-21T11:58:37Z</time>
      </trkpt>
      <trkpt lat="45.27127" lon="5.76966">
        <ele>1115.6</ele>
        <time>2021-11-21T11:58:38Z</time>
      </trkpt>
      <trkpt lat="45.27125" lon="5.76982">
        <ele>1114.8</ele>
        <time>2021-11-21T11:58:39Z</time>
      </trkpt>
      <trkpt lat="45.27121" lon="5.76995">
        <ele>1113.8</ele>
        <time>2021-11-21T11:58:40Z</time>
      </trkpt>
      <trkpt lat="45.27114" lon="5.77006">
        <ele>1113.2</ele>
        <time>2021-11-21T11:58:41Z</time>
      </trkpt>
      <trkpt lat="45.27106" lon="5.77013">
        <ele>1112</ele>
        <time>2021-11-21T11:58:42Z</time>
      </trkpt>
      <trkpt lat="45.27098" lon="5.77019">
        <ele>1111.2</ele>
        <time>2021-11-21T11:58:43Z</time>
      </trkpt>
      <trkpt lat="45.27088" lon="5.77022">
        <ele>1110.2</ele>
        <time>2021-11-21T11:58:44Z</time>
      </trkpt>
      <trkpt lat="45.27077" lon="5.77025">
        <ele>1109.2</ele>
        <time>2021-11-21T11:58:45Z</time>
      </trkpt>
      <trkpt lat="45.27066" lon="5.77027">
        <ele>1107.8</ele>
        <time>2021-11-21T11:58:46Z</time>
      </trkpt>
      <trkpt lat="45.27055" lon="5.7703">
        <ele>1106.6</ele>
        <time>2021-11-21T11:58:47Z</time>
      </trkpt>
      <trkpt lat="45.27044" lon="5.77033">
        <ele>1106</ele>
        <time>2021-11-21T11:58:48Z</time>
      </trkpt>
      <trkpt lat="45.27034" lon="5.77038">
        <ele>1105.2</ele>
        <time>2021-11-21T11:58:49Z</time>
      </trkpt>
      <trkpt lat="45.27023" lon="5.77043">
        <ele>1104.4</ele>
        <time>2021-11-21T11:58:50Z</time>
      </trkpt>
      <trkpt lat="45.27013" lon="5.77048">
        <ele>1103.8</ele>
        <time>2021-11-21T11:58:51Z</time>
      </trkpt>
      <trkpt lat="45.27003" lon="5.77054">
        <ele>1103.4</ele>
        <time>2021-11-21T11:58:52Z</time>
      </trkpt>
      <trkpt lat="45.26992" lon="5.7706">
        <ele>1102.8</ele>
        <time>2021-11-21T11:58:53Z</time>
      </trkpt>
      <trkpt lat="45.26982" lon="5.77065">
        <ele>1102.4</ele>
        <time>2021-11-21T11:58:54Z</time>
      </trkpt>
      <trkpt lat="45.26971" lon="5.77071">
        <ele>1102</ele>
        <time>2021-11-21T11:58:55Z</time>
      </trkpt>
      <trkpt lat="45.26961" lon="5.77077">
        <ele>1101.6</ele>
        <time>2021-11-21T11:58:56Z</time>
      </trkpt>
      <trkpt lat="45.2695" lon="5.77083">
        <ele>1100.8</ele>
        <time>2021-11-21T11:58:57Z</time>
      </trkpt>
      <trkpt lat="45.2694" lon="5.7709">
        <ele>1100.6</ele>
        <time>2021-11-21T11:58:58Z</time>
      </trkpt>
      <trkpt lat="45.26929" lon="5.77096">
        <ele>1100</ele>
        <time>2021-11-21T11:58:59Z</time>
      </trkpt>
      <trkpt lat="45.26918" lon="5.77103">
        <ele>1099</ele>
        <time>2021-11-21T11:59:00Z</time>
      </trkpt>
      <trkpt lat="45.26907" lon="5.77109">
        <ele>1097.6</ele>
        <time>2021-11-21T11:59:01Z</time>
      </trkpt>
      <trkpt lat="45.26897" lon="5.77116">
        <ele>1096.4</ele>
        <time>2021-11-21T11:59:02Z</time>
      </trkpt>
      <trkpt lat="45.26886" lon="5.77122">
        <ele>1095.4</ele>
        <time>2021-11-21T11:59:03Z</time>
      </trkpt>
      <trkpt lat="45.26875" lon="5.77128">
        <ele>1094.4</ele>
        <time>2021-11-21T11:59:04Z</time>
      </trkpt>
      <trkpt lat="45.26865" lon="5.77135">
        <ele>1093.4</ele>
        <time>2021-11-21T11:59:05Z</time>
      </trkpt>
      <trkpt lat="45.26854" lon="5.77142">
        <ele>1093</ele>
        <time>2021-11-21T11:59:06Z</time>
      </trkpt>
      <trkpt lat="45.26844" lon="5.77149">
        <ele>1091.8</ele>
        <time>2021-11-21T11:59:07Z</time>
      </trkpt>
      <trkpt lat="45.26833" lon="5.77156">
        <ele>1091</ele>
        <time>2021-11-21T11:59:08Z</time>
      </trkpt>
      <trkpt lat="45.26822" lon="5.77162">
        <ele>1090.4</ele>
        <time>2021-11-21T11:59:09Z</time>
      </trkpt>
      <trkpt lat="45.26811" lon="5.77169">
        <ele>1089.6</ele>
        <time>2021-11-21T11:59:10Z</time>
      </trkpt>
      <trkpt lat="45.268" lon="5.77176">
        <ele>1088.6</ele>
        <time>2021-11-21T11:59:11Z</time>
      </trkpt>
      <trkpt lat="45.26788" lon="5.77182">
        <ele>1088</ele>
        <time>2021-11-21T11:59:12Z</time>
      </trkpt>
      <trkpt lat="45.26777" lon="5.77188">
        <ele>1087.4</ele>
        <time>2021-11-21T11:59:13Z</time>
      </trkpt>
      <trkpt lat="45.26765" lon="5.77195">
        <ele>1086.6</ele>
        <time>2021-11-21T11:59:14Z</time>
      </trkpt>
      <trkpt lat="45.26753" lon="5.77201">
        <ele>1086.4</ele>
        <time>2021-11-21T11:59:15Z</time>
      </trkpt>
      <trkpt lat="45.26742" lon="5.77209">
        <ele>1086</ele>
        <time>2021-11-21T11:59:16Z</time>
      </trkpt>
      <trkpt lat="45.26732" lon="5.77218">
        <ele>1085.6</ele>
        <time>2021-11-21T11:59:17Z</time>
      </trkpt>
      <trkpt lat="45.26722" lon="5.7723">
        <ele>1084.8</ele>
        <time>2021-11-21T11:59:18Z</time>
      </trkpt>
      <trkpt lat="45.26713" lon="5.77242">
        <ele>1084.2</ele>
        <time>2021-11-21T11:59:19Z</time>
      </trkpt>
      <trkpt lat="45.26703" lon="5.77254">
        <ele>1083.6</ele>
        <time>2021-11-21T11:59:20Z</time>
      </trkpt>
      <trkpt lat="45.26693" lon="5.77266">
        <ele>1083.2</ele>
        <time>2021-11-21T11:59:21Z</time>
      </trkpt>
      <trkpt lat="45.26681" lon="5.77275">
        <ele>1082.2</ele>
        <time>2021-11-21T11:59:22Z</time>
      </trkpt>
      <trkpt lat="45.26668" lon="5.77279">
        <ele>1081.2</ele>
        <time>2021-11-21T11:59:23Z</time>
      </trkpt>
      <trkpt lat="45.26654" lon="5.77282">
        <ele>1080.2</ele>
        <time>2021-11-21T11:59:24Z</time>
      </trkpt>
      <trkpt lat="45.26641" lon="5.77283">
        <ele>1079</ele>
        <time>2021-11-21T11:59:25Z</time>
      </trkpt>
      <trkpt lat="45.26627" lon="5.77284">
        <ele>1077.6</ele>
        <time>2021-11-21T11:59:26Z</time>
      </trkpt>
      <trkpt lat="45.26614" lon="5.77286">
        <ele>1076.8</ele>
        <time>2021-11-21T11:59:27Z</time>
      </trkpt>
      <trkpt lat="45.26602" lon="5.77289">
        <ele>1075.8</ele>
        <time>2021-11-21T11:59:28Z</time>
      </trkpt>
      <trkpt lat="45.26589" lon="5.77294">
        <ele>1074.8</ele>
        <time>2021-11-21T11:59:29Z</time>
      </trkpt>
      <trkpt lat="45.26577" lon="5.773">
        <ele>1073.4</ele>
        <time>2021-11-21T11:59:30Z</time>
      </trkpt>
      <trkpt lat="45.26564" lon="5.77307">
        <ele>1072.6</ele>
        <time>2021-11-21T11:59:31Z</time>
      </trkpt>
      <trkpt lat="45.26553" lon="5.77316">
        <ele>1071.6</ele>
        <time>2021-11-21T11:59:32Z</time>
      </trkpt>
      <trkpt lat="45.26541" lon="5.77327">
        <ele>1070.2</ele>
        <time>2021-11-21T11:59:33Z</time>
      </trkpt>
      <trkpt lat="45.2653" lon="5.77338">
        <ele>1068.8</ele>
        <time>2021-11-21T11:59:34Z</time>
      </trkpt>
      <trkpt lat="45.26519" lon="5.7735">
        <ele>1067.4</ele>
        <time>2021-11-21T11:59:35Z</time>
      </trkpt>
      <trkpt lat="45.26509" lon="5.77362">
        <ele>1066.2</ele>
        <time>2021-11-21T11:59:36Z</time>
      </trkpt>
      <trkpt lat="45.26499" lon="5.77375">
        <ele>1065</ele>
        <time>2021-11-21T11:59:37Z</time>
      </trkpt>
      <trkpt lat="45.26489" lon="5.77387">
        <ele>1063.8</ele>
        <time>2021-11-21T11:59:38Z</time>
      </trkpt>
      <trkpt lat="45.26479" lon="5.77399">
        <ele>1063</ele>
        <time>2021-11-21T11:59:39Z</time>
      </trkpt>
      <trkpt lat="45.26471" lon="5.77411">
        <ele>1062</ele>
        <time>2021-11-21T11:59:40Z</time>
      </trkpt>
      <trkpt lat="45.26463" lon="5.77422">
        <ele>1061</ele>
        <time>2021-11-21T11:59:41Z</time>
      </trkpt>
      <trkpt lat="45.26458" lon="5.77433">
        <ele>1059.8</ele>
        <time>2021-11-21T11:59:42Z</time>
      </trkpt>
      <trkpt lat="45.26455" lon="5.77445">
        <ele>1058</ele>
        <time>2021-11-21T11:59:43Z</time>
      </trkpt>
      <trkpt lat="45.26455" lon="5.77458">
        <ele>1057</ele>
        <time>2021-11-21T11:59:44Z</time>
      </trkpt>
      <trkpt lat="45.26457" lon="5.7747">
        <ele>1055.8</ele>
        <time>2021-11-21T11:59:45Z</time>
      </trkpt>
      <trkpt lat="45.26462" lon="5.7748">
        <ele>1054.6</ele>
        <time>2021-11-21T11:59:46Z</time>
      </trkpt>
      <trkpt lat="45.26469" lon="5.77487">
        <ele>1053.4</ele>
        <time>2021-11-21T11:59:47Z</time>
      </trkpt>
      <trkpt lat="45.26478" lon="5.77491">
        <ele>1051.8</ele>
        <time>2021-11-21T11:59:48Z</time>
      </trkpt>
      <trkpt lat="45.26487" lon="5.77496">
        <ele>1050.4</ele>
        <time>2021-11-21T11:59:49Z</time>
      </trkpt>
      <trkpt lat="45.26497" lon="5.77502">
        <ele>1049</ele>
        <time>2021-11-21T11:59:50Z</time>
      </trkpt>
      <trkpt lat="45.26505" lon="5.77511">
        <ele>1047.6</ele>
        <time>2021-11-21T11:59:51Z</time>
      </trkpt>
      <trkpt lat="45.26512" lon="5.77523">
        <ele>1046.8</ele>
        <time>2021-11-21T11:59:52Z</time>
      </trkpt>
      <trkpt lat="45.26518" lon="5.77536">
        <ele>1045.8</ele>
        <time>2021-11-21T11:59:53Z</time>
      </trkpt>
      <trkpt lat="45.26524" lon="5.77548">
        <ele>1045.2</ele>
        <time>2021-11-21T11:59:54Z</time>
      </trkpt>
      <trkpt lat="45.26532" lon="5.77559">
        <ele>1044.4</ele>
        <time>2021-11-21T11:59:55Z</time>
      </trkpt>
      <trkpt lat="45.2654" lon="5.77569">
        <ele>1043.8</ele>
        <time>2021-11-21T11:59:56Z</time>
      </trkpt>
      <trkpt lat="45.26548" lon="5.77581">
        <ele>1043.2</ele>
        <time>2021-11-21T11:59:57Z</time>
      </trkpt>
      <trkpt lat="45.26554" lon="5.77594">
        <ele>1043</ele>
        <time>2021-11-21T11:59:58Z</time>
      </trkpt>
      <trkpt lat="45.26556" lon="5.7761">
        <ele>1042</ele>
        <time>2021-11-21T11:59:59Z</time>
      </trkpt>
      <trkpt lat="45.26556" lon="5.77626">
        <ele>1041.6</ele>
        <time>2021-11-21T12:00:00Z</time>
      </trkpt>
      <trkpt lat="45.26555" lon="5.77643">
        <ele>1041.4</ele>
        <time>2021-11-21T12:00:01Z</time>
      </trkpt>
      <trkpt lat="45.26553" lon="5.77659">
        <ele>1040.6</ele>
        <time>2021-11-21T12:00:02Z</time>
      </trkpt>
      <trkpt lat="45.2655" lon="5.77676">
        <ele>1039.8</ele>
        <time>2021-11-21T12:00:03Z</time>
      </trkpt>
      <trkpt lat="45.26545" lon="5.77692">
        <ele>1039.4</ele>
        <time>2021-11-21T12:00:04Z</time>
      </trkpt>
      <trkpt lat="45.2654" lon="5.77707">
        <ele>1038.4</ele>
        <time>2021-11-21T12:00:05Z</time>
      </trkpt>
      <trkpt lat="45.26533" lon="5.77721">
        <ele>1037.6</ele>
        <time>2021-11-21T12:00:06Z</time>
      </trkpt>
      <trkpt lat="45.26524" lon="5.77733">
        <ele>1036.6</ele>
        <time>2021-11-21T12:00:07Z</time>
      </trkpt>
      <trkpt lat="45.26513" lon="5.77742">
        <ele>1035.4</ele>
        <time>2021-11-21T12:00:08Z</time>
      </trkpt>
      <trkpt lat="45.26502" lon="5.77748">
        <ele>1034.4</ele>
        <time>2021-11-21T12:00:09Z</time>
      </trkpt>
      <trkpt lat="45.26489" lon="5.77751">
        <ele>1033.8</ele>
        <time>2021-11-21T12:00:10Z</time>
      </trkpt>
      <trkpt lat="45.26477" lon="5.77753">
        <ele>1032.8</ele>
        <time>2021-11-21T12:00:11Z</time>
      </trkpt>
      <trkpt lat="45.26464" lon="5.77753">
        <ele>1031.6</ele>
        <time>2021-11-21T12:00:12Z</time>
      </trkpt>
      <trkpt lat="45.26451" lon="5.77754">
        <ele>1030.2</ele>
        <time>2021-11-21T12:00:13Z</time>
      </trkpt>
      <trkpt lat="45.26438" lon="5.77756">
        <ele>1029</ele>
        <time>2021-11-21T12:00:14Z</time>
      </trkpt>
      <trkpt lat="45.26426" lon="5.77758">
        <ele>1028.4</ele>
        <time>2021-11-21T12:00:15Z</time>
      </trkpt>
      <trkpt lat="45.26413" lon="5.7776">
        <ele>1027.8</ele>
        <time>2021-11-21T12:00:16Z</time>
      </trkpt>
      <trkpt lat="45.26401" lon="5.77762">
        <ele>1027.2</ele>
        <time>2021-11-21T12:00:17Z</time>
      </trkpt>
      <trkpt lat="45.26388" lon="5.77764">
        <ele>1026.4</ele>
        <time>2021-11-21T12:00:18Z</time>
      </trkpt>
      <trkpt lat="45.26375" lon="5.77766">
        <ele>1025.2</ele>
        <time>2021-11-21T12:00:19Z</time>
      </trkpt>
      <trkpt lat="45.26363" lon="5.77768">
        <ele>1024</ele>
        <time>2021-11-21T12:00:20Z</time>
      </trkpt>
      <trkpt lat="45.2635" lon="5.7777">
        <ele>1023</ele>
        <time>2021-11-21T12:00:21Z</time>
      </trkpt>
      <trkpt lat="45.26337" lon="5.77772">
        <ele>1022</ele>
        <time>2021-11-21T12:00:22Z</time>
      </trkpt>
      <trkpt lat="45.26325" lon="5.77774">
        <ele>1020.8</ele>
        <time>2021-11-21T12:00:23Z</time>
      </trkpt>
      <trkpt lat="45.26312" lon="5.77776">
        <ele>1020</ele>
        <time>2021-11-21T12:00:24Z</time>
      </trkpt>
      <trkpt lat="45.26299" lon="5.77778">
        <ele>1018.8</ele>
        <time>2021-11-21T12:00:25Z</time>
      </trkpt>
      <trkpt lat="45.26286" lon="5.7778">
        <ele>1017.8</ele>
        <time>2021-11-21T12:00:26Z</time>
      </trkpt>
      <trkpt lat="45.26274" lon="5.77782">
        <ele>1016.6</ele>
        <time>2021-11-21T12:00:27Z</time>
      </trkpt>
      <trkpt lat="45.26261" lon="5.77784">
        <ele>1015.4</ele>
        <time>2021-11-21T12:00:28Z</time>
      </trkpt>
      <trkpt lat="45.26249" lon="5.77785">
        <ele>1014.4</ele>
        <time>2021-11-21T12:00:29Z</time>
      </trkpt>
      <trkpt lat="45.26236" lon="5.77787">
        <ele>1013.2</ele>
        <time>2021-11-21T12:00:30Z</time>
      </trkpt>
      <trkpt lat="45.26224" lon="5.77789">
        <ele>1012.2</ele>
        <time>2021-11-21T12:00:31Z</time>
      </trkpt>
      <trkpt lat="45.26212" lon="5.77791">
        <ele>1011</ele>
        <time>2021-11-21T12:00:32Z</time>
      </trkpt>
      <trkpt lat="45.262" lon="5.77793">
        <ele>1010</ele>
        <time>2021-11-21T12:00:33Z</time>
      </trkpt>
      <trkpt lat="45.26188" lon="5.77793">
        <ele>1009</ele>
        <time>2021-11-21T12:00:34Z</time>
      </trkpt>
      <trkpt lat="45.26176" lon="5.77789">
        <ele>1008.2</ele>
        <time>2021-11-21T12:00:35Z</time>
      </trkpt>
      <trkpt lat="45.26164" lon="5.77782">
        <ele>1006.8</ele>
        <time>2021-11-21T12:00:36Z</time>
      </trkpt>
      <trkpt lat="45.26153" lon="5.77773">
        <ele>1005.8</ele>
        <time>2021-11-21T12:00:37Z</time>
      </trkpt>
      <trkpt lat="45.26143" lon="5.77765">
        <ele>1005.4</ele>
        <time>2021-11-21T12:00:38Z</time>
      </trkpt>
      <trkpt lat="45.26132" lon="5.77757">
        <ele>1004.4</ele>
        <time>2021-11-21T12:00:39Z</time>
      </trkpt>
      <trkpt lat="45.26121" lon="5.77748">
        <ele>1002.8</ele>
        <time>2021-11-21T12:00:40Z</time>
      </trkpt>
      <trkpt lat="45.26109" lon="5.77742">
        <ele>1001.6</ele>
        <time>2021-11-21T12:00:41Z</time>
      </trkpt>
      <trkpt lat="45.26097" lon="5.77737">
        <ele>1000.4</ele>
        <time>2021-11-21T12:00:42Z</time>
      </trkpt>
      <trkpt lat="45.26085" lon="5.77735">
        <ele>1000</ele>
        <time>2021-11-21T12:00:43Z</time>
      </trkpt>
      <trkpt lat="45.26072" lon="5.77735">
        <ele>999.2</ele>
        <time>2021-11-21T12:00:44Z</time>
      </trkpt>
      <trkpt lat="45.2606" lon="5.77735">
        <ele>998.2</ele>
        <time>2021-11-21T12:00:45Z</time>
      </trkpt>
      <trkpt lat="45.26047" lon="5.77735">
        <ele>997.2</ele>
        <time>2021-11-21T12:00:46Z</time>
      </trkpt>
      <trkpt lat="45.26035" lon="5.77735">
        <ele>996.2</ele>
        <time>2021-11-21T12:00:47Z</time>
      </trkpt>
      <trkpt lat="45.26022" lon="5.77735">
        <ele>995.2</ele>
        <time>2021-11-21T12:00:48Z</time>
      </trkpt>
      <trkpt lat="45.2601" lon="5.77733">
        <ele>994</ele>
        <time>2021-11-21T12:00:49Z</time>
      </trkpt>
      <trkpt lat="45.25999" lon="5.7773">
        <ele>993</ele>
        <time>2021-11-21T12:00:50Z</time>
      </trkpt>
      <trkpt lat="45.25987" lon="5.77727">
        <ele>992</ele>
        <time>2021-11-21T12:00:51Z</time>
      </trkpt>
      <trkpt lat="45.25975" lon="5.77726">
        <ele>990.6</ele>
        <time>2021-11-21T12:00:52Z</time>
      </trkpt>
      <trkpt lat="45.25962" lon="5.77724">
        <ele>989.2</ele>
        <time>2021-11-21T12:00:53Z</time>
      </trkpt>
      <trkpt lat="45.2595" lon="5.7772">
        <ele>988.2</ele>
        <time>2021-11-21T12:00:54Z</time>
      </trkpt>
      <trkpt lat="45.25939" lon="5.77713">
        <ele>987</ele>
        <time>2021-11-21T12:00:55Z</time>
      </trkpt>
      <trkpt lat="45.25928" lon="5.77704">
        <ele>986.2</ele>
        <time>2021-11-21T12:00:56Z</time>
      </trkpt>
      <trkpt lat="45.25917" lon="5.77695">
        <ele>985</ele>
        <time>2021-11-21T12:00:57Z</time>
      </trkpt>
      <trkpt lat="45.25906" lon="5.77687">
        <ele>984.2</ele>
        <time>2021-11-21T12:00:58Z</time>
      </trkpt>
      <trkpt lat="45.25895" lon="5.77679">
        <ele>983.4</ele>
        <time>2021-11-21T12:00:59Z</time>
      </trkpt>
      <trkpt lat="45.25884" lon="5.77672">
        <ele>982</ele>
        <time>2021-11-21T12:01:00Z</time>
      </trkpt>
      <trkpt lat="45.25872" lon="5.77666">
        <ele>981</ele>
        <time>2021-11-21T12:01:01Z</time>
      </trkpt>
      <trkpt lat="45.2586" lon="5.7766">
        <ele>980.2</ele>
        <time>2021-11-21T12:01:02Z</time>
      </trkpt>
      <trkpt lat="45.25848" lon="5.77655">
        <ele>979.4</ele>
        <time>2021-11-21T12:01:03Z</time>
      </trkpt>
      <trkpt lat="45.25836" lon="5.7765">
        <ele>978.6</ele>
        <time>2021-11-21T12:01:04Z</time>
      </trkpt>
      <trkpt lat="45.25824" lon="5.77644">
        <ele>977.6</ele>
        <time>2021-11-21T12:01:05Z</time>
      </trkpt>
      <trkpt lat="45.25812" lon="5.77637">
        <ele>976.2</ele>
        <time>2021-11-21T12:01:06Z</time>
      </trkpt>
      <trkpt lat="45.258" lon="5.7763">
        <ele>974.8</ele>
        <time>2021-11-21T12:01:07Z</time>
      </trkpt>
      <trkpt lat="45.25789" lon="5.77622">
        <ele>973.2</ele>
        <time>2021-11-21T12:01:08Z</time>
      </trkpt>
      <trkpt lat="45.25778" lon="5.77614">
        <ele>972.2</ele>
        <time>2021-11-21T12:01:09Z</time>
      </trkpt>
      <trkpt lat="45.25766" lon="5.77606">
        <ele>971.2</ele>
        <time>2021-11-21T12:01:10Z</time>
      </trkpt>
      <trkpt lat="45.25755" lon="5.77598">
        <ele>970</ele>
        <time>2021-11-21T12:01:11Z</time>
      </trkpt>
      <trkpt lat="45.25744" lon="5.7759">
        <ele>969.2</ele>
        <time>2021-11-21T12:01:12Z</time>
      </trkpt>
      <trkpt lat="45.25733" lon="5.77583">
        <ele>967.8</ele>
        <time>2021-11-21T12:01:13Z</time>
      </trkpt>
      <trkpt lat="45.25722" lon="5.77575">
        <ele>966.8</ele>
        <time>2021-11-21T12:01:14Z</time>
      </trkpt>
      <trkpt lat="45.2571" lon="5.77567">
        <ele>965.8</ele>
        <time>2021-11-21T12:01:15Z</time>
      </trkpt>
      <trkpt lat="45.25699" lon="5.7756">
        <ele>964.8</ele>
        <time>2021-11-21T12:01:16Z</time>
      </trkpt>
      <trkpt lat="45.25687" lon="5.77553">
        <ele>963.6</ele>
        <time>2021-11-21T12:01:17Z</time>
      </trkpt>
      <trkpt lat="45.25676" lon="5.77546">
        <ele>962.8</ele>
        <time>2021-11-21T12:01:18Z</time>
      </trkpt>
      <trkpt lat="45.25664" lon="5.77539">
        <ele>961.8</ele>
        <time>2021-11-21T12:01:19Z</time>
      </trkpt>
      <trkpt lat="45.25652" lon="5.77533">
        <ele>960.8</ele>
        <time>2021-11-21T12:01:20Z</time>
      </trkpt>
      <trkpt lat="45.2564" lon="5.77527">
        <ele>960.2</ele>
        <time>2021-11-21T12:01:21Z</time>
      </trkpt>
      <trkpt lat="45.25629" lon="5.77521">
        <ele>959.2</ele>
        <time>2021-11-21T12:01:22Z</time>
      </trkpt>
      <trkpt lat="45.25617" lon="5.77514">
        <ele>957.4</ele>
        <time>2021-11-21T12:01:23Z</time>
      </trkpt>
      <trkpt lat="45.25607" lon="5.77506">
        <ele>956</ele>
        <time>2021-11-21T12:01:24Z</time>
      </trkpt>
      <trkpt lat="45.25596" lon="5.77496">
        <ele>954.6</ele>
        <time>2021-11-21T12:01:25Z</time>
      </trkpt>
      <trkpt lat="45.25586" lon="5.77486">
        <ele>953.6</ele>
        <time>2021-11-21T12:01:26Z</time>
      </trkpt>
      <trkpt lat="45.25577" lon="5.77474">
        <ele>953.2</ele>
        <time>2021-11-21T12:01:27Z</time>
      </trkpt>
      <trkpt lat="45.25568" lon="5.77463">
        <ele>952.4</ele>
        <time>2021-11-21T12:01:28Z</time>
      </trkpt>
      <trkpt lat="45.2556" lon="5.77451">
        <ele>951.4</ele>
        <time>2021-11-21T12:01:29Z</time>
      </trkpt>
      <trkpt lat="45.25552" lon="5.77438">
        <ele>950</ele>
        <time>2021-11-21T12:01:30Z</time>
      </trkpt>
      <trkpt lat="45.25545" lon="5.77426">
        <ele>949.2</ele>
        <time>2021-11-21T12:01:31Z</time>
      </trkpt>
      <trkpt lat="45.2554" lon="5.77412">
        <ele>948.4</ele>
        <time>2021-11-21T12:01:32Z</time>
      </trkpt>
      <trkpt lat="45.25535" lon="5.77399">
        <ele>948</ele>
        <time>2021-11-21T12:01:33Z</time>
      </trkpt>
      <trkpt lat="45.25529" lon="5.77385">
        <ele>947.2</ele>
        <time>2021-11-21T12:01:34Z</time>
      </trkpt>
      <trkpt lat="45.25524" lon="5.77372">
        <ele>946.2</ele>
        <time>2021-11-21T12:01:35Z</time>
      </trkpt>
      <trkpt lat="45.25519" lon="5.77359">
        <ele>945</ele>
        <time>2021-11-21T12:01:36Z</time>
      </trkpt>
      <trkpt lat="45.25514" lon="5.77346">
        <ele>944.4</ele>
        <time>2021-11-21T12:01:37Z</time>
      </trkpt>
      <trkpt lat="45.2551" lon="5.77332">
        <ele>943.4</ele>
        <time>2021-11-21T12:01:38Z</time>
      </trkpt>
      <trkpt lat="45.25506" lon="5.77319">
        <ele>943.4</ele>
        <time>2021-11-21T12:01:39Z</time>
      </trkpt>
      <trkpt lat="45.25502" lon="5.77306">
        <ele>942.8</ele>
        <time>2021-11-21T12:01:40Z</time>
      </trkpt>
      <trkpt lat="45.25498" lon="5.77293">
        <ele>942</ele>
        <time>2021-11-21T12:01:41Z</time>
      </trkpt>
      <trkpt lat="45.25494" lon="5.7728">
        <ele>941.4</ele>
        <time>2021-11-21T12:01:42Z</time>
      </trkpt>
      <trkpt lat="45.2549" lon="5.77267">
        <ele>941</ele>
        <time>2021-11-21T12:01:43Z</time>
      </trkpt>
      <trkpt lat="45.25486" lon="5.77254">
        <ele>940.2</ele>
        <time>2021-11-21T12:01:44Z</time>
      </trkpt>
      <trkpt lat="45.25482" lon="5.77241">
        <ele>940</ele>
        <time>2021-11-21T12:01:45Z</time>
      </trkpt>
      <trkpt lat="45.25478" lon="5.77228">
        <ele>939.6</ele>
        <time>2021-11-21T12:01:46Z</time>
      </trkpt>
      <trkpt lat="45.25475" lon="5.77214">
        <ele>939</ele>
        <time>2021-11-21T12:01:47Z</time>
      </trkpt>
      <trkpt lat="45.25472" lon="5.772">
        <ele>938.6</ele>
        <time>2021-11-21T12:01:48Z</time>
      </trkpt>
      <trkpt lat="45.25471" lon="5.77186">
        <ele>938</ele>
        <time>2021-11-21T12:01:49Z</time>
      </trkpt>
      <trkpt lat="45.2547" lon="5.77172">
        <ele>937.4</ele>
        <time>2021-11-21T12:01:50Z</time>
      </trkpt>
      <trkpt lat="45.25469" lon="5.77157">
        <ele>936.4</ele>
        <time>2021-11-21T12:01:51Z</time>
      </trkpt>
      <trkpt lat="45.25469" lon="5.77142">
        <ele>935.2</ele>
        <time>2021-11-21T12:01:52Z</time>
      </trkpt>
      <trkpt lat="45.2547" lon="5.77127">
        <ele>934.4</ele>
        <time>2021-11-21T12:01:53Z</time>
      </trkpt>
      <trkpt lat="45.2547" lon="5.77112">
        <ele>934</ele>
        <time>2021-11-21T12:01:54Z</time>
      </trkpt>
      <trkpt lat="45.2547" lon="5.77097">
        <ele>933.6</ele>
        <time>2021-11-21T12:01:55Z</time>
      </trkpt>
      <trkpt lat="45.2547" lon="5.77082">
        <ele>933.6</ele>
        <time>2021-11-21T12:01:56Z</time>
      </trkpt>
      <trkpt lat="45.25469" lon="5.77068">
        <ele>933</ele>
        <time>2021-11-21T12:01:57Z</time>
      </trkpt>
      <trkpt lat="45.25468" lon="5.77053">
        <ele>932.8</ele>
        <time>2021-11-21T12:01:58Z</time>
      </trkpt>
      <trkpt lat="45.25467" lon="5.77039">
        <ele>932.4</ele>
        <time>2021-11-21T12:01:59Z</time>
      </trkpt>
      <trkpt lat="45.25466" lon="5.77024">
        <ele>931.8</ele>
        <time>2021-11-21T12:02:00Z</time>
      </trkpt>
      <trkpt lat="45.25464" lon="5.7701">
        <ele>931.4</ele>
        <time>2021-11-21T12:02:01Z</time>
      </trkpt>
      <trkpt lat="45.25462" lon="5.76996">
        <ele>930.8</ele>
        <time>2021-11-21T12:02:02Z</time>
      </trkpt>
      <trkpt lat="45.2546" lon="5.76982">
        <ele>930.2</ele>
        <time>2021-11-21T12:02:03Z</time>
      </trkpt>
      <trkpt lat="45.25458" lon="5.76968">
        <ele>929.8</ele>
        <time>2021-11-21T12:02:04Z</time>
      </trkpt>
      <trkpt lat="45.25455" lon="5.76954">
        <ele>929.2</ele>
        <time>2021-11-21T12:02:05Z</time>
      </trkpt>
      <trkpt lat="45.25452" lon="5.76941">
        <ele>928.8</ele>
        <time>2021-11-21T12:02:06Z</time>
      </trkpt>
      <trkpt lat="45.25448" lon="5.76927">
        <ele>928</ele>
        <time>2021-11-21T12:02:07Z</time>
      </trkpt>
      <trkpt lat="45.25445" lon="5.76914">
        <ele>927.2</ele>
        <time>2021-11-21T12:02:08Z</time>
      </trkpt>
      <trkpt lat="45.25441" lon="5.769">
        <ele>926.8</ele>
        <time>2021-11-21T12:02:09Z</time>
      </trkpt>
      <trkpt lat="45.25438" lon="5.76887">
        <ele>926.4</ele>
        <time>2021-11-21T12:02:10Z</time>
      </trkpt>
      <trkpt lat="45.25434" lon="5.76874">
        <ele>926</ele>
        <time>2021-11-21T12:02:11Z</time>
      </trkpt>
      <trkpt lat="45.2543" lon="5.76861">
        <ele>925.4</ele>
        <time>2021-11-21T12:02:12Z</time>
      </trkpt>
      <trkpt lat="45.25426" lon="5.76848">
        <ele>925.2</ele>
        <time>2021-11-21T12:02:13Z</time>
      </trkpt>
      <trkpt lat="45.25422" lon="5.76835">
        <ele>924.8</ele>
        <time>2021-11-21T12:02:14Z</time>
      </trkpt>
      <trkpt lat="45.25418" lon="5.76822">
        <ele>924.6</ele>
        <time>2021-11-21T12:02:15Z</time>
      </trkpt>
      <trkpt lat="45.25413" lon="5.7681">
        <ele>924.4</ele>
        <time>2021-11-21T12:02:16Z</time>
      </trkpt>
      <trkpt lat="45.25407" lon="5.76799">
        <ele>924.2</ele>
        <time>2021-11-21T12:02:17Z</time>
      </trkpt>
      <trkpt lat="45.254" lon="5.7679">
        <ele>923.6</ele>
        <time>2021-11-21T12:02:18Z</time>
      </trkpt>
      <trkpt lat="45.25391" lon="5.76783">
        <ele>923.4</ele>
        <time>2021-11-21T12:02:19Z</time>
      </trkpt>
      <trkpt lat="45.25382" lon="5.76777">
        <ele>923</ele>
        <time>2021-11-21T12:02:20Z</time>
      </trkpt>
      <trkpt lat="45.25373" lon="5.76771">
        <ele>922.6</ele>
        <time>2021-11-21T12:02:21Z</time>
      </trkpt>
      <trkpt lat="45.25364" lon="5.76766">
        <ele>922.4</ele>
        <time>2021-11-21T12:02:22Z</time>
      </trkpt>
      <trkpt lat="45.25355" lon="5.7676">
        <ele>922.2</ele>
        <time>2021-11-21T12:02:23Z</time>
      </trkpt>
      <trkpt lat="45.25346" lon="5.76754">
        <ele>921.8</ele>
        <time>2021-11-21T12:02:24Z</time>
      </trkpt>
      <trkpt lat="45.25337" lon="5.76748">
        <ele>921.8</ele>
        <time>2021-11-21T12:02:25Z</time>
      </trkpt>
      <trkpt lat="45.25328" lon="5.76742">
        <ele>921.6</ele>
        <time>2021-11-21T12:02:26Z</time>
      </trkpt>
      <trkpt lat="45.25319" lon="5.76736">
        <ele>921.6</ele>
        <time>2021-11-21T12:02:27Z</time>
      </trkpt>
      <trkpt lat="45.2531" lon="5.7673">
        <ele>921.4</ele>
        <time>2021-11-21T12:02:28Z</time>
      </trkpt>
      <trkpt lat="45.25301" lon="5.76724">
        <ele>920.8</ele>
        <time>2021-11-21T12:02:29Z</time>
      </trkpt>
      <trkpt lat="45.25292" lon="5.76718">
        <ele>920.4</ele>
        <time>2021-11-21T12:02:30Z</time>
      </trkpt>
      <trkpt lat="45.25282" lon="5.76713">
        <ele>920</ele>
        <time>2021-11-21T12:02:31Z</time>
      </trkpt>
      <trkpt lat="45.25273" lon="5.76707">
        <ele>919.6</ele>
        <time>2021-11-21T12:02:32Z</time>
      </trkpt>
      <trkpt lat="45.25264" lon="5.76701">
        <ele>919.4</ele>
        <time>2021-11-21T12:02:33Z</time>
      </trkpt>
      <trkpt lat="45.25255" lon="5.76696">
        <ele>919</ele>
        <time>2021-11-21T12:02:34Z</time>
      </trkpt>
      <trkpt lat="45.25246" lon="5.76689">
        <ele>918.6</ele>
        <time>2021-11-21T12:02:35Z</time>
      </trkpt>
      <trkpt lat="45.25237" lon="5.76683">
        <ele>918.4</ele>
        <time>2021-11-21T12:02:36Z</time>
      </trkpt>
      <trkpt lat="45.25229" lon="5.76676">
        <ele>918</ele>
        <time>2021-11-21T12:02:37Z</time>
      </trkpt>
      <trkpt lat="45.2522" lon="5.76671">
        <ele>917.6</ele>
        <time>2021-11-21T12:02:38Z</time>
      </trkpt>
      <trkpt lat="45.2521" lon="5.76666">
        <ele>917.4</ele>
        <time>2021-11-21T12:02:39Z</time>
      </trkpt>
      <trkpt lat="45.25201" lon="5.76663">
        <ele>917</ele>
        <time>2021-11-21T12:02:40Z</time>
      </trkpt>
      <trkpt lat="45.25192" lon="5.76661">
        <ele>917</ele>
        <time>2021-11-21T12:02:41Z</time>
      </trkpt>
      <trkpt lat="45.25182" lon="5.76661">
        <ele>916.6</ele>
        <time>2021-11-21T12:02:42Z</time>
      </trkpt>
      <trkpt lat="45.25173" lon="5.7666">
        <ele>916.2</ele>
        <time>2021-11-21T12:02:43Z</time>
      </trkpt>
      <trkpt lat="45.25164" lon="5.7666">
        <ele>916.2</ele>
        <time>2021-11-21T12:02:44Z</time>
      </trkpt>
      <trkpt lat="45.25154" lon="5.7666">
        <ele>916.4</ele>
        <time>2021-11-21T12:02:45Z</time>
      </trkpt>
      <trkpt lat="45.25145" lon="5.76661">
        <ele>916.4</ele>
        <time>2021-11-21T12:02:46Z</time>
      </trkpt>
      <trkpt lat="45.25135" lon="5.76663">
        <ele>916</ele>
        <time>2021-11-21T12:02:47Z</time>
      </trkpt>
      <trkpt lat="45.25125" lon="5.76665">
        <ele>916.2</ele>
        <time>2021-11-21T12:02:48Z</time>
      </trkpt>
      <trkpt lat="45.25115" lon="5.76667">
        <ele>915.8</ele>
        <time>2021-11-21T12:02:49Z</time>
      </trkpt>
      <trkpt lat="45.25104" lon="5.76668">
        <ele>915.2</ele>
        <time>2021-11-21T12:02:50Z</time>
      </trkpt>
      <trkpt lat="45.25092" lon="5.76666">
        <ele>914.6</ele>
        <time>2021-11-21T12:02:51Z</time>
      </trkpt>
      <trkpt lat="45.25079" lon="5.76664">
        <ele>914.2</ele>
        <time>2021-11-21T12:02:52Z</time>
      </trkpt>
      <trkpt lat="45.25069" lon="5.76662">
        <ele>914</ele>
        <time>2021-11-21T12:02:53Z</time>
      </trkpt>
      <trkpt lat="45.25057" lon="5.76658">
        <ele>913.8</ele>
        <time>2021-11-21T12:02:54Z</time>
      </trkpt>
      <trkpt lat="45.25046" lon="5.76654">
        <ele>913.6</ele>
        <time>2021-11-21T12:02:55Z</time>
      </trkpt>
      <trkpt lat="45.25035" lon="5.76648">
        <ele>913.2</ele>
        <time>2021-11-21T12:02:56Z</time>
      </trkpt>
      <trkpt lat="45.25025" lon="5.76642">
        <ele>913</ele>
        <time>2021-11-21T12:02:57Z</time>
      </trkpt>
      <trkpt lat="45.25015" lon="5.76634">
        <ele>912.6</ele>
        <time>2021-11-21T12:02:58Z</time>
      </trkpt>
      <trkpt lat="45.25005" lon="5.76625">
        <ele>912</ele>
        <time>2021-11-21T12:02:59Z</time>
      </trkpt>
      <trkpt lat="45.24997" lon="5.76616">
        <ele>911.8</ele>
        <time>2021-11-21T12:03:00Z</time>
      </trkpt>
      <trkpt lat="45.24989" lon="5.76607">
        <ele>911.6</ele>
        <time>2021-11-21T12:03:01Z</time>
      </trkpt>
      <trkpt lat="45.24981" lon="5.76599">
        <ele>911.2</ele>
        <time>2021-11-21T12:03:02Z</time>
      </trkpt>
      <trkpt lat="45.24972" lon="5.76591">
        <ele>910.8</ele>
        <time>2021-11-21T12:03:03Z</time>
      </trkpt>
      <trkpt lat="45.24963" lon="5.76584">
        <ele>910</ele>
        <time>2021-11-21T12:03:04Z</time>
      </trkpt>
      <trkpt lat="45.24953" lon="5.76576">
        <ele>909.6</ele>
        <time>2021-11-21T12:03:05Z</time>
      </trkpt>
      <trkpt lat="45.24945" lon="5.76567">
        <ele>908.8</ele>
        <time>2021-11-21T12:03:06Z</time>
      </trkpt>
      <trkpt lat="45.24936" lon="5.76558">
        <ele>908.4</ele>
        <time>2021-11-21T12:03:07Z</time>
      </trkpt>
      <trkpt lat="45.24929" lon="5.76548">
        <ele>908</ele>
        <time>2021-11-21T12:03:08Z</time>
      </trkpt>
      <trkpt lat="45.2492" lon="5.7654">
        <ele>907.4</ele>
        <time>2021-11-21T12:03:09Z</time>
      </trkpt>
      <trkpt lat="45.2491" lon="5.76533">
        <ele>907</ele>
        <time>2021-11-21T12:03:10Z</time>
      </trkpt>
      <trkpt lat="45.249" lon="5.76526">
        <ele>906.2</ele>
        <time>2021-11-21T12:03:11Z</time>
      </trkpt>
      <trkpt lat="45.24889" lon="5.76519">
        <ele>905.6</ele>
        <time>2021-11-21T12:03:12Z</time>
      </trkpt>
      <trkpt lat="45.24879" lon="5.76512">
        <ele>904.8</ele>
        <time>2021-11-21T12:03:13Z</time>
      </trkpt>
      <trkpt lat="45.24869" lon="5.76505">
        <ele>904</ele>
        <time>2021-11-21T12:03:14Z</time>
      </trkpt>
      <trkpt lat="45.24859" lon="5.76497">
        <ele>903.8</ele>
        <time>2021-11-21T12:03:15Z</time>
      </trkpt>
      <trkpt lat="45.24849" lon="5.76489">
        <ele>903</ele>
        <time>2021-11-21T12:03:16Z</time>
      </trkpt>
      <trkpt lat="45.24839" lon="5.7648">
        <ele>902.2</ele>
        <time>2021-11-21T12:03:17Z</time>
      </trkpt>
      <trkpt lat="45.24829" lon="5.76472">
        <ele>901.2</ele>
        <time>2021-11-21T12:03:18Z</time>
      </trkpt>
      <trkpt lat="45.2482" lon="5.76464">
        <ele>900.4</ele>
        <time>2021-11-21T12:03:19Z</time>
      </trkpt>
      <trkpt lat="45.2481" lon="5.76456">
        <ele>899.4</ele>
        <time>2021-11-21T12:03:20Z</time>
      </trkpt>
      <trkpt lat="45.24799" lon="5.76448">
        <ele>898.2</ele>
        <time>2021-11-21T12:03:21Z</time>
      </trkpt>
      <trkpt lat="45.24789" lon="5.76441">
        <ele>897.8</ele>
        <time>2021-11-21T12:03:22Z</time>
      </trkpt>
      <trkpt lat="45.24778" lon="5.76434">
        <ele>897.2</ele>
        <time>2021-11-21T12:03:23Z</time>
      </trkpt>
      <trkpt lat="45.24767" lon="5.76427">
        <ele>896.4</ele>
        <time>2021-11-21T12:03:24Z</time>
      </trkpt>
      <trkpt lat="45.24755" lon="5.76421">
        <ele>895</ele>
        <time>2021-11-21T12:03:25Z</time>
      </trkpt>
      <trkpt lat="45.24743" lon="5.76414">
        <ele>895</ele>
        <time>2021-11-21T12:03:26Z</time>
      </trkpt>
      <trkpt lat="45.24732" lon="5.76408">
        <ele>893.2</ele>
        <time>2021-11-21T12:03:27Z</time>
      </trkpt>
      <trkpt lat="45.2472" lon="5.76403">
        <ele>892.2</ele>
        <time>2021-11-21T12:03:28Z</time>
      </trkpt>
      <trkpt lat="45.24707" lon="5.764">
        <ele>891</ele>
        <time>2021-11-21T12:03:29Z</time>
      </trkpt>
      <trkpt lat="45.24695" lon="5.76401">
        <ele>890.2</ele>
        <time>2021-11-21T12:03:30Z</time>
      </trkpt>
      <trkpt lat="45.24683" lon="5.76406">
        <ele>889</ele>
        <time>2021-11-21T12:03:31Z</time>
      </trkpt>
      <trkpt lat="45.24672" lon="5.76415">
        <ele>888</ele>
        <time>2021-11-21T12:03:32Z</time>
      </trkpt>
      <trkpt lat="45.24663" lon="5.76427">
        <ele>886.8</ele>
        <time>2021-11-21T12:03:33Z</time>
      </trkpt>
      <trkpt lat="45.24655" lon="5.76439">
        <ele>886.2</ele>
        <time>2021-11-21T12:03:34Z</time>
      </trkpt>
      <trkpt lat="45.24646" lon="5.76451">
        <ele>885</ele>
        <time>2021-11-21T12:03:35Z</time>
      </trkpt>
      <trkpt lat="45.24636" lon="5.76461">
        <ele>883</ele>
        <time>2021-11-21T12:03:36Z</time>
      </trkpt>
      <trkpt lat="45.24625" lon="5.76469">
        <ele>881.4</ele>
        <time>2021-11-21T12:03:37Z</time>
      </trkpt>
      <trkpt lat="45.24614" lon="5.76476">
        <ele>880.2</ele>
        <time>2021-11-21T12:03:38Z</time>
      </trkpt>
      <trkpt lat="45.24601" lon="5.7648">
        <ele>879</ele>
        <time>2021-11-21T12:03:39Z</time>
      </trkpt>
      <trkpt lat="45.24588" lon="5.76478">
        <ele>877.2</ele>
        <time>2021-11-21T12:03:40Z</time>
      </trkpt>
      <trkpt lat="45.24572" lon="5.76469">
        <ele>875.8</ele>
        <time>2021-11-21T12:03:41Z</time>
      </trkpt>
      <trkpt lat="45.24558" lon="5.76459">
        <ele>874.2</ele>
        <time>2021-11-21T12:03:42Z</time>
      </trkpt>
      <trkpt lat="45.24544" lon="5.76446">
        <ele>873.4</ele>
        <time>2021-11-21T12:03:43Z</time>
      </trkpt>
      <trkpt lat="45.24533" lon="5.76434">
        <ele>872.2</ele>
        <time>2021-11-21T12:03:44Z</time>
      </trkpt>
      <trkpt lat="45.24521" lon="5.76424">
        <ele>871.2</ele>
        <time>2021-11-21T12:03:45Z</time>
      </trkpt>
      <trkpt lat="45.24509" lon="5.76413">
        <ele>869.8</ele>
        <time>2021-11-21T12:03:46Z</time>
      </trkpt>
      <trkpt lat="45.24498" lon="5.76401">
        <ele>868.2</ele>
        <time>2021-11-21T12:03:47Z</time>
      </trkpt>
      <trkpt lat="45.24489" lon="5.76387">
        <ele>866.4</ele>
        <time>2021-11-21T12:03:48Z</time>
      </trkpt>
      <trkpt lat="45.2448" lon="5.76373">
        <ele>865.2</ele>
        <time>2021-11-21T12:03:49Z</time>
      </trkpt>
      <trkpt lat="45.24472" lon="5.76358">
        <ele>863.4</ele>
        <time>2021-11-21T12:03:50Z</time>
      </trkpt>
      <trkpt lat="45.24464" lon="5.76343">
        <ele>862</ele>
        <time>2021-11-21T12:03:51Z</time>
      </trkpt>
      <trkpt lat="45.24456" lon="5.76328">
        <ele>860.6</ele>
        <time>2021-11-21T12:03:52Z</time>
      </trkpt>
      <trkpt lat="45.24449" lon="5.76312">
        <ele>859.4</ele>
        <time>2021-11-21T12:03:53Z</time>
      </trkpt>
      <trkpt lat="45.24443" lon="5.76295">
        <ele>858.4</ele>
        <time>2021-11-21T12:03:54Z</time>
      </trkpt>
      <trkpt lat="45.24436" lon="5.76278">
        <ele>857</ele>
        <time>2021-11-21T12:03:55Z</time>
      </trkpt>
      <trkpt lat="45.2443" lon="5.7626">
        <ele>855.4</ele>
        <time>2021-11-21T12:03:56Z</time>
      </trkpt>
      <trkpt lat="45.24425" lon="5.76242">
        <ele>854</ele>
        <time>2021-11-21T12:03:57Z</time>
      </trkpt>
      <trkpt lat="45.24419" lon="5.76225">
        <ele>853</ele>
        <time>2021-11-21T12:03:58Z</time>
      </trkpt>
      <trkpt lat="45.24414" lon="5.76207">
        <ele>851.8</ele>
        <time>2021-11-21T12:03:59Z</time>
      </trkpt>
      <trkpt lat="45.2441" lon="5.76189">
        <ele>850.4</ele>
        <time>2021-11-21T12:04:00Z</time>
      </trkpt>
      <trkpt lat="45.24407" lon="5.7617">
        <ele>848.8</ele>
        <time>2021-11-21T12:04:01Z</time>
      </trkpt>
      <trkpt lat="45.24404" lon="5.76151">
        <ele>847.4</ele>
        <time>2021-11-21T12:04:02Z</time>
      </trkpt>
      <trkpt lat="45.24402" lon="5.76131">
        <ele>846.2</ele>
        <time>2021-11-21T12:04:03Z</time>
      </trkpt>
      <trkpt lat="45.244" lon="5.76112">
        <ele>845.2</ele>
        <time>2021-11-21T12:04:04Z</time>
      </trkpt>
      <trkpt lat="45.24398" lon="5.76093">
        <ele>843.8</ele>
        <time>2021-11-21T12:04:05Z</time>
      </trkpt>
      <trkpt lat="45.24396" lon="5.76073">
        <ele>842.6</ele>
        <time>2021-11-21T12:04:06Z</time>
      </trkpt>
      <trkpt lat="45.24394" lon="5.76053">
        <ele>841.2</ele>
        <time>2021-11-21T12:04:07Z</time>
      </trkpt>
      <trkpt lat="45.24392" lon="5.76033">
        <ele>839.6</ele>
        <time>2021-11-21T12:04:08Z</time>
      </trkpt>
      <trkpt lat="45.24391" lon="5.76012">
        <ele>838</ele>
        <time>2021-11-21T12:04:09Z</time>
      </trkpt>
      <trkpt lat="45.24389" lon="5.75992">
        <ele>836.8</ele>
        <time>2021-11-21T12:04:10Z</time>
      </trkpt>
      <trkpt lat="45.24386" lon="5.75971">
        <ele>835.4</ele>
        <time>2021-11-21T12:04:11Z</time>
      </trkpt>
      <trkpt lat="45.24383" lon="5.75953">
        <ele>834.2</ele>
        <time>2021-11-21T12:04:12Z</time>
      </trkpt>
      <trkpt lat="45.24381" lon="5.75933">
        <ele>832.8</ele>
        <time>2021-11-21T12:04:13Z</time>
      </trkpt>
      <trkpt lat="45.2438" lon="5.75914">
        <ele>831.2</ele>
        <time>2021-11-21T12:04:14Z</time>
      </trkpt>
      <trkpt lat="45.24379" lon="5.75895">
        <ele>829.6</ele>
        <time>2021-11-21T12:04:15Z</time>
      </trkpt>
      <trkpt lat="45.24378" lon="5.75876">
        <ele>828.4</ele>
        <time>2021-11-21T12:04:16Z</time>
      </trkpt>
      <trkpt lat="45.24375" lon="5.75858">
        <ele>827.2</ele>
        <time>2021-11-21T12:04:17Z</time>
      </trkpt>
      <trkpt lat="45.2437" lon="5.75842">
        <ele>825.8</ele>
        <time>2021-11-21T12:04:18Z</time>
      </trkpt>
      <trkpt lat="45.24361" lon="5.75828">
        <ele>823.8</ele>
        <time>2021-11-21T12:04:19Z</time>
      </trkpt>
      <trkpt lat="45.24352" lon="5.75816">
        <ele>822.4</ele>
        <time>2021-11-21T12:04:20Z</time>
      </trkpt>
      <trkpt lat="45.24342" lon="5.75804">
        <ele>820.8</ele>
        <time>2021-11-21T12:04:21Z</time>
      </trkpt>
      <trkpt lat="45.24333" lon="5.75793">
        <ele>818.8</ele>
        <time>2021-11-21T12:04:22Z</time>
      </trkpt>
      <trkpt lat="45.24326" lon="5.7578">
        <ele>817.6</ele>
        <time>2021-11-21T12:04:23Z</time>
      </trkpt>
      <trkpt lat="45.2432" lon="5.75766">
        <ele>816.2</ele>
        <time>2021-11-21T12:04:24Z</time>
      </trkpt>
      <trkpt lat="45.24315" lon="5.75752">
        <ele>814.2</ele>
        <time>2021-11-21T12:04:25Z</time>
      </trkpt>
      <trkpt lat="45.24308" lon="5.75738">
        <ele>812.4</ele>
        <time>2021-11-21T12:04:26Z</time>
      </trkpt>
      <trkpt lat="45.243" lon="5.75727">
        <ele>810</ele>
        <time>2021-11-21T12:04:27Z</time>
      </trkpt>
      <trkpt lat="45.24291" lon="5.75718">
        <ele>808.2</ele>
        <time>2021-11-21T12:04:28Z</time>
      </trkpt>
      <trkpt lat="45.24281" lon="5.75711">
        <ele>807</ele>
        <time>2021-11-21T12:04:29Z</time>
      </trkpt>
      <trkpt lat="45.24272" lon="5.75702">
        <ele>805.8</ele>
        <time>2021-11-21T12:04:30Z</time>
      </trkpt>
      <trkpt lat="45.24263" lon="5.75691">
        <ele>805.4</ele>
        <time>2021-11-21T12:04:31Z</time>
      </trkpt>
      <trkpt lat="45.24255" lon="5.7568">
        <ele>804.8</ele>
        <time>2021-11-21T12:04:32Z</time>
      </trkpt>
      <trkpt lat="45.24248" lon="5.75667">
        <ele>804</ele>
        <time>2021-11-21T12:04:33Z</time>
      </trkpt>
      <trkpt lat="45.24241" lon="5.75654">
        <ele>803.6</ele>
        <time>2021-11-21T12:04:34Z</time>
      </trkpt>
      <trkpt lat="45.24235" lon="5.75641">
        <ele>802.8</ele>
        <time>2021-11-21T12:04:35Z</time>
      </trkpt>
      <trkpt lat="45.24228" lon="5.75627">
        <ele>802.2</ele>
        <time>2021-11-21T12:04:36Z</time>
      </trkpt>
      <trkpt lat="45.24222" lon="5.75614">
        <ele>801.6</ele>
        <time>2021-11-21T12:04:37Z</time>
      </trkpt>
      <trkpt lat="45.24217" lon="5.75599">
        <ele>800.8</ele>
        <time>2021-11-21T12:04:38Z</time>
      </trkpt>
      <trkpt lat="45.24214" lon="5.75583">
        <ele>800</ele>
        <time>2021-11-21T12:04:39Z</time>
      </trkpt>
      <trkpt lat="45.24213" lon="5.75566">
        <ele>799</ele>
        <time>2021-11-21T12:04:40Z</time>
      </trkpt>
      <trkpt lat="45.24212" lon="5.75549">
        <ele>798.2</ele>
        <time>2021-11-21T12:04:41Z</time>
      </trkpt>
      <trkpt lat="45.24209" lon="5.75532">
        <ele>797.2</ele>
        <time>2021-11-21T12:04:42Z</time>
      </trkpt>
      <trkpt lat="45.24205" lon="5.75517">
        <ele>796.2</ele>
        <time>2021-11-21T12:04:43Z</time>
      </trkpt>
      <trkpt lat="45.242" lon="5.75502">
        <ele>795.6</ele>
        <time>2021-11-21T12:04:44Z</time>
      </trkpt>
      <trkpt lat="45.24195" lon="5.75486">
        <ele>795</ele>
        <time>2021-11-21T12:04:45Z</time>
      </trkpt>
      <trkpt lat="45.24191" lon="5.75471">
        <ele>794.8</ele>
        <time>2021-11-21T12:04:46Z</time>
      </trkpt>
      <trkpt lat="45.24186" lon="5.75456">
        <ele>794.2</ele>
        <time>2021-11-21T12:04:47Z</time>
      </trkpt>
      <trkpt lat="45.24181" lon="5.75441">
        <ele>793.4</ele>
        <time>2021-11-21T12:04:48Z</time>
      </trkpt>
      <trkpt lat="45.24176" lon="5.75427">
        <ele>792.4</ele>
        <time>2021-11-21T12:04:49Z</time>
      </trkpt>
      <trkpt lat="45.2417" lon="5.75413">
        <ele>791.4</ele>
        <time>2021-11-21T12:04:50Z</time>
      </trkpt>
      <trkpt lat="45.24163" lon="5.754">
        <ele>790.2</ele>
        <time>2021-11-21T12:04:51Z</time>
      </trkpt>
      <trkpt lat="45.24156" lon="5.75388">
        <ele>789.2</ele>
        <time>2021-11-21T12:04:52Z</time>
      </trkpt>
      <trkpt lat="45.24148" lon="5.75376">
        <ele>788.2</ele>
        <time>2021-11-21T12:04:53Z</time>
      </trkpt>
      <trkpt lat="45.24139" lon="5.75366">
        <ele>787.4</ele>
        <time>2021-11-21T12:04:54Z</time>
      </trkpt>
      <trkpt lat="45.2413" lon="5.75355">
        <ele>786.4</ele>
        <time>2021-11-21T12:04:55Z</time>
      </trkpt>
      <trkpt lat="45.24119" lon="5.75346">
        <ele>785.6</ele>
        <time>2021-11-21T12:04:56Z</time>
      </trkpt>
      <trkpt lat="45.24108" lon="5.75339">
        <ele>785</ele>
        <time>2021-11-21T12:04:57Z</time>
      </trkpt>
      <trkpt lat="45.24096" lon="5.75334">
        <ele>784</ele>
        <time>2021-11-21T12:04:58Z</time>
      </trkpt>
      <trkpt lat="45.24084" lon="5.7533">
        <ele>783.4</ele>
        <time>2021-11-21T12:04:59Z</time>
      </trkpt>
      <trkpt lat="45.24072" lon="5.75326">
        <ele>782.4</ele>
        <time>2021-11-21T12:05:00Z</time>
      </trkpt>
      <trkpt lat="45.24061" lon="5.75322">
        <ele>781.4</ele>
        <time>2021-11-21T12:05:01Z</time>
      </trkpt>
      <trkpt lat="45.24049" lon="5.75317">
        <ele>780.6</ele>
        <time>2021-11-21T12:05:02Z</time>
      </trkpt>
      <trkpt lat="45.24038" lon="5.75311">
        <ele>779.6</ele>
        <time>2021-11-21T12:05:03Z</time>
      </trkpt>
      <trkpt lat="45.24027" lon="5.75305">
        <ele>778.2</ele>
        <time>2021-11-21T12:05:04Z</time>
      </trkpt>
      <trkpt lat="45.24017" lon="5.75298">
        <ele>777.4</ele>
        <time>2021-11-21T12:05:05Z</time>
      </trkpt>
      <trkpt lat="45.24007" lon="5.75292">
        <ele>776</ele>
        <time>2021-11-21T12:05:06Z</time>
      </trkpt>
      <trkpt lat="45.23997" lon="5.75285">
        <ele>774.8</ele>
        <time>2021-11-21T12:05:07Z</time>
      </trkpt>
      <trkpt lat="45.23988" lon="5.75279">
        <ele>774</ele>
        <time>2021-11-21T12:05:08Z</time>
      </trkpt>
      <trkpt lat="45.23978" lon="5.75273">
        <ele>772.8</ele>
        <time>2021-11-21T12:05:09Z</time>
      </trkpt>
      <trkpt lat="45.23969" lon="5.75267">
        <ele>771</ele>
        <time>2021-11-21T12:05:10Z</time>
      </trkpt>
      <trkpt lat="45.2396" lon="5.75261">
        <ele>769.8</ele>
        <time>2021-11-21T12:05:11Z</time>
      </trkpt>
      <trkpt lat="45.23951" lon="5.75255">
        <ele>768.8</ele>
        <time>2021-11-21T12:05:12Z</time>
      </trkpt>
      <trkpt lat="45.23943" lon="5.75249">
        <ele>768</ele>
        <time>2021-11-21T12:05:13Z</time>
      </trkpt>
      <trkpt lat="45.23934" lon="5.75243">
        <ele>767.4</ele>
        <time>2021-11-21T12:05:14Z</time>
      </trkpt>
      <trkpt lat="45.23926" lon="5.75237">
        <ele>766.8</ele>
        <time>2021-11-21T12:05:15Z</time>
      </trkpt>
      <trkpt lat="45.23916" lon="5.75231">
        <ele>766.4</ele>
        <time>2021-11-21T12:05:16Z</time>
      </trkpt>
      <trkpt lat="45.23907" lon="5.75225">
        <ele>766.2</ele>
        <time>2021-11-21T12:05:17Z</time>
      </trkpt>
      <trkpt lat="45.23899" lon="5.7522">
        <ele>765.8</ele>
        <time>2021-11-21T12:05:18Z</time>
      </trkpt>
      <trkpt lat="45.23889" lon="5.75214">
        <ele>765.8</ele>
        <time>2021-11-21T12:05:19Z</time>
      </trkpt>
      <trkpt lat="45.23881" lon="5.75208">
        <ele>765.6</ele>
        <time>2021-11-21T12:05:20Z</time>
      </trkpt>
      <trkpt lat="45.23872" lon="5.75203">
        <ele>765.2</ele>
        <time>2021-11-21T12:05:21Z</time>
      </trkpt>
      <trkpt lat="45.23862" lon="5.75197">
        <ele>764.8</ele>
        <time>2021-11-21T12:05:22Z</time>
      </trkpt>
      <trkpt lat="45.23853" lon="5.75193">
        <ele>764.6</ele>
        <time>2021-11-21T12:05:23Z</time>
      </trkpt>
      <trkpt lat="45.23843" lon="5.75188">
        <ele>764.6</ele>
        <time>2021-11-21T12:05:24Z</time>
      </trkpt>
      <trkpt lat="45.23834" lon="5.75183">
        <ele>764.6</ele>
        <time>2021-11-21T12:05:25Z</time>
      </trkpt>
      <trkpt lat="45.23825" lon="5.75179">
        <ele>764.2</ele>
        <time>2021-11-21T12:05:26Z</time>
      </trkpt>
      <trkpt lat="45.23816" lon="5.75175">
        <ele>764</ele>
        <time>2021-11-21T12:05:27Z</time>
      </trkpt>
      <trkpt lat="45.23806" lon="5.75171">
        <ele>763.6</ele>
        <time>2021-11-21T12:05:28Z</time>
      </trkpt>
      <trkpt lat="45.23797" lon="5.75168">
        <ele>763.4</ele>
        <time>2021-11-21T12:05:29Z</time>
      </trkpt>
      <trkpt lat="45.23787" lon="5.75164">
        <ele>763</ele>
        <time>2021-11-21T12:05:30Z</time>
      </trkpt>
      <trkpt lat="45.23778" lon="5.75161">
        <ele>762.8</ele>
        <time>2021-11-21T12:05:31Z</time>
      </trkpt>
      <trkpt lat="45.23769" lon="5.75157">
        <ele>762.4</ele>
        <time>2021-11-21T12:05:32Z</time>
      </trkpt>
      <trkpt lat="45.2376" lon="5.75152">
        <ele>762.4</ele>
        <time>2021-11-21T12:05:33Z</time>
      </trkpt>
      <trkpt lat="45.23751" lon="5.75147">
        <ele>762.2</ele>
        <time>2021-11-21T12:05:34Z</time>
      </trkpt>
      <trkpt lat="45.23742" lon="5.75142">
        <ele>762.2</ele>
        <time>2021-11-21T12:05:35Z</time>
      </trkpt>
      <trkpt lat="45.23733" lon="5.75138">
        <ele>761.6</ele>
        <time>2021-11-21T12:05:36Z</time>
      </trkpt>
      <trkpt lat="45.23724" lon="5.75134">
        <ele>761.6</ele>
        <time>2021-11-21T12:05:37Z</time>
      </trkpt>
      <trkpt lat="45.23715" lon="5.75131">
        <ele>761.4</ele>
        <time>2021-11-21T12:05:38Z</time>
      </trkpt>
      <trkpt lat="45.23706" lon="5.75129">
        <ele>761.2</ele>
        <time>2021-11-21T12:05:39Z</time>
      </trkpt>
      <trkpt lat="45.23696" lon="5.75127">
        <ele>761</ele>
        <time>2021-11-21T12:05:40Z</time>
      </trkpt>
      <trkpt lat="45.23687" lon="5.75126">
        <ele>761</ele>
        <time>2021-11-21T12:05:41Z</time>
      </trkpt>
      <trkpt lat="45.23677" lon="5.75126">
        <ele>760.6</ele>
        <time>2021-11-21T12:05:42Z</time>
      </trkpt>
      <trkpt lat="45.23668" lon="5.75126">
        <ele>760.4</ele>
        <time>2021-11-21T12:05:43Z</time>
      </trkpt>
      <trkpt lat="45.23658" lon="5.75126">
        <ele>760.2</ele>
        <time>2021-11-21T12:05:44Z</time>
      </trkpt>
      <trkpt lat="45.23647" lon="5.75125">
        <ele>759.8</ele>
        <time>2021-11-21T12:05:45Z</time>
      </trkpt>
      <trkpt lat="45.23637" lon="5.75124">
        <ele>759.8</ele>
        <time>2021-11-21T12:05:46Z</time>
      </trkpt>
      <trkpt lat="45.23626" lon="5.75122">
        <ele>759.6</ele>
        <time>2021-11-21T12:05:47Z</time>
      </trkpt>
      <trkpt lat="45.23615" lon="5.75119">
        <ele>759.6</ele>
        <time>2021-11-21T12:05:48Z</time>
      </trkpt>
      <trkpt lat="45.23605" lon="5.75116">
        <ele>759.4</ele>
        <time>2021-11-21T12:05:49Z</time>
      </trkpt>
      <trkpt lat="45.23595" lon="5.75112">
        <ele>759.2</ele>
        <time>2021-11-21T12:05:50Z</time>
      </trkpt>
      <trkpt lat="45.23585" lon="5.75108">
        <ele>759.4</ele>
        <time>2021-11-21T12:05:51Z</time>
      </trkpt>
      <trkpt lat="45.23575" lon="5.75103">
        <ele>759.4</ele>
        <time>2021-11-21T12:05:52Z</time>
      </trkpt>
      <trkpt lat="45.23565" lon="5.75098">
        <ele>759</ele>
        <time>2021-11-21T12:05:53Z</time>
      </trkpt>
      <trkpt lat="45.23555" lon="5.75093">
        <ele>758.6</ele>
        <time>2021-11-21T12:05:54Z</time>
      </trkpt>
      <trkpt lat="45.23546" lon="5.75088">
        <ele>758.2</ele>
        <time>2021-11-21T12:05:55Z</time>
      </trkpt>
      <trkpt lat="45.23536" lon="5.75084">
        <ele>757.8</ele>
        <time>2021-11-21T12:05:56Z</time>
      </trkpt>
      <trkpt lat="45.23526" lon="5.75081">
        <ele>757.4</ele>
        <time>2021-11-21T12:05:57Z</time>
      </trkpt>
      <trkpt lat="45.23516" lon="5.7508">
        <ele>757</ele>
        <time>2021-11-21T12:05:58Z</time>
      </trkpt>
      <trkpt lat="45.23505" lon="5.75081">
        <ele>756.4</ele>
        <time>2021-11-21T12:05:59Z</time>
      </trkpt>
      <trkpt lat="45.23495" lon="5.75084">
        <ele>756.2</ele>
        <time>2021-11-21T12:06:00Z</time>
      </trkpt>
      <trkpt lat="45.23484" lon="5.75088">
        <ele>756</ele>
        <time>2021-11-21T12:06:01Z</time>
      </trkpt>
      <trkpt lat="45.23474" lon="5.75092">
        <ele>755.4</ele>
        <time>2021-11-21T12:06:02Z</time>
      </trkpt>
      <trkpt lat="45.23463" lon="5.75096">
        <ele>755.2</ele>
        <time>2021-11-21T12:06:03Z</time>
      </trkpt>
      <trkpt lat="45.23453" lon="5.751">
        <ele>755</ele>
        <time>2021-11-21T12:06:04Z</time>
      </trkpt>
      <trkpt lat="45.23443" lon="5.75104">
        <ele>754.4</ele>
        <time>2021-11-21T12:06:05Z</time>
      </trkpt>
      <trkpt lat="45.23432" lon="5.75107">
        <ele>754</ele>
        <time>2021-11-21T12:06:06Z</time>
      </trkpt>
      <trkpt lat="45.23421" lon="5.7511">
        <ele>753.4</ele>
        <time>2021-11-21T12:06:07Z</time>
      </trkpt>
      <trkpt lat="45.23411" lon="5.75112">
        <ele>753</ele>
        <time>2021-11-21T12:06:08Z</time>
      </trkpt>
      <trkpt lat="45.234" lon="5.75111">
        <ele>752.2</ele>
        <time>2021-11-21T12:06:09Z</time>
      </trkpt>
      <trkpt lat="45.23389" lon="5.7511">
        <ele>751.6</ele>
        <time>2021-11-21T12:06:10Z</time>
      </trkpt>
      <trkpt lat="45.23378" lon="5.75108">
        <ele>750.8</ele>
        <time>2021-11-21T12:06:11Z</time>
      </trkpt>
      <trkpt lat="45.23367" lon="5.75107">
        <ele>749.2</ele>
        <time>2021-11-21T12:06:12Z</time>
      </trkpt>
      <trkpt lat="45.23355" lon="5.75106">
        <ele>748.2</ele>
        <time>2021-11-21T12:06:13Z</time>
      </trkpt>
      <trkpt lat="45.23343" lon="5.75106">
        <ele>747.4</ele>
        <time>2021-11-21T12:06:14Z</time>
      </trkpt>
      <trkpt lat="45.23331" lon="5.75107">
        <ele>746.8</ele>
        <time>2021-11-21T12:06:15Z</time>
      </trkpt>
      <trkpt lat="45.23319" lon="5.75109">
        <ele>746.4</ele>
        <time>2021-11-21T12:06:16Z</time>
      </trkpt>
      <trkpt lat="45.23306" lon="5.7511">
        <ele>746</ele>
        <time>2021-11-21T12:06:17Z</time>
      </trkpt>
      <trkpt lat="45.23293" lon="5.7511">
        <ele>745.8</ele>
        <time>2021-11-21T12:06:18Z</time>
      </trkpt>
      <trkpt lat="45.2328" lon="5.7511">
        <ele>745.6</ele>
        <time>2021-11-21T12:06:19Z</time>
      </trkpt>
      <trkpt lat="45.23268" lon="5.75109">
        <ele>745.4</ele>
        <time>2021-11-21T12:06:20Z</time>
      </trkpt>
      <trkpt lat="45.23256" lon="5.75109">
        <ele>745</ele>
        <time>2021-11-21T12:06:21Z</time>
      </trkpt>
      <trkpt lat="45.23243" lon="5.75109">
        <ele>744</ele>
        <time>2021-11-21T12:06:22Z</time>
      </trkpt>
      <trkpt lat="45.23229" lon="5.75109">
        <ele>743.2</ele>
        <time>2021-11-21T12:06:23Z</time>
      </trkpt>
      <trkpt lat="45.23216" lon="5.75108">
        <ele>742.4</ele>
        <time>2021-11-21T12:06:24Z</time>
      </trkpt>
      <trkpt lat="45.23203" lon="5.75108">
        <ele>741.4</ele>
        <time>2021-11-21T12:06:25Z</time>
      </trkpt>
      <trkpt lat="45.23189" lon="5.7511">
        <ele>739.8</ele>
        <time>2021-11-21T12:06:26Z</time>
      </trkpt>
      <trkpt lat="45.23176" lon="5.75112">
        <ele>738.4</ele>
        <time>2021-11-21T12:06:27Z</time>
      </trkpt>
      <trkpt lat="45.23163" lon="5.75117">
        <ele>737.4</ele>
        <time>2021-11-21T12:06:28Z</time>
      </trkpt>
      <trkpt lat="45.2315" lon="5.75125">
        <ele>736.4</ele>
        <time>2021-11-21T12:06:29Z</time>
      </trkpt>
      <trkpt lat="45.23138" lon="5.75134">
        <ele>734.4</ele>
        <time>2021-11-21T12:06:30Z</time>
      </trkpt>
      <trkpt lat="45.23127" lon="5.75146">
        <ele>732.6</ele>
        <time>2021-11-21T12:06:31Z</time>
      </trkpt>
      <trkpt lat="45.23116" lon="5.75158">
        <ele>730.8</ele>
        <time>2021-11-21T12:06:32Z</time>
      </trkpt>
      <trkpt lat="45.23106" lon="5.75171">
        <ele>729.6</ele>
        <time>2021-11-21T12:06:33Z</time>
      </trkpt>
      <trkpt lat="45.23095" lon="5.75182">
        <ele>729.4</ele>
        <time>2021-11-21T12:06:34Z</time>
      </trkpt>
      <trkpt lat="45.23085" lon="5.75195">
        <ele>728.6</ele>
        <time>2021-11-21T12:06:35Z</time>
      </trkpt>
      <trkpt lat="45.23077" lon="5.75208">
        <ele>727.6</ele>
        <time>2021-11-21T12:06:36Z</time>
      </trkpt>
      <trkpt lat="45.2307" lon="5.75223">
        <ele>726.6</ele>
        <time>2021-11-21T12:06:37Z</time>
      </trkpt>
      <trkpt lat="45.23064" lon="5.75238">
        <ele>725.8</ele>
        <time>2021-11-21T12:06:38Z</time>
      </trkpt>
      <trkpt lat="45.23056" lon="5.75252">
        <ele>724.4</ele>
        <time>2021-11-21T12:06:39Z</time>
      </trkpt>
      <trkpt lat="45.23047" lon="5.75263">
        <ele>723.2</ele>
        <time>2021-11-21T12:06:40Z</time>
      </trkpt>
      <trkpt lat="45.23038" lon="5.75272">
        <ele>722</ele>
        <time>2021-11-21T12:06:41Z</time>
      </trkpt>
      <trkpt lat="45.23031" lon="5.7528">
        <ele>720.6</ele>
        <time>2021-11-21T12:06:42Z</time>
      </trkpt>
      <trkpt lat="45.23027" lon="5.7529">
        <ele>719.4</ele>
        <time>2021-11-21T12:06:43Z</time>
      </trkpt>
      <trkpt lat="45.23025" lon="5.75303">
        <ele>717.8</ele>
        <time>2021-11-21T12:06:44Z</time>
      </trkpt>
      <trkpt lat="45.23027" lon="5.75317">
        <ele>716.6</ele>
        <time>2021-11-21T12:06:45Z</time>
      </trkpt>
      <trkpt lat="45.2303" lon="5.75331">
        <ele>715.4</ele>
        <time>2021-11-21T12:06:46Z</time>
      </trkpt>
      <trkpt lat="45.23034" lon="5.75346">
        <ele>714</ele>
        <time>2021-11-21T12:06:47Z</time>
      </trkpt>
      <trkpt lat="45.23037" lon="5.75362">
        <ele>713</ele>
        <time>2021-11-21T12:06:48Z</time>
      </trkpt>
      <trkpt lat="45.23039" lon="5.75379">
        <ele>711.6</ele>
        <time>2021-11-21T12:06:49Z</time>
      </trkpt>
      <trkpt lat="45.23039" lon="5.75397">
        <ele>710.2</ele>
        <time>2021-11-21T12:06:50Z</time>
      </trkpt>
      <trkpt lat="45.23036" lon="5.75414">
        <ele>709</ele>
        <time>2021-11-21T12:06:51Z</time>
      </trkpt>
      <trkpt lat="45.2303" lon="5.7543">
        <ele>708</ele>
        <time>2021-11-21T12:06:52Z</time>
      </trkpt>
      <trkpt lat="45.23022" lon="5.75444">
        <ele>707</ele>
        <time>2021-11-21T12:06:53Z</time>
      </trkpt>
      <trkpt lat="45.23011" lon="5.75454">
        <ele>706</ele>
        <time>2021-11-21T12:06:54Z</time>
      </trkpt>
      <trkpt lat="45.22999" lon="5.75462">
        <ele>705.2</ele>
        <time>2021-11-21T12:06:55Z</time>
      </trkpt>
      <trkpt lat="45.22987" lon="5.75466">
        <ele>704.2</ele>
        <time>2021-11-21T12:06:56Z</time>
      </trkpt>
      <trkpt lat="45.22973" lon="5.75467">
        <ele>702.6</ele>
        <time>2021-11-21T12:06:57Z</time>
      </trkpt>
      <trkpt lat="45.22961" lon="5.75467">
        <ele>701.2</ele>
        <time>2021-11-21T12:06:58Z</time>
      </trkpt>
      <trkpt lat="45.2295" lon="5.75468">
        <ele>700.2</ele>
        <time>2021-11-21T12:06:59Z</time>
      </trkpt>
      <trkpt lat="45.2294" lon="5.75471">
        <ele>699.4</ele>
        <time>2021-11-21T12:07:00Z</time>
      </trkpt>
      <trkpt lat="45.22932" lon="5.75477">
        <ele>698.2</ele>
        <time>2021-11-21T12:07:01Z</time>
      </trkpt>
      <trkpt lat="45.22928" lon="5.75488">
        <ele>697.2</ele>
        <time>2021-11-21T12:07:02Z</time>
      </trkpt>
      <trkpt lat="45.22927" lon="5.75502">
        <ele>695.8</ele>
        <time>2021-11-21T12:07:03Z</time>
      </trkpt>
      <trkpt lat="45.22928" lon="5.75516">
        <ele>694.2</ele>
        <time>2021-11-21T12:07:04Z</time>
      </trkpt>
      <trkpt lat="45.22932" lon="5.7553">
        <ele>693.2</ele>
        <time>2021-11-21T12:07:05Z</time>
      </trkpt>
      <trkpt lat="45.22936" lon="5.75544">
        <ele>691.8</ele>
        <time>2021-11-21T12:07:06Z</time>
      </trkpt>
      <trkpt lat="45.2294" lon="5.7556">
        <ele>690.4</ele>
        <time>2021-11-21T12:07:07Z</time>
      </trkpt>
      <trkpt lat="45.22943" lon="5.75575">
        <ele>688.8</ele>
        <time>2021-11-21T12:07:08Z</time>
      </trkpt>
      <trkpt lat="45.22943" lon="5.75592">
        <ele>687.6</ele>
        <time>2021-11-21T12:07:09Z</time>
      </trkpt>
      <trkpt lat="45.22942" lon="5.75608">
        <ele>686.2</ele>
        <time>2021-11-21T12:07:10Z</time>
      </trkpt>
      <trkpt lat="45.22938" lon="5.75624">
        <ele>684.8</ele>
        <time>2021-11-21T12:07:11Z</time>
      </trkpt>
      <trkpt lat="45.22931" lon="5.75639">
        <ele>683.6</ele>
        <time>2021-11-21T12:07:12Z</time>
      </trkpt>
      <trkpt lat="45.22924" lon="5.75654">
        <ele>682.2</ele>
        <time>2021-11-21T12:07:13Z</time>
      </trkpt>
      <trkpt lat="45.2292" lon="5.7567">
        <ele>681.2</ele>
        <time>2021-11-21T12:07:14Z</time>
      </trkpt>
      <trkpt lat="45.22916" lon="5.75687">
        <ele>680.4</ele>
        <time>2021-11-21T12:07:15Z</time>
      </trkpt>
      <trkpt lat="45.22911" lon="5.75704">
        <ele>679.4</ele>
        <time>2021-11-21T12:07:16Z</time>
      </trkpt>
      <trkpt lat="45.22905" lon="5.7572">
        <ele>678.2</ele>
        <time>2021-11-21T12:07:17Z</time>
      </trkpt>
      <trkpt lat="45.22897" lon="5.75736">
        <ele>677.6</ele>
        <time>2021-11-21T12:07:18Z</time>
      </trkpt>
      <trkpt lat="45.22889" lon="5.75751">
        <ele>676.4</ele>
        <time>2021-11-21T12:07:19Z</time>
      </trkpt>
      <trkpt lat="45.22879" lon="5.75766">
        <ele>675.2</ele>
        <time>2021-11-21T12:07:20Z</time>
      </trkpt>
      <trkpt lat="45.2287" lon="5.7578">
        <ele>674.2</ele>
        <time>2021-11-21T12:07:21Z</time>
      </trkpt>
      <trkpt lat="45.2286" lon="5.75794">
        <ele>673</ele>
        <time>2021-11-21T12:07:22Z</time>
      </trkpt>
      <trkpt lat="45.2285" lon="5.75808">
        <ele>671.4</ele>
        <time>2021-11-21T12:07:23Z</time>
      </trkpt>
      <trkpt lat="45.22839" lon="5.7582">
        <ele>670</ele>
        <time>2021-11-21T12:07:24Z</time>
      </trkpt>
      <trkpt lat="45.22827" lon="5.7583">
        <ele>669</ele>
        <time>2021-11-21T12:07:25Z</time>
      </trkpt>
      <trkpt lat="45.22815" lon="5.75838">
        <ele>667.8</ele>
        <time>2021-11-21T12:07:26Z</time>
      </trkpt>
      <trkpt lat="45.22802" lon="5.75845">
        <ele>666.4</ele>
        <time>2021-11-21T12:07:27Z</time>
      </trkpt>
      <trkpt lat="45.22789" lon="5.75851">
        <ele>665</ele>
        <time>2021-11-21T12:07:28Z</time>
      </trkpt>
      <trkpt lat="45.22777" lon="5.75858">
        <ele>663.8</ele>
        <time>2021-11-21T12:07:29Z</time>
      </trkpt>
      <trkpt lat="45.22765" lon="5.75865">
        <ele>662.6</ele>
        <time>2021-11-21T12:07:30Z</time>
      </trkpt>
      <trkpt lat="45.22752" lon="5.75872">
        <ele>660.6</ele>
        <time>2021-11-21T12:07:31Z</time>
      </trkpt>
      <trkpt lat="45.22739" lon="5.75877">
        <ele>659</ele>
        <time>2021-11-21T12:07:32Z</time>
      </trkpt>
      <trkpt lat="45.22726" lon="5.75882">
        <ele>657.4</ele>
        <time>2021-11-21T12:07:33Z</time>
      </trkpt>
      <trkpt lat="45.22712" lon="5.75885">
        <ele>655.8</ele>
        <time>2021-11-21T12:07:34Z</time>
      </trkpt>
      <trkpt lat="45.22698" lon="5.75886">
        <ele>654</ele>
        <time>2021-11-21T12:07:35Z</time>
      </trkpt>
      <trkpt lat="45.22685" lon="5.75886">
        <ele>653</ele>
        <time>2021-11-21T12:07:36Z</time>
      </trkpt>
      <trkpt lat="45.22672" lon="5.75886">
        <ele>652.2</ele>
        <time>2021-11-21T12:07:37Z</time>
      </trkpt>
      <trkpt lat="45.22659" lon="5.75887">
        <ele>651</ele>
        <time>2021-11-21T12:07:38Z</time>
      </trkpt>
      <trkpt lat="45.22647" lon="5.75891">
        <ele>649.6</ele>
        <time>2021-11-21T12:07:39Z</time>
      </trkpt>
      <trkpt lat="45.22636" lon="5.75898">
        <ele>648.2</ele>
        <time>2021-11-21T12:07:40Z</time>
      </trkpt>
      <trkpt lat="45.22627" lon="5.75908">
        <ele>646.8</ele>
        <time>2021-11-21T12:07:41Z</time>
      </trkpt>
      <trkpt lat="45.2262" lon="5.7592">
        <ele>645.8</ele>
        <time>2021-11-21T12:07:42Z</time>
      </trkpt>
      <trkpt lat="45.22614" lon="5.75935">
        <ele>644.4</ele>
        <time>2021-11-21T12:07:43Z</time>
      </trkpt>
      <trkpt lat="45.22612" lon="5.75951">
        <ele>643</ele>
        <time>2021-11-21T12:07:44Z</time>
      </trkpt>
      <trkpt lat="45.22611" lon="5.75969">
        <ele>641.6</ele>
        <time>2021-11-21T12:07:45Z</time>
      </trkpt>
      <trkpt lat="45.22611" lon="5.75988">
        <ele>640.2</ele>
        <time>2021-11-21T12:07:46Z</time>
      </trkpt>
      <trkpt lat="45.2261" lon="5.76007">
        <ele>639</ele>
        <time>2021-11-21T12:07:47Z</time>
      </trkpt>
      <trkpt lat="45.22608" lon="5.76025">
        <ele>637.6</ele>
        <time>2021-11-21T12:07:48Z</time>
      </trkpt>
      <trkpt lat="45.22604" lon="5.76043">
        <ele>636.2</ele>
        <time>2021-11-21T12:07:49Z</time>
      </trkpt>
      <trkpt lat="45.22598" lon="5.7606">
        <ele>634.8</ele>
        <time>2021-11-21T12:07:50Z</time>
      </trkpt>
      <trkpt lat="45.22589" lon="5.76074">
        <ele>633.4</ele>
        <time>2021-11-21T12:07:51Z</time>
      </trkpt>
      <trkpt lat="45.22579" lon="5.76088">
        <ele>632.2</ele>
        <time>2021-11-21T12:07:52Z</time>
      </trkpt>
      <trkpt lat="45.22569" lon="5.76101">
        <ele>630.8</ele>
        <time>2021-11-21T12:07:53Z</time>
      </trkpt>
      <trkpt lat="45.22557" lon="5.76112">
        <ele>629.6</ele>
        <time>2021-11-21T12:07:54Z</time>
      </trkpt>
      <trkpt lat="45.22544" lon="5.76123">
        <ele>628</ele>
        <time>2021-11-21T12:07:55Z</time>
      </trkpt>
      <trkpt lat="45.22533" lon="5.76133">
        <ele>626.8</ele>
        <time>2021-11-21T12:07:56Z</time>
      </trkpt>
      <trkpt lat="45.22521" lon="5.76145">
        <ele>625.4</ele>
        <time>2021-11-21T12:07:57Z</time>
      </trkpt>
      <trkpt lat="45.22512" lon="5.76157">
        <ele>624</ele>
        <time>2021-11-21T12:07:58Z</time>
      </trkpt>
      <trkpt lat="45.22504" lon="5.76172">
        <ele>622.8</ele>
        <time>2021-11-21T12:07:59Z</time>
      </trkpt>
      <trkpt lat="45.22498" lon="5.76189">
        <ele>621.4</ele>
        <time>2021-11-21T12:08:00Z</time>
      </trkpt>
      <trkpt lat="45.22494" lon="5.76208">
        <ele>620.2</ele>
        <time>2021-11-21T12:08:01Z</time>
      </trkpt>
      <trkpt lat="45.22492" lon="5.76227">
        <ele>618.2</ele>
        <time>2021-11-21T12:08:02Z</time>
      </trkpt>
      <trkpt lat="45.2249" lon="5.76246">
        <ele>616.8</ele>
        <time>2021-11-21T12:08:03Z</time>
      </trkpt>
      <trkpt lat="45.22489" lon="5.76265">
        <ele>615.2</ele>
        <time>2021-11-21T12:08:04Z</time>
      </trkpt>
      <trkpt lat="45.22488" lon="5.76284">
        <ele>614</ele>
        <time>2021-11-21T12:08:05Z</time>
      </trkpt>
      <trkpt lat="45.22489" lon="5.76304">
        <ele>612.8</ele>
        <time>2021-11-21T12:08:06Z</time>
      </trkpt>
      <trkpt lat="45.2249" lon="5.76322">
        <ele>611.8</ele>
        <time>2021-11-21T12:08:07Z</time>
      </trkpt>
      <trkpt lat="45.22493" lon="5.76341">
        <ele>610.6</ele>
        <time>2021-11-21T12:08:08Z</time>
      </trkpt>
      <trkpt lat="45.22496" lon="5.76359">
        <ele>609.4</ele>
        <time>2021-11-21T12:08:09Z</time>
      </trkpt>
      <trkpt lat="45.22501" lon="5.76377">
        <ele>607.6</ele>
        <time>2021-11-21T12:08:10Z</time>
      </trkpt>
      <trkpt lat="45.22506" lon="5.76394">
        <ele>606</ele>
        <time>2021-11-21T12:08:11Z</time>
      </trkpt>
      <trkpt lat="45.2251" lon="5.76413">
        <ele>604.6</ele>
        <time>2021-11-21T12:08:12Z</time>
      </trkpt>
      <trkpt lat="45.22514" lon="5.76431">
        <ele>603.2</ele>
        <time>2021-11-21T12:08:13Z</time>
      </trkpt>
      <trkpt lat="45.22518" lon="5.7645">
        <ele>601.6</ele>
        <time>2021-11-21T12:08:14Z</time>
      </trkpt>
      <trkpt lat="45.22525" lon="5.76467">
        <ele>599.8</ele>
        <time>2021-11-21T12:08:15Z</time>
      </trkpt>
      <trkpt lat="45.22533" lon="5.76482">
        <ele>598.6</ele>
        <time>2021-11-21T12:08:16Z</time>
      </trkpt>
      <trkpt lat="45.22543" lon="5.76494">
        <ele>597.6</ele>
        <time>2021-11-21T12:08:17Z</time>
      </trkpt>
      <trkpt lat="45.22555" lon="5.76503">
        <ele>595.8</ele>
        <time>2021-11-21T12:08:18Z</time>
      </trkpt>
      <trkpt lat="45.22567" lon="5.76512">
        <ele>594.4</ele>
        <time>2021-11-21T12:08:19Z</time>
      </trkpt>
      <trkpt lat="45.22579" lon="5.76519">
        <ele>593.2</ele>
        <time>2021-11-21T12:08:20Z</time>
      </trkpt>
      <trkpt lat="45.22592" lon="5.76526">
        <ele>592.2</ele>
        <time>2021-11-21T12:08:21Z</time>
      </trkpt>
      <trkpt lat="45.22604" lon="5.76532">
        <ele>590.6</ele>
        <time>2021-11-21T12:08:22Z</time>
      </trkpt>
      <trkpt lat="45.22617" lon="5.76536">
        <ele>589</ele>
        <time>2021-11-21T12:08:23Z</time>
      </trkpt>
      <trkpt lat="45.2263" lon="5.76541">
        <ele>587.2</ele>
        <time>2021-11-21T12:08:24Z</time>
      </trkpt>
      <trkpt lat="45.22643" lon="5.76544">
        <ele>585.6</ele>
        <time>2021-11-21T12:08:25Z</time>
      </trkpt>
      <trkpt lat="45.22656" lon="5.76548">
        <ele>584.2</ele>
        <time>2021-11-21T12:08:26Z</time>
      </trkpt>
      <trkpt lat="45.2267" lon="5.76552">
        <ele>582.6</ele>
        <time>2021-11-21T12:08:27Z</time>
      </trkpt>
      <trkpt lat="45.22683" lon="5.76556">
        <ele>581.8</ele>
        <time>2021-11-21T12:08:28Z</time>
      </trkpt>
      <trkpt lat="45.22696" lon="5.7656">
        <ele>580.6</ele>
        <time>2021-11-21T12:08:29Z</time>
      </trkpt>
      <trkpt lat="45.22709" lon="5.76567">
        <ele>579.2</ele>
        <time>2021-11-21T12:08:30Z</time>
      </trkpt>
      <trkpt lat="45.2272" lon="5.76578">
        <ele>577.8</ele>
        <time>2021-11-21T12:08:31Z</time>
      </trkpt>
      <trkpt lat="45.22729" lon="5.76592">
        <ele>576.6</ele>
        <time>2021-11-21T12:08:32Z</time>
      </trkpt>
      <trkpt lat="45.22735" lon="5.76608">
        <ele>574.6</ele>
        <time>2021-11-21T12:08:33Z</time>
      </trkpt>
      <trkpt lat="45.22739" lon="5.76626">
        <ele>573.2</ele>
        <time>2021-11-21T12:08:34Z</time>
      </trkpt>
      <trkpt lat="45.22743" lon="5.76644">
        <ele>571</ele>
        <time>2021-11-21T12:08:35Z</time>
      </trkpt>
      <trkpt lat="45.22747" lon="5.76662">
        <ele>570.2</ele>
        <time>2021-11-21T12:08:36Z</time>
      </trkpt>
      <trkpt lat="45.22752" lon="5.7668">
        <ele>569.4</ele>
        <time>2021-11-21T12:08:37Z</time>
      </trkpt>
      <trkpt lat="45.22756" lon="5.76698">
        <ele>568</ele>
        <time>2021-11-21T12:08:38Z</time>
      </trkpt>
      <trkpt lat="45.22761" lon="5.76716">
        <ele>567</ele>
        <time>2021-11-21T12:08:39Z</time>
      </trkpt>
      <trkpt lat="45.22766" lon="5.76734">
        <ele>565.6</ele>
        <time>2021-11-21T12:08:40Z</time>
      </trkpt>
      <trkpt lat="45.22771" lon="5.76751">
        <ele>564.2</ele>
        <time>2021-11-21T12:08:41Z</time>
      </trkpt>
      <trkpt lat="45.22777" lon="5.76768">
        <ele>562.8</ele>
        <time>2021-11-21T12:08:42Z</time>
      </trkpt>
      <trkpt lat="45.22784" lon="5.76784">
        <ele>561.6</ele>
        <time>2021-11-21T12:08:43Z</time>
      </trkpt>
      <trkpt lat="45.22791" lon="5.76799">
        <ele>560</ele>
        <time>2021-11-21T12:08:44Z</time>
      </trkpt>
      <trkpt lat="45.22798" lon="5.76814">
        <ele>558.6</ele>
        <time>2021-11-21T12:08:45Z</time>
      </trkpt>
      <trkpt lat="45.22806" lon="5.76827">
        <ele>556.8</ele>
        <time>2021-11-21T12:08:46Z</time>
      </trkpt>
      <trkpt lat="45.22813" lon="5.7684">
        <ele>555.6</ele>
        <time>2021-11-21T12:08:47Z</time>
      </trkpt>
      <trkpt lat="45.2282" lon="5.76852">
        <ele>554.6</ele>
        <time>2021-11-21T12:08:48Z</time>
      </trkpt>
      <trkpt lat="45.22824" lon="5.76865">
        <ele>553.6</ele>
        <time>2021-11-21T12:08:49Z</time>
      </trkpt>
      <trkpt lat="45.22825" lon="5.76879">
        <ele>552.6</ele>
        <time>2021-11-21T12:08:50Z</time>
      </trkpt>
      <trkpt lat="45.22823" lon="5.76893">
        <ele>550.8</ele>
        <time>2021-11-21T12:08:51Z</time>
      </trkpt>
      <trkpt lat="45.22818" lon="5.76905">
        <ele>549.4</ele>
        <time>2021-11-21T12:08:52Z</time>
      </trkpt>
      <trkpt lat="45.22812" lon="5.76915">
        <ele>548.4</ele>
        <time>2021-11-21T12:08:53Z</time>
      </trkpt>
      <trkpt lat="45.22804" lon="5.76922">
        <ele>547.4</ele>
        <time>2021-11-21T12:08:54Z</time>
      </trkpt>
      <trkpt lat="45.22794" lon="5.76925">
        <ele>546.6</ele>
        <time>2021-11-21T12:08:55Z</time>
      </trkpt>
      <trkpt lat="45.22783" lon="5.76922">
        <ele>544.8</ele>
        <time>2021-11-21T12:08:56Z</time>
      </trkpt>
      <trkpt lat="45.22772" lon="5.76918">
        <ele>543.6</ele>
        <time>2021-11-21T12:08:57Z</time>
      </trkpt>
      <trkpt lat="45.22761" lon="5.76915">
        <ele>542.6</ele>
        <time>2021-11-21T12:08:58Z</time>
      </trkpt>
      <trkpt lat="45.22749" lon="5.7691">
        <ele>541.6</ele>
        <time>2021-11-21T12:08:59Z</time>
      </trkpt>
      <trkpt lat="45.22739" lon="5.76904">
        <ele>540.4</ele>
        <time>2021-11-21T12:09:00Z</time>
      </trkpt>
      <trkpt lat="45.22729" lon="5.76894">
        <ele>539.2</ele>
        <time>2021-11-21T12:09:01Z</time>
      </trkpt>
      <trkpt lat="45.22722" lon="5.76881">
        <ele>537.8</ele>
        <time>2021-11-21T12:09:02Z</time>
      </trkpt>
      <trkpt lat="45.22714" lon="5.76868">
        <ele>536.8</ele>
        <time>2021-11-21T12:09:03Z</time>
      </trkpt>
      <trkpt lat="45.22705" lon="5.76858">
        <ele>535.6</ele>
        <time>2021-11-21T12:09:04Z</time>
      </trkpt>
      <trkpt lat="45.22695" lon="5.7685">
        <ele>534.8</ele>
        <time>2021-11-21T12:09:05Z</time>
      </trkpt>
      <trkpt lat="45.22684" lon="5.76844">
        <ele>533.2</ele>
        <time>2021-11-21T12:09:06Z</time>
      </trkpt>
      <trkpt lat="45.22673" lon="5.76841">
        <ele>532.2</ele>
        <time>2021-11-21T12:09:07Z</time>
      </trkpt>
      <trkpt lat="45.22662" lon="5.76843">
        <ele>531.2</ele>
        <time>2021-11-21T12:09:08Z</time>
      </trkpt>
      <trkpt lat="45.2265" lon="5.76847">
        <ele>530</ele>
        <time>2021-11-21T12:09:09Z</time>
      </trkpt>
      <trkpt lat="45.22638" lon="5.76852">
        <ele>529</ele>
        <time>2021-11-21T12:09:10Z</time>
      </trkpt>
      <trkpt lat="45.22626" lon="5.76855">
        <ele>527.8</ele>
        <time>2021-11-21T12:09:11Z</time>
      </trkpt>
      <trkpt lat="45.22614" lon="5.76856">
        <ele>526.8</ele>
        <time>2021-11-21T12:09:12Z</time>
      </trkpt>
      <trkpt lat="45.22601" lon="5.76855">
        <ele>525.2</ele>
        <time>2021-11-21T12:09:13Z</time>
      </trkpt>
      <trkpt lat="45.22589" lon="5.76852">
        <ele>524</ele>
        <time>2021-11-21T12:09:14Z</time>
      </trkpt>
      <trkpt lat="45.22576" lon="5.76848">
        <ele>523.2</ele>
        <time>2021-11-21T12:09:15Z</time>
      </trkpt>
      <trkpt lat="45.22564" lon="5.76846">
        <ele>522</ele>
        <time>2021-11-21T12:09:16Z</time>
      </trkpt>
      <trkpt lat="45.22551" lon="5.76843">
        <ele>521</ele>
        <time>2021-11-21T12:09:17Z</time>
      </trkpt>
      <trkpt lat="45.22538" lon="5.7684">
        <ele>520</ele>
        <time>2021-11-21T12:09:18Z</time>
      </trkpt>
      <trkpt lat="45.22526" lon="5.76837">
        <ele>519</ele>
        <time>2021-11-21T12:09:19Z</time>
      </trkpt>
      <trkpt lat="45.22514" lon="5.76833">
        <ele>517.8</ele>
        <time>2021-11-21T12:09:20Z</time>
      </trkpt>
      <trkpt lat="45.22503" lon="5.7683">
        <ele>516.6</ele>
        <time>2021-11-21T12:09:21Z</time>
      </trkpt>
      <trkpt lat="45.22492" lon="5.76827">
        <ele>515.6</ele>
        <time>2021-11-21T12:09:22Z</time>
      </trkpt>
      <trkpt lat="45.22482" lon="5.76822">
        <ele>514.4</ele>
        <time>2021-11-21T12:09:23Z</time>
      </trkpt>
      <trkpt lat="45.22472" lon="5.76818">
        <ele>513</ele>
        <time>2021-11-21T12:09:24Z</time>
      </trkpt>
      <trkpt lat="45.22462" lon="5.76811">
        <ele>512</ele>
        <time>2021-11-21T12:09:25Z</time>
      </trkpt>
      <trkpt lat="45.22453" lon="5.76804">
        <ele>510.6</ele>
        <time>2021-11-21T12:09:26Z</time>
      </trkpt>
      <trkpt lat="45.22443" lon="5.76798">
        <ele>509</ele>
        <time>2021-11-21T12:09:27Z</time>
      </trkpt>
      <trkpt lat="45.22434" lon="5.76793">
        <ele>508</ele>
        <time>2021-11-21T12:09:28Z</time>
      </trkpt>
      <trkpt lat="45.22426" lon="5.76791">
        <ele>506.4</ele>
        <time>2021-11-21T12:09:29Z</time>
      </trkpt>
      <trkpt lat="45.22419" lon="5.76791">
        <ele>505.6</ele>
        <time>2021-11-21T12:09:30Z</time>
      </trkpt>
      <trkpt lat="45.22411" lon="5.76791">
        <ele>504.4</ele>
        <time>2021-11-21T12:09:31Z</time>
      </trkpt>
      <trkpt lat="45.22404" lon="5.76792">
        <ele>503.6</ele>
        <time>2021-11-21T12:09:32Z</time>
      </trkpt>
      <trkpt lat="45.22395" lon="5.76792">
        <ele>502.6</ele>
        <time>2021-11-21T12:09:33Z</time>
      </trkpt>
      <trkpt lat="45.22386" lon="5.7679">
        <ele>501.4</ele>
        <time>2021-11-21T12:09:34Z</time>
      </trkpt>
      <trkpt lat="45.22376" lon="5.76787">
        <ele>500</ele>
        <time>2021-11-21T12:09:35Z</time>
      </trkpt>
      <trkpt lat="45.22366" lon="5.76785">
        <ele>498.8</ele>
        <time>2021-11-21T12:09:36Z</time>
      </trkpt>
      <trkpt lat="45.22356" lon="5.76784">
        <ele>497.4</ele>
        <time>2021-11-21T12:09:37Z</time>
      </trkpt>
      <trkpt lat="45.22345" lon="5.76786">
        <ele>495.8</ele>
        <time>2021-11-21T12:09:38Z</time>
      </trkpt>
      <trkpt lat="45.22334" lon="5.76788">
        <ele>494.8</ele>
        <time>2021-11-21T12:09:39Z</time>
      </trkpt>
      <trkpt lat="45.22323" lon="5.7679">
        <ele>494.2</ele>
        <time>2021-11-21T12:09:40Z</time>
      </trkpt>
      <trkpt lat="45.22312" lon="5.76789">
        <ele>493.2</ele>
        <time>2021-11-21T12:09:41Z</time>
      </trkpt>
      <trkpt lat="45.22302" lon="5.76786">
        <ele>493.2</ele>
        <time>2021-11-21T12:09:42Z</time>
      </trkpt>
      <trkpt lat="45.22294" lon="5.76782">
        <ele>492</ele>
        <time>2021-11-21T12:09:43Z</time>
      </trkpt>
      <trkpt lat="45.22287" lon="5.76776">
        <ele>490.6</ele>
        <time>2021-11-21T12:09:44Z</time>
      </trkpt>
      <trkpt lat="45.22281" lon="5.76768">
        <ele>489.6</ele>
        <time>2021-11-21T12:09:45Z</time>
      </trkpt>
      <trkpt lat="45.22276" lon="5.7676">
        <ele>489.2</ele>
        <time>2021-11-21T12:09:46Z</time>
      </trkpt>
      <trkpt lat="45.22272" lon="5.76749">
        <ele>488.4</ele>
        <time>2021-11-21T12:09:47Z</time>
      </trkpt>
      <trkpt lat="45.22268" lon="5.76737">
        <ele>487</ele>
        <time>2021-11-21T12:09:48Z</time>
      </trkpt>
      <trkpt lat="45.22264" lon="5.76725">
        <ele>486</ele>
        <time>2021-11-21T12:09:49Z</time>
      </trkpt>
      <trkpt lat="45.22261" lon="5.76712">
        <ele>484.6</ele>
        <time>2021-11-21T12:09:50Z</time>
      </trkpt>
      <trkpt lat="45.22256" lon="5.76699">
        <ele>483.6</ele>
        <time>2021-11-21T12:09:51Z</time>
      </trkpt>
      <trkpt lat="45.22252" lon="5.76686">
        <ele>482.8</ele>
        <time>2021-11-21T12:09:52Z</time>
      </trkpt>
      <trkpt lat="45.22247" lon="5.76672">
        <ele>481.8</ele>
        <time>2021-11-21T12:09:53Z</time>
      </trkpt>
      <trkpt lat="45.22242" lon="5.76659">
        <ele>480.8</ele>
        <time>2021-11-21T12:09:54Z</time>
      </trkpt>
      <trkpt lat="45.22236" lon="5.76646">
        <ele>480.2</ele>
        <time>2021-11-21T12:09:55Z</time>
      </trkpt>
      <trkpt lat="45.22229" lon="5.76633">
        <ele>479.6</ele>
        <time>2021-11-21T12:09:56Z</time>
      </trkpt>
      <trkpt lat="45.22223" lon="5.7662">
        <ele>478.8</ele>
        <time>2021-11-21T12:09:57Z</time>
      </trkpt>
      <trkpt lat="45.22215" lon="5.76609">
        <ele>478.2</ele>
        <time>2021-11-21T12:09:58Z</time>
      </trkpt>
      <trkpt lat="45.22207" lon="5.76598">
        <ele>477.4</ele>
        <time>2021-11-21T12:09:59Z</time>
      </trkpt>
      <trkpt lat="45.22198" lon="5.76588">
        <ele>476.4</ele>
        <time>2021-11-21T12:10:00Z</time>
      </trkpt>
      <trkpt lat="45.22189" lon="5.76578">
        <ele>474.6</ele>
        <time>2021-11-21T12:10:01Z</time>
      </trkpt>
      <trkpt lat="45.22179" lon="5.7657">
        <ele>473.2</ele>
        <time>2021-11-21T12:10:02Z</time>
      </trkpt>
      <trkpt lat="45.22169" lon="5.76562">
        <ele>472.6</ele>
        <time>2021-11-21T12:10:03Z</time>
      </trkpt>
      <trkpt lat="45.22158" lon="5.76556">
        <ele>471.8</ele>
        <time>2021-11-21T12:10:04Z</time>
      </trkpt>
      <trkpt lat="45.22147" lon="5.76549">
        <ele>471.2</ele>
        <time>2021-11-21T12:10:05Z</time>
      </trkpt>
      <trkpt lat="45.22138" lon="5.7654">
        <ele>469.6</ele>
        <time>2021-11-21T12:10:06Z</time>
      </trkpt>
      <trkpt lat="45.2213" lon="5.76529">
        <ele>468.6</ele>
        <time>2021-11-21T12:10:07Z</time>
      </trkpt>
      <trkpt lat="45.22125" lon="5.76517">
        <ele>468.4</ele>
        <time>2021-11-21T12:10:08Z</time>
      </trkpt>
      <trkpt lat="45.22121" lon="5.76506">
        <ele>468</ele>
        <time>2021-11-21T12:10:09Z</time>
      </trkpt>
      <trkpt lat="45.22119" lon="5.76496">
        <ele>467.6</ele>
        <time>2021-11-21T12:10:10Z</time>
      </trkpt>
      <trkpt lat="45.22117" lon="5.76486">
        <ele>466.6</ele>
        <time>2021-11-21T12:10:11Z</time>
      </trkpt>
      <trkpt lat="45.22115" lon="5.76476">
        <ele>465.6</ele>
        <time>2021-11-21T12:10:12Z</time>
      </trkpt>
      <trkpt lat="45.22112" lon="5.76466">
        <ele>464.4</ele>
        <time>2021-11-21T12:10:13Z</time>
      </trkpt>
      <trkpt lat="45.22108" lon="5.76456">
        <ele>463</ele>
        <time>2021-11-21T12:10:14Z</time>
      </trkpt>
      <trkpt lat="45.22103" lon="5.76447">
        <ele>462.2</ele>
        <time>2021-11-21T12:10:15Z</time>
      </trkpt>
      <trkpt lat="45.22098" lon="5.76437">
        <ele>461.2</ele>
        <time>2021-11-21T12:10:16Z</time>
      </trkpt>
      <trkpt lat="45.22091" lon="5.76427">
        <ele>460</ele>
        <time>2021-11-21T12:10:17Z</time>
      </trkpt>
      <trkpt lat="45.22085" lon="5.76417">
        <ele>459</ele>
        <time>2021-11-21T12:10:18Z</time>
      </trkpt>
      <trkpt lat="45.22078" lon="5.76407">
        <ele>458</ele>
        <time>2021-11-21T12:10:19Z</time>
      </trkpt>
      <trkpt lat="45.22071" lon="5.76396">
        <ele>457.2</ele>
        <time>2021-11-21T12:10:20Z</time>
      </trkpt>
      <trkpt lat="45.22065" lon="5.76385">
        <ele>456.8</ele>
        <time>2021-11-21T12:10:21Z</time>
      </trkpt>
      <trkpt lat="45.22058" lon="5.76374">
        <ele>456</ele>
        <time>2021-11-21T12:10:22Z</time>
      </trkpt>
      <trkpt lat="45.22051" lon="5.76363">
        <ele>455</ele>
        <time>2021-11-21T12:10:23Z</time>
      </trkpt>
      <trkpt lat="45.22044" lon="5.76352">
        <ele>454.2</ele>
        <time>2021-11-21T12:10:24Z</time>
      </trkpt>
      <trkpt lat="45.22037" lon="5.76341">
        <ele>453.6</ele>
        <time>2021-11-21T12:10:25Z</time>
      </trkpt>
      <trkpt lat="45.2203" lon="5.76331">
        <ele>452.8</ele>
        <time>2021-11-21T12:10:26Z</time>
      </trkpt>
      <trkpt lat="45.22023" lon="5.7632">
        <ele>452.4</ele>
        <time>2021-11-21T12:10:27Z</time>
      </trkpt>
      <trkpt lat="45.22017" lon="5.7631">
        <ele>452</ele>
        <time>2021-11-21T12:10:28Z</time>
      </trkpt>
      <trkpt lat="45.22011" lon="5.76301">
        <ele>451.2</ele>
        <time>2021-11-21T12:10:29Z</time>
      </trkpt>
      <trkpt lat="45.22006" lon="5.76293">
        <ele>450.4</ele>
        <time>2021-11-21T12:10:30Z</time>
      </trkpt>
      <trkpt lat="45.22001" lon="5.76285">
        <ele>450</ele>
        <time>2021-11-21T12:10:31Z</time>
      </trkpt>
      <trkpt lat="45.21996" lon="5.76276">
        <ele>449.4</ele>
        <time>2021-11-21T12:10:32Z</time>
      </trkpt>
      <trkpt lat="45.21992" lon="5.76266">
        <ele>448.8</ele>
        <time>2021-11-21T12:10:33Z</time>
      </trkpt>
      <trkpt lat="45.21988" lon="5.76254">
        <ele>447.8</ele>
        <time>2021-11-21T12:10:34Z</time>
      </trkpt>
      <trkpt lat="45.21984" lon="5.76243">
        <ele>446.6</ele>
        <time>2021-11-21T12:10:35Z</time>
      </trkpt>
      <trkpt lat="45.21979" lon="5.76231">
        <ele>445.8</ele>
        <time>2021-11-21T12:10:36Z</time>
      </trkpt>
      <trkpt lat="45.21973" lon="5.76221">
        <ele>445</ele>
        <time>2021-11-21T12:10:37Z</time>
      </trkpt>
      <trkpt lat="45.21966" lon="5.76212">
        <ele>444.4</ele>
        <time>2021-11-21T12:10:38Z</time>
      </trkpt>
      <trkpt lat="45.21958" lon="5.76203">
        <ele>443.6</ele>
        <time>2021-11-21T12:10:39Z</time>
      </trkpt>
      <trkpt lat="45.21949" lon="5.76194">
        <ele>442.8</ele>
        <time>2021-11-21T12:10:40Z</time>
      </trkpt>
      <trkpt lat="45.2194" lon="5.76186">
        <ele>442.2</ele>
        <time>2021-11-21T12:10:41Z</time>
      </trkpt>
      <trkpt lat="45.21931" lon="5.76177">
        <ele>441.8</ele>
        <time>2021-11-21T12:10:42Z</time>
      </trkpt>
      <trkpt lat="45.21923" lon="5.76168">
        <ele>440.2</ele>
        <time>2021-11-21T12:10:43Z</time>
      </trkpt>
      <trkpt lat="45.21915" lon="5.7616">
        <ele>439.4</ele>
        <time>2021-11-21T12:10:44Z</time>
      </trkpt>
      <trkpt lat="45.21908" lon="5.76151">
        <ele>438.6</ele>
        <time>2021-11-21T12:10:45Z</time>
      </trkpt>
      <trkpt lat="45.21903" lon="5.76142">
        <ele>438.2</ele>
        <time>2021-11-21T12:10:46Z</time>
      </trkpt>
      <trkpt lat="45.21899" lon="5.76132">
        <ele>436.8</ele>
        <time>2021-11-21T12:10:47Z</time>
      </trkpt>
      <trkpt lat="45.21896" lon="5.76122">
        <ele>436</ele>
        <time>2021-11-21T12:10:48Z</time>
      </trkpt>
      <trkpt lat="45.21893" lon="5.76111">
        <ele>435</ele>
        <time>2021-11-21T12:10:49Z</time>
      </trkpt>
      <trkpt lat="45.21891" lon="5.76099">
        <ele>434.2</ele>
        <time>2021-11-21T12:10:50Z</time>
      </trkpt>
      <trkpt lat="45.2189" lon="5.76086">
        <ele>433.2</ele>
        <time>2021-11-21T12:10:51Z</time>
      </trkpt>
      <trkpt lat="45.21889" lon="5.76072">
        <ele>432.2</ele>
        <time>2021-11-21T12:10:52Z</time>
      </trkpt>
      <trkpt lat="45.21887" lon="5.76059">
        <ele>431</ele>
        <time>2021-11-21T12:10:53Z</time>
      </trkpt>
      <trkpt lat="45.21883" lon="5.76046">
        <ele>430.2</ele>
        <time>2021-11-21T12:10:54Z</time>
      </trkpt>
      <trkpt lat="45.21877" lon="5.76035">
        <ele>429.4</ele>
        <time>2021-11-21T12:10:55Z</time>
      </trkpt>
      <trkpt lat="45.21869" lon="5.76027">
        <ele>428.2</ele>
        <time>2021-11-21T12:10:56Z</time>
      </trkpt>
      <trkpt lat="45.21859" lon="5.76025">
        <ele>427.2</ele>
        <time>2021-11-21T12:10:57Z</time>
      </trkpt>
      <trkpt lat="45.21848" lon="5.76025">
        <ele>426.4</ele>
        <time>2021-11-21T12:10:58Z</time>
      </trkpt>
      <trkpt lat="45.21837" lon="5.76029">
        <ele>425.4</ele>
        <time>2021-11-21T12:10:59Z</time>
      </trkpt>
      <trkpt lat="45.21826" lon="5.76034">
        <ele>425</ele>
        <time>2021-11-21T12:11:00Z</time>
      </trkpt>
      <trkpt lat="45.21816" lon="5.76039">
        <ele>424.6</ele>
        <time>2021-11-21T12:11:01Z</time>
      </trkpt>
      <trkpt lat="45.21807" lon="5.76042">
        <ele>423.6</ele>
        <time>2021-11-21T12:11:02Z</time>
      </trkpt>
      <trkpt lat="45.21799" lon="5.76046">
        <ele>423</ele>
        <time>2021-11-21T12:11:03Z</time>
      </trkpt>
      <trkpt lat="45.2179" lon="5.7605">
        <ele>422.2</ele>
        <time>2021-11-21T12:11:04Z</time>
      </trkpt>
      <trkpt lat="45.21782" lon="5.76054">
        <ele>421</ele>
        <time>2021-11-21T12:11:05Z</time>
      </trkpt>
      <trkpt lat="45.21772" lon="5.76057">
        <ele>419.8</ele>
        <time>2021-11-21T12:11:06Z</time>
      </trkpt>
      <trkpt lat="45.21763" lon="5.76057">
        <ele>418.6</ele>
        <time>2021-11-21T12:11:07Z</time>
      </trkpt>
      <trkpt lat="45.21753" lon="5.76055">
        <ele>417.8</ele>
        <time>2021-11-21T12:11:08Z</time>
      </trkpt>
      <trkpt lat="45.21743" lon="5.76051">
        <ele>416.8</ele>
        <time>2021-11-21T12:11:09Z</time>
      </trkpt>
      <trkpt lat="45.21735" lon="5.76047">
        <ele>416</ele>
        <time>2021-11-21T12:11:10Z</time>
      </trkpt>
      <trkpt lat="45.21729" lon="5.76042">
        <ele>414.8</ele>
        <time>2021-11-21T12:11:11Z</time>
      </trkpt>
      <trkpt lat="45.21726" lon="5.76035">
        <ele>413.8</ele>
        <time>2021-11-21T12:11:12Z</time>
      </trkpt>
      <trkpt lat="45.21728" lon="5.76026">
        <ele>412.8</ele>
        <time>2021-11-21T12:11:13Z</time>
      </trkpt>
      <trkpt lat="45.21733" lon="5.7602">
        <ele>411.8</ele>
        <time>2021-11-21T12:11:14Z</time>
      </trkpt>
      <trkpt lat="45.21739" lon="5.76016">
        <ele>410.6</ele>
        <time>2021-11-21T12:11:15Z</time>
      </trkpt>
      <trkpt lat="45.21746" lon="5.76014">
        <ele>410</ele>
        <time>2021-11-21T12:11:16Z</time>
      </trkpt>
      <trkpt lat="45.21754" lon="5.76013">
        <ele>409</ele>
        <time>2021-11-21T12:11:17Z</time>
      </trkpt>
      <trkpt lat="45.21763" lon="5.76011">
        <ele>408</ele>
        <time>2021-11-21T12:11:18Z</time>
      </trkpt>
      <trkpt lat="45.21771" lon="5.76006">
        <ele>407.2</ele>
        <time>2021-11-21T12:11:19Z</time>
      </trkpt>
      <trkpt lat="45.2178" lon="5.76001">
        <ele>406.6</ele>
        <time>2021-11-21T12:11:20Z</time>
      </trkpt>
      <trkpt lat="45.21788" lon="5.75994">
        <ele>405.8</ele>
        <time>2021-11-21T12:11:21Z</time>
      </trkpt>
      <trkpt lat="45.21796" lon="5.75985">
        <ele>405</ele>
        <time>2021-11-21T12:11:22Z</time>
      </trkpt>
      <trkpt lat="45.21802" lon="5.75974">
        <ele>404.2</ele>
        <time>2021-11-21T12:11:23Z</time>
      </trkpt>
      <trkpt lat="45.21808" lon="5.75961">
        <ele>403.6</ele>
        <time>2021-11-21T12:11:24Z</time>
      </trkpt>
      <trkpt lat="45.21813" lon="5.75948">
        <ele>403.2</ele>
        <time>2021-11-21T12:11:25Z</time>
      </trkpt>
      <trkpt lat="45.21818" lon="5.75937">
        <ele>402.8</ele>
        <time>2021-11-21T12:11:26Z</time>
      </trkpt>
      <trkpt lat="45.21825" lon="5.75927">
        <ele>402</ele>
        <time>2021-11-21T12:11:27Z</time>
      </trkpt>
      <trkpt lat="45.21832" lon="5.75917">
        <ele>401.6</ele>
        <time>2021-11-21T12:11:28Z</time>
      </trkpt>
      <trkpt lat="45.21837" lon="5.75907">
        <ele>400.6</ele>
        <time>2021-11-21T12:11:29Z</time>
      </trkpt>
      <trkpt lat="45.21839" lon="5.75895">
        <ele>399.8</ele>
        <time>2021-11-21T12:11:30Z</time>
      </trkpt>
      <trkpt lat="45.21837" lon="5.75883">
        <ele>399</ele>
        <time>2021-11-21T12:11:31Z</time>
      </trkpt>
      <trkpt lat="45.21832" lon="5.75871">
        <ele>398.2</ele>
        <time>2021-11-21T12:11:32Z</time>
      </trkpt>
      <trkpt lat="45.21827" lon="5.75858">
        <ele>397.6</ele>
        <time>2021-11-21T12:11:33Z</time>
      </trkpt>
      <trkpt lat="45.2182" lon="5.75847">
        <ele>397</ele>
        <time>2021-11-21T12:11:34Z</time>
      </trkpt>
      <trkpt lat="45.21815" lon="5.75835">
        <ele>396.2</ele>
        <time>2021-11-21T12:11:35Z</time>
      </trkpt>
      <trkpt lat="45.21809" lon="5.75822">
        <ele>395.8</ele>
        <time>2021-11-21T12:11:36Z</time>
      </trkpt>
      <trkpt lat="45.21802" lon="5.75809">
        <ele>395.2</ele>
        <time>2021-11-21T12:11:37Z</time>
      </trkpt>
      <trkpt lat="45.21796" lon="5.75796">
        <ele>394.2</ele>
        <time>2021-11-21T12:11:38Z</time>
      </trkpt>
      <trkpt lat="45.21788" lon="5.75783">
        <ele>392.8</ele>
        <time>2021-11-21T12:11:39Z</time>
      </trkpt>
      <trkpt lat="45.21781" lon="5.7577">
        <ele>391.8</ele>
        <time>2021-11-21T12:11:40Z</time>
      </trkpt>
      <trkpt lat="45.21774" lon="5.75756">
        <ele>390.6</ele>
        <time>2021-11-21T12:11:41Z</time>
      </trkpt>
      <trkpt lat="45.21767" lon="5.75742">
        <ele>389.8</ele>
        <time>2021-11-21T12:11:42Z</time>
      </trkpt>
      <trkpt lat="45.2176" lon="5.75728">
        <ele>389.2</ele>
        <time>2021-11-21T12:11:43Z</time>
      </trkpt>
      <trkpt lat="45.21753" lon="5.75713">
        <ele>388.4</ele>
        <time>2021-11-21T12:11:44Z</time>
      </trkpt>
      <trkpt lat="45.21747" lon="5.75698">
        <ele>387.6</ele>
        <time>2021-11-21T12:11:45Z</time>
      </trkpt>
      <trkpt lat="45.2174" lon="5.75683">
        <ele>387</ele>
        <time>2021-11-21T12:11:46Z</time>
      </trkpt>
      <trkpt lat="45.21734" lon="5.75667">
        <ele>385.8</ele>
        <time>2021-11-21T12:11:47Z</time>
      </trkpt>
      <trkpt lat="45.21728" lon="5.75652">
        <ele>384.8</ele>
        <time>2021-11-21T12:11:48Z</time>
      </trkpt>
      <trkpt lat="45.21721" lon="5.75636">
        <ele>384</ele>
        <time>2021-11-21T12:11:49Z</time>
      </trkpt>
      <trkpt lat="45.21715" lon="5.75621">
        <ele>383</ele>
        <time>2021-11-21T12:11:50Z</time>
      </trkpt>
      <trkpt lat="45.21708" lon="5.75606">
        <ele>381.8</ele>
        <time>2021-11-21T12:11:51Z</time>
      </trkpt>
      <trkpt lat="45.21702" lon="5.75591">
        <ele>380.6</ele>
        <time>2021-11-21T12:11:52Z</time>
      </trkpt>
      <trkpt lat="45.21696" lon="5.75576">
        <ele>379.6</ele>
        <time>2021-11-21T12:11:53Z</time>
      </trkpt>
      <trkpt lat="45.21691" lon="5.75562">
        <ele>378.2</ele>
        <time>2021-11-21T12:11:54Z</time>
      </trkpt>
      <trkpt lat="45.21685" lon="5.75547">
        <ele>377.2</ele>
        <time>2021-11-21T12:11:55Z</time>
      </trkpt>
      <trkpt lat="45.21681" lon="5.75534">
        <ele>376.2</ele>
        <time>2021-11-21T12:11:56Z</time>
      </trkpt>
      <trkpt lat="45.21677" lon="5.75523">
        <ele>375</ele>
        <time>2021-11-21T12:11:57Z</time>
      </trkpt>
      <trkpt lat="45.21674" lon="5.75511">
        <ele>373.6</ele>
        <time>2021-11-21T12:11:58Z</time>
      </trkpt>
      <trkpt lat="45.21673" lon="5.75501">
        <ele>372.2</ele>
        <time>2021-11-21T12:11:59Z</time>
      </trkpt>
      <trkpt lat="45.21674" lon="5.7549">
        <ele>370.8</ele>
        <time>2021-11-21T12:12:00Z</time>
      </trkpt>
      <trkpt lat="45.21677" lon="5.75481">
        <ele>369.6</ele>
        <time>2021-11-21T12:12:01Z</time>
      </trkpt>
      <trkpt lat="45.21681" lon="5.75472">
        <ele>368.2</ele>
        <time>2021-11-21T12:12:02Z</time>
      </trkpt>
      <trkpt lat="45.21686" lon="5.75464">
        <ele>367</ele>
        <time>2021-11-21T12:12:03Z</time>
      </trkpt>
      <trkpt lat="45.21693" lon="5.75456">
        <ele>365.6</ele>
        <time>2021-11-21T12:12:04Z</time>
      </trkpt>
      <trkpt lat="45.21699" lon="5.75448">
        <ele>364.4</ele>
        <time>2021-11-21T12:12:05Z</time>
      </trkpt>
      <trkpt lat="45.21705" lon="5.75438">
        <ele>363.6</ele>
        <time>2021-11-21T12:12:06Z</time>
      </trkpt>
      <trkpt lat="45.21709" lon="5.75427">
        <ele>362.6</ele>
        <time>2021-11-21T12:12:07Z</time>
      </trkpt>
      <trkpt lat="45.21713" lon="5.75414">
        <ele>361.8</ele>
        <time>2021-11-21T12:12:08Z</time>
      </trkpt>
      <trkpt lat="45.21714" lon="5.75401">
        <ele>361</ele>
        <time>2021-11-21T12:12:09Z</time>
      </trkpt>
      <trkpt lat="45.21713" lon="5.75387">
        <ele>360.2</ele>
        <time>2021-11-21T12:12:10Z</time>
      </trkpt>
      <trkpt lat="45.21709" lon="5.75374">
        <ele>359.4</ele>
        <time>2021-11-21T12:12:11Z</time>
      </trkpt>
      <trkpt lat="45.21704" lon="5.75362">
        <ele>358.6</ele>
        <time>2021-11-21T12:12:12Z</time>
      </trkpt>
      <trkpt lat="45.21698" lon="5.75353">
        <ele>358.2</ele>
        <time>2021-11-21T12:12:13Z</time>
      </trkpt>
      <trkpt lat="45.2169" lon="5.75348">
        <ele>357.6</ele>
        <time>2021-11-21T12:12:14Z</time>
      </trkpt>
      <trkpt lat="45.2168" lon="5.75346">
        <ele>356.8</ele>
        <time>2021-11-21T12:12:15Z</time>
      </trkpt>
      <trkpt lat="45.2167" lon="5.75345">
        <ele>355.8</ele>
        <time>2021-11-21T12:12:16Z</time>
      </trkpt>
      <trkpt lat="45.2166" lon="5.75342">
        <ele>354.8</ele>
        <time>2021-11-21T12:12:17Z</time>
      </trkpt>
      <trkpt lat="45.21651" lon="5.75338">
        <ele>353.8</ele>
        <time>2021-11-21T12:12:18Z</time>
      </trkpt>
      <trkpt lat="45.21642" lon="5.75331">
        <ele>352.8</ele>
        <time>2021-11-21T12:12:19Z</time>
      </trkpt>
      <trkpt lat="45.21636" lon="5.75321">
        <ele>352.2</ele>
        <time>2021-11-21T12:12:20Z</time>
      </trkpt>
      <trkpt lat="45.21633" lon="5.75308">
        <ele>351.6</ele>
        <time>2021-11-21T12:12:21Z</time>
      </trkpt>
      <trkpt lat="45.21634" lon="5.75294">
        <ele>350.8</ele>
        <time>2021-11-21T12:12:22Z</time>
      </trkpt>
      <trkpt lat="45.21637" lon="5.7528">
        <ele>350</ele>
        <time>2021-11-21T12:12:23Z</time>
      </trkpt>
      <trkpt lat="45.21643" lon="5.75268">
        <ele>348.8</ele>
        <time>2021-11-21T12:12:24Z</time>
      </trkpt>
      <trkpt lat="45.21649" lon="5.75256">
        <ele>348</ele>
        <time>2021-11-21T12:12:25Z</time>
      </trkpt>
      <trkpt lat="45.21657" lon="5.75247">
        <ele>347.4</ele>
        <time>2021-11-21T12:12:26Z</time>
      </trkpt>
      <trkpt lat="45.21666" lon="5.75238">
        <ele>346.8</ele>
        <time>2021-11-21T12:12:27Z</time>
      </trkpt>
      <trkpt lat="45.21674" lon="5.75229">
        <ele>345.8</ele>
        <time>2021-11-21T12:12:28Z</time>
      </trkpt>
      <trkpt lat="45.21679" lon="5.75215">
        <ele>345</ele>
        <time>2021-11-21T12:12:29Z</time>
      </trkpt>
      <trkpt lat="45.2168" lon="5.75199">
        <ele>344.2</ele>
        <time>2021-11-21T12:12:30Z</time>
      </trkpt>
      <trkpt lat="45.21678" lon="5.75183">
        <ele>343.4</ele>
        <time>2021-11-21T12:12:31Z</time>
      </trkpt>
      <trkpt lat="45.21675" lon="5.75169">
        <ele>343</ele>
        <time>2021-11-21T12:12:32Z</time>
      </trkpt>
      <trkpt lat="45.21672" lon="5.75155">
        <ele>341.8</ele>
        <time>2021-11-21T12:12:33Z</time>
      </trkpt>
      <trkpt lat="45.21668" lon="5.75141">
        <ele>341.2</ele>
        <time>2021-11-21T12:12:34Z</time>
      </trkpt>
      <trkpt lat="45.21663" lon="5.75127">
        <ele>340.2</ele>
        <time>2021-11-21T12:12:35Z</time>
      </trkpt>
      <trkpt lat="45.21659" lon="5.75113">
        <ele>339.2</ele>
        <time>2021-11-21T12:12:36Z</time>
      </trkpt>
      <trkpt lat="45.21655" lon="5.75099">
        <ele>338</ele>
        <time>2021-11-21T12:12:37Z</time>
      </trkpt>
      <trkpt lat="45.21652" lon="5.75084">
        <ele>337</ele>
        <time>2021-11-21T12:12:38Z</time>
      </trkpt>
      <trkpt lat="45.21648" lon="5.7507">
        <ele>336</ele>
        <time>2021-11-21T12:12:39Z</time>
      </trkpt>
      <trkpt lat="45.21644" lon="5.75055">
        <ele>334.8</ele>
        <time>2021-11-21T12:12:40Z</time>
      </trkpt>
      <trkpt lat="45.2164" lon="5.75041">
        <ele>334</ele>
        <time>2021-11-21T12:12:41Z</time>
      </trkpt>
      <trkpt lat="45.21636" lon="5.75026">
        <ele>333.4</ele>
        <time>2021-11-21T12:12:42Z</time>
      </trkpt>
      <trkpt lat="45.21632" lon="5.75011">
        <ele>332.8</ele>
        <time>2021-11-21T12:12:43Z</time>
      </trkpt>
      <trkpt lat="45.21627" lon="5.74997">
        <ele>332.2</ele>
        <time>2021-11-21T12:12:44Z</time>
      </trkpt>
      <trkpt lat="45.21621" lon="5.74984">
        <ele>331</ele>
        <time>2021-11-21T12:12:45Z</time>
      </trkpt>
      <trkpt lat="45.21614" lon="5.74973">
        <ele>330.2</ele>
        <time>2021-11-21T12:12:46Z</time>
      </trkpt>
      <trkpt lat="45.21604" lon="5.74965">
        <ele>329.4</ele>
        <time>2021-11-21T12:12:47Z</time>
      </trkpt>
      <trkpt lat="45.21593" lon="5.74959">
        <ele>328.2</ele>
        <time>2021-11-21T12:12:48Z</time>
      </trkpt>
      <trkpt lat="45.21583" lon="5.74952">
        <ele>327</ele>
        <time>2021-11-21T12:12:49Z</time>
      </trkpt>
      <trkpt lat="45.21572" lon="5.74945">
        <ele>325.4</ele>
        <time>2021-11-21T12:12:50Z</time>
      </trkpt>
      <trkpt lat="45.21562" lon="5.74935">
        <ele>324.8</ele>
        <time>2021-11-21T12:12:51Z</time>
      </trkpt>
      <trkpt lat="45.21553" lon="5.74924">
        <ele>324.2</ele>
        <time>2021-11-21T12:12:52Z</time>
      </trkpt>
      <trkpt lat="45.21547" lon="5.74911">
        <ele>323</ele>
        <time>2021-11-21T12:12:53Z</time>
      </trkpt>
      <trkpt lat="45.21542" lon="5.74897">
        <ele>321.8</ele>
        <time>2021-11-21T12:12:54Z</time>
      </trkpt>
      <trkpt lat="45.2154" lon="5.74883">
        <ele>321</ele>
        <time>2021-11-21T12:12:55Z</time>
      </trkpt>
      <trkpt lat="45.21537" lon="5.74869">
        <ele>320.2</ele>
        <time>2021-11-21T12:12:56Z</time>
      </trkpt>
      <trkpt lat="45.21533" lon="5.74855">
        <ele>319.8</ele>
        <time>2021-11-21T12:12:57Z</time>
      </trkpt>
      <trkpt lat="45.21529" lon="5.74845">
        <ele>318.4</ele>
        <time>2021-11-21T12:12:58Z</time>
      </trkpt>
      <trkpt lat="45.21521" lon="5.74837">
        <ele>317.6</ele>
        <time>2021-11-21T12:12:59Z</time>
      </trkpt>
      <trkpt lat="45.21513" lon="5.74832">
        <ele>316.6</ele>
        <time>2021-11-21T12:13:00Z</time>
      </trkpt>
      <trkpt lat="45.21502" lon="5.74829">
        <ele>315.6</ele>
        <time>2021-11-21T12:13:01Z</time>
      </trkpt>
      <trkpt lat="45.21491" lon="5.74827">
        <ele>314.6</ele>
        <time>2021-11-21T12:13:02Z</time>
      </trkpt>
      <trkpt lat="45.21481" lon="5.74822">
        <ele>313.4</ele>
        <time>2021-11-21T12:13:03Z</time>
      </trkpt>
      <trkpt lat="45.21473" lon="5.74813">
        <ele>312.6</ele>
        <time>2021-11-21T12:13:04Z</time>
      </trkpt>
      <trkpt lat="45.21467" lon="5.74802">
        <ele>311.2</ele>
        <time>2021-11-21T12:13:05Z</time>
      </trkpt>
      <trkpt lat="45.2146" lon="5.74789">
        <ele>310.2</ele>
        <time>2021-11-21T12:13:06Z</time>
      </trkpt>
      <trkpt lat="45.21454" lon="5.74778">
        <ele>309.4</ele>
        <time>2021-11-21T12:13:07Z</time>
      </trkpt>
      <trkpt lat="45.21446" lon="5.74767">
        <ele>308.4</ele>
        <time>2021-11-21T12:13:08Z</time>
      </trkpt>
      <trkpt lat="45.21439" lon="5.74759">
        <ele>307.6</ele>
        <time>2021-11-21T12:13:09Z</time>
      </trkpt>
      <trkpt lat="45.2143" lon="5.74752">
        <ele>306.8</ele>
        <time>2021-11-21T12:13:10Z</time>
      </trkpt>
      <trkpt lat="45.2142" lon="5.74748">
        <ele>306</ele>
        <time>2021-11-21T12:13:11Z</time>
      </trkpt>
      <trkpt lat="45.2141" lon="5.74744">
        <ele>305.4</ele>
        <time>2021-11-21T12:13:12Z</time>
      </trkpt>
      <trkpt lat="45.21399" lon="5.74742">
        <ele>304.6</ele>
        <time>2021-11-21T12:13:13Z</time>
      </trkpt>
      <trkpt lat="45.21389" lon="5.74741">
        <ele>303.8</ele>
        <time>2021-11-21T12:13:14Z</time>
      </trkpt>
      <trkpt lat="45.21378" lon="5.7474">
        <ele>302.8</ele>
        <time>2021-11-21T12:13:15Z</time>
      </trkpt>
      <trkpt lat="45.21366" lon="5.7474">
        <ele>301.8</ele>
        <time>2021-11-21T12:13:16Z</time>
      </trkpt>
      <trkpt lat="45.21356" lon="5.74739">
        <ele>300.8</ele>
        <time>2021-11-21T12:13:17Z</time>
      </trkpt>
      <trkpt lat="45.21338" lon="5.74737">
        <ele>299</ele>
        <time>2021-11-21T12:13:19Z</time>
      </trkpt>
      <trkpt lat="45.21329" lon="5.74735">
        <ele>297.6</ele>
        <time>2021-11-21T12:13:20Z</time>
      </trkpt>
      <trkpt lat="45.2132" lon="5.74732">
        <ele>296.8</ele>
        <time>2021-11-21T12:13:21Z</time>
      </trkpt>
      <trkpt lat="45.21311" lon="5.74729">
        <ele>295.8</ele>
        <time>2021-11-21T12:13:22Z</time>
      </trkpt>
      <trkpt lat="45.21301" lon="5.74725">
        <ele>295.2</ele>
        <time>2021-11-21T12:13:23Z</time>
      </trkpt>
      <trkpt lat="45.21291" lon="5.74722">
        <ele>293.8</ele>
        <time>2021-11-21T12:13:24Z</time>
      </trkpt>
      <trkpt lat="45.21281" lon="5.74718">
        <ele>292.8</ele>
        <time>2021-11-21T12:13:25Z</time>
      </trkpt>
      <trkpt lat="45.2127" lon="5.74714">
        <ele>292.2</ele>
        <time>2021-11-21T12:13:26Z</time>
      </trkpt>
      <trkpt lat="45.21259" lon="5.7471">
        <ele>291.4</ele>
        <time>2021-11-21T12:13:27Z</time>
      </trkpt>
      <trkpt lat="45.21249" lon="5.74706">
        <ele>290.8</ele>
        <time>2021-11-21T12:13:28Z</time>
      </trkpt>
      <trkpt lat="45.21238" lon="5.747">
        <ele>290</ele>
        <time>2021-11-21T12:13:29Z</time>
      </trkpt>
      <trkpt lat="45.21228" lon="5.74694">
        <ele>289.2</ele>
        <time>2021-11-21T12:13:30Z</time>
      </trkpt>
      <trkpt lat="45.21217" lon="5.74688">
        <ele>288.4</ele>
        <time>2021-11-21T12:13:31Z</time>
      </trkpt>
      <trkpt lat="45.21207" lon="5.74681">
        <ele>287.6</ele>
        <time>2021-11-21T12:13:32Z</time>
      </trkpt>
      <trkpt lat="45.21197" lon="5.74675">
        <ele>286.6</ele>
        <time>2021-11-21T12:13:33Z</time>
      </trkpt>
      <trkpt lat="45.21186" lon="5.7467">
        <ele>285.6</ele>
        <time>2021-11-21T12:13:34Z</time>
      </trkpt>
      <trkpt lat="45.21175" lon="5.74664">
        <ele>284.6</ele>
        <time>2021-11-21T12:13:35Z</time>
      </trkpt>
      <trkpt lat="45.21165" lon="5.74659">
        <ele>283.6</ele>
        <time>2021-11-21T12:13:36Z</time>
      </trkpt>
      <trkpt lat="45.21155" lon="5.74654">
        <ele>282.6</ele>
        <time>2021-11-21T12:13:37Z</time>
      </trkpt>
      <trkpt lat="45.21146" lon="5.7465">
        <ele>281.8</ele>
        <time>2021-11-21T12:13:38Z</time>
      </trkpt>
      <trkpt lat="45.21139" lon="5.74646">
        <ele>281.2</ele>
        <time>2021-11-21T12:13:39Z</time>
      </trkpt>
      <trkpt lat="45.21133" lon="5.74642">
        <ele>280</ele>
        <time>2021-11-21T12:13:40Z</time>
      </trkpt>
      <trkpt lat="45.21127" lon="5.74639">
        <ele>279.2</ele>
        <time>2021-11-21T12:13:41Z</time>
      </trkpt>
      <trkpt lat="45.21123" lon="5.74634">
        <ele>278.2</ele>
        <time>2021-11-21T12:13:42Z</time>
      </trkpt>
      <trkpt lat="45.2112" lon="5.74627">
        <ele>277.2</ele>
        <time>2021-11-21T12:13:43Z</time>
      </trkpt>
      <trkpt lat="45.21116" lon="5.7462">
        <ele>275.8</ele>
        <time>2021-11-21T12:13:44Z</time>
      </trkpt>
      <trkpt lat="45.21112" lon="5.74611">
        <ele>274.4</ele>
        <time>2021-11-21T12:13:45Z</time>
      </trkpt>
      <trkpt lat="45.21105" lon="5.74591">
        <ele>272.6</ele>
        <time>2021-11-21T12:13:47Z</time>
      </trkpt>
      <trkpt lat="45.21101" lon="5.74581">
        <ele>271.4</ele>
        <time>2021-11-21T12:13:48Z</time>
      </trkpt>
      <trkpt lat="45.21097" lon="5.74572">
        <ele>270.6</ele>
        <time>2021-11-21T12:13:49Z</time>
      </trkpt>
      <trkpt lat="45.21092" lon="5.74562">
        <ele>270</ele>
        <time>2021-11-21T12:13:50Z</time>
      </trkpt>
      <trkpt lat="45.21087" lon="5.74554">
        <ele>269.2</ele>
        <time>2021-11-21T12:13:51Z</time>
      </trkpt>
      <trkpt lat="45.21082" lon="5.74545">
        <ele>268.4</ele>
        <time>2021-11-21T12:13:52Z</time>
      </trkpt>
      <trkpt lat="45.21077" lon="5.74536">
        <ele>267.8</ele>
        <time>2021-11-21T12:13:53Z</time>
      </trkpt>
      <trkpt lat="45.21071" lon="5.74527">
        <ele>267.4</ele>
        <time>2021-11-21T12:13:54Z</time>
      </trkpt>
      <trkpt lat="45.21066" lon="5.74518">
        <ele>266.8</ele>
        <time>2021-11-21T12:13:55Z</time>
      </trkpt>
      <trkpt lat="45.21061" lon="5.74508">
        <ele>266</ele>
        <time>2021-11-21T12:13:56Z</time>
      </trkpt>
      <trkpt lat="45.21056" lon="5.74499">
        <ele>265.6</ele>
        <time>2021-11-21T12:13:57Z</time>
      </trkpt>
      <trkpt lat="45.2105" lon="5.74489">
        <ele>265.2</ele>
        <time>2021-11-21T12:13:58Z</time>
      </trkpt>
      <trkpt lat="45.21043" lon="5.74479">
        <ele>264.6</ele>
        <time>2021-11-21T12:13:59Z</time>
      </trkpt>
      <trkpt lat="45.21037" lon="5.7447">
        <ele>264.4</ele>
        <time>2021-11-21T12:14:00Z</time>
      </trkpt>
      <trkpt lat="45.2103" lon="5.7446">
        <ele>262.8</ele>
        <time>2021-11-21T12:14:01Z</time>
      </trkpt>
      <trkpt lat="45.21024" lon="5.7445">
        <ele>262.8</ele>
        <time>2021-11-21T12:14:02Z</time>
      </trkpt>
      <trkpt lat="45.21019" lon="5.74439">
        <ele>263</ele>
        <time>2021-11-21T12:14:03Z</time>
      </trkpt>
      <trkpt lat="45.21015" lon="5.74428">
        <ele>263</ele>
        <time>2021-11-21T12:14:04Z</time>
      </trkpt>
      <trkpt lat="45.21012" lon="5.74417">
        <ele>262.6</ele>
        <time>2021-11-21T12:14:05Z</time>
      </trkpt>
      <trkpt lat="45.21008" lon="5.74406">
        <ele>262.6</ele>
        <time>2021-11-21T12:14:06Z</time>
      </trkpt>
      <trkpt lat="45.21004" lon="5.74394">
        <ele>262.2</ele>
        <time>2021-11-21T12:14:07Z</time>
      </trkpt>
      <trkpt lat="45.21" lon="5.74384">
        <ele>262.2</ele>
        <time>2021-11-21T12:14:08Z</time>
      </trkpt>
      <trkpt lat="45.20996" lon="5.74374">
        <ele>262</ele>
        <time>2021-11-21T12:14:09Z</time>
      </trkpt>
      <trkpt lat="45.20993" lon="5.74365">
        <ele>261.6</ele>
        <time>2021-11-21T12:14:10Z</time>
      </trkpt>
      <trkpt lat="45.2099" lon="5.74355">
        <ele>261.2</ele>
        <time>2021-11-21T12:14:11Z</time>
      </trkpt>
      <trkpt lat="45.20987" lon="5.74347">
        <ele>260.4</ele>
        <time>2021-11-21T12:14:12Z</time>
      </trkpt>
      <trkpt lat="45.20985" lon="5.74339">
        <ele>259.8</ele>
        <time>2021-11-21T12:14:13Z</time>
      </trkpt>
      <trkpt lat="45.20984" lon="5.7433">
        <ele>258.8</ele>
        <time>2021-11-21T12:14:14Z</time>
      </trkpt>
      <trkpt lat="45.20984" lon="5.74322">
        <ele>257.8</ele>
        <time>2021-11-21T12:14:15Z</time>
      </trkpt>
      <trkpt lat="45.20986" lon="5.74314">
        <ele>257</ele>
        <time>2021-11-21T12:14:16Z</time>
      </trkpt>
      <trkpt lat="45.20988" lon="5.74307">
        <ele>256</ele>
        <time>2021-11-21T12:14:17Z</time>
      </trkpt>
      <trkpt lat="45.20991" lon="5.74299">
        <ele>255.2</ele>
        <time>2021-11-21T12:14:18Z</time>
      </trkpt>
      <trkpt lat="45.20993" lon="5.74292">
        <ele>254.8</ele>
        <time>2021-11-21T12:14:19Z</time>
      </trkpt>
      <trkpt lat="45.20994" lon="5.74284">
        <ele>254</ele>
        <time>2021-11-21T12:14:20Z</time>
      </trkpt>
      <trkpt lat="45.20994" lon="5.74277">
        <ele>253.4</ele>
        <time>2021-11-21T12:14:21Z</time>
      </trkpt>
      <trkpt lat="45.20994" lon="5.74269">
        <ele>252.8</ele>
        <time>2021-11-21T12:14:22Z</time>
      </trkpt>
      <trkpt lat="45.20994" lon="5.74262">
        <ele>253</ele>
        <time>2021-11-21T12:14:23Z</time>
      </trkpt>
      <trkpt lat="45.20994" lon="5.74255">
        <ele>253.2</ele>
        <time>2021-11-21T12:14:24Z</time>
      </trkpt>
      <trkpt lat="45.20994" lon="5.74248">
        <ele>253.8</ele>
        <time>2021-11-21T12:14:25Z</time>
      </trkpt>
      <trkpt lat="45.20993" lon="5.74241">
        <ele>253.6</ele>
        <time>2021-11-21T12:14:26Z</time>
      </trkpt>
      <trkpt lat="45.20992" lon="5.74233">
        <ele>254</ele>
        <time>2021-11-21T12:14:27Z</time>
      </trkpt>
      <trkpt lat="45.20992" lon="5.74226">
        <ele>254.2</ele>
        <time>2021-11-21T12:14:28Z</time>
      </trkpt>
      <trkpt lat="45.20991" lon="5.74218">
        <ele>254.4</ele>
        <time>2021-11-21T12:14:29Z</time>
      </trkpt>
      <trkpt lat="45.2099" lon="5.7421">
        <ele>254.8</ele>
        <time>2021-11-21T12:14:30Z</time>
      </trkpt>
      <trkpt lat="45.2099" lon="5.74202">
        <ele>255.2</ele>
        <time>2021-11-21T12:14:31Z</time>
      </trkpt>
      <trkpt lat="45.20989" lon="5.74194">
        <ele>256</ele>
        <time>2021-11-21T12:14:32Z</time>
      </trkpt>
      <trkpt lat="45.20989" lon="5.74186">
        <ele>256.4</ele>
        <time>2021-11-21T12:14:33Z</time>
      </trkpt>
      <trkpt lat="45.20989" lon="5.74178">
        <ele>256.8</ele>
        <time>2021-11-21T12:14:34Z</time>
      </trkpt>
      <trkpt lat="45.20989" lon="5.7417">
        <ele>257.4</ele>
        <time>2021-11-21T12:14:35Z</time>
      </trkpt>
      <trkpt lat="45.20989" lon="5.74161">
        <ele>257.8</ele>
        <time>2021-11-21T12:14:36Z</time>
      </trkpt>
      <trkpt lat="45.2099" lon="5.74153">
        <ele>258.2</ele>
        <time>2021-11-21T12:14:37Z</time>
      </trkpt>
      <trkpt lat="45.20991" lon="5.74145">
        <ele>258.6</ele>
        <time>2021-11-21T12:14:38Z</time>
      </trkpt>
      <trkpt lat="45.20992" lon="5.74137">
        <ele>259.2</ele>
        <time>2021-11-21T12:14:39Z</time>
      </trkpt>
      <trkpt lat="45.20993" lon="5.74129">
        <ele>259.8</ele>
        <time>2021-11-21T12:14:40Z</time>
      </trkpt>
      <trkpt lat="45.20993" lon="5.74122">
        <ele>260.6</ele>
        <time>2021-11-21T12:14:41Z</time>
      </trkpt>
      <trkpt lat="45.20994" lon="5.74114">
        <ele>261.2</ele>
        <time>2021-11-21T12:14:42Z</time>
      </trkpt>
      <trkpt lat="45.20995" lon="5.74106">
        <ele>261.4</ele>
        <time>2021-11-21T12:14:43Z</time>
      </trkpt>
      <trkpt lat="45.20995" lon="5.74099">
        <ele>261.8</ele>
        <time>2021-11-21T12:14:44Z</time>
      </trkpt>
      <trkpt lat="45.20996" lon="5.74084">
        <ele>262.8</ele>
        <time>2021-11-21T12:14:46Z</time>
      </trkpt>
      <trkpt lat="45.20996" lon="5.74076">
        <ele>263.4</ele>
        <time>2021-11-21T12:14:47Z</time>
      </trkpt>
      <trkpt lat="45.20996" lon="5.74069">
        <ele>264.2</ele>
        <time>2021-11-21T12:14:48Z</time>
      </trkpt>
      <trkpt lat="45.20995" lon="5.74061">
        <ele>264.6</ele>
        <time>2021-11-21T12:14:49Z</time>
      </trkpt>
      <trkpt lat="45.20994" lon="5.74053">
        <ele>265.6</ele>
        <time>2021-11-21T12:14:50Z</time>
      </trkpt>
      <trkpt lat="45.20992" lon="5.74045">
        <ele>266.4</ele>
        <time>2021-11-21T12:14:51Z</time>
      </trkpt>
      <trkpt lat="45.20989" lon="5.74038">
        <ele>266.4</ele>
        <time>2021-11-21T12:14:52Z</time>
      </trkpt>
      <trkpt lat="45.20986" lon="5.74032">
        <ele>266.8</ele>
        <time>2021-11-21T12:14:53Z</time>
      </trkpt>
      <trkpt lat="45.20983" lon="5.74026">
        <ele>267.2</ele>
        <time>2021-11-21T12:14:54Z</time>
      </trkpt>
      <trkpt lat="45.20979" lon="5.74021">
        <ele>267.8</ele>
        <time>2021-11-21T12:14:55Z</time>
      </trkpt>
      <trkpt lat="45.20974" lon="5.74015">
        <ele>268.2</ele>
        <time>2021-11-21T12:14:56Z</time>
      </trkpt>
      <trkpt lat="45.20971" lon="5.74009">
        <ele>268.6</ele>
        <time>2021-11-21T12:14:57Z</time>
      </trkpt>
      <trkpt lat="45.20967" lon="5.74003">
        <ele>269.2</ele>
        <time>2021-11-21T12:14:58Z</time>
      </trkpt>
      <trkpt lat="45.20963" lon="5.73998">
        <ele>269.8</ele>
        <time>2021-11-21T12:14:59Z</time>
      </trkpt>
      <trkpt lat="45.20959" lon="5.73994">
        <ele>270.4</ele>
        <time>2021-11-21T12:15:00Z</time>
      </trkpt>
      <trkpt lat="45.20955" lon="5.73989">
        <ele>271.2</ele>
        <time>2021-11-21T12:15:01Z</time>
      </trkpt>
      <trkpt lat="45.20952" lon="5.73983">
        <ele>271.6</ele>
        <time>2021-11-21T12:15:02Z</time>
      </trkpt>
      <trkpt lat="45.20949" lon="5.73977">
        <ele>271.8</ele>
        <time>2021-11-21T12:15:03Z</time>
      </trkpt>
      <trkpt lat="45.20948" lon="5.7397">
        <ele>272.4</ele>
        <time>2021-11-21T12:15:04Z</time>
      </trkpt>
      <trkpt lat="45.20947" lon="5.73963">
        <ele>273.2</ele>
        <time>2021-11-21T12:15:05Z</time>
      </trkpt>
      <trkpt lat="45.20947" lon="5.73957">
        <ele>273.6</ele>
        <time>2021-11-21T12:15:06Z</time>
      </trkpt>
      <trkpt lat="45.20947" lon="5.73952">
        <ele>274.4</ele>
        <time>2021-11-21T12:15:07Z</time>
      </trkpt>
      <trkpt lat="45.20946" lon="5.73946">
        <ele>275</ele>
        <time>2021-11-21T12:15:08Z</time>
      </trkpt>
      <trkpt lat="45.20946" lon="5.7394">
        <ele>275.2</ele>
        <time>2021-11-21T12:15:09Z</time>
      </trkpt>
      <trkpt lat="45.20947" lon="5.73935">
        <ele>275.8</ele>
        <time>2021-11-21T12:15:10Z</time>
      </trkpt>
      <trkpt lat="45.20947" lon="5.73929">
        <ele>276.4</ele>
        <time>2021-11-21T12:15:11Z</time>
      </trkpt>
      <trkpt lat="45.20946" lon="5.73924">
        <ele>277.2</ele>
        <time>2021-11-21T12:15:12Z</time>
      </trkpt>
      <trkpt lat="45.20946" lon="5.73918">
        <ele>277.8</ele>
        <time>2021-11-21T12:15:13Z</time>
      </trkpt>
      <trkpt lat="45.20946" lon="5.73913">
        <ele>278.4</ele>
        <time>2021-11-21T12:15:14Z</time>
      </trkpt>
      <trkpt lat="45.20945" lon="5.73908">
        <ele>279</ele>
        <time>2021-11-21T12:15:15Z</time>
      </trkpt>
      <trkpt lat="45.20945" lon="5.73902">
        <ele>279.2</ele>
        <time>2021-11-21T12:15:16Z</time>
      </trkpt>
      <trkpt lat="45.20945" lon="5.73897">
        <ele>279.8</ele>
        <time>2021-11-21T12:15:17Z</time>
      </trkpt>
      <trkpt lat="45.20944" lon="5.73891">
        <ele>280.8</ele>
        <time>2021-11-21T12:15:18Z</time>
      </trkpt>
      <trkpt lat="45.20944" lon="5.73885">
        <ele>281.4</ele>
        <time>2021-11-21T12:15:19Z</time>
      </trkpt>
      <trkpt lat="45.20943" lon="5.73879">
        <ele>282.2</ele>
        <time>2021-11-21T12:15:20Z</time>
      </trkpt>
      <trkpt lat="45.20944" lon="5.73874">
        <ele>282.6</ele>
        <time>2021-11-21T12:15:21Z</time>
      </trkpt>
      <trkpt lat="45.20946" lon="5.73869">
        <ele>283.2</ele>
        <time>2021-11-21T12:15:22Z</time>
      </trkpt>
      <trkpt lat="45.20949" lon="5.73866">
        <ele>283.8</ele>
        <time>2021-11-21T12:15:23Z</time>
      </trkpt>
      <trkpt lat="45.20953" lon="5.73865">
        <ele>284.2</ele>
        <time>2021-11-21T12:15:24Z</time>
      </trkpt>
      <trkpt lat="45.20957" lon="5.73866">
        <ele>284.8</ele>
        <time>2021-11-21T12:15:25Z</time>
      </trkpt>
      <trkpt lat="45.2096" lon="5.73869">
        <ele>285.4</ele>
        <time>2021-11-21T12:15:26Z</time>
      </trkpt>
      <trkpt lat="45.20963" lon="5.73873">
        <ele>286</ele>
        <time>2021-11-21T12:15:27Z</time>
      </trkpt>
      <trkpt lat="45.20967" lon="5.73877">
        <ele>286.4</ele>
        <time>2021-11-21T12:15:28Z</time>
      </trkpt>
      <trkpt lat="45.2097" lon="5.73881">
        <ele>286.8</ele>
        <time>2021-11-21T12:15:29Z</time>
      </trkpt>
      <trkpt lat="45.20974" lon="5.73885">
        <ele>287.4</ele>
        <time>2021-11-21T12:15:30Z</time>
      </trkpt>
      <trkpt lat="45.20978" lon="5.73889">
        <ele>288.2</ele>
        <time>2021-11-21T12:15:31Z</time>
      </trkpt>
      <trkpt lat="45.20982" lon="5.73892">
        <ele>289</ele>
        <time>2021-11-21T12:15:32Z</time>
      </trkpt>
      <trkpt lat="45.20987" lon="5.73894">
        <ele>289.6</ele>
        <time>2021-11-21T12:15:33Z</time>
      </trkpt>
      <trkpt lat="45.20991" lon="5.73896">
        <ele>290.2</ele>
        <time>2021-11-21T12:15:34Z</time>
      </trkpt>
      <trkpt lat="45.20995" lon="5.73898">
        <ele>290.6</ele>
        <time>2021-11-21T12:15:35Z</time>
      </trkpt>
      <trkpt lat="45.20999" lon="5.739">
        <ele>291.2</ele>
        <time>2021-11-21T12:15:36Z</time>
      </trkpt>
      <trkpt lat="45.21004" lon="5.73902">
        <ele>291.8</ele>
        <time>2021-11-21T12:15:37Z</time>
      </trkpt>
      <trkpt lat="45.21007" lon="5.73904">
        <ele>292.4</ele>
        <time>2021-11-21T12:15:38Z</time>
      </trkpt>
      <trkpt lat="45.21011" lon="5.73905">
        <ele>293.2</ele>
        <time>2021-11-21T12:15:39Z</time>
      </trkpt>
      <trkpt lat="45.21015" lon="5.73906">
        <ele>293.6</ele>
        <time>2021-11-21T12:15:40Z</time>
      </trkpt>
      <trkpt lat="45.2102" lon="5.73908">
        <ele>294.4</ele>
        <time>2021-11-21T12:15:41Z</time>
      </trkpt>
      <trkpt lat="45.21025" lon="5.7391">
        <ele>294.8</ele>
        <time>2021-11-21T12:15:42Z</time>
      </trkpt>
      <trkpt lat="45.2103" lon="5.73912">
        <ele>295.4</ele>
        <time>2021-11-21T12:15:43Z</time>
      </trkpt>
      <trkpt lat="45.21034" lon="5.73915">
        <ele>296</ele>
        <time>2021-11-21T12:15:44Z</time>
      </trkpt>
      <trkpt lat="45.21039" lon="5.73918">
        <ele>296.6</ele>
        <time>2021-11-21T12:15:45Z</time>
      </trkpt>
      <trkpt lat="45.21043" lon="5.73922">
        <ele>297.4</ele>
        <time>2021-11-21T12:15:46Z</time>
      </trkpt>
      <trkpt lat="45.21053" lon="5.73928">
        <ele>298.6</ele>
        <time>2021-11-21T12:15:48Z</time>
      </trkpt>
      <trkpt lat="45.21063" lon="5.73935">
        <ele>300</ele>
        <time>2021-11-21T12:15:50Z</time>
      </trkpt>
      <trkpt lat="45.21068" lon="5.73939">
        <ele>300.2</ele>
        <time>2021-11-21T12:15:51Z</time>
      </trkpt>
      <trkpt lat="45.21073" lon="5.73944">
        <ele>300.8</ele>
        <time>2021-11-21T12:15:52Z</time>
      </trkpt>
      <trkpt lat="45.21078" lon="5.7395">
        <ele>301.2</ele>
        <time>2021-11-21T12:15:53Z</time>
      </trkpt>
      <trkpt lat="45.21082" lon="5.73955">
        <ele>301.4</ele>
        <time>2021-11-21T12:15:54Z</time>
      </trkpt>
      <trkpt lat="45.21086" lon="5.73961">
        <ele>302.2</ele>
        <time>2021-11-21T12:15:55Z</time>
      </trkpt>
      <trkpt lat="45.2109" lon="5.73967">
        <ele>302.4</ele>
        <time>2021-11-21T12:15:56Z</time>
      </trkpt>
      <trkpt lat="45.21094" lon="5.73974">
        <ele>302.6</ele>
        <time>2021-11-21T12:15:57Z</time>
      </trkpt>
      <trkpt lat="45.21097" lon="5.73981">
        <ele>303</ele>
        <time>2021-11-21T12:15:58Z</time>
      </trkpt>
      <trkpt lat="45.211" lon="5.73987">
        <ele>303.2</ele>
        <time>2021-11-21T12:15:59Z</time>
      </trkpt>
      <trkpt lat="45.21103" lon="5.73994">
        <ele>303.6</ele>
        <time>2021-11-21T12:16:00Z</time>
      </trkpt>
      <trkpt lat="45.21106" lon="5.74001">
        <ele>304.2</ele>
        <time>2021-11-21T12:16:01Z</time>
      </trkpt>
      <trkpt lat="45.21109" lon="5.74008">
        <ele>304.8</ele>
        <time>2021-11-21T12:16:02Z</time>
      </trkpt>
      <trkpt lat="45.21111" lon="5.74015">
        <ele>305.2</ele>
        <time>2021-11-21T12:16:03Z</time>
      </trkpt>
      <trkpt lat="45.21113" lon="5.74022">
        <ele>306</ele>
        <time>2021-11-21T12:16:04Z</time>
      </trkpt>
      <trkpt lat="45.21115" lon="5.7403">
        <ele>306.4</ele>
        <time>2021-11-21T12:16:05Z</time>
      </trkpt>
      <trkpt lat="45.21117" lon="5.74038">
        <ele>307</ele>
        <time>2021-11-21T12:16:06Z</time>
      </trkpt>
      <trkpt lat="45.21118" lon="5.74046">
        <ele>307.6</ele>
        <time>2021-11-21T12:16:07Z</time>
      </trkpt>
      <trkpt lat="45.21119" lon="5.74054">
        <ele>308.2</ele>
        <time>2021-11-21T12:16:08Z</time>
      </trkpt>
      <trkpt lat="45.2112" lon="5.74062">
        <ele>308.6</ele>
        <time>2021-11-21T12:16:09Z</time>
      </trkpt>
      <trkpt lat="45.21121" lon="5.74071">
        <ele>308.8</ele>
        <time>2021-11-21T12:16:10Z</time>
      </trkpt>
      <trkpt lat="45.21122" lon="5.74079">
        <ele>309</ele>
        <time>2021-11-21T12:16:11Z</time>
      </trkpt>
      <trkpt lat="45.21122" lon="5.74087">
        <ele>309.4</ele>
        <time>2021-11-21T12:16:12Z</time>
      </trkpt>
      <trkpt lat="45.21122" lon="5.74095">
        <ele>310.2</ele>
        <time>2021-11-21T12:16:13Z</time>
      </trkpt>
    </trkseg>
  </trk>
</gpx>